<?xml version="1.0" encoding="UTF-8" standalone="no" ?>
<gpx xmlns="http://www.topografix.com/GPX/1/1" xmlns:xsi="http://www.w3.org/2001/XMLSchema-instance" xsi:schemaLocation="http://www.topografix.com/GPX/1/1 http://www.topografix.com/GPX/1/1/gpx.xsd" version="1.1" creator="VisuGPX - https://www.visugpx.com">
  <metadata>
    <name>Course à pied du midi</name>
  </metadata>
  <trk>
    <name><![CDATA[Course à pied du midi]]></name>
    <trkseg>
      <trkpt lat="44.02707" lon="3.69939">
        <ele>397.9</ele>
        <time>2022-04-15T09:14:53Z</time>
      </trkpt>
      <trkpt lat="44.02707" lon="3.69938">
        <ele>398</ele>
        <time>2022-04-15T09:14:54Z</time>
      </trkpt>
      <trkpt lat="44.02709" lon="3.69938">
        <ele>398.2</ele>
        <time>2022-04-15T09:14:56Z</time>
      </trkpt>
      <trkpt lat="44.02709" lon="3.69937">
        <ele>398.3</ele>
        <time>2022-04-15T09:14:57Z</time>
      </trkpt>
      <trkpt lat="44.02711" lon="3.69937">
        <ele>398.4</ele>
        <time>2022-04-15T09:14:58Z</time>
      </trkpt>
      <trkpt lat="44.02712" lon="3.69937">
        <ele>398.5</ele>
        <time>2022-04-15T09:14:59Z</time>
      </trkpt>
      <trkpt lat="44.02713" lon="3.69938">
        <ele>398.7</ele>
        <time>2022-04-15T09:15:00Z</time>
      </trkpt>
      <trkpt lat="44.02713" lon="3.69941">
        <ele>399</ele>
        <time>2022-04-15T09:15:02Z</time>
      </trkpt>
      <trkpt lat="44.02713" lon="3.69943">
        <ele>399.1</ele>
        <time>2022-04-15T09:15:03Z</time>
      </trkpt>
      <trkpt lat="44.02714" lon="3.69944">
        <ele>399.3</ele>
        <time>2022-04-15T09:15:04Z</time>
      </trkpt>
      <trkpt lat="44.02715" lon="3.69947">
        <ele>399.5</ele>
        <time>2022-04-15T09:15:05Z</time>
      </trkpt>
      <trkpt lat="44.02716" lon="3.6995">
        <ele>399.8</ele>
        <time>2022-04-15T09:15:07Z</time>
      </trkpt>
      <trkpt lat="44.02716" lon="3.69951">
        <ele>399.9</ele>
        <time>2022-04-15T09:15:08Z</time>
      </trkpt>
      <trkpt lat="44.02718" lon="3.69955">
        <ele>400.3</ele>
        <time>2022-04-15T09:15:10Z</time>
      </trkpt>
      <trkpt lat="44.0272" lon="3.69958">
        <ele>400.7</ele>
        <time>2022-04-15T09:15:11Z</time>
      </trkpt>
      <trkpt lat="44.02722" lon="3.69961">
        <ele>401.1</ele>
        <time>2022-04-15T09:15:13Z</time>
      </trkpt>
      <trkpt lat="44.02723" lon="3.69962">
        <ele>401.2</ele>
        <time>2022-04-15T09:15:14Z</time>
      </trkpt>
      <trkpt lat="44.02725" lon="3.69962">
        <ele>401.4</ele>
        <time>2022-04-15T09:15:15Z</time>
      </trkpt>
      <trkpt lat="44.02727" lon="3.69963">
        <ele>401.7</ele>
        <time>2022-04-15T09:15:16Z</time>
      </trkpt>
      <trkpt lat="44.0273" lon="3.69965">
        <ele>402.1</ele>
        <time>2022-04-15T09:15:17Z</time>
      </trkpt>
      <trkpt lat="44.02732" lon="3.69965">
        <ele>402.3</ele>
        <time>2022-04-15T09:15:18Z</time>
      </trkpt>
      <trkpt lat="44.02736" lon="3.69966">
        <ele>402.9</ele>
        <time>2022-04-15T09:15:20Z</time>
      </trkpt>
      <trkpt lat="44.02738" lon="3.69966">
        <ele>403</ele>
        <time>2022-04-15T09:15:21Z</time>
      </trkpt>
      <trkpt lat="44.02739" lon="3.69966">
        <ele>403.2</ele>
        <time>2022-04-15T09:15:22Z</time>
      </trkpt>
      <trkpt lat="44.02742" lon="3.69966">
        <ele>403.6</ele>
        <time>2022-04-15T09:15:23Z</time>
      </trkpt>
      <trkpt lat="44.02745" lon="3.69965">
        <ele>404</ele>
        <time>2022-04-15T09:15:25Z</time>
      </trkpt>
      <trkpt lat="44.02746" lon="3.69964">
        <ele>404.1</ele>
        <time>2022-04-15T09:15:26Z</time>
      </trkpt>
      <trkpt lat="44.02748" lon="3.69963">
        <ele>404.3</ele>
        <time>2022-04-15T09:15:27Z</time>
      </trkpt>
      <trkpt lat="44.02749" lon="3.69962">
        <ele>404.5</ele>
        <time>2022-04-15T09:15:28Z</time>
      </trkpt>
      <trkpt lat="44.02752" lon="3.69961">
        <ele>404.9</ele>
        <time>2022-04-15T09:15:29Z</time>
      </trkpt>
      <trkpt lat="44.02753" lon="3.69961">
        <ele>405</ele>
        <time>2022-04-15T09:15:30Z</time>
      </trkpt>
      <trkpt lat="44.02754" lon="3.6996">
        <ele>405.2</ele>
        <time>2022-04-15T09:15:31Z</time>
      </trkpt>
      <trkpt lat="44.02754" lon="3.69958">
        <ele>405.3</ele>
        <time>2022-04-15T09:15:32Z</time>
      </trkpt>
      <trkpt lat="44.02755" lon="3.69958">
        <ele>405.4</ele>
        <time>2022-04-15T09:15:33Z</time>
      </trkpt>
      <trkpt lat="44.02757" lon="3.69958">
        <ele>405.6</ele>
        <time>2022-04-15T09:15:34Z</time>
      </trkpt>
      <trkpt lat="44.02758" lon="3.69958">
        <ele>405.7</ele>
        <time>2022-04-15T09:15:35Z</time>
      </trkpt>
      <trkpt lat="44.02758" lon="3.69958">
        <ele>405.8</ele>
        <time>2022-04-15T09:15:36Z</time>
      </trkpt>
      <trkpt lat="44.02759" lon="3.69958">
        <ele>405.8</ele>
        <time>2022-04-15T09:15:37Z</time>
      </trkpt>
      <trkpt lat="44.02761" lon="3.69957">
        <ele>406.1</ele>
        <time>2022-04-15T09:15:39Z</time>
      </trkpt>
      <trkpt lat="44.02761" lon="3.69956">
        <ele>406.2</ele>
        <time>2022-04-15T09:15:40Z</time>
      </trkpt>
      <trkpt lat="44.02761" lon="3.69956">
        <ele>406.2</ele>
        <time>2022-04-15T09:15:41Z</time>
      </trkpt>
      <trkpt lat="44.02762" lon="3.69956">
        <ele>406.3</ele>
        <time>2022-04-15T09:15:42Z</time>
      </trkpt>
      <trkpt lat="44.02764" lon="3.69954">
        <ele>406.7</ele>
        <time>2022-04-15T09:15:44Z</time>
      </trkpt>
      <trkpt lat="44.02766" lon="3.69952">
        <ele>406.9</ele>
        <time>2022-04-15T09:15:45Z</time>
      </trkpt>
      <trkpt lat="44.02767" lon="3.69951">
        <ele>407.1</ele>
        <time>2022-04-15T09:15:46Z</time>
      </trkpt>
      <trkpt lat="44.02769" lon="3.69951">
        <ele>407.3</ele>
        <time>2022-04-15T09:15:47Z</time>
      </trkpt>
      <trkpt lat="44.0277" lon="3.6995">
        <ele>407.4</ele>
        <time>2022-04-15T09:15:48Z</time>
      </trkpt>
      <trkpt lat="44.02771" lon="3.6995">
        <ele>407.6</ele>
        <time>2022-04-15T09:15:49Z</time>
      </trkpt>
      <trkpt lat="44.02774" lon="3.6995">
        <ele>407.9</ele>
        <time>2022-04-15T09:15:51Z</time>
      </trkpt>
      <trkpt lat="44.02777" lon="3.69951">
        <ele>408.3</ele>
        <time>2022-04-15T09:15:53Z</time>
      </trkpt>
      <trkpt lat="44.02778" lon="3.69951">
        <ele>408.5</ele>
        <time>2022-04-15T09:15:54Z</time>
      </trkpt>
      <trkpt lat="44.02781" lon="3.69951">
        <ele>408.8</ele>
        <time>2022-04-15T09:15:55Z</time>
      </trkpt>
      <trkpt lat="44.02784" lon="3.69952">
        <ele>409.2</ele>
        <time>2022-04-15T09:15:57Z</time>
      </trkpt>
      <trkpt lat="44.02787" lon="3.69952">
        <ele>409.6</ele>
        <time>2022-04-15T09:15:58Z</time>
      </trkpt>
      <trkpt lat="44.02789" lon="3.69952">
        <ele>409.7</ele>
        <time>2022-04-15T09:15:59Z</time>
      </trkpt>
      <trkpt lat="44.02793" lon="3.69952">
        <ele>410.2</ele>
        <time>2022-04-15T09:16:00Z</time>
      </trkpt>
      <trkpt lat="44.02794" lon="3.69952">
        <ele>410.4</ele>
        <time>2022-04-15T09:16:01Z</time>
      </trkpt>
      <trkpt lat="44.02798" lon="3.69952">
        <ele>410.8</ele>
        <time>2022-04-15T09:16:02Z</time>
      </trkpt>
      <trkpt lat="44.02801" lon="3.69953">
        <ele>411.3</ele>
        <time>2022-04-15T09:16:04Z</time>
      </trkpt>
      <trkpt lat="44.02805" lon="3.69953">
        <ele>411.8</ele>
        <time>2022-04-15T09:16:05Z</time>
      </trkpt>
      <trkpt lat="44.02807" lon="3.69953">
        <ele>412</ele>
        <time>2022-04-15T09:16:06Z</time>
      </trkpt>
      <trkpt lat="44.02811" lon="3.69954">
        <ele>412.4</ele>
        <time>2022-04-15T09:16:07Z</time>
      </trkpt>
      <trkpt lat="44.02815" lon="3.69955">
        <ele>413</ele>
        <time>2022-04-15T09:16:09Z</time>
      </trkpt>
      <trkpt lat="44.0282" lon="3.69956">
        <ele>413.6</ele>
        <time>2022-04-15T09:16:11Z</time>
      </trkpt>
      <trkpt lat="44.02824" lon="3.69957">
        <ele>414.1</ele>
        <time>2022-04-15T09:16:12Z</time>
      </trkpt>
      <trkpt lat="44.02827" lon="3.69957">
        <ele>414.5</ele>
        <time>2022-04-15T09:16:13Z</time>
      </trkpt>
      <trkpt lat="44.02829" lon="3.69957">
        <ele>414.7</ele>
        <time>2022-04-15T09:16:14Z</time>
      </trkpt>
      <trkpt lat="44.02832" lon="3.69957">
        <ele>415</ele>
        <time>2022-04-15T09:16:16Z</time>
      </trkpt>
      <trkpt lat="44.02835" lon="3.69958">
        <ele>415.4</ele>
        <time>2022-04-15T09:16:17Z</time>
      </trkpt>
      <trkpt lat="44.02837" lon="3.69957">
        <ele>415.6</ele>
        <time>2022-04-15T09:16:18Z</time>
      </trkpt>
      <trkpt lat="44.02838" lon="3.69957">
        <ele>415.8</ele>
        <time>2022-04-15T09:16:19Z</time>
      </trkpt>
      <trkpt lat="44.02842" lon="3.69958">
        <ele>416.2</ele>
        <time>2022-04-15T09:16:20Z</time>
      </trkpt>
      <trkpt lat="44.02843" lon="3.69958">
        <ele>416.5</ele>
        <time>2022-04-15T09:16:21Z</time>
      </trkpt>
      <trkpt lat="44.02845" lon="3.69958">
        <ele>416.7</ele>
        <time>2022-04-15T09:16:23Z</time>
      </trkpt>
      <trkpt lat="44.02847" lon="3.69958">
        <ele>416.9</ele>
        <time>2022-04-15T09:16:24Z</time>
      </trkpt>
      <trkpt lat="44.0285" lon="3.69959">
        <ele>417.3</ele>
        <time>2022-04-15T09:16:26Z</time>
      </trkpt>
      <trkpt lat="44.02853" lon="3.6996">
        <ele>417.6</ele>
        <time>2022-04-15T09:16:27Z</time>
      </trkpt>
      <trkpt lat="44.02856" lon="3.69959">
        <ele>418</ele>
        <time>2022-04-15T09:16:29Z</time>
      </trkpt>
      <trkpt lat="44.02857" lon="3.69959">
        <ele>418.1</ele>
        <time>2022-04-15T09:16:30Z</time>
      </trkpt>
      <trkpt lat="44.02858" lon="3.69959">
        <ele>418.3</ele>
        <time>2022-04-15T09:16:31Z</time>
      </trkpt>
      <trkpt lat="44.0286" lon="3.69959">
        <ele>418.5</ele>
        <time>2022-04-15T09:16:32Z</time>
      </trkpt>
      <trkpt lat="44.02861" lon="3.69958">
        <ele>418.7</ele>
        <time>2022-04-15T09:16:33Z</time>
      </trkpt>
      <trkpt lat="44.02863" lon="3.69958">
        <ele>418.9</ele>
        <time>2022-04-15T09:16:34Z</time>
      </trkpt>
      <trkpt lat="44.02865" lon="3.69957">
        <ele>419.1</ele>
        <time>2022-04-15T09:16:35Z</time>
      </trkpt>
      <trkpt lat="44.02867" lon="3.69957">
        <ele>419.3</ele>
        <time>2022-04-15T09:16:37Z</time>
      </trkpt>
      <trkpt lat="44.0287" lon="3.69956">
        <ele>419.8</ele>
        <time>2022-04-15T09:16:38Z</time>
      </trkpt>
      <trkpt lat="44.02871" lon="3.69956">
        <ele>419.9</ele>
        <time>2022-04-15T09:16:39Z</time>
      </trkpt>
      <trkpt lat="44.02873" lon="3.69956">
        <ele>420.1</ele>
        <time>2022-04-15T09:16:40Z</time>
      </trkpt>
      <trkpt lat="44.02876" lon="3.69957">
        <ele>420.4</ele>
        <time>2022-04-15T09:16:42Z</time>
      </trkpt>
      <trkpt lat="44.02878" lon="3.69957">
        <ele>420.7</ele>
        <time>2022-04-15T09:16:43Z</time>
      </trkpt>
      <trkpt lat="44.0288" lon="3.69957">
        <ele>421</ele>
        <time>2022-04-15T09:16:45Z</time>
      </trkpt>
      <trkpt lat="44.02883" lon="3.69957">
        <ele>421.4</ele>
        <time>2022-04-15T09:16:46Z</time>
      </trkpt>
      <trkpt lat="44.02885" lon="3.69957">
        <ele>421.6</ele>
        <time>2022-04-15T09:16:47Z</time>
      </trkpt>
      <trkpt lat="44.02887" lon="3.69958">
        <ele>421.8</ele>
        <time>2022-04-15T09:16:48Z</time>
      </trkpt>
      <trkpt lat="44.02888" lon="3.69958">
        <ele>422</ele>
        <time>2022-04-15T09:16:49Z</time>
      </trkpt>
      <trkpt lat="44.02891" lon="3.69957">
        <ele>422.3</ele>
        <time>2022-04-15T09:16:51Z</time>
      </trkpt>
      <trkpt lat="44.02892" lon="3.69957">
        <ele>422.5</ele>
        <time>2022-04-15T09:16:52Z</time>
      </trkpt>
      <trkpt lat="44.02894" lon="3.69956">
        <ele>422.7</ele>
        <time>2022-04-15T09:16:53Z</time>
      </trkpt>
      <trkpt lat="44.02895" lon="3.69955">
        <ele>422.9</ele>
        <time>2022-04-15T09:16:54Z</time>
      </trkpt>
      <trkpt lat="44.02899" lon="3.69954">
        <ele>423.4</ele>
        <time>2022-04-15T09:16:57Z</time>
      </trkpt>
      <trkpt lat="44.02901" lon="3.69954">
        <ele>423.6</ele>
        <time>2022-04-15T09:16:58Z</time>
      </trkpt>
      <trkpt lat="44.02902" lon="3.69953">
        <ele>423.7</ele>
        <time>2022-04-15T09:16:59Z</time>
      </trkpt>
      <trkpt lat="44.02903" lon="3.69953">
        <ele>423.9</ele>
        <time>2022-04-15T09:17:00Z</time>
      </trkpt>
      <trkpt lat="44.02906" lon="3.69952">
        <ele>424.2</ele>
        <time>2022-04-15T09:17:02Z</time>
      </trkpt>
      <trkpt lat="44.02908" lon="3.69951">
        <ele>424.5</ele>
        <time>2022-04-15T09:17:03Z</time>
      </trkpt>
      <trkpt lat="44.0291" lon="3.69951">
        <ele>424.7</ele>
        <time>2022-04-15T09:17:05Z</time>
      </trkpt>
      <trkpt lat="44.02911" lon="3.6995">
        <ele>424.9</ele>
        <time>2022-04-15T09:17:06Z</time>
      </trkpt>
      <trkpt lat="44.02913" lon="3.6995">
        <ele>425.1</ele>
        <time>2022-04-15T09:17:07Z</time>
      </trkpt>
      <trkpt lat="44.02914" lon="3.69949">
        <ele>425.3</ele>
        <time>2022-04-15T09:17:08Z</time>
      </trkpt>
      <trkpt lat="44.02917" lon="3.69948">
        <ele>425.6</ele>
        <time>2022-04-15T09:17:10Z</time>
      </trkpt>
      <trkpt lat="44.02919" lon="3.69946">
        <ele>426</ele>
        <time>2022-04-15T09:17:11Z</time>
      </trkpt>
      <trkpt lat="44.02922" lon="3.69945">
        <ele>426.3</ele>
        <time>2022-04-15T09:17:13Z</time>
      </trkpt>
      <trkpt lat="44.02923" lon="3.69944">
        <ele>426.5</ele>
        <time>2022-04-15T09:17:14Z</time>
      </trkpt>
      <trkpt lat="44.02926" lon="3.69943">
        <ele>426.8</ele>
        <time>2022-04-15T09:17:16Z</time>
      </trkpt>
      <trkpt lat="44.02927" lon="3.69942">
        <ele>426.9</ele>
        <time>2022-04-15T09:17:17Z</time>
      </trkpt>
      <trkpt lat="44.02928" lon="3.69942">
        <ele>427.1</ele>
        <time>2022-04-15T09:17:18Z</time>
      </trkpt>
      <trkpt lat="44.0293" lon="3.69941">
        <ele>427.3</ele>
        <time>2022-04-15T09:17:19Z</time>
      </trkpt>
      <trkpt lat="44.02932" lon="3.6994">
        <ele>427.6</ele>
        <time>2022-04-15T09:17:20Z</time>
      </trkpt>
      <trkpt lat="44.02933" lon="3.6994">
        <ele>427.8</ele>
        <time>2022-04-15T09:17:21Z</time>
      </trkpt>
      <trkpt lat="44.02935" lon="3.69939">
        <ele>427.9</ele>
        <time>2022-04-15T09:17:23Z</time>
      </trkpt>
      <trkpt lat="44.02937" lon="3.69939">
        <ele>428.2</ele>
        <time>2022-04-15T09:17:24Z</time>
      </trkpt>
      <trkpt lat="44.02938" lon="3.69938">
        <ele>428.3</ele>
        <time>2022-04-15T09:17:25Z</time>
      </trkpt>
      <trkpt lat="44.0294" lon="3.69937">
        <ele>428.6</ele>
        <time>2022-04-15T09:17:26Z</time>
      </trkpt>
      <trkpt lat="44.02942" lon="3.69937">
        <ele>428.8</ele>
        <time>2022-04-15T09:17:27Z</time>
      </trkpt>
      <trkpt lat="44.02943" lon="3.69937">
        <ele>429</ele>
        <time>2022-04-15T09:17:28Z</time>
      </trkpt>
      <trkpt lat="44.02945" lon="3.69936">
        <ele>429.3</ele>
        <time>2022-04-15T09:17:30Z</time>
      </trkpt>
      <trkpt lat="44.02947" lon="3.69936">
        <ele>429.4</ele>
        <time>2022-04-15T09:17:31Z</time>
      </trkpt>
      <trkpt lat="44.02949" lon="3.69935">
        <ele>429.7</ele>
        <time>2022-04-15T09:17:32Z</time>
      </trkpt>
      <trkpt lat="44.02951" lon="3.69935">
        <ele>430</ele>
        <time>2022-04-15T09:17:34Z</time>
      </trkpt>
      <trkpt lat="44.02953" lon="3.69935">
        <ele>430.2</ele>
        <time>2022-04-15T09:17:35Z</time>
      </trkpt>
      <trkpt lat="44.02955" lon="3.69935">
        <ele>430.4</ele>
        <time>2022-04-15T09:17:36Z</time>
      </trkpt>
      <trkpt lat="44.02958" lon="3.69935">
        <ele>430.8</ele>
        <time>2022-04-15T09:17:37Z</time>
      </trkpt>
      <trkpt lat="44.02959" lon="3.69935">
        <ele>431</ele>
        <time>2022-04-15T09:17:38Z</time>
      </trkpt>
      <trkpt lat="44.02961" lon="3.69935">
        <ele>431.2</ele>
        <time>2022-04-15T09:17:39Z</time>
      </trkpt>
      <trkpt lat="44.02964" lon="3.69935">
        <ele>431.5</ele>
        <time>2022-04-15T09:17:41Z</time>
      </trkpt>
      <trkpt lat="44.02967" lon="3.69935">
        <ele>431.9</ele>
        <time>2022-04-15T09:17:42Z</time>
      </trkpt>
      <trkpt lat="44.0297" lon="3.69934">
        <ele>432.3</ele>
        <time>2022-04-15T09:17:43Z</time>
      </trkpt>
      <trkpt lat="44.02971" lon="3.69934">
        <ele>432.4</ele>
        <time>2022-04-15T09:17:44Z</time>
      </trkpt>
      <trkpt lat="44.02974" lon="3.69933">
        <ele>432.8</ele>
        <time>2022-04-15T09:17:45Z</time>
      </trkpt>
      <trkpt lat="44.02978" lon="3.69932">
        <ele>433.3</ele>
        <time>2022-04-15T09:17:47Z</time>
      </trkpt>
      <trkpt lat="44.02981" lon="3.6993">
        <ele>433.7</ele>
        <time>2022-04-15T09:17:48Z</time>
      </trkpt>
      <trkpt lat="44.02982" lon="3.6993">
        <ele>433.8</ele>
        <time>2022-04-15T09:17:49Z</time>
      </trkpt>
      <trkpt lat="44.02985" lon="3.69929">
        <ele>434.2</ele>
        <time>2022-04-15T09:17:50Z</time>
      </trkpt>
      <trkpt lat="44.02986" lon="3.69928">
        <ele>434.3</ele>
        <time>2022-04-15T09:17:51Z</time>
      </trkpt>
      <trkpt lat="44.02988" lon="3.69928">
        <ele>434.5</ele>
        <time>2022-04-15T09:17:52Z</time>
      </trkpt>
      <trkpt lat="44.02989" lon="3.69927">
        <ele>434.7</ele>
        <time>2022-04-15T09:17:53Z</time>
      </trkpt>
      <trkpt lat="44.02992" lon="3.69927">
        <ele>435.1</ele>
        <time>2022-04-15T09:17:54Z</time>
      </trkpt>
      <trkpt lat="44.02995" lon="3.69926">
        <ele>435.4</ele>
        <time>2022-04-15T09:17:56Z</time>
      </trkpt>
      <trkpt lat="44.02999" lon="3.69925">
        <ele>435.9</ele>
        <time>2022-04-15T09:17:57Z</time>
      </trkpt>
      <trkpt lat="44.03001" lon="3.69924">
        <ele>436.1</ele>
        <time>2022-04-15T09:17:58Z</time>
      </trkpt>
      <trkpt lat="44.03004" lon="3.69923">
        <ele>436.6</ele>
        <time>2022-04-15T09:18:00Z</time>
      </trkpt>
      <trkpt lat="44.03008" lon="3.69921">
        <ele>437</ele>
        <time>2022-04-15T09:18:01Z</time>
      </trkpt>
      <trkpt lat="44.03009" lon="3.69921">
        <ele>437.2</ele>
        <time>2022-04-15T09:18:02Z</time>
      </trkpt>
      <trkpt lat="44.03012" lon="3.69919">
        <ele>437.6</ele>
        <time>2022-04-15T09:18:03Z</time>
      </trkpt>
      <trkpt lat="44.03013" lon="3.69919">
        <ele>437.7</ele>
        <time>2022-04-15T09:18:04Z</time>
      </trkpt>
      <trkpt lat="44.03017" lon="3.69918">
        <ele>438.2</ele>
        <time>2022-04-15T09:18:05Z</time>
      </trkpt>
      <trkpt lat="44.03018" lon="3.69918">
        <ele>438.4</ele>
        <time>2022-04-15T09:18:06Z</time>
      </trkpt>
      <trkpt lat="44.03022" lon="3.69916">
        <ele>438.8</ele>
        <time>2022-04-15T09:18:08Z</time>
      </trkpt>
      <trkpt lat="44.03023" lon="3.69916">
        <ele>438.9</ele>
        <time>2022-04-15T09:18:09Z</time>
      </trkpt>
      <trkpt lat="44.03025" lon="3.69914">
        <ele>439.3</ele>
        <time>2022-04-15T09:18:10Z</time>
      </trkpt>
      <trkpt lat="44.03026" lon="3.69914">
        <ele>439.4</ele>
        <time>2022-04-15T09:18:11Z</time>
      </trkpt>
      <trkpt lat="44.03028" lon="3.69912">
        <ele>439.7</ele>
        <time>2022-04-15T09:18:12Z</time>
      </trkpt>
      <trkpt lat="44.03031" lon="3.69911">
        <ele>440.1</ele>
        <time>2022-04-15T09:18:14Z</time>
      </trkpt>
      <trkpt lat="44.03034" lon="3.69909">
        <ele>440.5</ele>
        <time>2022-04-15T09:18:15Z</time>
      </trkpt>
      <trkpt lat="44.03035" lon="3.69908">
        <ele>440.6</ele>
        <time>2022-04-15T09:18:16Z</time>
      </trkpt>
      <trkpt lat="44.03038" lon="3.69906">
        <ele>441</ele>
        <time>2022-04-15T09:18:17Z</time>
      </trkpt>
      <trkpt lat="44.03039" lon="3.69905">
        <ele>441.2</ele>
        <time>2022-04-15T09:18:18Z</time>
      </trkpt>
      <trkpt lat="44.03041" lon="3.69903">
        <ele>441.4</ele>
        <time>2022-04-15T09:18:19Z</time>
      </trkpt>
      <trkpt lat="44.03042" lon="3.69902">
        <ele>441.7</ele>
        <time>2022-04-15T09:18:21Z</time>
      </trkpt>
      <trkpt lat="44.03045" lon="3.69899">
        <ele>442.1</ele>
        <time>2022-04-15T09:18:22Z</time>
      </trkpt>
      <trkpt lat="44.03048" lon="3.69897">
        <ele>442.4</ele>
        <time>2022-04-15T09:18:23Z</time>
      </trkpt>
      <trkpt lat="44.03048" lon="3.69897">
        <ele>442.5</ele>
        <time>2022-04-15T09:18:24Z</time>
      </trkpt>
      <trkpt lat="44.03051" lon="3.69894">
        <ele>442.9</ele>
        <time>2022-04-15T09:18:25Z</time>
      </trkpt>
      <trkpt lat="44.03052" lon="3.69894">
        <ele>443</ele>
        <time>2022-04-15T09:18:26Z</time>
      </trkpt>
      <trkpt lat="44.03055" lon="3.69891">
        <ele>443.4</ele>
        <time>2022-04-15T09:18:27Z</time>
      </trkpt>
      <trkpt lat="44.03058" lon="3.69889">
        <ele>443.9</ele>
        <time>2022-04-15T09:18:29Z</time>
      </trkpt>
      <trkpt lat="44.03059" lon="3.69888">
        <ele>444</ele>
        <time>2022-04-15T09:18:30Z</time>
      </trkpt>
      <trkpt lat="44.03062" lon="3.69886">
        <ele>444.5</ele>
        <time>2022-04-15T09:18:31Z</time>
      </trkpt>
      <trkpt lat="44.03063" lon="3.69884">
        <ele>444.7</ele>
        <time>2022-04-15T09:18:32Z</time>
      </trkpt>
      <trkpt lat="44.03068" lon="3.69881">
        <ele>445.3</ele>
        <time>2022-04-15T09:18:34Z</time>
      </trkpt>
      <trkpt lat="44.0307" lon="3.69879">
        <ele>445.6</ele>
        <time>2022-04-15T09:18:36Z</time>
      </trkpt>
      <trkpt lat="44.03072" lon="3.69878">
        <ele>445.8</ele>
        <time>2022-04-15T09:18:37Z</time>
      </trkpt>
      <trkpt lat="44.03074" lon="3.69877">
        <ele>446.1</ele>
        <time>2022-04-15T09:18:38Z</time>
      </trkpt>
      <trkpt lat="44.03078" lon="3.69875">
        <ele>446.6</ele>
        <time>2022-04-15T09:18:40Z</time>
      </trkpt>
      <trkpt lat="44.03079" lon="3.69875">
        <ele>446.7</ele>
        <time>2022-04-15T09:18:41Z</time>
      </trkpt>
      <trkpt lat="44.03082" lon="3.69873">
        <ele>447.2</ele>
        <time>2022-04-15T09:18:42Z</time>
      </trkpt>
      <trkpt lat="44.03083" lon="3.69873">
        <ele>447.3</ele>
        <time>2022-04-15T09:18:43Z</time>
      </trkpt>
      <trkpt lat="44.03086" lon="3.69872">
        <ele>447.6</ele>
        <time>2022-04-15T09:18:44Z</time>
      </trkpt>
      <trkpt lat="44.03088" lon="3.69871">
        <ele>447.9</ele>
        <time>2022-04-15T09:18:46Z</time>
      </trkpt>
      <trkpt lat="44.03091" lon="3.69869">
        <ele>448.3</ele>
        <time>2022-04-15T09:18:47Z</time>
      </trkpt>
      <trkpt lat="44.03091" lon="3.69865">
        <ele>448.6</ele>
        <time>2022-04-15T09:18:48Z</time>
      </trkpt>
      <trkpt lat="44.03092" lon="3.69864">
        <ele>448.7</ele>
        <time>2022-04-15T09:18:49Z</time>
      </trkpt>
      <trkpt lat="44.03091" lon="3.6986">
        <ele>449.1</ele>
        <time>2022-04-15T09:18:51Z</time>
      </trkpt>
      <trkpt lat="44.03091" lon="3.69859">
        <ele>449.2</ele>
        <time>2022-04-15T09:18:52Z</time>
      </trkpt>
      <trkpt lat="44.0309" lon="3.69857">
        <ele>449.4</ele>
        <time>2022-04-15T09:18:53Z</time>
      </trkpt>
      <trkpt lat="44.0309" lon="3.69854">
        <ele>449.6</ele>
        <time>2022-04-15T09:18:54Z</time>
      </trkpt>
      <trkpt lat="44.0309" lon="3.69852">
        <ele>449.8</ele>
        <time>2022-04-15T09:18:55Z</time>
      </trkpt>
      <trkpt lat="44.0309" lon="3.69848">
        <ele>450.2</ele>
        <time>2022-04-15T09:18:57Z</time>
      </trkpt>
      <trkpt lat="44.03091" lon="3.69847">
        <ele>450.3</ele>
        <time>2022-04-15T09:18:58Z</time>
      </trkpt>
      <trkpt lat="44.03092" lon="3.69845">
        <ele>450.5</ele>
        <time>2022-04-15T09:18:59Z</time>
      </trkpt>
      <trkpt lat="44.03093" lon="3.69844">
        <ele>450.7</ele>
        <time>2022-04-15T09:19:00Z</time>
      </trkpt>
      <trkpt lat="44.03095" lon="3.69842">
        <ele>450.9</ele>
        <time>2022-04-15T09:19:01Z</time>
      </trkpt>
      <trkpt lat="44.03097" lon="3.69839">
        <ele>451.3</ele>
        <time>2022-04-15T09:19:03Z</time>
      </trkpt>
      <trkpt lat="44.03099" lon="3.69839">
        <ele>451.6</ele>
        <time>2022-04-15T09:19:05Z</time>
      </trkpt>
      <trkpt lat="44.03102" lon="3.69838">
        <ele>452</ele>
        <time>2022-04-15T09:19:06Z</time>
      </trkpt>
      <trkpt lat="44.03106" lon="3.69838">
        <ele>452.4</ele>
        <time>2022-04-15T09:19:07Z</time>
      </trkpt>
      <trkpt lat="44.03107" lon="3.69838">
        <ele>452.6</ele>
        <time>2022-04-15T09:19:08Z</time>
      </trkpt>
      <trkpt lat="44.0311" lon="3.69837">
        <ele>453</ele>
        <time>2022-04-15T09:19:10Z</time>
      </trkpt>
      <trkpt lat="44.03112" lon="3.69837">
        <ele>453.1</ele>
        <time>2022-04-15T09:19:11Z</time>
      </trkpt>
      <trkpt lat="44.03114" lon="3.69836">
        <ele>453.5</ele>
        <time>2022-04-15T09:19:12Z</time>
      </trkpt>
      <trkpt lat="44.03117" lon="3.69834">
        <ele>453.8</ele>
        <time>2022-04-15T09:19:13Z</time>
      </trkpt>
      <trkpt lat="44.03118" lon="3.69834">
        <ele>454</ele>
        <time>2022-04-15T09:19:14Z</time>
      </trkpt>
      <trkpt lat="44.03122" lon="3.69831">
        <ele>454.5</ele>
        <time>2022-04-15T09:19:16Z</time>
      </trkpt>
      <trkpt lat="44.03123" lon="3.6983">
        <ele>454.6</ele>
        <time>2022-04-15T09:19:17Z</time>
      </trkpt>
      <trkpt lat="44.03126" lon="3.69828">
        <ele>455.1</ele>
        <time>2022-04-15T09:19:19Z</time>
      </trkpt>
      <trkpt lat="44.03127" lon="3.69827">
        <ele>455.2</ele>
        <time>2022-04-15T09:19:20Z</time>
      </trkpt>
      <trkpt lat="44.03128" lon="3.69827">
        <ele>455.4</ele>
        <time>2022-04-15T09:19:21Z</time>
      </trkpt>
      <trkpt lat="44.0313" lon="3.69825">
        <ele>455.6</ele>
        <time>2022-04-15T09:19:23Z</time>
      </trkpt>
      <trkpt lat="44.03132" lon="3.69822">
        <ele>456</ele>
        <time>2022-04-15T09:19:24Z</time>
      </trkpt>
      <trkpt lat="44.03133" lon="3.69821">
        <ele>456.1</ele>
        <time>2022-04-15T09:19:25Z</time>
      </trkpt>
      <trkpt lat="44.03136" lon="3.69819">
        <ele>456.5</ele>
        <time>2022-04-15T09:19:26Z</time>
      </trkpt>
      <trkpt lat="44.03137" lon="3.69817">
        <ele>456.7</ele>
        <time>2022-04-15T09:19:27Z</time>
      </trkpt>
      <trkpt lat="44.03139" lon="3.69814">
        <ele>457.1</ele>
        <time>2022-04-15T09:19:29Z</time>
      </trkpt>
      <trkpt lat="44.0314" lon="3.69812">
        <ele>457.3</ele>
        <time>2022-04-15T09:19:30Z</time>
      </trkpt>
      <trkpt lat="44.03143" lon="3.6981">
        <ele>457.7</ele>
        <time>2022-04-15T09:19:31Z</time>
      </trkpt>
      <trkpt lat="44.03144" lon="3.69808">
        <ele>457.9</ele>
        <time>2022-04-15T09:19:32Z</time>
      </trkpt>
      <trkpt lat="44.03147" lon="3.69805">
        <ele>458.4</ele>
        <time>2022-04-15T09:19:34Z</time>
      </trkpt>
      <trkpt lat="44.03148" lon="3.69804">
        <ele>458.5</ele>
        <time>2022-04-15T09:19:35Z</time>
      </trkpt>
      <trkpt lat="44.03149" lon="3.69803">
        <ele>458.7</ele>
        <time>2022-04-15T09:19:36Z</time>
      </trkpt>
      <trkpt lat="44.03151" lon="3.698">
        <ele>459</ele>
        <time>2022-04-15T09:19:37Z</time>
      </trkpt>
      <trkpt lat="44.03153" lon="3.69797">
        <ele>459.4</ele>
        <time>2022-04-15T09:19:38Z</time>
      </trkpt>
      <trkpt lat="44.03154" lon="3.69796">
        <ele>459.5</ele>
        <time>2022-04-15T09:19:39Z</time>
      </trkpt>
      <trkpt lat="44.03156" lon="3.69792">
        <ele>459.9</ele>
        <time>2022-04-15T09:19:40Z</time>
      </trkpt>
      <trkpt lat="44.03156" lon="3.69791">
        <ele>460</ele>
        <time>2022-04-15T09:19:41Z</time>
      </trkpt>
      <trkpt lat="44.03159" lon="3.69786">
        <ele>460.6</ele>
        <time>2022-04-15T09:19:43Z</time>
      </trkpt>
      <trkpt lat="44.0316" lon="3.69784">
        <ele>460.8</ele>
        <time>2022-04-15T09:19:44Z</time>
      </trkpt>
      <trkpt lat="44.03161" lon="3.69783">
        <ele>461</ele>
        <time>2022-04-15T09:19:45Z</time>
      </trkpt>
      <trkpt lat="44.03163" lon="3.6978">
        <ele>461.3</ele>
        <time>2022-04-15T09:19:46Z</time>
      </trkpt>
      <trkpt lat="44.03166" lon="3.69778">
        <ele>461.7</ele>
        <time>2022-04-15T09:19:48Z</time>
      </trkpt>
      <trkpt lat="44.03169" lon="3.69776">
        <ele>462.1</ele>
        <time>2022-04-15T09:19:49Z</time>
      </trkpt>
      <trkpt lat="44.0317" lon="3.69776">
        <ele>462.2</ele>
        <time>2022-04-15T09:19:50Z</time>
      </trkpt>
      <trkpt lat="44.03173" lon="3.69774">
        <ele>462.6</ele>
        <time>2022-04-15T09:19:51Z</time>
      </trkpt>
      <trkpt lat="44.03174" lon="3.69773">
        <ele>462.8</ele>
        <time>2022-04-15T09:19:52Z</time>
      </trkpt>
      <trkpt lat="44.03176" lon="3.6977">
        <ele>463.1</ele>
        <time>2022-04-15T09:19:53Z</time>
      </trkpt>
      <trkpt lat="44.03177" lon="3.69767">
        <ele>463.4</ele>
        <time>2022-04-15T09:19:55Z</time>
      </trkpt>
      <trkpt lat="44.03178" lon="3.69764">
        <ele>463.8</ele>
        <time>2022-04-15T09:19:56Z</time>
      </trkpt>
      <trkpt lat="44.03179" lon="3.69759">
        <ele>464.2</ele>
        <time>2022-04-15T09:19:57Z</time>
      </trkpt>
      <trkpt lat="44.03179" lon="3.69758">
        <ele>464.3</ele>
        <time>2022-04-15T09:19:58Z</time>
      </trkpt>
      <trkpt lat="44.03179" lon="3.69754">
        <ele>464.6</ele>
        <time>2022-04-15T09:19:59Z</time>
      </trkpt>
      <trkpt lat="44.03178" lon="3.69748">
        <ele>465.2</ele>
        <time>2022-04-15T09:20:01Z</time>
      </trkpt>
      <trkpt lat="44.03177" lon="3.69746">
        <ele>465.4</ele>
        <time>2022-04-15T09:20:02Z</time>
      </trkpt>
      <trkpt lat="44.03175" lon="3.69742">
        <ele>465.7</ele>
        <time>2022-04-15T09:20:04Z</time>
      </trkpt>
      <trkpt lat="44.03174" lon="3.69741">
        <ele>465.9</ele>
        <time>2022-04-15T09:20:05Z</time>
      </trkpt>
      <trkpt lat="44.03173" lon="3.69738">
        <ele>466.2</ele>
        <time>2022-04-15T09:20:06Z</time>
      </trkpt>
      <trkpt lat="44.03172" lon="3.69737">
        <ele>466.4</ele>
        <time>2022-04-15T09:20:07Z</time>
      </trkpt>
      <trkpt lat="44.03171" lon="3.69735">
        <ele>466.6</ele>
        <time>2022-04-15T09:20:09Z</time>
      </trkpt>
      <trkpt lat="44.0317" lon="3.69733">
        <ele>466.8</ele>
        <time>2022-04-15T09:20:10Z</time>
      </trkpt>
      <trkpt lat="44.0317" lon="3.69732">
        <ele>466.9</ele>
        <time>2022-04-15T09:20:11Z</time>
      </trkpt>
      <trkpt lat="44.0317" lon="3.6973">
        <ele>467.1</ele>
        <time>2022-04-15T09:20:12Z</time>
      </trkpt>
      <trkpt lat="44.0317" lon="3.69729">
        <ele>467.2</ele>
        <time>2022-04-15T09:20:13Z</time>
      </trkpt>
      <trkpt lat="44.0317" lon="3.69727">
        <ele>467.4</ele>
        <time>2022-04-15T09:20:15Z</time>
      </trkpt>
      <trkpt lat="44.0317" lon="3.69726">
        <ele>467.4</ele>
        <time>2022-04-15T09:20:16Z</time>
      </trkpt>
      <trkpt lat="44.0317" lon="3.69725">
        <ele>467.6</ele>
        <time>2022-04-15T09:20:17Z</time>
      </trkpt>
      <trkpt lat="44.03169" lon="3.69724">
        <ele>467.7</ele>
        <time>2022-04-15T09:20:18Z</time>
      </trkpt>
      <trkpt lat="44.03169" lon="3.69723">
        <ele>467.8</ele>
        <time>2022-04-15T09:20:19Z</time>
      </trkpt>
      <trkpt lat="44.03169" lon="3.69722">
        <ele>467.8</ele>
        <time>2022-04-15T09:20:20Z</time>
      </trkpt>
      <trkpt lat="44.03169" lon="3.69721">
        <ele>467.9</ele>
        <time>2022-04-15T09:20:21Z</time>
      </trkpt>
      <trkpt lat="44.03169" lon="3.6972">
        <ele>468</ele>
        <time>2022-04-15T09:20:22Z</time>
      </trkpt>
      <trkpt lat="44.03168" lon="3.6972">
        <ele>468.1</ele>
        <time>2022-04-15T09:20:23Z</time>
      </trkpt>
      <trkpt lat="44.03167" lon="3.6972">
        <ele>468.2</ele>
        <time>2022-04-15T09:20:24Z</time>
      </trkpt>
      <trkpt lat="44.03166" lon="3.6972">
        <ele>468.3</ele>
        <time>2022-04-15T09:20:25Z</time>
      </trkpt>
      <trkpt lat="44.03165" lon="3.69719">
        <ele>468.5</ele>
        <time>2022-04-15T09:20:26Z</time>
      </trkpt>
      <trkpt lat="44.03164" lon="3.69718">
        <ele>468.7</ele>
        <time>2022-04-15T09:20:28Z</time>
      </trkpt>
      <trkpt lat="44.03163" lon="3.69718">
        <ele>468.8</ele>
        <time>2022-04-15T09:20:29Z</time>
      </trkpt>
      <trkpt lat="44.03161" lon="3.69717">
        <ele>469</ele>
        <time>2022-04-15T09:20:30Z</time>
      </trkpt>
      <trkpt lat="44.03161" lon="3.69716">
        <ele>469.1</ele>
        <time>2022-04-15T09:20:31Z</time>
      </trkpt>
      <trkpt lat="44.0316" lon="3.69715">
        <ele>469.2</ele>
        <time>2022-04-15T09:20:32Z</time>
      </trkpt>
      <trkpt lat="44.03159" lon="3.69713">
        <ele>469.4</ele>
        <time>2022-04-15T09:20:34Z</time>
      </trkpt>
      <trkpt lat="44.03158" lon="3.69712">
        <ele>469.6</ele>
        <time>2022-04-15T09:20:35Z</time>
      </trkpt>
      <trkpt lat="44.03157" lon="3.69711">
        <ele>469.7</ele>
        <time>2022-04-15T09:20:36Z</time>
      </trkpt>
      <trkpt lat="44.03156" lon="3.69707">
        <ele>470.1</ele>
        <time>2022-04-15T09:20:38Z</time>
      </trkpt>
      <trkpt lat="44.03156" lon="3.69705">
        <ele>470.3</ele>
        <time>2022-04-15T09:20:39Z</time>
      </trkpt>
      <trkpt lat="44.03156" lon="3.69703">
        <ele>470.5</ele>
        <time>2022-04-15T09:20:40Z</time>
      </trkpt>
      <trkpt lat="44.03155" lon="3.697">
        <ele>470.7</ele>
        <time>2022-04-15T09:20:41Z</time>
      </trkpt>
      <trkpt lat="44.03155" lon="3.69698">
        <ele>470.9</ele>
        <time>2022-04-15T09:20:42Z</time>
      </trkpt>
      <trkpt lat="44.03154" lon="3.69693">
        <ele>471.3</ele>
        <time>2022-04-15T09:20:43Z</time>
      </trkpt>
      <trkpt lat="44.03154" lon="3.69692">
        <ele>471.4</ele>
        <time>2022-04-15T09:20:44Z</time>
      </trkpt>
      <trkpt lat="44.03153" lon="3.69687">
        <ele>471.9</ele>
        <time>2022-04-15T09:20:46Z</time>
      </trkpt>
      <trkpt lat="44.03152" lon="3.69682">
        <ele>472.4</ele>
        <time>2022-04-15T09:20:47Z</time>
      </trkpt>
      <trkpt lat="44.03152" lon="3.6968">
        <ele>472.6</ele>
        <time>2022-04-15T09:20:48Z</time>
      </trkpt>
      <trkpt lat="44.03151" lon="3.69676">
        <ele>472.9</ele>
        <time>2022-04-15T09:20:49Z</time>
      </trkpt>
      <trkpt lat="44.03151" lon="3.69675">
        <ele>473</ele>
        <time>2022-04-15T09:20:50Z</time>
      </trkpt>
      <trkpt lat="44.03151" lon="3.69672">
        <ele>473.3</ele>
        <time>2022-04-15T09:20:51Z</time>
      </trkpt>
      <trkpt lat="44.0315" lon="3.69667">
        <ele>473.7</ele>
        <time>2022-04-15T09:20:53Z</time>
      </trkpt>
      <trkpt lat="44.0315" lon="3.69663">
        <ele>474.1</ele>
        <time>2022-04-15T09:20:54Z</time>
      </trkpt>
      <trkpt lat="44.03149" lon="3.69661">
        <ele>474.2</ele>
        <time>2022-04-15T09:20:56Z</time>
      </trkpt>
      <trkpt lat="44.03149" lon="3.69659">
        <ele>474.4</ele>
        <time>2022-04-15T09:20:57Z</time>
      </trkpt>
      <trkpt lat="44.03148" lon="3.69657">
        <ele>474.6</ele>
        <time>2022-04-15T09:20:58Z</time>
      </trkpt>
      <trkpt lat="44.03147" lon="3.69656">
        <ele>474.8</ele>
        <time>2022-04-15T09:20:59Z</time>
      </trkpt>
      <trkpt lat="44.03146" lon="3.69653">
        <ele>475</ele>
        <time>2022-04-15T09:21:01Z</time>
      </trkpt>
      <trkpt lat="44.03146" lon="3.69653">
        <ele>475.1</ele>
        <time>2022-04-15T09:21:02Z</time>
      </trkpt>
      <trkpt lat="44.03144" lon="3.69651">
        <ele>475.3</ele>
        <time>2022-04-15T09:21:03Z</time>
      </trkpt>
      <trkpt lat="44.03143" lon="3.69649">
        <ele>475.6</ele>
        <time>2022-04-15T09:21:04Z</time>
      </trkpt>
      <trkpt lat="44.03142" lon="3.69648">
        <ele>475.7</ele>
        <time>2022-04-15T09:21:05Z</time>
      </trkpt>
      <trkpt lat="44.03142" lon="3.69647">
        <ele>475.8</ele>
        <time>2022-04-15T09:21:06Z</time>
      </trkpt>
      <trkpt lat="44.03139" lon="3.69645">
        <ele>476.2</ele>
        <time>2022-04-15T09:21:08Z</time>
      </trkpt>
      <trkpt lat="44.03138" lon="3.69644">
        <ele>476.3</ele>
        <time>2022-04-15T09:21:09Z</time>
      </trkpt>
      <trkpt lat="44.03137" lon="3.69643">
        <ele>476.5</ele>
        <time>2022-04-15T09:21:10Z</time>
      </trkpt>
      <trkpt lat="44.03136" lon="3.69641">
        <ele>476.7</ele>
        <time>2022-04-15T09:21:11Z</time>
      </trkpt>
      <trkpt lat="44.03135" lon="3.6964">
        <ele>476.8</ele>
        <time>2022-04-15T09:21:12Z</time>
      </trkpt>
      <trkpt lat="44.03134" lon="3.69638">
        <ele>477.1</ele>
        <time>2022-04-15T09:21:13Z</time>
      </trkpt>
      <trkpt lat="44.03132" lon="3.69635">
        <ele>477.4</ele>
        <time>2022-04-15T09:21:15Z</time>
      </trkpt>
      <trkpt lat="44.03131" lon="3.69634">
        <ele>477.5</ele>
        <time>2022-04-15T09:21:16Z</time>
      </trkpt>
      <trkpt lat="44.0313" lon="3.69632">
        <ele>477.8</ele>
        <time>2022-04-15T09:21:17Z</time>
      </trkpt>
      <trkpt lat="44.03129" lon="3.69631">
        <ele>477.9</ele>
        <time>2022-04-15T09:21:18Z</time>
      </trkpt>
      <trkpt lat="44.03128" lon="3.6963">
        <ele>478.1</ele>
        <time>2022-04-15T09:21:19Z</time>
      </trkpt>
      <trkpt lat="44.03127" lon="3.69628">
        <ele>478.3</ele>
        <time>2022-04-15T09:21:20Z</time>
      </trkpt>
      <trkpt lat="44.03126" lon="3.69625">
        <ele>478.6</ele>
        <time>2022-04-15T09:21:21Z</time>
      </trkpt>
      <trkpt lat="44.03125" lon="3.69622">
        <ele>478.8</ele>
        <time>2022-04-15T09:21:23Z</time>
      </trkpt>
      <trkpt lat="44.03122" lon="3.69619">
        <ele>479.2</ele>
        <time>2022-04-15T09:21:24Z</time>
      </trkpt>
      <trkpt lat="44.03122" lon="3.69618">
        <ele>479.4</ele>
        <time>2022-04-15T09:21:25Z</time>
      </trkpt>
      <trkpt lat="44.0312" lon="3.69616">
        <ele>479.6</ele>
        <time>2022-04-15T09:21:26Z</time>
      </trkpt>
      <trkpt lat="44.03118" lon="3.69612">
        <ele>480</ele>
        <time>2022-04-15T09:21:28Z</time>
      </trkpt>
      <trkpt lat="44.03117" lon="3.69611">
        <ele>480.2</ele>
        <time>2022-04-15T09:21:29Z</time>
      </trkpt>
      <trkpt lat="44.03117" lon="3.69608">
        <ele>480.5</ele>
        <time>2022-04-15T09:21:30Z</time>
      </trkpt>
      <trkpt lat="44.03115" lon="3.69605">
        <ele>480.8</ele>
        <time>2022-04-15T09:21:31Z</time>
      </trkpt>
      <trkpt lat="44.03114" lon="3.69603">
        <ele>481</ele>
        <time>2022-04-15T09:21:32Z</time>
      </trkpt>
      <trkpt lat="44.03113" lon="3.69599">
        <ele>481.4</ele>
        <time>2022-04-15T09:21:34Z</time>
      </trkpt>
      <trkpt lat="44.03112" lon="3.69596">
        <ele>481.7</ele>
        <time>2022-04-15T09:21:35Z</time>
      </trkpt>
      <trkpt lat="44.0311" lon="3.69591">
        <ele>482.1</ele>
        <time>2022-04-15T09:21:37Z</time>
      </trkpt>
      <trkpt lat="44.03109" lon="3.6959">
        <ele>482.3</ele>
        <time>2022-04-15T09:21:38Z</time>
      </trkpt>
      <trkpt lat="44.03107" lon="3.69586">
        <ele>482.7</ele>
        <time>2022-04-15T09:21:39Z</time>
      </trkpt>
      <trkpt lat="44.03106" lon="3.69585">
        <ele>482.9</ele>
        <time>2022-04-15T09:21:40Z</time>
      </trkpt>
      <trkpt lat="44.03104" lon="3.69581">
        <ele>483.3</ele>
        <time>2022-04-15T09:21:42Z</time>
      </trkpt>
      <trkpt lat="44.03104" lon="3.69579">
        <ele>483.5</ele>
        <time>2022-04-15T09:21:43Z</time>
      </trkpt>
      <trkpt lat="44.03103" lon="3.69577">
        <ele>483.7</ele>
        <time>2022-04-15T09:21:44Z</time>
      </trkpt>
      <trkpt lat="44.03101" lon="3.69575">
        <ele>483.9</ele>
        <time>2022-04-15T09:21:45Z</time>
      </trkpt>
      <trkpt lat="44.03099" lon="3.69572">
        <ele>484.3</ele>
        <time>2022-04-15T09:21:46Z</time>
      </trkpt>
      <trkpt lat="44.03098" lon="3.69569">
        <ele>484.6</ele>
        <time>2022-04-15T09:21:48Z</time>
      </trkpt>
      <trkpt lat="44.03096" lon="3.69567">
        <ele>484.8</ele>
        <time>2022-04-15T09:21:49Z</time>
      </trkpt>
      <trkpt lat="44.03095" lon="3.69566">
        <ele>485</ele>
        <time>2022-04-15T09:21:50Z</time>
      </trkpt>
      <trkpt lat="44.03094" lon="3.69563">
        <ele>485.3</ele>
        <time>2022-04-15T09:21:51Z</time>
      </trkpt>
      <trkpt lat="44.03093" lon="3.69561">
        <ele>485.5</ele>
        <time>2022-04-15T09:21:52Z</time>
      </trkpt>
      <trkpt lat="44.03092" lon="3.69559">
        <ele>485.7</ele>
        <time>2022-04-15T09:21:53Z</time>
      </trkpt>
      <trkpt lat="44.03091" lon="3.69556">
        <ele>486</ele>
        <time>2022-04-15T09:21:55Z</time>
      </trkpt>
      <trkpt lat="44.03089" lon="3.69552">
        <ele>486.4</ele>
        <time>2022-04-15T09:21:56Z</time>
      </trkpt>
      <trkpt lat="44.03089" lon="3.69551">
        <ele>486.5</ele>
        <time>2022-04-15T09:21:57Z</time>
      </trkpt>
      <trkpt lat="44.03087" lon="3.69548">
        <ele>486.9</ele>
        <time>2022-04-15T09:21:58Z</time>
      </trkpt>
      <trkpt lat="44.03087" lon="3.69546">
        <ele>487</ele>
        <time>2022-04-15T09:21:59Z</time>
      </trkpt>
      <trkpt lat="44.03086" lon="3.69543">
        <ele>487.4</ele>
        <time>2022-04-15T09:22:00Z</time>
      </trkpt>
      <trkpt lat="44.03085" lon="3.69542">
        <ele>487.5</ele>
        <time>2022-04-15T09:22:01Z</time>
      </trkpt>
      <trkpt lat="44.03084" lon="3.69538">
        <ele>487.9</ele>
        <time>2022-04-15T09:22:03Z</time>
      </trkpt>
      <trkpt lat="44.03083" lon="3.69536">
        <ele>488</ele>
        <time>2022-04-15T09:22:04Z</time>
      </trkpt>
      <trkpt lat="44.03082" lon="3.69532">
        <ele>488.4</ele>
        <time>2022-04-15T09:22:05Z</time>
      </trkpt>
      <trkpt lat="44.03081" lon="3.69531">
        <ele>488.6</ele>
        <time>2022-04-15T09:22:06Z</time>
      </trkpt>
      <trkpt lat="44.03079" lon="3.69527">
        <ele>489</ele>
        <time>2022-04-15T09:22:08Z</time>
      </trkpt>
      <trkpt lat="44.03079" lon="3.69526">
        <ele>489.1</ele>
        <time>2022-04-15T09:22:09Z</time>
      </trkpt>
      <trkpt lat="44.03077" lon="3.69522">
        <ele>489.5</ele>
        <time>2022-04-15T09:22:10Z</time>
      </trkpt>
      <trkpt lat="44.03077" lon="3.69521">
        <ele>489.6</ele>
        <time>2022-04-15T09:22:11Z</time>
      </trkpt>
      <trkpt lat="44.03076" lon="3.69518">
        <ele>489.8</ele>
        <time>2022-04-15T09:22:12Z</time>
      </trkpt>
      <trkpt lat="44.03076" lon="3.69514">
        <ele>492.6</ele>
        <time>2022-04-15T09:22:14Z</time>
      </trkpt>
      <trkpt lat="44.03076" lon="3.69511">
        <ele>492.6</ele>
        <time>2022-04-15T09:22:15Z</time>
      </trkpt>
      <trkpt lat="44.03076" lon="3.69509">
        <ele>492.6</ele>
        <time>2022-04-15T09:22:16Z</time>
      </trkpt>
      <trkpt lat="44.03079" lon="3.69509">
        <ele>492.6</ele>
        <time>2022-04-15T09:22:17Z</time>
      </trkpt>
      <trkpt lat="44.03081" lon="3.69509">
        <ele>492.6</ele>
        <time>2022-04-15T09:22:18Z</time>
      </trkpt>
      <trkpt lat="44.03082" lon="3.6951">
        <ele>492.6</ele>
        <time>2022-04-15T09:22:19Z</time>
      </trkpt>
      <trkpt lat="44.03083" lon="3.6951">
        <ele>492.6</ele>
        <time>2022-04-15T09:22:21Z</time>
      </trkpt>
      <trkpt lat="44.03084" lon="3.69511">
        <ele>492.6</ele>
        <time>2022-04-15T09:22:22Z</time>
      </trkpt>
      <trkpt lat="44.03085" lon="3.69512">
        <ele>492.6</ele>
        <time>2022-04-15T09:22:23Z</time>
      </trkpt>
      <trkpt lat="44.03086" lon="3.69513">
        <ele>493.4</ele>
        <time>2022-04-15T09:22:24Z</time>
      </trkpt>
      <trkpt lat="44.03089" lon="3.69515">
        <ele>493.6</ele>
        <time>2022-04-15T09:22:25Z</time>
      </trkpt>
      <trkpt lat="44.0309" lon="3.69515">
        <ele>493.7</ele>
        <time>2022-04-15T09:22:27Z</time>
      </trkpt>
      <trkpt lat="44.03092" lon="3.69516">
        <ele>493.7</ele>
        <time>2022-04-15T09:22:28Z</time>
      </trkpt>
      <trkpt lat="44.03093" lon="3.69517">
        <ele>493.8</ele>
        <time>2022-04-15T09:22:29Z</time>
      </trkpt>
      <trkpt lat="44.03096" lon="3.69518">
        <ele>494</ele>
        <time>2022-04-15T09:22:30Z</time>
      </trkpt>
      <trkpt lat="44.03097" lon="3.69518">
        <ele>494</ele>
        <time>2022-04-15T09:22:31Z</time>
      </trkpt>
      <trkpt lat="44.03099" lon="3.69518">
        <ele>494.2</ele>
        <time>2022-04-15T09:22:32Z</time>
      </trkpt>
      <trkpt lat="44.03101" lon="3.69518">
        <ele>494.3</ele>
        <time>2022-04-15T09:22:34Z</time>
      </trkpt>
      <trkpt lat="44.03104" lon="3.69519">
        <ele>494.5</ele>
        <time>2022-04-15T09:22:35Z</time>
      </trkpt>
      <trkpt lat="44.03105" lon="3.69519">
        <ele>494.5</ele>
        <time>2022-04-15T09:22:36Z</time>
      </trkpt>
      <trkpt lat="44.03107" lon="3.69519">
        <ele>494.6</ele>
        <time>2022-04-15T09:22:37Z</time>
      </trkpt>
      <trkpt lat="44.03108" lon="3.6952">
        <ele>494.7</ele>
        <time>2022-04-15T09:22:38Z</time>
      </trkpt>
      <trkpt lat="44.03108" lon="3.6952">
        <ele>494.7</ele>
        <time>2022-04-15T09:22:39Z</time>
      </trkpt>
      <trkpt lat="44.03111" lon="3.69516">
        <ele>494.9</ele>
        <time>2022-04-15T09:22:40Z</time>
      </trkpt>
      <trkpt lat="44.03112" lon="3.69515">
        <ele>495</ele>
        <time>2022-04-15T09:22:41Z</time>
      </trkpt>
      <trkpt lat="44.03113" lon="3.69515">
        <ele>495.1</ele>
        <time>2022-04-15T09:22:42Z</time>
      </trkpt>
      <trkpt lat="44.03114" lon="3.69514">
        <ele>495.2</ele>
        <time>2022-04-15T09:22:43Z</time>
      </trkpt>
      <trkpt lat="44.03117" lon="3.69515">
        <ele>495.3</ele>
        <time>2022-04-15T09:22:44Z</time>
      </trkpt>
      <trkpt lat="44.03118" lon="3.69516">
        <ele>495.4</ele>
        <time>2022-04-15T09:22:45Z</time>
      </trkpt>
      <trkpt lat="44.03119" lon="3.69516">
        <ele>495.4</ele>
        <time>2022-04-15T09:22:46Z</time>
      </trkpt>
      <trkpt lat="44.0312" lon="3.69517">
        <ele>495.5</ele>
        <time>2022-04-15T09:22:47Z</time>
      </trkpt>
      <trkpt lat="44.03122" lon="3.69518">
        <ele>495.6</ele>
        <time>2022-04-15T09:22:48Z</time>
      </trkpt>
      <trkpt lat="44.03125" lon="3.69519">
        <ele>495.7</ele>
        <time>2022-04-15T09:22:49Z</time>
      </trkpt>
      <trkpt lat="44.03126" lon="3.6952">
        <ele>495.8</ele>
        <time>2022-04-15T09:22:50Z</time>
      </trkpt>
      <trkpt lat="44.03127" lon="3.69521">
        <ele>495.9</ele>
        <time>2022-04-15T09:22:51Z</time>
      </trkpt>
      <trkpt lat="44.03128" lon="3.69522">
        <ele>496</ele>
        <time>2022-04-15T09:22:52Z</time>
      </trkpt>
      <trkpt lat="44.03132" lon="3.69523">
        <ele>496.1</ele>
        <time>2022-04-15T09:22:53Z</time>
      </trkpt>
      <trkpt lat="44.03133" lon="3.69523">
        <ele>496.2</ele>
        <time>2022-04-15T09:22:54Z</time>
      </trkpt>
      <trkpt lat="44.03134" lon="3.69523">
        <ele>496.3</ele>
        <time>2022-04-15T09:22:55Z</time>
      </trkpt>
      <trkpt lat="44.03136" lon="3.69524">
        <ele>496.4</ele>
        <time>2022-04-15T09:22:56Z</time>
      </trkpt>
      <trkpt lat="44.03137" lon="3.69525">
        <ele>496.4</ele>
        <time>2022-04-15T09:22:57Z</time>
      </trkpt>
      <trkpt lat="44.03139" lon="3.69526">
        <ele>496.5</ele>
        <time>2022-04-15T09:22:58Z</time>
      </trkpt>
      <trkpt lat="44.03141" lon="3.69528">
        <ele>496.7</ele>
        <time>2022-04-15T09:22:59Z</time>
      </trkpt>
      <trkpt lat="44.03143" lon="3.6953">
        <ele>496.8</ele>
        <time>2022-04-15T09:23:01Z</time>
      </trkpt>
      <trkpt lat="44.03145" lon="3.69532">
        <ele>497</ele>
        <time>2022-04-15T09:23:02Z</time>
      </trkpt>
      <trkpt lat="44.03146" lon="3.69532">
        <ele>497</ele>
        <time>2022-04-15T09:23:03Z</time>
      </trkpt>
      <trkpt lat="44.03149" lon="3.69535">
        <ele>497.2</ele>
        <time>2022-04-15T09:23:04Z</time>
      </trkpt>
      <trkpt lat="44.03149" lon="3.69535">
        <ele>497.2</ele>
        <time>2022-04-15T09:23:05Z</time>
      </trkpt>
      <trkpt lat="44.03152" lon="3.69538">
        <ele>497.4</ele>
        <time>2022-04-15T09:23:06Z</time>
      </trkpt>
      <trkpt lat="44.03153" lon="3.69539">
        <ele>497.4</ele>
        <time>2022-04-15T09:23:07Z</time>
      </trkpt>
      <trkpt lat="44.03155" lon="3.69542">
        <ele>497.6</ele>
        <time>2022-04-15T09:23:09Z</time>
      </trkpt>
      <trkpt lat="44.03158" lon="3.69544">
        <ele>497.7</ele>
        <time>2022-04-15T09:23:10Z</time>
      </trkpt>
      <trkpt lat="44.0316" lon="3.69547">
        <ele>497.9</ele>
        <time>2022-04-15T09:23:11Z</time>
      </trkpt>
      <trkpt lat="44.03163" lon="3.6955">
        <ele>498</ele>
        <time>2022-04-15T09:23:12Z</time>
      </trkpt>
      <trkpt lat="44.03164" lon="3.69551">
        <ele>498.1</ele>
        <time>2022-04-15T09:23:13Z</time>
      </trkpt>
      <trkpt lat="44.03167" lon="3.69554">
        <ele>498.2</ele>
        <time>2022-04-15T09:23:14Z</time>
      </trkpt>
      <trkpt lat="44.03169" lon="3.69557">
        <ele>498.4</ele>
        <time>2022-04-15T09:23:16Z</time>
      </trkpt>
      <trkpt lat="44.03171" lon="3.69559">
        <ele>498.5</ele>
        <time>2022-04-15T09:23:17Z</time>
      </trkpt>
      <trkpt lat="44.03174" lon="3.69563">
        <ele>498.7</ele>
        <time>2022-04-15T09:23:19Z</time>
      </trkpt>
      <trkpt lat="44.03176" lon="3.69566">
        <ele>498.8</ele>
        <time>2022-04-15T09:23:20Z</time>
      </trkpt>
      <trkpt lat="44.03177" lon="3.69568">
        <ele>498.9</ele>
        <time>2022-04-15T09:23:21Z</time>
      </trkpt>
      <trkpt lat="44.03179" lon="3.69571">
        <ele>499</ele>
        <time>2022-04-15T09:23:23Z</time>
      </trkpt>
      <trkpt lat="44.03182" lon="3.69574">
        <ele>499.2</ele>
        <time>2022-04-15T09:23:24Z</time>
      </trkpt>
      <trkpt lat="44.03183" lon="3.69575">
        <ele>499.2</ele>
        <time>2022-04-15T09:23:25Z</time>
      </trkpt>
      <trkpt lat="44.03184" lon="3.69577">
        <ele>499.3</ele>
        <time>2022-04-15T09:23:26Z</time>
      </trkpt>
      <trkpt lat="44.03187" lon="3.6958">
        <ele>499.5</ele>
        <time>2022-04-15T09:23:28Z</time>
      </trkpt>
      <trkpt lat="44.03189" lon="3.69584">
        <ele>499.7</ele>
        <time>2022-04-15T09:23:29Z</time>
      </trkpt>
      <trkpt lat="44.0319" lon="3.69585">
        <ele>499.7</ele>
        <time>2022-04-15T09:23:30Z</time>
      </trkpt>
      <trkpt lat="44.03192" lon="3.69588">
        <ele>499.9</ele>
        <time>2022-04-15T09:23:31Z</time>
      </trkpt>
      <trkpt lat="44.03193" lon="3.6959">
        <ele>500</ele>
        <time>2022-04-15T09:23:32Z</time>
      </trkpt>
      <trkpt lat="44.03196" lon="3.69594">
        <ele>500.2</ele>
        <time>2022-04-15T09:23:33Z</time>
      </trkpt>
      <trkpt lat="44.03197" lon="3.69596">
        <ele>500.3</ele>
        <time>2022-04-15T09:23:34Z</time>
      </trkpt>
      <trkpt lat="44.03199" lon="3.69599">
        <ele>500.4</ele>
        <time>2022-04-15T09:23:36Z</time>
      </trkpt>
      <trkpt lat="44.03201" lon="3.69602">
        <ele>500.6</ele>
        <time>2022-04-15T09:23:37Z</time>
      </trkpt>
      <trkpt lat="44.03203" lon="3.69605">
        <ele>500.7</ele>
        <time>2022-04-15T09:23:38Z</time>
      </trkpt>
      <trkpt lat="44.03206" lon="3.69609">
        <ele>500.9</ele>
        <time>2022-04-15T09:23:39Z</time>
      </trkpt>
      <trkpt lat="44.03207" lon="3.69611">
        <ele>501</ele>
        <time>2022-04-15T09:23:40Z</time>
      </trkpt>
      <trkpt lat="44.03209" lon="3.69615">
        <ele>501.2</ele>
        <time>2022-04-15T09:23:42Z</time>
      </trkpt>
      <trkpt lat="44.03211" lon="3.69618">
        <ele>501.4</ele>
        <time>2022-04-15T09:23:43Z</time>
      </trkpt>
      <trkpt lat="44.03213" lon="3.69622">
        <ele>501.6</ele>
        <time>2022-04-15T09:23:44Z</time>
      </trkpt>
      <trkpt lat="44.03215" lon="3.69626">
        <ele>501.8</ele>
        <time>2022-04-15T09:23:45Z</time>
      </trkpt>
      <trkpt lat="44.03216" lon="3.69628">
        <ele>501.9</ele>
        <time>2022-04-15T09:23:46Z</time>
      </trkpt>
      <trkpt lat="44.03218" lon="3.69632">
        <ele>502.1</ele>
        <time>2022-04-15T09:23:48Z</time>
      </trkpt>
      <trkpt lat="44.03221" lon="3.69637">
        <ele>502.4</ele>
        <time>2022-04-15T09:23:49Z</time>
      </trkpt>
      <trkpt lat="44.03223" lon="3.69641">
        <ele>502.7</ele>
        <time>2022-04-15T09:23:51Z</time>
      </trkpt>
      <trkpt lat="44.03224" lon="3.69643">
        <ele>502.7</ele>
        <time>2022-04-15T09:23:52Z</time>
      </trkpt>
      <trkpt lat="44.03226" lon="3.69648">
        <ele>503</ele>
        <time>2022-04-15T09:23:53Z</time>
      </trkpt>
      <trkpt lat="44.03227" lon="3.6965">
        <ele>503.2</ele>
        <time>2022-04-15T09:23:54Z</time>
      </trkpt>
      <trkpt lat="44.0323" lon="3.69653">
        <ele>503.4</ele>
        <time>2022-04-15T09:23:56Z</time>
      </trkpt>
      <trkpt lat="44.0323" lon="3.69655">
        <ele>503.5</ele>
        <time>2022-04-15T09:23:57Z</time>
      </trkpt>
      <trkpt lat="44.03232" lon="3.69658">
        <ele>503.7</ele>
        <time>2022-04-15T09:23:58Z</time>
      </trkpt>
      <trkpt lat="44.03232" lon="3.69659">
        <ele>503.8</ele>
        <time>2022-04-15T09:23:59Z</time>
      </trkpt>
      <trkpt lat="44.03234" lon="3.69663">
        <ele>504</ele>
        <time>2022-04-15T09:24:00Z</time>
      </trkpt>
      <trkpt lat="44.03235" lon="3.69664">
        <ele>504.1</ele>
        <time>2022-04-15T09:24:01Z</time>
      </trkpt>
      <trkpt lat="44.03237" lon="3.69668">
        <ele>504.3</ele>
        <time>2022-04-15T09:24:03Z</time>
      </trkpt>
      <trkpt lat="44.03238" lon="3.69669">
        <ele>504.4</ele>
        <time>2022-04-15T09:24:04Z</time>
      </trkpt>
      <trkpt lat="44.0324" lon="3.69672">
        <ele>504.6</ele>
        <time>2022-04-15T09:24:05Z</time>
      </trkpt>
      <trkpt lat="44.03241" lon="3.69673">
        <ele>504.7</ele>
        <time>2022-04-15T09:24:06Z</time>
      </trkpt>
      <trkpt lat="44.03242" lon="3.69676">
        <ele>504.9</ele>
        <time>2022-04-15T09:24:07Z</time>
      </trkpt>
      <trkpt lat="44.03245" lon="3.6968">
        <ele>505.3</ele>
        <time>2022-04-15T09:24:10Z</time>
      </trkpt>
      <trkpt lat="44.03247" lon="3.69684">
        <ele>505.5</ele>
        <time>2022-04-15T09:24:11Z</time>
      </trkpt>
      <trkpt lat="44.03248" lon="3.69685">
        <ele>505.6</ele>
        <time>2022-04-15T09:24:12Z</time>
      </trkpt>
      <trkpt lat="44.03249" lon="3.69687">
        <ele>505.8</ele>
        <time>2022-04-15T09:24:13Z</time>
      </trkpt>
      <trkpt lat="44.03251" lon="3.6969">
        <ele>506</ele>
        <time>2022-04-15T09:24:15Z</time>
      </trkpt>
      <trkpt lat="44.03252" lon="3.69692">
        <ele>506.2</ele>
        <time>2022-04-15T09:24:16Z</time>
      </trkpt>
      <trkpt lat="44.03254" lon="3.69693">
        <ele>506.3</ele>
        <time>2022-04-15T09:24:17Z</time>
      </trkpt>
      <trkpt lat="44.03254" lon="3.69695">
        <ele>506.5</ele>
        <time>2022-04-15T09:24:18Z</time>
      </trkpt>
      <trkpt lat="44.03256" lon="3.69697">
        <ele>506.6</ele>
        <time>2022-04-15T09:24:19Z</time>
      </trkpt>
      <trkpt lat="44.03257" lon="3.69699">
        <ele>506.8</ele>
        <time>2022-04-15T09:24:20Z</time>
      </trkpt>
      <trkpt lat="44.03259" lon="3.69701">
        <ele>507</ele>
        <time>2022-04-15T09:24:22Z</time>
      </trkpt>
      <trkpt lat="44.0326" lon="3.69704">
        <ele>507.2</ele>
        <time>2022-04-15T09:24:23Z</time>
      </trkpt>
      <trkpt lat="44.03262" lon="3.69708">
        <ele>507.5</ele>
        <time>2022-04-15T09:24:25Z</time>
      </trkpt>
      <trkpt lat="44.03264" lon="3.69711">
        <ele>507.8</ele>
        <time>2022-04-15T09:24:26Z</time>
      </trkpt>
      <trkpt lat="44.03265" lon="3.69712">
        <ele>507.9</ele>
        <time>2022-04-15T09:24:27Z</time>
      </trkpt>
      <trkpt lat="44.03267" lon="3.69717">
        <ele>508.3</ele>
        <time>2022-04-15T09:24:28Z</time>
      </trkpt>
      <trkpt lat="44.03268" lon="3.69719">
        <ele>508.4</ele>
        <time>2022-04-15T09:24:29Z</time>
      </trkpt>
      <trkpt lat="44.03271" lon="3.69722">
        <ele>508.7</ele>
        <time>2022-04-15T09:24:31Z</time>
      </trkpt>
      <trkpt lat="44.03271" lon="3.69723">
        <ele>508.8</ele>
        <time>2022-04-15T09:24:32Z</time>
      </trkpt>
      <trkpt lat="44.03272" lon="3.69725">
        <ele>508.9</ele>
        <time>2022-04-15T09:24:33Z</time>
      </trkpt>
      <trkpt lat="44.03274" lon="3.69729">
        <ele>509.2</ele>
        <time>2022-04-15T09:24:35Z</time>
      </trkpt>
      <trkpt lat="44.03276" lon="3.69732">
        <ele>509.5</ele>
        <time>2022-04-15T09:24:36Z</time>
      </trkpt>
      <trkpt lat="44.03277" lon="3.69733">
        <ele>509.5</ele>
        <time>2022-04-15T09:24:37Z</time>
      </trkpt>
      <trkpt lat="44.03279" lon="3.69736">
        <ele>509.8</ele>
        <time>2022-04-15T09:24:38Z</time>
      </trkpt>
      <trkpt lat="44.0328" lon="3.69737">
        <ele>509.8</ele>
        <time>2022-04-15T09:24:39Z</time>
      </trkpt>
      <trkpt lat="44.03282" lon="3.6974">
        <ele>510.1</ele>
        <time>2022-04-15T09:24:40Z</time>
      </trkpt>
      <trkpt lat="44.03283" lon="3.69742">
        <ele>510.2</ele>
        <time>2022-04-15T09:24:41Z</time>
      </trkpt>
      <trkpt lat="44.03285" lon="3.69744">
        <ele>510.4</ele>
        <time>2022-04-15T09:24:43Z</time>
      </trkpt>
      <trkpt lat="44.03287" lon="3.69748">
        <ele>510.6</ele>
        <time>2022-04-15T09:24:44Z</time>
      </trkpt>
      <trkpt lat="44.03288" lon="3.69749">
        <ele>510.7</ele>
        <time>2022-04-15T09:24:45Z</time>
      </trkpt>
      <trkpt lat="44.0329" lon="3.69752">
        <ele>510.9</ele>
        <time>2022-04-15T09:24:46Z</time>
      </trkpt>
      <trkpt lat="44.03291" lon="3.69753">
        <ele>511</ele>
        <time>2022-04-15T09:24:47Z</time>
      </trkpt>
      <trkpt lat="44.03291" lon="3.69755">
        <ele>511</ele>
        <time>2022-04-15T09:24:48Z</time>
      </trkpt>
      <trkpt lat="44.03292" lon="3.69757">
        <ele>511.1</ele>
        <time>2022-04-15T09:24:49Z</time>
      </trkpt>
      <trkpt lat="44.03293" lon="3.69761">
        <ele>511.3</ele>
        <time>2022-04-15T09:24:50Z</time>
      </trkpt>
      <trkpt lat="44.03294" lon="3.69763">
        <ele>511.4</ele>
        <time>2022-04-15T09:24:51Z</time>
      </trkpt>
      <trkpt lat="44.03293" lon="3.69767">
        <ele>511.6</ele>
        <time>2022-04-15T09:24:52Z</time>
      </trkpt>
      <trkpt lat="44.03293" lon="3.69768">
        <ele>511.6</ele>
        <time>2022-04-15T09:24:53Z</time>
      </trkpt>
      <trkpt lat="44.03293" lon="3.69775">
        <ele>511.9</ele>
        <time>2022-04-15T09:24:55Z</time>
      </trkpt>
      <trkpt lat="44.03292" lon="3.69777">
        <ele>511.9</ele>
        <time>2022-04-15T09:24:56Z</time>
      </trkpt>
      <trkpt lat="44.03292" lon="3.69779">
        <ele>512</ele>
        <time>2022-04-15T09:24:57Z</time>
      </trkpt>
      <trkpt lat="44.0329" lon="3.69781">
        <ele>512.1</ele>
        <time>2022-04-15T09:24:58Z</time>
      </trkpt>
      <trkpt lat="44.03289" lon="3.69785">
        <ele>512.3</ele>
        <time>2022-04-15T09:25:00Z</time>
      </trkpt>
      <trkpt lat="44.03287" lon="3.69788">
        <ele>512.4</ele>
        <time>2022-04-15T09:25:01Z</time>
      </trkpt>
      <trkpt lat="44.03287" lon="3.69789">
        <ele>512.4</ele>
        <time>2022-04-15T09:25:02Z</time>
      </trkpt>
      <trkpt lat="44.03286" lon="3.69791">
        <ele>512.5</ele>
        <time>2022-04-15T09:25:03Z</time>
      </trkpt>
      <trkpt lat="44.03285" lon="3.69793">
        <ele>512.6</ele>
        <time>2022-04-15T09:25:04Z</time>
      </trkpt>
      <trkpt lat="44.03284" lon="3.69797">
        <ele>512.7</ele>
        <time>2022-04-15T09:25:05Z</time>
      </trkpt>
      <trkpt lat="44.03283" lon="3.69799">
        <ele>512.8</ele>
        <time>2022-04-15T09:25:06Z</time>
      </trkpt>
      <trkpt lat="44.03282" lon="3.69802">
        <ele>512.9</ele>
        <time>2022-04-15T09:25:08Z</time>
      </trkpt>
      <trkpt lat="44.0328" lon="3.69806">
        <ele>513.1</ele>
        <time>2022-04-15T09:25:09Z</time>
      </trkpt>
      <trkpt lat="44.0328" lon="3.69807">
        <ele>513.1</ele>
        <time>2022-04-15T09:25:10Z</time>
      </trkpt>
      <trkpt lat="44.03279" lon="3.69812">
        <ele>513.3</ele>
        <time>2022-04-15T09:25:11Z</time>
      </trkpt>
      <trkpt lat="44.03278" lon="3.69814">
        <ele>513.3</ele>
        <time>2022-04-15T09:25:12Z</time>
      </trkpt>
      <trkpt lat="44.03277" lon="3.69819">
        <ele>513.5</ele>
        <time>2022-04-15T09:25:14Z</time>
      </trkpt>
      <trkpt lat="44.03276" lon="3.69821">
        <ele>513.6</ele>
        <time>2022-04-15T09:25:15Z</time>
      </trkpt>
      <trkpt lat="44.03275" lon="3.69826">
        <ele>513.8</ele>
        <time>2022-04-15T09:25:16Z</time>
      </trkpt>
      <trkpt lat="44.03275" lon="3.69828">
        <ele>513.8</ele>
        <time>2022-04-15T09:25:17Z</time>
      </trkpt>
      <trkpt lat="44.03273" lon="3.69833">
        <ele>514</ele>
        <time>2022-04-15T09:25:19Z</time>
      </trkpt>
      <trkpt lat="44.03272" lon="3.69835">
        <ele>514.1</ele>
        <time>2022-04-15T09:25:20Z</time>
      </trkpt>
      <trkpt lat="44.03269" lon="3.6984">
        <ele>514.4</ele>
        <time>2022-04-15T09:25:22Z</time>
      </trkpt>
      <trkpt lat="44.03268" lon="3.69842">
        <ele>514.4</ele>
        <time>2022-04-15T09:25:23Z</time>
      </trkpt>
      <trkpt lat="44.03267" lon="3.69844">
        <ele>514.5</ele>
        <time>2022-04-15T09:25:24Z</time>
      </trkpt>
      <trkpt lat="44.03265" lon="3.69848">
        <ele>514.7</ele>
        <time>2022-04-15T09:25:25Z</time>
      </trkpt>
      <trkpt lat="44.03262" lon="3.69854">
        <ele>514.9</ele>
        <time>2022-04-15T09:25:27Z</time>
      </trkpt>
      <trkpt lat="44.03262" lon="3.69855">
        <ele>515</ele>
        <time>2022-04-15T09:25:28Z</time>
      </trkpt>
      <trkpt lat="44.03261" lon="3.69857">
        <ele>515.1</ele>
        <time>2022-04-15T09:25:29Z</time>
      </trkpt>
      <trkpt lat="44.03259" lon="3.69861">
        <ele>515.2</ele>
        <time>2022-04-15T09:25:30Z</time>
      </trkpt>
      <trkpt lat="44.03258" lon="3.69864">
        <ele>515.3</ele>
        <time>2022-04-15T09:25:31Z</time>
      </trkpt>
      <trkpt lat="44.03257" lon="3.69867">
        <ele>515.5</ele>
        <time>2022-04-15T09:25:33Z</time>
      </trkpt>
      <trkpt lat="44.03256" lon="3.69873">
        <ele>515.7</ele>
        <time>2022-04-15T09:25:35Z</time>
      </trkpt>
      <trkpt lat="44.03255" lon="3.69877">
        <ele>515.9</ele>
        <time>2022-04-15T09:25:36Z</time>
      </trkpt>
      <trkpt lat="44.03255" lon="3.69879">
        <ele>515.9</ele>
        <time>2022-04-15T09:25:37Z</time>
      </trkpt>
      <trkpt lat="44.03255" lon="3.69882">
        <ele>516</ele>
        <time>2022-04-15T09:25:38Z</time>
      </trkpt>
      <trkpt lat="44.03254" lon="3.69888">
        <ele>516.3</ele>
        <time>2022-04-15T09:25:40Z</time>
      </trkpt>
      <trkpt lat="44.03254" lon="3.69893">
        <ele>516.4</ele>
        <time>2022-04-15T09:25:41Z</time>
      </trkpt>
      <trkpt lat="44.03254" lon="3.69894">
        <ele>516.5</ele>
        <time>2022-04-15T09:25:42Z</time>
      </trkpt>
      <trkpt lat="44.03255" lon="3.69899">
        <ele>516.6</ele>
        <time>2022-04-15T09:25:43Z</time>
      </trkpt>
      <trkpt lat="44.03255" lon="3.699">
        <ele>516.7</ele>
        <time>2022-04-15T09:25:44Z</time>
      </trkpt>
      <trkpt lat="44.03255" lon="3.69905">
        <ele>517.2</ele>
        <time>2022-04-15T09:25:45Z</time>
      </trkpt>
      <trkpt lat="44.03256" lon="3.69909">
        <ele>517.5</ele>
        <time>2022-04-15T09:25:46Z</time>
      </trkpt>
      <trkpt lat="44.03256" lon="3.69913">
        <ele>517.7</ele>
        <time>2022-04-15T09:25:48Z</time>
      </trkpt>
      <trkpt lat="44.03256" lon="3.69917">
        <ele>517.9</ele>
        <time>2022-04-15T09:25:49Z</time>
      </trkpt>
      <trkpt lat="44.03255" lon="3.69922">
        <ele>518.2</ele>
        <time>2022-04-15T09:25:50Z</time>
      </trkpt>
      <trkpt lat="44.03255" lon="3.69924">
        <ele>518.2</ele>
        <time>2022-04-15T09:25:51Z</time>
      </trkpt>
      <trkpt lat="44.03254" lon="3.69929">
        <ele>518.5</ele>
        <time>2022-04-15T09:25:52Z</time>
      </trkpt>
      <trkpt lat="44.03253" lon="3.6993">
        <ele>518.6</ele>
        <time>2022-04-15T09:25:53Z</time>
      </trkpt>
      <trkpt lat="44.03252" lon="3.69934">
        <ele>518.8</ele>
        <time>2022-04-15T09:25:54Z</time>
      </trkpt>
      <trkpt lat="44.0325" lon="3.69938">
        <ele>519</ele>
        <time>2022-04-15T09:25:56Z</time>
      </trkpt>
      <trkpt lat="44.03249" lon="3.6994">
        <ele>519.1</ele>
        <time>2022-04-15T09:25:57Z</time>
      </trkpt>
      <trkpt lat="44.03248" lon="3.69943">
        <ele>519.3</ele>
        <time>2022-04-15T09:25:58Z</time>
      </trkpt>
      <trkpt lat="44.03247" lon="3.69945">
        <ele>519.4</ele>
        <time>2022-04-15T09:25:59Z</time>
      </trkpt>
      <trkpt lat="44.03245" lon="3.69949">
        <ele>519.7</ele>
        <time>2022-04-15T09:26:00Z</time>
      </trkpt>
      <trkpt lat="44.03244" lon="3.69951">
        <ele>519.8</ele>
        <time>2022-04-15T09:26:01Z</time>
      </trkpt>
      <trkpt lat="44.03242" lon="3.69956">
        <ele>520.1</ele>
        <time>2022-04-15T09:26:03Z</time>
      </trkpt>
      <trkpt lat="44.03241" lon="3.69958">
        <ele>520.2</ele>
        <time>2022-04-15T09:26:04Z</time>
      </trkpt>
      <trkpt lat="44.03241" lon="3.6996">
        <ele>520.3</ele>
        <time>2022-04-15T09:26:05Z</time>
      </trkpt>
      <trkpt lat="44.03239" lon="3.69965">
        <ele>520.6</ele>
        <time>2022-04-15T09:26:07Z</time>
      </trkpt>
      <trkpt lat="44.03237" lon="3.6997">
        <ele>521</ele>
        <time>2022-04-15T09:26:08Z</time>
      </trkpt>
      <trkpt lat="44.03237" lon="3.69972">
        <ele>521.1</ele>
        <time>2022-04-15T09:26:09Z</time>
      </trkpt>
      <trkpt lat="44.03236" lon="3.69976">
        <ele>521.4</ele>
        <time>2022-04-15T09:26:11Z</time>
      </trkpt>
      <trkpt lat="44.03235" lon="3.69979">
        <ele>521.6</ele>
        <time>2022-04-15T09:26:12Z</time>
      </trkpt>
      <trkpt lat="44.03233" lon="3.69983">
        <ele>521.9</ele>
        <time>2022-04-15T09:26:14Z</time>
      </trkpt>
      <trkpt lat="44.03233" lon="3.69987">
        <ele>522.2</ele>
        <time>2022-04-15T09:26:15Z</time>
      </trkpt>
      <trkpt lat="44.03232" lon="3.69991">
        <ele>522.4</ele>
        <time>2022-04-15T09:26:16Z</time>
      </trkpt>
      <trkpt lat="44.03232" lon="3.69992">
        <ele>522.5</ele>
        <time>2022-04-15T09:26:17Z</time>
      </trkpt>
      <trkpt lat="44.03231" lon="3.69997">
        <ele>522.8</ele>
        <time>2022-04-15T09:26:19Z</time>
      </trkpt>
      <trkpt lat="44.03231" lon="3.70001">
        <ele>523</ele>
        <time>2022-04-15T09:26:20Z</time>
      </trkpt>
      <trkpt lat="44.03232" lon="3.70006">
        <ele>523.3</ele>
        <time>2022-04-15T09:26:22Z</time>
      </trkpt>
      <trkpt lat="44.03233" lon="3.7001">
        <ele>523.6</ele>
        <time>2022-04-15T09:26:23Z</time>
      </trkpt>
      <trkpt lat="44.03234" lon="3.70013">
        <ele>523.7</ele>
        <time>2022-04-15T09:26:24Z</time>
      </trkpt>
      <trkpt lat="44.03234" lon="3.70015">
        <ele>523.8</ele>
        <time>2022-04-15T09:26:25Z</time>
      </trkpt>
      <trkpt lat="44.03236" lon="3.70019">
        <ele>523.9</ele>
        <time>2022-04-15T09:26:27Z</time>
      </trkpt>
      <trkpt lat="44.03237" lon="3.70022">
        <ele>524.1</ele>
        <time>2022-04-15T09:26:28Z</time>
      </trkpt>
      <trkpt lat="44.03238" lon="3.70025">
        <ele>524.2</ele>
        <time>2022-04-15T09:26:29Z</time>
      </trkpt>
      <trkpt lat="44.0324" lon="3.70029">
        <ele>524.4</ele>
        <time>2022-04-15T09:26:31Z</time>
      </trkpt>
      <trkpt lat="44.03241" lon="3.70032">
        <ele>524.5</ele>
        <time>2022-04-15T09:26:32Z</time>
      </trkpt>
      <trkpt lat="44.03243" lon="3.70036">
        <ele>524.7</ele>
        <time>2022-04-15T09:26:33Z</time>
      </trkpt>
      <trkpt lat="44.03244" lon="3.70037">
        <ele>524.8</ele>
        <time>2022-04-15T09:26:34Z</time>
      </trkpt>
      <trkpt lat="44.03246" lon="3.70041">
        <ele>524.9</ele>
        <time>2022-04-15T09:26:35Z</time>
      </trkpt>
      <trkpt lat="44.03247" lon="3.70043">
        <ele>525</ele>
        <time>2022-04-15T09:26:36Z</time>
      </trkpt>
      <trkpt lat="44.03248" lon="3.70046">
        <ele>525.1</ele>
        <time>2022-04-15T09:26:37Z</time>
      </trkpt>
      <trkpt lat="44.0325" lon="3.70049">
        <ele>525.3</ele>
        <time>2022-04-15T09:26:39Z</time>
      </trkpt>
      <trkpt lat="44.03251" lon="3.70054">
        <ele>525.5</ele>
        <time>2022-04-15T09:26:40Z</time>
      </trkpt>
      <trkpt lat="44.03251" lon="3.70055">
        <ele>525.5</ele>
        <time>2022-04-15T09:26:41Z</time>
      </trkpt>
      <trkpt lat="44.03253" lon="3.70058">
        <ele>525.7</ele>
        <time>2022-04-15T09:26:42Z</time>
      </trkpt>
      <trkpt lat="44.03253" lon="3.7006">
        <ele>525.8</ele>
        <time>2022-04-15T09:26:43Z</time>
      </trkpt>
      <trkpt lat="44.03254" lon="3.70066">
        <ele>526.1</ele>
        <time>2022-04-15T09:26:45Z</time>
      </trkpt>
      <trkpt lat="44.03254" lon="3.70068">
        <ele>526.2</ele>
        <time>2022-04-15T09:26:46Z</time>
      </trkpt>
      <trkpt lat="44.03255" lon="3.7007">
        <ele>526.3</ele>
        <time>2022-04-15T09:26:47Z</time>
      </trkpt>
      <trkpt lat="44.03255" lon="3.70074">
        <ele>526.5</ele>
        <time>2022-04-15T09:26:48Z</time>
      </trkpt>
      <trkpt lat="44.03255" lon="3.70076">
        <ele>526.6</ele>
        <time>2022-04-15T09:26:49Z</time>
      </trkpt>
      <trkpt lat="44.03255" lon="3.70082">
        <ele>526.9</ele>
        <time>2022-04-15T09:26:51Z</time>
      </trkpt>
      <trkpt lat="44.03256" lon="3.70083">
        <ele>527</ele>
        <time>2022-04-15T09:26:52Z</time>
      </trkpt>
      <trkpt lat="44.03256" lon="3.70087">
        <ele>527.2</ele>
        <time>2022-04-15T09:26:53Z</time>
      </trkpt>
      <trkpt lat="44.03256" lon="3.70089">
        <ele>527.3</ele>
        <time>2022-04-15T09:26:54Z</time>
      </trkpt>
      <trkpt lat="44.03256" lon="3.70093">
        <ele>527.6</ele>
        <time>2022-04-15T09:26:55Z</time>
      </trkpt>
      <trkpt lat="44.03256" lon="3.70095">
        <ele>527.6</ele>
        <time>2022-04-15T09:26:56Z</time>
      </trkpt>
      <trkpt lat="44.03257" lon="3.701">
        <ele>527.9</ele>
        <time>2022-04-15T09:26:58Z</time>
      </trkpt>
      <trkpt lat="44.03257" lon="3.70102">
        <ele>528</ele>
        <time>2022-04-15T09:26:59Z</time>
      </trkpt>
      <trkpt lat="44.03257" lon="3.70106">
        <ele>528.2</ele>
        <time>2022-04-15T09:27:00Z</time>
      </trkpt>
      <trkpt lat="44.03257" lon="3.70107">
        <ele>528.3</ele>
        <time>2022-04-15T09:27:01Z</time>
      </trkpt>
      <trkpt lat="44.03257" lon="3.70111">
        <ele>528.5</ele>
        <time>2022-04-15T09:27:02Z</time>
      </trkpt>
      <trkpt lat="44.03257" lon="3.70113">
        <ele>528.6</ele>
        <time>2022-04-15T09:27:03Z</time>
      </trkpt>
      <trkpt lat="44.03257" lon="3.70115">
        <ele>528.8</ele>
        <time>2022-04-15T09:27:04Z</time>
      </trkpt>
      <trkpt lat="44.03257" lon="3.70117">
        <ele>528.9</ele>
        <time>2022-04-15T09:27:05Z</time>
      </trkpt>
      <trkpt lat="44.03258" lon="3.7012">
        <ele>529</ele>
        <time>2022-04-15T09:27:06Z</time>
      </trkpt>
      <trkpt lat="44.03258" lon="3.70124">
        <ele>529.3</ele>
        <time>2022-04-15T09:27:08Z</time>
      </trkpt>
      <trkpt lat="44.03259" lon="3.70128">
        <ele>529.5</ele>
        <time>2022-04-15T09:27:09Z</time>
      </trkpt>
      <trkpt lat="44.03259" lon="3.70133">
        <ele>529.8</ele>
        <time>2022-04-15T09:27:10Z</time>
      </trkpt>
      <trkpt lat="44.0326" lon="3.70134">
        <ele>529.9</ele>
        <time>2022-04-15T09:27:11Z</time>
      </trkpt>
      <trkpt lat="44.03261" lon="3.70139">
        <ele>530.3</ele>
        <time>2022-04-15T09:27:13Z</time>
      </trkpt>
      <trkpt lat="44.03261" lon="3.70141">
        <ele>530.4</ele>
        <time>2022-04-15T09:27:14Z</time>
      </trkpt>
      <trkpt lat="44.03262" lon="3.70145">
        <ele>530.6</ele>
        <time>2022-04-15T09:27:15Z</time>
      </trkpt>
      <trkpt lat="44.03263" lon="3.7015">
        <ele>531</ele>
        <time>2022-04-15T09:27:17Z</time>
      </trkpt>
      <trkpt lat="44.03264" lon="3.70152">
        <ele>531.1</ele>
        <time>2022-04-15T09:27:18Z</time>
      </trkpt>
      <trkpt lat="44.03264" lon="3.70154">
        <ele>531.2</ele>
        <time>2022-04-15T09:27:19Z</time>
      </trkpt>
      <trkpt lat="44.03266" lon="3.70158">
        <ele>531.5</ele>
        <time>2022-04-15T09:27:20Z</time>
      </trkpt>
      <trkpt lat="44.03266" lon="3.7016">
        <ele>531.6</ele>
        <time>2022-04-15T09:27:21Z</time>
      </trkpt>
      <trkpt lat="44.03267" lon="3.70163">
        <ele>531.9</ele>
        <time>2022-04-15T09:27:23Z</time>
      </trkpt>
      <trkpt lat="44.03268" lon="3.70165">
        <ele>532</ele>
        <time>2022-04-15T09:27:24Z</time>
      </trkpt>
      <trkpt lat="44.03269" lon="3.70168">
        <ele>532.2</ele>
        <time>2022-04-15T09:27:25Z</time>
      </trkpt>
      <trkpt lat="44.03271" lon="3.70172">
        <ele>532.5</ele>
        <time>2022-04-15T09:27:26Z</time>
      </trkpt>
      <trkpt lat="44.03272" lon="3.70173">
        <ele>532.6</ele>
        <time>2022-04-15T09:27:27Z</time>
      </trkpt>
      <trkpt lat="44.03274" lon="3.70177">
        <ele>532.9</ele>
        <time>2022-04-15T09:27:28Z</time>
      </trkpt>
      <trkpt lat="44.03275" lon="3.70178">
        <ele>533</ele>
        <time>2022-04-15T09:27:29Z</time>
      </trkpt>
      <trkpt lat="44.03277" lon="3.70183">
        <ele>533.4</ele>
        <time>2022-04-15T09:27:31Z</time>
      </trkpt>
      <trkpt lat="44.03278" lon="3.70185">
        <ele>533.5</ele>
        <time>2022-04-15T09:27:32Z</time>
      </trkpt>
      <trkpt lat="44.03279" lon="3.70186">
        <ele>533.7</ele>
        <time>2022-04-15T09:27:33Z</time>
      </trkpt>
      <trkpt lat="44.03281" lon="3.7019">
        <ele>534</ele>
        <time>2022-04-15T09:27:34Z</time>
      </trkpt>
      <trkpt lat="44.03281" lon="3.70192">
        <ele>534.1</ele>
        <time>2022-04-15T09:27:35Z</time>
      </trkpt>
      <trkpt lat="44.03284" lon="3.70198">
        <ele>534.5</ele>
        <time>2022-04-15T09:27:37Z</time>
      </trkpt>
      <trkpt lat="44.03284" lon="3.702">
        <ele>534.6</ele>
        <time>2022-04-15T09:27:38Z</time>
      </trkpt>
      <trkpt lat="44.03285" lon="3.70203">
        <ele>534.8</ele>
        <time>2022-04-15T09:27:39Z</time>
      </trkpt>
      <trkpt lat="44.03285" lon="3.70207">
        <ele>535</ele>
        <time>2022-04-15T09:27:40Z</time>
      </trkpt>
      <trkpt lat="44.03286" lon="3.70208">
        <ele>535.1</ele>
        <time>2022-04-15T09:27:41Z</time>
      </trkpt>
      <trkpt lat="44.03287" lon="3.70214">
        <ele>535.6</ele>
        <time>2022-04-15T09:27:43Z</time>
      </trkpt>
      <trkpt lat="44.03287" lon="3.70216">
        <ele>535.7</ele>
        <time>2022-04-15T09:27:44Z</time>
      </trkpt>
      <trkpt lat="44.03287" lon="3.70218">
        <ele>535.8</ele>
        <time>2022-04-15T09:27:45Z</time>
      </trkpt>
      <trkpt lat="44.03287" lon="3.70222">
        <ele>536.1</ele>
        <time>2022-04-15T09:27:46Z</time>
      </trkpt>
      <trkpt lat="44.03288" lon="3.70223">
        <ele>536.2</ele>
        <time>2022-04-15T09:27:47Z</time>
      </trkpt>
      <trkpt lat="44.03288" lon="3.70226">
        <ele>536.3</ele>
        <time>2022-04-15T09:27:48Z</time>
      </trkpt>
      <trkpt lat="44.03289" lon="3.70228">
        <ele>536.5</ele>
        <time>2022-04-15T09:27:49Z</time>
      </trkpt>
      <trkpt lat="44.03289" lon="3.70232">
        <ele>536.8</ele>
        <time>2022-04-15T09:27:50Z</time>
      </trkpt>
      <trkpt lat="44.03289" lon="3.70233">
        <ele>536.8</ele>
        <time>2022-04-15T09:27:51Z</time>
      </trkpt>
      <trkpt lat="44.0329" lon="3.70237">
        <ele>537.1</ele>
        <time>2022-04-15T09:27:52Z</time>
      </trkpt>
      <trkpt lat="44.0329" lon="3.70238">
        <ele>537.2</ele>
        <time>2022-04-15T09:27:53Z</time>
      </trkpt>
      <trkpt lat="44.03292" lon="3.70243">
        <ele>537.5</ele>
        <time>2022-04-15T09:27:54Z</time>
      </trkpt>
      <trkpt lat="44.03292" lon="3.70244">
        <ele>537.6</ele>
        <time>2022-04-15T09:27:55Z</time>
      </trkpt>
      <trkpt lat="44.03295" lon="3.7025">
        <ele>538.1</ele>
        <time>2022-04-15T09:27:57Z</time>
      </trkpt>
      <trkpt lat="44.03296" lon="3.70253">
        <ele>538.3</ele>
        <time>2022-04-15T09:27:59Z</time>
      </trkpt>
      <trkpt lat="44.03297" lon="3.70255">
        <ele>538.5</ele>
        <time>2022-04-15T09:28:00Z</time>
      </trkpt>
      <trkpt lat="44.03298" lon="3.70257">
        <ele>538.7</ele>
        <time>2022-04-15T09:28:01Z</time>
      </trkpt>
      <trkpt lat="44.033" lon="3.70261">
        <ele>539</ele>
        <time>2022-04-15T09:28:02Z</time>
      </trkpt>
      <trkpt lat="44.03301" lon="3.70262">
        <ele>539.1</ele>
        <time>2022-04-15T09:28:03Z</time>
      </trkpt>
      <trkpt lat="44.03304" lon="3.70266">
        <ele>539.4</ele>
        <time>2022-04-15T09:28:05Z</time>
      </trkpt>
      <trkpt lat="44.03305" lon="3.70267">
        <ele>539.5</ele>
        <time>2022-04-15T09:28:06Z</time>
      </trkpt>
      <trkpt lat="44.03306" lon="3.70268">
        <ele>539.6</ele>
        <time>2022-04-15T09:28:07Z</time>
      </trkpt>
      <trkpt lat="44.03308" lon="3.7027">
        <ele>539.8</ele>
        <time>2022-04-15T09:28:08Z</time>
      </trkpt>
      <trkpt lat="44.0331" lon="3.70271">
        <ele>539.9</ele>
        <time>2022-04-15T09:28:09Z</time>
      </trkpt>
      <trkpt lat="44.03311" lon="3.70272">
        <ele>540</ele>
        <time>2022-04-15T09:28:10Z</time>
      </trkpt>
      <trkpt lat="44.03314" lon="3.70274">
        <ele>540.2</ele>
        <time>2022-04-15T09:28:12Z</time>
      </trkpt>
      <trkpt lat="44.03318" lon="3.70277">
        <ele>540.5</ele>
        <time>2022-04-15T09:28:14Z</time>
      </trkpt>
      <trkpt lat="44.0332" lon="3.70277">
        <ele>540.6</ele>
        <time>2022-04-15T09:28:15Z</time>
      </trkpt>
      <trkpt lat="44.03321" lon="3.70278">
        <ele>540.7</ele>
        <time>2022-04-15T09:28:16Z</time>
      </trkpt>
      <trkpt lat="44.03324" lon="3.70279">
        <ele>540.8</ele>
        <time>2022-04-15T09:28:17Z</time>
      </trkpt>
      <trkpt lat="44.03325" lon="3.7028">
        <ele>540.9</ele>
        <time>2022-04-15T09:28:18Z</time>
      </trkpt>
      <trkpt lat="44.03328" lon="3.70281">
        <ele>541.1</ele>
        <time>2022-04-15T09:28:20Z</time>
      </trkpt>
      <trkpt lat="44.03332" lon="3.70282">
        <ele>541.4</ele>
        <time>2022-04-15T09:28:21Z</time>
      </trkpt>
      <trkpt lat="44.03333" lon="3.70283">
        <ele>541.4</ele>
        <time>2022-04-15T09:28:22Z</time>
      </trkpt>
      <trkpt lat="44.03336" lon="3.70284">
        <ele>541.7</ele>
        <time>2022-04-15T09:28:23Z</time>
      </trkpt>
      <trkpt lat="44.03338" lon="3.70285">
        <ele>541.8</ele>
        <time>2022-04-15T09:28:24Z</time>
      </trkpt>
      <trkpt lat="44.03341" lon="3.70286">
        <ele>542</ele>
        <time>2022-04-15T09:28:26Z</time>
      </trkpt>
      <trkpt lat="44.03343" lon="3.70286">
        <ele>542.1</ele>
        <time>2022-04-15T09:28:27Z</time>
      </trkpt>
      <trkpt lat="44.03344" lon="3.70287">
        <ele>542.2</ele>
        <time>2022-04-15T09:28:28Z</time>
      </trkpt>
      <trkpt lat="44.03347" lon="3.70288">
        <ele>542.5</ele>
        <time>2022-04-15T09:28:29Z</time>
      </trkpt>
      <trkpt lat="44.03348" lon="3.70288">
        <ele>542.5</ele>
        <time>2022-04-15T09:28:30Z</time>
      </trkpt>
      <trkpt lat="44.03352" lon="3.70289">
        <ele>542.8</ele>
        <time>2022-04-15T09:28:32Z</time>
      </trkpt>
      <trkpt lat="44.03353" lon="3.70289">
        <ele>542.9</ele>
        <time>2022-04-15T09:28:33Z</time>
      </trkpt>
      <trkpt lat="44.03356" lon="3.7029">
        <ele>543.1</ele>
        <time>2022-04-15T09:28:34Z</time>
      </trkpt>
      <trkpt lat="44.03358" lon="3.7029">
        <ele>543.2</ele>
        <time>2022-04-15T09:28:35Z</time>
      </trkpt>
      <trkpt lat="44.03361" lon="3.70291">
        <ele>543.5</ele>
        <time>2022-04-15T09:28:37Z</time>
      </trkpt>
      <trkpt lat="44.03362" lon="3.70291">
        <ele>543.5</ele>
        <time>2022-04-15T09:28:38Z</time>
      </trkpt>
      <trkpt lat="44.03365" lon="3.70292">
        <ele>543.7</ele>
        <time>2022-04-15T09:28:39Z</time>
      </trkpt>
      <trkpt lat="44.03365" lon="3.70293">
        <ele>543.8</ele>
        <time>2022-04-15T09:28:40Z</time>
      </trkpt>
      <trkpt lat="44.03368" lon="3.70295">
        <ele>544</ele>
        <time>2022-04-15T09:28:41Z</time>
      </trkpt>
      <trkpt lat="44.03369" lon="3.70296">
        <ele>544.1</ele>
        <time>2022-04-15T09:28:42Z</time>
      </trkpt>
      <trkpt lat="44.03371" lon="3.70297">
        <ele>544.2</ele>
        <time>2022-04-15T09:28:43Z</time>
      </trkpt>
      <trkpt lat="44.03373" lon="3.70299">
        <ele>544.4</ele>
        <time>2022-04-15T09:28:45Z</time>
      </trkpt>
      <trkpt lat="44.03376" lon="3.70304">
        <ele>544.7</ele>
        <time>2022-04-15T09:28:47Z</time>
      </trkpt>
      <trkpt lat="44.03377" lon="3.70306">
        <ele>544.7</ele>
        <time>2022-04-15T09:28:48Z</time>
      </trkpt>
      <trkpt lat="44.03378" lon="3.70308">
        <ele>544.8</ele>
        <time>2022-04-15T09:28:49Z</time>
      </trkpt>
      <trkpt lat="44.03378" lon="3.7031">
        <ele>544.9</ele>
        <time>2022-04-15T09:28:50Z</time>
      </trkpt>
      <trkpt lat="44.0338" lon="3.70314">
        <ele>545.1</ele>
        <time>2022-04-15T09:28:52Z</time>
      </trkpt>
      <trkpt lat="44.03382" lon="3.70317">
        <ele>545.2</ele>
        <time>2022-04-15T09:28:53Z</time>
      </trkpt>
      <trkpt lat="44.03384" lon="3.70321">
        <ele>545.4</ele>
        <time>2022-04-15T09:28:54Z</time>
      </trkpt>
      <trkpt lat="44.03384" lon="3.70323">
        <ele>545.5</ele>
        <time>2022-04-15T09:28:55Z</time>
      </trkpt>
      <trkpt lat="44.03386" lon="3.70326">
        <ele>545.6</ele>
        <time>2022-04-15T09:28:57Z</time>
      </trkpt>
      <trkpt lat="44.03388" lon="3.7033">
        <ele>545.8</ele>
        <time>2022-04-15T09:28:58Z</time>
      </trkpt>
      <trkpt lat="44.0339" lon="3.70332">
        <ele>545.9</ele>
        <time>2022-04-15T09:28:59Z</time>
      </trkpt>
      <trkpt lat="44.03392" lon="3.70334">
        <ele>546.1</ele>
        <time>2022-04-15T09:29:01Z</time>
      </trkpt>
      <trkpt lat="44.03395" lon="3.70338">
        <ele>546.3</ele>
        <time>2022-04-15T09:29:02Z</time>
      </trkpt>
      <trkpt lat="44.03397" lon="3.7034">
        <ele>546.4</ele>
        <time>2022-04-15T09:29:03Z</time>
      </trkpt>
      <trkpt lat="44.03398" lon="3.70341">
        <ele>546.5</ele>
        <time>2022-04-15T09:29:04Z</time>
      </trkpt>
      <trkpt lat="44.03401" lon="3.70345">
        <ele>546.7</ele>
        <time>2022-04-15T09:29:06Z</time>
      </trkpt>
      <trkpt lat="44.03404" lon="3.70349">
        <ele>547</ele>
        <time>2022-04-15T09:29:08Z</time>
      </trkpt>
      <trkpt lat="44.03404" lon="3.70351">
        <ele>547.1</ele>
        <time>2022-04-15T09:29:09Z</time>
      </trkpt>
      <trkpt lat="44.03405" lon="3.70352">
        <ele>547.2</ele>
        <time>2022-04-15T09:29:10Z</time>
      </trkpt>
      <trkpt lat="44.03407" lon="3.70357">
        <ele>547.5</ele>
        <time>2022-04-15T09:29:12Z</time>
      </trkpt>
      <trkpt lat="44.03408" lon="3.70359">
        <ele>547.6</ele>
        <time>2022-04-15T09:29:13Z</time>
      </trkpt>
      <trkpt lat="44.03408" lon="3.7036">
        <ele>547.7</ele>
        <time>2022-04-15T09:29:14Z</time>
      </trkpt>
      <trkpt lat="44.0341" lon="3.70364">
        <ele>547.9</ele>
        <time>2022-04-15T09:29:15Z</time>
      </trkpt>
      <trkpt lat="44.0341" lon="3.70365">
        <ele>548</ele>
        <time>2022-04-15T09:29:16Z</time>
      </trkpt>
      <trkpt lat="44.03411" lon="3.70367">
        <ele>548.1</ele>
        <time>2022-04-15T09:29:17Z</time>
      </trkpt>
      <trkpt lat="44.03413" lon="3.70371">
        <ele>548.3</ele>
        <time>2022-04-15T09:29:19Z</time>
      </trkpt>
      <trkpt lat="44.03414" lon="3.70375">
        <ele>548.6</ele>
        <time>2022-04-15T09:29:20Z</time>
      </trkpt>
      <trkpt lat="44.03416" lon="3.70379">
        <ele>548.8</ele>
        <time>2022-04-15T09:29:21Z</time>
      </trkpt>
      <trkpt lat="44.03416" lon="3.70381">
        <ele>548.9</ele>
        <time>2022-04-15T09:29:22Z</time>
      </trkpt>
      <trkpt lat="44.03417" lon="3.70386">
        <ele>549.2</ele>
        <time>2022-04-15T09:29:24Z</time>
      </trkpt>
      <trkpt lat="44.03418" lon="3.70389">
        <ele>549.4</ele>
        <time>2022-04-15T09:29:25Z</time>
      </trkpt>
      <trkpt lat="44.03418" lon="3.70393">
        <ele>549.6</ele>
        <time>2022-04-15T09:29:26Z</time>
      </trkpt>
      <trkpt lat="44.03419" lon="3.70397">
        <ele>549.8</ele>
        <time>2022-04-15T09:29:28Z</time>
      </trkpt>
      <trkpt lat="44.03419" lon="3.70401">
        <ele>550</ele>
        <time>2022-04-15T09:29:29Z</time>
      </trkpt>
      <trkpt lat="44.03419" lon="3.70405">
        <ele>550.1</ele>
        <time>2022-04-15T09:29:30Z</time>
      </trkpt>
      <trkpt lat="44.03418" lon="3.70412">
        <ele>550.5</ele>
        <time>2022-04-15T09:29:32Z</time>
      </trkpt>
      <trkpt lat="44.03418" lon="3.70415">
        <ele>550.6</ele>
        <time>2022-04-15T09:29:34Z</time>
      </trkpt>
      <trkpt lat="44.03418" lon="3.70418">
        <ele>550.7</ele>
        <time>2022-04-15T09:29:35Z</time>
      </trkpt>
      <trkpt lat="44.03418" lon="3.70421">
        <ele>550.8</ele>
        <time>2022-04-15T09:29:36Z</time>
      </trkpt>
      <trkpt lat="44.03417" lon="3.70426">
        <ele>551.1</ele>
        <time>2022-04-15T09:29:38Z</time>
      </trkpt>
      <trkpt lat="44.03417" lon="3.70428">
        <ele>551.1</ele>
        <time>2022-04-15T09:29:39Z</time>
      </trkpt>
      <trkpt lat="44.03416" lon="3.70433">
        <ele>551.3</ele>
        <time>2022-04-15T09:29:40Z</time>
      </trkpt>
      <trkpt lat="44.03416" lon="3.70434">
        <ele>551.4</ele>
        <time>2022-04-15T09:29:41Z</time>
      </trkpt>
      <trkpt lat="44.03416" lon="3.70439">
        <ele>551.5</ele>
        <time>2022-04-15T09:29:42Z</time>
      </trkpt>
      <trkpt lat="44.03415" lon="3.7044">
        <ele>551.6</ele>
        <time>2022-04-15T09:29:43Z</time>
      </trkpt>
      <trkpt lat="44.03415" lon="3.70447">
        <ele>551.9</ele>
        <time>2022-04-15T09:29:45Z</time>
      </trkpt>
      <trkpt lat="44.03414" lon="3.70449">
        <ele>552</ele>
        <time>2022-04-15T09:29:46Z</time>
      </trkpt>
      <trkpt lat="44.03414" lon="3.7045">
        <ele>552</ele>
        <time>2022-04-15T09:29:47Z</time>
      </trkpt>
      <trkpt lat="44.03414" lon="3.70455">
        <ele>552.2</ele>
        <time>2022-04-15T09:29:48Z</time>
      </trkpt>
      <trkpt lat="44.03413" lon="3.70456">
        <ele>552.3</ele>
        <time>2022-04-15T09:29:49Z</time>
      </trkpt>
      <trkpt lat="44.03413" lon="3.7046">
        <ele>552.4</ele>
        <time>2022-04-15T09:29:50Z</time>
      </trkpt>
      <trkpt lat="44.03412" lon="3.70463">
        <ele>552.6</ele>
        <time>2022-04-15T09:29:51Z</time>
      </trkpt>
      <trkpt lat="44.03411" lon="3.70467">
        <ele>552.7</ele>
        <time>2022-04-15T09:29:53Z</time>
      </trkpt>
      <trkpt lat="44.0341" lon="3.70472">
        <ele>553</ele>
        <time>2022-04-15T09:29:54Z</time>
      </trkpt>
      <trkpt lat="44.03409" lon="3.70477">
        <ele>553.2</ele>
        <time>2022-04-15T09:29:55Z</time>
      </trkpt>
      <trkpt lat="44.03409" lon="3.70478">
        <ele>553.3</ele>
        <time>2022-04-15T09:29:56Z</time>
      </trkpt>
      <trkpt lat="44.03408" lon="3.70482">
        <ele>553.5</ele>
        <time>2022-04-15T09:29:57Z</time>
      </trkpt>
      <trkpt lat="44.03407" lon="3.70486">
        <ele>553.7</ele>
        <time>2022-04-15T09:29:59Z</time>
      </trkpt>
      <trkpt lat="44.03406" lon="3.7049">
        <ele>553.9</ele>
        <time>2022-04-15T09:30:00Z</time>
      </trkpt>
      <trkpt lat="44.03405" lon="3.70494">
        <ele>554.2</ele>
        <time>2022-04-15T09:30:01Z</time>
      </trkpt>
      <trkpt lat="44.03404" lon="3.70496">
        <ele>554.2</ele>
        <time>2022-04-15T09:30:02Z</time>
      </trkpt>
      <trkpt lat="44.03403" lon="3.70499">
        <ele>554.4</ele>
        <time>2022-04-15T09:30:03Z</time>
      </trkpt>
      <trkpt lat="44.03402" lon="3.70503">
        <ele>554.6</ele>
        <time>2022-04-15T09:30:04Z</time>
      </trkpt>
      <trkpt lat="44.03402" lon="3.70504">
        <ele>554.7</ele>
        <time>2022-04-15T09:30:05Z</time>
      </trkpt>
      <trkpt lat="44.03401" lon="3.70507">
        <ele>554.9</ele>
        <time>2022-04-15T09:30:06Z</time>
      </trkpt>
      <trkpt lat="44.034" lon="3.7051">
        <ele>555.1</ele>
        <time>2022-04-15T09:30:08Z</time>
      </trkpt>
      <trkpt lat="44.03398" lon="3.70515">
        <ele>555.4</ele>
        <time>2022-04-15T09:30:10Z</time>
      </trkpt>
      <trkpt lat="44.03397" lon="3.7052">
        <ele>555.7</ele>
        <time>2022-04-15T09:30:11Z</time>
      </trkpt>
      <trkpt lat="44.03396" lon="3.70521">
        <ele>555.8</ele>
        <time>2022-04-15T09:30:12Z</time>
      </trkpt>
      <trkpt lat="44.03395" lon="3.70526">
        <ele>556.1</ele>
        <time>2022-04-15T09:30:13Z</time>
      </trkpt>
      <trkpt lat="44.03394" lon="3.70528">
        <ele>556.2</ele>
        <time>2022-04-15T09:30:14Z</time>
      </trkpt>
      <trkpt lat="44.03393" lon="3.70531">
        <ele>556.4</ele>
        <time>2022-04-15T09:30:15Z</time>
      </trkpt>
      <trkpt lat="44.03392" lon="3.70535">
        <ele>556.7</ele>
        <time>2022-04-15T09:30:17Z</time>
      </trkpt>
      <trkpt lat="44.03391" lon="3.70539">
        <ele>556.9</ele>
        <time>2022-04-15T09:30:18Z</time>
      </trkpt>
      <trkpt lat="44.0339" lon="3.70544">
        <ele>557.2</ele>
        <time>2022-04-15T09:30:20Z</time>
      </trkpt>
      <trkpt lat="44.0339" lon="3.70545">
        <ele>557.4</ele>
        <time>2022-04-15T09:30:21Z</time>
      </trkpt>
      <trkpt lat="44.03389" lon="3.70549">
        <ele>557.6</ele>
        <time>2022-04-15T09:30:22Z</time>
      </trkpt>
      <trkpt lat="44.03389" lon="3.70551">
        <ele>557.7</ele>
        <time>2022-04-15T09:30:23Z</time>
      </trkpt>
      <trkpt lat="44.03388" lon="3.70555">
        <ele>558</ele>
        <time>2022-04-15T09:30:25Z</time>
      </trkpt>
      <trkpt lat="44.03387" lon="3.70556">
        <ele>558.1</ele>
        <time>2022-04-15T09:30:26Z</time>
      </trkpt>
      <trkpt lat="44.03386" lon="3.7056">
        <ele>558.4</ele>
        <time>2022-04-15T09:30:27Z</time>
      </trkpt>
      <trkpt lat="44.03386" lon="3.70561">
        <ele>558.4</ele>
        <time>2022-04-15T09:30:28Z</time>
      </trkpt>
      <trkpt lat="44.03385" lon="3.70563">
        <ele>558.6</ele>
        <time>2022-04-15T09:30:29Z</time>
      </trkpt>
      <trkpt lat="44.03385" lon="3.70564">
        <ele>558.6</ele>
        <time>2022-04-15T09:30:31Z</time>
      </trkpt>
      <trkpt lat="44.03385" lon="3.70566">
        <ele>558.8</ele>
        <time>2022-04-15T09:30:32Z</time>
      </trkpt>
      <trkpt lat="44.03386" lon="3.7057">
        <ele>559</ele>
        <time>2022-04-15T09:30:33Z</time>
      </trkpt>
      <trkpt lat="44.03386" lon="3.70572">
        <ele>559.2</ele>
        <time>2022-04-15T09:30:34Z</time>
      </trkpt>
      <trkpt lat="44.03386" lon="3.70579">
        <ele>559.6</ele>
        <time>2022-04-15T09:30:36Z</time>
      </trkpt>
      <trkpt lat="44.03386" lon="3.70586">
        <ele>560</ele>
        <time>2022-04-15T09:30:37Z</time>
      </trkpt>
      <trkpt lat="44.03386" lon="3.7059">
        <ele>560.3</ele>
        <time>2022-04-15T09:30:38Z</time>
      </trkpt>
      <trkpt lat="44.03387" lon="3.70596">
        <ele>560.6</ele>
        <time>2022-04-15T09:30:39Z</time>
      </trkpt>
      <trkpt lat="44.03387" lon="3.70598">
        <ele>560.7</ele>
        <time>2022-04-15T09:30:40Z</time>
      </trkpt>
      <trkpt lat="44.03388" lon="3.70602">
        <ele>561</ele>
        <time>2022-04-15T09:30:41Z</time>
      </trkpt>
      <trkpt lat="44.0339" lon="3.70607">
        <ele>561.3</ele>
        <time>2022-04-15T09:30:42Z</time>
      </trkpt>
      <trkpt lat="44.03391" lon="3.70612">
        <ele>561.6</ele>
        <time>2022-04-15T09:30:44Z</time>
      </trkpt>
      <trkpt lat="44.03392" lon="3.70618">
        <ele>561.9</ele>
        <time>2022-04-15T09:30:45Z</time>
      </trkpt>
      <trkpt lat="44.03392" lon="3.7062">
        <ele>562.1</ele>
        <time>2022-04-15T09:30:46Z</time>
      </trkpt>
      <trkpt lat="44.03394" lon="3.70625">
        <ele>562.4</ele>
        <time>2022-04-15T09:30:47Z</time>
      </trkpt>
      <trkpt lat="44.03394" lon="3.70628">
        <ele>562.6</ele>
        <time>2022-04-15T09:30:48Z</time>
      </trkpt>
      <trkpt lat="44.03395" lon="3.70631">
        <ele>562.8</ele>
        <time>2022-04-15T09:30:49Z</time>
      </trkpt>
      <trkpt lat="44.03396" lon="3.70636">
        <ele>563.1</ele>
        <time>2022-04-15T09:30:50Z</time>
      </trkpt>
      <trkpt lat="44.03396" lon="3.70637">
        <ele>563.2</ele>
        <time>2022-04-15T09:30:51Z</time>
      </trkpt>
      <trkpt lat="44.03397" lon="3.70641">
        <ele>563.4</ele>
        <time>2022-04-15T09:30:52Z</time>
      </trkpt>
      <trkpt lat="44.03397" lon="3.70643">
        <ele>563.5</ele>
        <time>2022-04-15T09:30:53Z</time>
      </trkpt>
      <trkpt lat="44.03399" lon="3.70647">
        <ele>563.8</ele>
        <time>2022-04-15T09:30:54Z</time>
      </trkpt>
      <trkpt lat="44.03399" lon="3.70648">
        <ele>563.9</ele>
        <time>2022-04-15T09:30:55Z</time>
      </trkpt>
      <trkpt lat="44.034" lon="3.70652">
        <ele>564.1</ele>
        <time>2022-04-15T09:30:56Z</time>
      </trkpt>
      <trkpt lat="44.03401" lon="3.70653">
        <ele>564.2</ele>
        <time>2022-04-15T09:30:57Z</time>
      </trkpt>
      <trkpt lat="44.03401" lon="3.70656">
        <ele>564.4</ele>
        <time>2022-04-15T09:30:58Z</time>
      </trkpt>
      <trkpt lat="44.03402" lon="3.70658">
        <ele>564.5</ele>
        <time>2022-04-15T09:30:59Z</time>
      </trkpt>
      <trkpt lat="44.03403" lon="3.70662">
        <ele>564.8</ele>
        <time>2022-04-15T09:31:00Z</time>
      </trkpt>
      <trkpt lat="44.03403" lon="3.70663">
        <ele>564.8</ele>
        <time>2022-04-15T09:31:01Z</time>
      </trkpt>
      <trkpt lat="44.03404" lon="3.70665">
        <ele>565</ele>
        <time>2022-04-15T09:31:02Z</time>
      </trkpt>
      <trkpt lat="44.03405" lon="3.70669">
        <ele>565.2</ele>
        <time>2022-04-15T09:31:04Z</time>
      </trkpt>
      <trkpt lat="44.03408" lon="3.70672">
        <ele>565.4</ele>
        <time>2022-04-15T09:31:05Z</time>
      </trkpt>
      <trkpt lat="44.03408" lon="3.70673">
        <ele>565.5</ele>
        <time>2022-04-15T09:31:06Z</time>
      </trkpt>
      <trkpt lat="44.0341" lon="3.70675">
        <ele>565.6</ele>
        <time>2022-04-15T09:31:07Z</time>
      </trkpt>
      <trkpt lat="44.03411" lon="3.70676">
        <ele>565.7</ele>
        <time>2022-04-15T09:31:08Z</time>
      </trkpt>
      <trkpt lat="44.03413" lon="3.70678">
        <ele>565.9</ele>
        <time>2022-04-15T09:31:09Z</time>
      </trkpt>
      <trkpt lat="44.03414" lon="3.70679">
        <ele>565.9</ele>
        <time>2022-04-15T09:31:10Z</time>
      </trkpt>
      <trkpt lat="44.03417" lon="3.70681">
        <ele>566.2</ele>
        <time>2022-04-15T09:31:11Z</time>
      </trkpt>
      <trkpt lat="44.03419" lon="3.70681">
        <ele>566.2</ele>
        <time>2022-04-15T09:31:12Z</time>
      </trkpt>
      <trkpt lat="44.03422" lon="3.70684">
        <ele>566.5</ele>
        <time>2022-04-15T09:31:14Z</time>
      </trkpt>
      <trkpt lat="44.03425" lon="3.70685">
        <ele>566.6</ele>
        <time>2022-04-15T09:31:15Z</time>
      </trkpt>
      <trkpt lat="44.03426" lon="3.70685">
        <ele>566.7</ele>
        <time>2022-04-15T09:31:16Z</time>
      </trkpt>
      <trkpt lat="44.03429" lon="3.70685">
        <ele>566.9</ele>
        <time>2022-04-15T09:31:17Z</time>
      </trkpt>
      <trkpt lat="44.03432" lon="3.70686">
        <ele>567.1</ele>
        <time>2022-04-15T09:31:19Z</time>
      </trkpt>
      <trkpt lat="44.03433" lon="3.70686">
        <ele>567.2</ele>
        <time>2022-04-15T09:31:20Z</time>
      </trkpt>
      <trkpt lat="44.03434" lon="3.70687">
        <ele>567.2</ele>
        <time>2022-04-15T09:31:21Z</time>
      </trkpt>
      <trkpt lat="44.03436" lon="3.70688">
        <ele>567.4</ele>
        <time>2022-04-15T09:31:22Z</time>
      </trkpt>
      <trkpt lat="44.03437" lon="3.70689">
        <ele>567.4</ele>
        <time>2022-04-15T09:31:24Z</time>
      </trkpt>
      <trkpt lat="44.03438" lon="3.7069">
        <ele>567.5</ele>
        <time>2022-04-15T09:31:25Z</time>
      </trkpt>
      <trkpt lat="44.03438" lon="3.70691">
        <ele>567.6</ele>
        <time>2022-04-15T09:31:26Z</time>
      </trkpt>
      <trkpt lat="44.03439" lon="3.70693">
        <ele>567.7</ele>
        <time>2022-04-15T09:31:27Z</time>
      </trkpt>
      <trkpt lat="44.0344" lon="3.70695">
        <ele>567.8</ele>
        <time>2022-04-15T09:31:28Z</time>
      </trkpt>
      <trkpt lat="44.03441" lon="3.70696">
        <ele>567.9</ele>
        <time>2022-04-15T09:31:30Z</time>
      </trkpt>
      <trkpt lat="44.03442" lon="3.70697">
        <ele>568</ele>
        <time>2022-04-15T09:31:31Z</time>
      </trkpt>
      <trkpt lat="44.03443" lon="3.70699">
        <ele>568.1</ele>
        <time>2022-04-15T09:31:32Z</time>
      </trkpt>
      <trkpt lat="44.03445" lon="3.70702">
        <ele>568.3</ele>
        <time>2022-04-15T09:31:33Z</time>
      </trkpt>
      <trkpt lat="44.03448" lon="3.70705">
        <ele>568.6</ele>
        <time>2022-04-15T09:31:34Z</time>
      </trkpt>
      <trkpt lat="44.0345" lon="3.70708">
        <ele>568.8</ele>
        <time>2022-04-15T09:31:36Z</time>
      </trkpt>
      <trkpt lat="44.03453" lon="3.70712">
        <ele>569.1</ele>
        <time>2022-04-15T09:31:37Z</time>
      </trkpt>
      <trkpt lat="44.03455" lon="3.70715">
        <ele>569.3</ele>
        <time>2022-04-15T09:31:38Z</time>
      </trkpt>
      <trkpt lat="44.03457" lon="3.70719">
        <ele>569.5</ele>
        <time>2022-04-15T09:31:39Z</time>
      </trkpt>
      <trkpt lat="44.03458" lon="3.70722">
        <ele>569.7</ele>
        <time>2022-04-15T09:31:40Z</time>
      </trkpt>
      <trkpt lat="44.0346" lon="3.70726">
        <ele>570</ele>
        <time>2022-04-15T09:31:41Z</time>
      </trkpt>
      <trkpt lat="44.03461" lon="3.7073">
        <ele>570.1</ele>
        <time>2022-04-15T09:31:43Z</time>
      </trkpt>
      <trkpt lat="44.03462" lon="3.70734">
        <ele>570.3</ele>
        <time>2022-04-15T09:31:44Z</time>
      </trkpt>
      <trkpt lat="44.03464" lon="3.70738">
        <ele>570.5</ele>
        <time>2022-04-15T09:31:45Z</time>
      </trkpt>
      <trkpt lat="44.03464" lon="3.70739">
        <ele>570.5</ele>
        <time>2022-04-15T09:31:46Z</time>
      </trkpt>
      <trkpt lat="44.03465" lon="3.70743">
        <ele>570.7</ele>
        <time>2022-04-15T09:31:47Z</time>
      </trkpt>
      <trkpt lat="44.03465" lon="3.70744">
        <ele>570.7</ele>
        <time>2022-04-15T09:31:48Z</time>
      </trkpt>
      <trkpt lat="44.03465" lon="3.70747">
        <ele>570.8</ele>
        <time>2022-04-15T09:31:49Z</time>
      </trkpt>
      <trkpt lat="44.03466" lon="3.7075">
        <ele>570.9</ele>
        <time>2022-04-15T09:31:51Z</time>
      </trkpt>
      <trkpt lat="44.03467" lon="3.70754">
        <ele>571.1</ele>
        <time>2022-04-15T09:31:52Z</time>
      </trkpt>
      <trkpt lat="44.03467" lon="3.70755">
        <ele>571.2</ele>
        <time>2022-04-15T09:31:53Z</time>
      </trkpt>
      <trkpt lat="44.03467" lon="3.70758">
        <ele>571.3</ele>
        <time>2022-04-15T09:31:54Z</time>
      </trkpt>
      <trkpt lat="44.03467" lon="3.70761">
        <ele>571.4</ele>
        <time>2022-04-15T09:31:56Z</time>
      </trkpt>
      <trkpt lat="44.03467" lon="3.70765">
        <ele>571.6</ele>
        <time>2022-04-15T09:31:57Z</time>
      </trkpt>
      <trkpt lat="44.03467" lon="3.70766">
        <ele>571.6</ele>
        <time>2022-04-15T09:31:58Z</time>
      </trkpt>
      <trkpt lat="44.03468" lon="3.70769">
        <ele>571.7</ele>
        <time>2022-04-15T09:31:59Z</time>
      </trkpt>
      <trkpt lat="44.03468" lon="3.70772">
        <ele>571.9</ele>
        <time>2022-04-15T09:32:01Z</time>
      </trkpt>
      <trkpt lat="44.03468" lon="3.70774">
        <ele>572</ele>
        <time>2022-04-15T09:32:02Z</time>
      </trkpt>
      <trkpt lat="44.03468" lon="3.70777">
        <ele>572.1</ele>
        <time>2022-04-15T09:32:03Z</time>
      </trkpt>
      <trkpt lat="44.03469" lon="3.70782">
        <ele>572.3</ele>
        <time>2022-04-15T09:32:04Z</time>
      </trkpt>
      <trkpt lat="44.03469" lon="3.70784">
        <ele>572.3</ele>
        <time>2022-04-15T09:32:05Z</time>
      </trkpt>
      <trkpt lat="44.0347" lon="3.70791">
        <ele>572.6</ele>
        <time>2022-04-15T09:32:07Z</time>
      </trkpt>
      <trkpt lat="44.03471" lon="3.70798">
        <ele>573</ele>
        <time>2022-04-15T09:32:09Z</time>
      </trkpt>
      <trkpt lat="44.03472" lon="3.70805">
        <ele>573.2</ele>
        <time>2022-04-15T09:32:10Z</time>
      </trkpt>
      <trkpt lat="44.03472" lon="3.70809">
        <ele>573.5</ele>
        <time>2022-04-15T09:32:11Z</time>
      </trkpt>
      <trkpt lat="44.03472" lon="3.70815">
        <ele>573.7</ele>
        <time>2022-04-15T09:32:12Z</time>
      </trkpt>
      <trkpt lat="44.03473" lon="3.7082">
        <ele>574</ele>
        <time>2022-04-15T09:32:14Z</time>
      </trkpt>
      <trkpt lat="44.03474" lon="3.70825">
        <ele>574.2</ele>
        <time>2022-04-15T09:32:15Z</time>
      </trkpt>
      <trkpt lat="44.03474" lon="3.70827">
        <ele>574.3</ele>
        <time>2022-04-15T09:32:16Z</time>
      </trkpt>
      <trkpt lat="44.03475" lon="3.70831">
        <ele>574.5</ele>
        <time>2022-04-15T09:32:17Z</time>
      </trkpt>
      <trkpt lat="44.03476" lon="3.70832">
        <ele>574.6</ele>
        <time>2022-04-15T09:32:18Z</time>
      </trkpt>
      <trkpt lat="44.03477" lon="3.70837">
        <ele>574.8</ele>
        <time>2022-04-15T09:32:19Z</time>
      </trkpt>
      <trkpt lat="44.03478" lon="3.70839">
        <ele>574.9</ele>
        <time>2022-04-15T09:32:20Z</time>
      </trkpt>
      <trkpt lat="44.03479" lon="3.70844">
        <ele>575.2</ele>
        <time>2022-04-15T09:32:22Z</time>
      </trkpt>
      <trkpt lat="44.03479" lon="3.70846">
        <ele>575.3</ele>
        <time>2022-04-15T09:32:23Z</time>
      </trkpt>
      <trkpt lat="44.0348" lon="3.70848">
        <ele>575.4</ele>
        <time>2022-04-15T09:32:24Z</time>
      </trkpt>
      <trkpt lat="44.03481" lon="3.70851">
        <ele>575.5</ele>
        <time>2022-04-15T09:32:25Z</time>
      </trkpt>
      <trkpt lat="44.03481" lon="3.70852">
        <ele>575.6</ele>
        <time>2022-04-15T09:32:26Z</time>
      </trkpt>
      <trkpt lat="44.03482" lon="3.70852">
        <ele>575.6</ele>
        <time>2022-04-15T09:32:27Z</time>
      </trkpt>
      <trkpt lat="44.03483" lon="3.70856">
        <ele>575.8</ele>
        <time>2022-04-15T09:32:29Z</time>
      </trkpt>
      <trkpt lat="44.03484" lon="3.70857">
        <ele>575.9</ele>
        <time>2022-04-15T09:32:30Z</time>
      </trkpt>
      <trkpt lat="44.03485" lon="3.7086">
        <ele>576.1</ele>
        <time>2022-04-15T09:32:31Z</time>
      </trkpt>
      <trkpt lat="44.03486" lon="3.70862">
        <ele>576.2</ele>
        <time>2022-04-15T09:32:32Z</time>
      </trkpt>
      <trkpt lat="44.03486" lon="3.70864">
        <ele>576.3</ele>
        <time>2022-04-15T09:32:34Z</time>
      </trkpt>
      <trkpt lat="44.03486" lon="3.70866">
        <ele>576.4</ele>
        <time>2022-04-15T09:32:35Z</time>
      </trkpt>
      <trkpt lat="44.03487" lon="3.7087">
        <ele>576.6</ele>
        <time>2022-04-15T09:32:37Z</time>
      </trkpt>
      <trkpt lat="44.03488" lon="3.70872">
        <ele>576.7</ele>
        <time>2022-04-15T09:32:38Z</time>
      </trkpt>
      <trkpt lat="44.03488" lon="3.70877">
        <ele>577</ele>
        <time>2022-04-15T09:32:39Z</time>
      </trkpt>
      <trkpt lat="44.03489" lon="3.70879">
        <ele>577.1</ele>
        <time>2022-04-15T09:32:40Z</time>
      </trkpt>
      <trkpt lat="44.0349" lon="3.70883">
        <ele>577.3</ele>
        <time>2022-04-15T09:32:42Z</time>
      </trkpt>
      <trkpt lat="44.03491" lon="3.7089">
        <ele>577.7</ele>
        <time>2022-04-15T09:32:43Z</time>
      </trkpt>
      <trkpt lat="44.03492" lon="3.70895">
        <ele>578</ele>
        <time>2022-04-15T09:32:44Z</time>
      </trkpt>
      <trkpt lat="44.03493" lon="3.709">
        <ele>578.3</ele>
        <time>2022-04-15T09:32:46Z</time>
      </trkpt>
      <trkpt lat="44.03495" lon="3.70905">
        <ele>578.6</ele>
        <time>2022-04-15T09:32:47Z</time>
      </trkpt>
      <trkpt lat="44.03495" lon="3.70909">
        <ele>578.8</ele>
        <time>2022-04-15T09:32:48Z</time>
      </trkpt>
      <trkpt lat="44.03496" lon="3.70912">
        <ele>579</ele>
        <time>2022-04-15T09:32:49Z</time>
      </trkpt>
      <trkpt lat="44.03497" lon="3.70916">
        <ele>579.3</ele>
        <time>2022-04-15T09:32:50Z</time>
      </trkpt>
      <trkpt lat="44.03498" lon="3.70921">
        <ele>579.5</ele>
        <time>2022-04-15T09:32:52Z</time>
      </trkpt>
      <trkpt lat="44.03499" lon="3.70925">
        <ele>579.8</ele>
        <time>2022-04-15T09:32:53Z</time>
      </trkpt>
      <trkpt lat="44.035" lon="3.7093">
        <ele>580.1</ele>
        <time>2022-04-15T09:32:54Z</time>
      </trkpt>
      <trkpt lat="44.035" lon="3.70932">
        <ele>580.2</ele>
        <time>2022-04-15T09:32:55Z</time>
      </trkpt>
      <trkpt lat="44.035" lon="3.70937">
        <ele>580.5</ele>
        <time>2022-04-15T09:32:57Z</time>
      </trkpt>
      <trkpt lat="44.035" lon="3.70939">
        <ele>580.6</ele>
        <time>2022-04-15T09:32:58Z</time>
      </trkpt>
      <trkpt lat="44.03499" lon="3.70944">
        <ele>580.8</ele>
        <time>2022-04-15T09:32:59Z</time>
      </trkpt>
      <trkpt lat="44.03499" lon="3.70945">
        <ele>580.9</ele>
        <time>2022-04-15T09:33:00Z</time>
      </trkpt>
      <trkpt lat="44.03497" lon="3.7095">
        <ele>581.2</ele>
        <time>2022-04-15T09:33:01Z</time>
      </trkpt>
      <trkpt lat="44.03497" lon="3.70951">
        <ele>581.3</ele>
        <time>2022-04-15T09:33:02Z</time>
      </trkpt>
      <trkpt lat="44.03496" lon="3.70955">
        <ele>581.5</ele>
        <time>2022-04-15T09:33:04Z</time>
      </trkpt>
      <trkpt lat="44.03495" lon="3.70959">
        <ele>581.8</ele>
        <time>2022-04-15T09:33:05Z</time>
      </trkpt>
      <trkpt lat="44.03493" lon="3.70963">
        <ele>582.1</ele>
        <time>2022-04-15T09:33:06Z</time>
      </trkpt>
      <trkpt lat="44.03492" lon="3.70965">
        <ele>582.2</ele>
        <time>2022-04-15T09:33:07Z</time>
      </trkpt>
      <trkpt lat="44.03491" lon="3.70969">
        <ele>582.6</ele>
        <time>2022-04-15T09:33:08Z</time>
      </trkpt>
      <trkpt lat="44.0349" lon="3.70971">
        <ele>582.7</ele>
        <time>2022-04-15T09:33:09Z</time>
      </trkpt>
      <trkpt lat="44.03489" lon="3.70975">
        <ele>583</ele>
        <time>2022-04-15T09:33:10Z</time>
      </trkpt>
      <trkpt lat="44.03488" lon="3.70979">
        <ele>583.3</ele>
        <time>2022-04-15T09:33:12Z</time>
      </trkpt>
      <trkpt lat="44.03487" lon="3.70983">
        <ele>583.5</ele>
        <time>2022-04-15T09:33:13Z</time>
      </trkpt>
      <trkpt lat="44.03487" lon="3.70987">
        <ele>583.8</ele>
        <time>2022-04-15T09:33:14Z</time>
      </trkpt>
      <trkpt lat="44.03486" lon="3.70991">
        <ele>584</ele>
        <time>2022-04-15T09:33:16Z</time>
      </trkpt>
      <trkpt lat="44.03486" lon="3.70995">
        <ele>584.3</ele>
        <time>2022-04-15T09:33:17Z</time>
      </trkpt>
      <trkpt lat="44.03486" lon="3.71">
        <ele>584.6</ele>
        <time>2022-04-15T09:33:18Z</time>
      </trkpt>
      <trkpt lat="44.03486" lon="3.71002">
        <ele>584.7</ele>
        <time>2022-04-15T09:33:19Z</time>
      </trkpt>
      <trkpt lat="44.03487" lon="3.71006">
        <ele>584.9</ele>
        <time>2022-04-15T09:33:20Z</time>
      </trkpt>
      <trkpt lat="44.03487" lon="3.71008">
        <ele>585</ele>
        <time>2022-04-15T09:33:21Z</time>
      </trkpt>
      <trkpt lat="44.03488" lon="3.71011">
        <ele>585.2</ele>
        <time>2022-04-15T09:33:22Z</time>
      </trkpt>
      <trkpt lat="44.0349" lon="3.71013">
        <ele>585.3</ele>
        <time>2022-04-15T09:33:24Z</time>
      </trkpt>
      <trkpt lat="44.03491" lon="3.71016">
        <ele>585.5</ele>
        <time>2022-04-15T09:33:25Z</time>
      </trkpt>
      <trkpt lat="44.03494" lon="3.7102">
        <ele>585.7</ele>
        <time>2022-04-15T09:33:26Z</time>
      </trkpt>
      <trkpt lat="44.03495" lon="3.71021">
        <ele>585.8</ele>
        <time>2022-04-15T09:33:27Z</time>
      </trkpt>
      <trkpt lat="44.03499" lon="3.71025">
        <ele>586</ele>
        <time>2022-04-15T09:33:29Z</time>
      </trkpt>
      <trkpt lat="44.035" lon="3.71026">
        <ele>586.1</ele>
        <time>2022-04-15T09:33:30Z</time>
      </trkpt>
      <trkpt lat="44.03501" lon="3.71028">
        <ele>586.1</ele>
        <time>2022-04-15T09:33:31Z</time>
      </trkpt>
      <trkpt lat="44.03503" lon="3.71031">
        <ele>586.3</ele>
        <time>2022-04-15T09:33:32Z</time>
      </trkpt>
      <trkpt lat="44.03504" lon="3.71032">
        <ele>586.4</ele>
        <time>2022-04-15T09:33:33Z</time>
      </trkpt>
      <trkpt lat="44.03505" lon="3.71034">
        <ele>586.5</ele>
        <time>2022-04-15T09:33:34Z</time>
      </trkpt>
      <trkpt lat="44.03508" lon="3.71037">
        <ele>586.6</ele>
        <time>2022-04-15T09:33:36Z</time>
      </trkpt>
      <trkpt lat="44.03509" lon="3.71038">
        <ele>586.7</ele>
        <time>2022-04-15T09:33:37Z</time>
      </trkpt>
      <trkpt lat="44.0351" lon="3.7104">
        <ele>586.8</ele>
        <time>2022-04-15T09:33:38Z</time>
      </trkpt>
      <trkpt lat="44.03511" lon="3.71042">
        <ele>586.9</ele>
        <time>2022-04-15T09:33:39Z</time>
      </trkpt>
      <trkpt lat="44.03512" lon="3.71043">
        <ele>587</ele>
        <time>2022-04-15T09:33:40Z</time>
      </trkpt>
      <trkpt lat="44.03513" lon="3.71044">
        <ele>587</ele>
        <time>2022-04-15T09:33:41Z</time>
      </trkpt>
      <trkpt lat="44.03514" lon="3.71047">
        <ele>587.1</ele>
        <time>2022-04-15T09:33:43Z</time>
      </trkpt>
      <trkpt lat="44.03515" lon="3.71048">
        <ele>587.2</ele>
        <time>2022-04-15T09:33:44Z</time>
      </trkpt>
      <trkpt lat="44.03517" lon="3.7105">
        <ele>587.3</ele>
        <time>2022-04-15T09:33:45Z</time>
      </trkpt>
      <trkpt lat="44.03518" lon="3.71053">
        <ele>587.5</ele>
        <time>2022-04-15T09:33:46Z</time>
      </trkpt>
      <trkpt lat="44.0352" lon="3.71056">
        <ele>587.6</ele>
        <time>2022-04-15T09:33:48Z</time>
      </trkpt>
      <trkpt lat="44.03521" lon="3.7106">
        <ele>587.8</ele>
        <time>2022-04-15T09:33:49Z</time>
      </trkpt>
      <trkpt lat="44.03523" lon="3.71064">
        <ele>588</ele>
        <time>2022-04-15T09:33:50Z</time>
      </trkpt>
      <trkpt lat="44.03524" lon="3.71065">
        <ele>588.1</ele>
        <time>2022-04-15T09:33:51Z</time>
      </trkpt>
      <trkpt lat="44.03526" lon="3.71068">
        <ele>588.3</ele>
        <time>2022-04-15T09:33:52Z</time>
      </trkpt>
      <trkpt lat="44.03527" lon="3.71071">
        <ele>588.4</ele>
        <time>2022-04-15T09:33:53Z</time>
      </trkpt>
      <trkpt lat="44.03529" lon="3.71074">
        <ele>588.6</ele>
        <time>2022-04-15T09:33:55Z</time>
      </trkpt>
      <trkpt lat="44.03531" lon="3.71077">
        <ele>588.8</ele>
        <time>2022-04-15T09:33:56Z</time>
      </trkpt>
      <trkpt lat="44.03534" lon="3.7108">
        <ele>589</ele>
        <time>2022-04-15T09:33:57Z</time>
      </trkpt>
      <trkpt lat="44.03535" lon="3.71081">
        <ele>589.1</ele>
        <time>2022-04-15T09:33:58Z</time>
      </trkpt>
      <trkpt lat="44.03537" lon="3.71084">
        <ele>589.3</ele>
        <time>2022-04-15T09:33:59Z</time>
      </trkpt>
      <trkpt lat="44.0354" lon="3.71086">
        <ele>589.5</ele>
        <time>2022-04-15T09:34:01Z</time>
      </trkpt>
      <trkpt lat="44.03543" lon="3.7109">
        <ele>589.8</ele>
        <time>2022-04-15T09:34:02Z</time>
      </trkpt>
      <trkpt lat="44.03546" lon="3.71093">
        <ele>590</ele>
        <time>2022-04-15T09:34:03Z</time>
      </trkpt>
      <trkpt lat="44.03548" lon="3.71093">
        <ele>590.1</ele>
        <time>2022-04-15T09:34:04Z</time>
      </trkpt>
      <trkpt lat="44.03552" lon="3.71096">
        <ele>590.3</ele>
        <time>2022-04-15T09:34:05Z</time>
      </trkpt>
      <trkpt lat="44.03553" lon="3.71097">
        <ele>590.4</ele>
        <time>2022-04-15T09:34:06Z</time>
      </trkpt>
      <trkpt lat="44.03557" lon="3.71101">
        <ele>590.7</ele>
        <time>2022-04-15T09:34:08Z</time>
      </trkpt>
      <trkpt lat="44.03559" lon="3.71101">
        <ele>590.8</ele>
        <time>2022-04-15T09:34:09Z</time>
      </trkpt>
      <trkpt lat="44.0356" lon="3.71102">
        <ele>590.9</ele>
        <time>2022-04-15T09:34:10Z</time>
      </trkpt>
      <trkpt lat="44.03563" lon="3.71104">
        <ele>591.1</ele>
        <time>2022-04-15T09:34:11Z</time>
      </trkpt>
      <trkpt lat="44.03564" lon="3.71105">
        <ele>591.1</ele>
        <time>2022-04-15T09:34:12Z</time>
      </trkpt>
      <trkpt lat="44.03569" lon="3.71108">
        <ele>591.5</ele>
        <time>2022-04-15T09:34:14Z</time>
      </trkpt>
      <trkpt lat="44.03571" lon="3.7111">
        <ele>591.6</ele>
        <time>2022-04-15T09:34:16Z</time>
      </trkpt>
      <trkpt lat="44.03573" lon="3.71111">
        <ele>591.7</ele>
        <time>2022-04-15T09:34:17Z</time>
      </trkpt>
      <trkpt lat="44.03574" lon="3.71112">
        <ele>591.8</ele>
        <time>2022-04-15T09:34:18Z</time>
      </trkpt>
      <trkpt lat="44.03576" lon="3.71113">
        <ele>591.9</ele>
        <time>2022-04-15T09:34:19Z</time>
      </trkpt>
      <trkpt lat="44.03577" lon="3.71114">
        <ele>591.9</ele>
        <time>2022-04-15T09:34:20Z</time>
      </trkpt>
      <trkpt lat="44.0358" lon="3.71116">
        <ele>592.1</ele>
        <time>2022-04-15T09:34:22Z</time>
      </trkpt>
      <trkpt lat="44.03581" lon="3.71117">
        <ele>592.2</ele>
        <time>2022-04-15T09:34:23Z</time>
      </trkpt>
      <trkpt lat="44.03583" lon="3.71119">
        <ele>592.4</ele>
        <time>2022-04-15T09:34:24Z</time>
      </trkpt>
      <trkpt lat="44.03584" lon="3.7112">
        <ele>592.4</ele>
        <time>2022-04-15T09:34:25Z</time>
      </trkpt>
      <trkpt lat="44.03587" lon="3.71122">
        <ele>592.6</ele>
        <time>2022-04-15T09:34:27Z</time>
      </trkpt>
      <trkpt lat="44.03588" lon="3.71123">
        <ele>592.7</ele>
        <time>2022-04-15T09:34:28Z</time>
      </trkpt>
      <trkpt lat="44.03591" lon="3.71125">
        <ele>592.9</ele>
        <time>2022-04-15T09:34:30Z</time>
      </trkpt>
      <trkpt lat="44.03594" lon="3.71126">
        <ele>593.1</ele>
        <time>2022-04-15T09:34:31Z</time>
      </trkpt>
      <trkpt lat="44.03597" lon="3.71128">
        <ele>593.3</ele>
        <time>2022-04-15T09:34:32Z</time>
      </trkpt>
      <trkpt lat="44.036" lon="3.7113">
        <ele>593.5</ele>
        <time>2022-04-15T09:34:33Z</time>
      </trkpt>
      <trkpt lat="44.03603" lon="3.71133">
        <ele>593.7</ele>
        <time>2022-04-15T09:34:35Z</time>
      </trkpt>
      <trkpt lat="44.03605" lon="3.71136">
        <ele>594</ele>
        <time>2022-04-15T09:34:36Z</time>
      </trkpt>
      <trkpt lat="44.03608" lon="3.71139">
        <ele>594.2</ele>
        <time>2022-04-15T09:34:37Z</time>
      </trkpt>
      <trkpt lat="44.03609" lon="3.7114">
        <ele>594.3</ele>
        <time>2022-04-15T09:34:38Z</time>
      </trkpt>
      <trkpt lat="44.03611" lon="3.71144">
        <ele>594.5</ele>
        <time>2022-04-15T09:34:40Z</time>
      </trkpt>
      <trkpt lat="44.03612" lon="3.71145">
        <ele>594.5</ele>
        <time>2022-04-15T09:34:41Z</time>
      </trkpt>
      <trkpt lat="44.03613" lon="3.71147">
        <ele>594.6</ele>
        <time>2022-04-15T09:34:42Z</time>
      </trkpt>
      <trkpt lat="44.03614" lon="3.71148">
        <ele>594.7</ele>
        <time>2022-04-15T09:34:43Z</time>
      </trkpt>
      <trkpt lat="44.03615" lon="3.71151">
        <ele>594.8</ele>
        <time>2022-04-15T09:34:45Z</time>
      </trkpt>
      <trkpt lat="44.03617" lon="3.71155">
        <ele>595</ele>
        <time>2022-04-15T09:34:46Z</time>
      </trkpt>
      <trkpt lat="44.03619" lon="3.71158">
        <ele>595.1</ele>
        <time>2022-04-15T09:34:47Z</time>
      </trkpt>
      <trkpt lat="44.0362" lon="3.71161">
        <ele>595.3</ele>
        <time>2022-04-15T09:34:48Z</time>
      </trkpt>
      <trkpt lat="44.03622" lon="3.71165">
        <ele>595.4</ele>
        <time>2022-04-15T09:34:49Z</time>
      </trkpt>
      <trkpt lat="44.03624" lon="3.7117">
        <ele>595.6</ele>
        <time>2022-04-15T09:34:51Z</time>
      </trkpt>
      <trkpt lat="44.03626" lon="3.71176">
        <ele>595.7</ele>
        <time>2022-04-15T09:34:53Z</time>
      </trkpt>
      <trkpt lat="44.03627" lon="3.7118">
        <ele>595.8</ele>
        <time>2022-04-15T09:34:54Z</time>
      </trkpt>
      <trkpt lat="44.03628" lon="3.71184">
        <ele>596</ele>
        <time>2022-04-15T09:34:55Z</time>
      </trkpt>
      <trkpt lat="44.03629" lon="3.71188">
        <ele>596.1</ele>
        <time>2022-04-15T09:34:56Z</time>
      </trkpt>
      <trkpt lat="44.0363" lon="3.71191">
        <ele>596.2</ele>
        <time>2022-04-15T09:34:58Z</time>
      </trkpt>
      <trkpt lat="44.03631" lon="3.71196">
        <ele>596.3</ele>
        <time>2022-04-15T09:34:59Z</time>
      </trkpt>
      <trkpt lat="44.03632" lon="3.712">
        <ele>596.4</ele>
        <time>2022-04-15T09:35:00Z</time>
      </trkpt>
      <trkpt lat="44.03632" lon="3.71201">
        <ele>596.4</ele>
        <time>2022-04-15T09:35:01Z</time>
      </trkpt>
      <trkpt lat="44.03633" lon="3.71205">
        <ele>596.5</ele>
        <time>2022-04-15T09:35:02Z</time>
      </trkpt>
      <trkpt lat="44.03634" lon="3.71207">
        <ele>596.5</ele>
        <time>2022-04-15T09:35:03Z</time>
      </trkpt>
      <trkpt lat="44.03634" lon="3.71211">
        <ele>596.6</ele>
        <time>2022-04-15T09:35:04Z</time>
      </trkpt>
      <trkpt lat="44.03634" lon="3.71213">
        <ele>596.6</ele>
        <time>2022-04-15T09:35:05Z</time>
      </trkpt>
      <trkpt lat="44.03634" lon="3.71218">
        <ele>596.7</ele>
        <time>2022-04-15T09:35:07Z</time>
      </trkpt>
      <trkpt lat="44.03634" lon="3.71222">
        <ele>596.8</ele>
        <time>2022-04-15T09:35:08Z</time>
      </trkpt>
      <trkpt lat="44.03635" lon="3.71226">
        <ele>596.9</ele>
        <time>2022-04-15T09:35:10Z</time>
      </trkpt>
      <trkpt lat="44.03635" lon="3.71227">
        <ele>596.9</ele>
        <time>2022-04-15T09:35:11Z</time>
      </trkpt>
      <trkpt lat="44.03635" lon="3.71232">
        <ele>597</ele>
        <time>2022-04-15T09:35:12Z</time>
      </trkpt>
      <trkpt lat="44.03635" lon="3.71233">
        <ele>597</ele>
        <time>2022-04-15T09:35:13Z</time>
      </trkpt>
      <trkpt lat="44.03636" lon="3.71239">
        <ele>597</ele>
        <time>2022-04-15T09:35:15Z</time>
      </trkpt>
      <trkpt lat="44.03636" lon="3.71241">
        <ele>597.1</ele>
        <time>2022-04-15T09:35:16Z</time>
      </trkpt>
      <trkpt lat="44.03637" lon="3.71245">
        <ele>597.1</ele>
        <time>2022-04-15T09:35:17Z</time>
      </trkpt>
      <trkpt lat="44.03637" lon="3.71247">
        <ele>597.1</ele>
        <time>2022-04-15T09:35:18Z</time>
      </trkpt>
      <trkpt lat="44.03638" lon="3.71252">
        <ele>597.1</ele>
        <time>2022-04-15T09:35:19Z</time>
      </trkpt>
      <trkpt lat="44.03639" lon="3.71259">
        <ele>597.2</ele>
        <time>2022-04-15T09:35:21Z</time>
      </trkpt>
      <trkpt lat="44.03641" lon="3.71266">
        <ele>597.2</ele>
        <time>2022-04-15T09:35:23Z</time>
      </trkpt>
      <trkpt lat="44.03642" lon="3.71272">
        <ele>597.2</ele>
        <time>2022-04-15T09:35:24Z</time>
      </trkpt>
      <trkpt lat="44.03643" lon="3.71276">
        <ele>597.2</ele>
        <time>2022-04-15T09:35:25Z</time>
      </trkpt>
      <trkpt lat="44.03644" lon="3.7128">
        <ele>597.2</ele>
        <time>2022-04-15T09:35:26Z</time>
      </trkpt>
      <trkpt lat="44.03645" lon="3.71285">
        <ele>597.3</ele>
        <time>2022-04-15T09:35:28Z</time>
      </trkpt>
      <trkpt lat="44.03645" lon="3.71291">
        <ele>597.3</ele>
        <time>2022-04-15T09:35:30Z</time>
      </trkpt>
      <trkpt lat="44.03646" lon="3.71296">
        <ele>597.3</ele>
        <time>2022-04-15T09:35:31Z</time>
      </trkpt>
      <trkpt lat="44.03646" lon="3.71301">
        <ele>597.3</ele>
        <time>2022-04-15T09:35:33Z</time>
      </trkpt>
      <trkpt lat="44.03647" lon="3.71306">
        <ele>597.3</ele>
        <time>2022-04-15T09:35:34Z</time>
      </trkpt>
      <trkpt lat="44.03647" lon="3.7131">
        <ele>597.3</ele>
        <time>2022-04-15T09:35:35Z</time>
      </trkpt>
      <trkpt lat="44.03648" lon="3.71312">
        <ele>597.4</ele>
        <time>2022-04-15T09:35:36Z</time>
      </trkpt>
      <trkpt lat="44.03648" lon="3.71316">
        <ele>597.4</ele>
        <time>2022-04-15T09:35:37Z</time>
      </trkpt>
      <trkpt lat="44.0365" lon="3.71322">
        <ele>597.5</ele>
        <time>2022-04-15T09:35:39Z</time>
      </trkpt>
      <trkpt lat="44.0365" lon="3.71324">
        <ele>597.5</ele>
        <time>2022-04-15T09:35:40Z</time>
      </trkpt>
      <trkpt lat="44.0365" lon="3.71327">
        <ele>597.5</ele>
        <time>2022-04-15T09:35:41Z</time>
      </trkpt>
      <trkpt lat="44.03651" lon="3.71331">
        <ele>597.6</ele>
        <time>2022-04-15T09:35:42Z</time>
      </trkpt>
      <trkpt lat="44.03651" lon="3.71333">
        <ele>597.6</ele>
        <time>2022-04-15T09:35:43Z</time>
      </trkpt>
      <trkpt lat="44.03652" lon="3.71337">
        <ele>597.7</ele>
        <time>2022-04-15T09:35:44Z</time>
      </trkpt>
      <trkpt lat="44.03653" lon="3.71342">
        <ele>597.8</ele>
        <time>2022-04-15T09:35:46Z</time>
      </trkpt>
      <trkpt lat="44.03654" lon="3.71346">
        <ele>597.8</ele>
        <time>2022-04-15T09:35:47Z</time>
      </trkpt>
      <trkpt lat="44.03655" lon="3.7135">
        <ele>597.9</ele>
        <time>2022-04-15T09:35:49Z</time>
      </trkpt>
      <trkpt lat="44.03656" lon="3.71354">
        <ele>598</ele>
        <time>2022-04-15T09:35:50Z</time>
      </trkpt>
      <trkpt lat="44.03657" lon="3.71359">
        <ele>598.1</ele>
        <time>2022-04-15T09:35:51Z</time>
      </trkpt>
      <trkpt lat="44.03658" lon="3.71364">
        <ele>598.2</ele>
        <time>2022-04-15T09:35:53Z</time>
      </trkpt>
      <trkpt lat="44.03659" lon="3.71369">
        <ele>598.3</ele>
        <time>2022-04-15T09:35:55Z</time>
      </trkpt>
      <trkpt lat="44.0366" lon="3.71373">
        <ele>598.4</ele>
        <time>2022-04-15T09:35:56Z</time>
      </trkpt>
      <trkpt lat="44.0366" lon="3.71378">
        <ele>598.5</ele>
        <time>2022-04-15T09:35:58Z</time>
      </trkpt>
      <trkpt lat="44.03661" lon="3.71383">
        <ele>598.7</ele>
        <time>2022-04-15T09:35:59Z</time>
      </trkpt>
      <trkpt lat="44.03662" lon="3.71388">
        <ele>598.8</ele>
        <time>2022-04-15T09:36:00Z</time>
      </trkpt>
      <trkpt lat="44.03662" lon="3.71389">
        <ele>598.9</ele>
        <time>2022-04-15T09:36:01Z</time>
      </trkpt>
      <trkpt lat="44.03663" lon="3.71394">
        <ele>599</ele>
        <time>2022-04-15T09:36:02Z</time>
      </trkpt>
      <trkpt lat="44.03663" lon="3.71396">
        <ele>599.1</ele>
        <time>2022-04-15T09:36:03Z</time>
      </trkpt>
      <trkpt lat="44.03663" lon="3.71401">
        <ele>599.3</ele>
        <time>2022-04-15T09:36:05Z</time>
      </trkpt>
      <trkpt lat="44.03664" lon="3.71407">
        <ele>599.5</ele>
        <time>2022-04-15T09:36:07Z</time>
      </trkpt>
      <trkpt lat="44.03664" lon="3.71411">
        <ele>599.6</ele>
        <time>2022-04-15T09:36:08Z</time>
      </trkpt>
      <trkpt lat="44.03665" lon="3.71414">
        <ele>599.8</ele>
        <time>2022-04-15T09:36:09Z</time>
      </trkpt>
      <trkpt lat="44.03665" lon="3.71419">
        <ele>600</ele>
        <time>2022-04-15T09:36:10Z</time>
      </trkpt>
      <trkpt lat="44.03666" lon="3.71423">
        <ele>600.1</ele>
        <time>2022-04-15T09:36:12Z</time>
      </trkpt>
      <trkpt lat="44.03666" lon="3.71426">
        <ele>600.3</ele>
        <time>2022-04-15T09:36:13Z</time>
      </trkpt>
      <trkpt lat="44.03666" lon="3.71431">
        <ele>600.5</ele>
        <time>2022-04-15T09:36:14Z</time>
      </trkpt>
      <trkpt lat="44.03666" lon="3.71435">
        <ele>600.6</ele>
        <time>2022-04-15T09:36:15Z</time>
      </trkpt>
      <trkpt lat="44.03667" lon="3.71441">
        <ele>600.9</ele>
        <time>2022-04-15T09:36:17Z</time>
      </trkpt>
      <trkpt lat="44.03667" lon="3.71443">
        <ele>601</ele>
        <time>2022-04-15T09:36:18Z</time>
      </trkpt>
      <trkpt lat="44.03668" lon="3.71448">
        <ele>601.3</ele>
        <time>2022-04-15T09:36:19Z</time>
      </trkpt>
      <trkpt lat="44.03668" lon="3.7145">
        <ele>601.4</ele>
        <time>2022-04-15T09:36:20Z</time>
      </trkpt>
      <trkpt lat="44.03668" lon="3.71455">
        <ele>601.7</ele>
        <time>2022-04-15T09:36:22Z</time>
      </trkpt>
      <trkpt lat="44.03669" lon="3.71457">
        <ele>601.8</ele>
        <time>2022-04-15T09:36:23Z</time>
      </trkpt>
      <trkpt lat="44.0367" lon="3.71462">
        <ele>602</ele>
        <time>2022-04-15T09:36:24Z</time>
      </trkpt>
      <trkpt lat="44.0367" lon="3.71464">
        <ele>602.1</ele>
        <time>2022-04-15T09:36:25Z</time>
      </trkpt>
      <trkpt lat="44.03671" lon="3.71469">
        <ele>602.4</ele>
        <time>2022-04-15T09:36:26Z</time>
      </trkpt>
      <trkpt lat="44.03671" lon="3.71471">
        <ele>602.5</ele>
        <time>2022-04-15T09:36:27Z</time>
      </trkpt>
      <trkpt lat="44.03673" lon="3.71474">
        <ele>602.7</ele>
        <time>2022-04-15T09:36:29Z</time>
      </trkpt>
      <trkpt lat="44.03674" lon="3.71479">
        <ele>602.9</ele>
        <time>2022-04-15T09:36:30Z</time>
      </trkpt>
      <trkpt lat="44.03675" lon="3.71484">
        <ele>603.2</ele>
        <time>2022-04-15T09:36:31Z</time>
      </trkpt>
      <trkpt lat="44.03676" lon="3.71485">
        <ele>603.3</ele>
        <time>2022-04-15T09:36:32Z</time>
      </trkpt>
      <trkpt lat="44.03678" lon="3.71489">
        <ele>603.5</ele>
        <time>2022-04-15T09:36:34Z</time>
      </trkpt>
      <trkpt lat="44.03679" lon="3.71492">
        <ele>603.7</ele>
        <time>2022-04-15T09:36:35Z</time>
      </trkpt>
      <trkpt lat="44.03682" lon="3.71496">
        <ele>604</ele>
        <time>2022-04-15T09:36:36Z</time>
      </trkpt>
      <trkpt lat="44.03682" lon="3.71497">
        <ele>604</ele>
        <time>2022-04-15T09:36:37Z</time>
      </trkpt>
      <trkpt lat="44.03684" lon="3.715">
        <ele>604.2</ele>
        <time>2022-04-15T09:36:38Z</time>
      </trkpt>
      <trkpt lat="44.03685" lon="3.71501">
        <ele>604.3</ele>
        <time>2022-04-15T09:36:39Z</time>
      </trkpt>
      <trkpt lat="44.03688" lon="3.71506">
        <ele>604.6</ele>
        <time>2022-04-15T09:36:41Z</time>
      </trkpt>
      <trkpt lat="44.0369" lon="3.71507">
        <ele>604.7</ele>
        <time>2022-04-15T09:36:42Z</time>
      </trkpt>
      <trkpt lat="44.03691" lon="3.71508">
        <ele>604.8</ele>
        <time>2022-04-15T09:36:43Z</time>
      </trkpt>
      <trkpt lat="44.03694" lon="3.71511">
        <ele>605</ele>
        <time>2022-04-15T09:36:44Z</time>
      </trkpt>
      <trkpt lat="44.03696" lon="3.71513">
        <ele>605.2</ele>
        <time>2022-04-15T09:36:46Z</time>
      </trkpt>
      <trkpt lat="44.03699" lon="3.71516">
        <ele>605.4</ele>
        <time>2022-04-15T09:36:47Z</time>
      </trkpt>
      <trkpt lat="44.03702" lon="3.71519">
        <ele>605.6</ele>
        <time>2022-04-15T09:36:49Z</time>
      </trkpt>
      <trkpt lat="44.03703" lon="3.7152">
        <ele>605.7</ele>
        <time>2022-04-15T09:36:50Z</time>
      </trkpt>
      <trkpt lat="44.03706" lon="3.71523">
        <ele>605.9</ele>
        <time>2022-04-15T09:36:51Z</time>
      </trkpt>
      <trkpt lat="44.03707" lon="3.71524">
        <ele>605.9</ele>
        <time>2022-04-15T09:36:52Z</time>
      </trkpt>
      <trkpt lat="44.0371" lon="3.71527">
        <ele>606.2</ele>
        <time>2022-04-15T09:36:54Z</time>
      </trkpt>
      <trkpt lat="44.03711" lon="3.71529">
        <ele>606.2</ele>
        <time>2022-04-15T09:36:55Z</time>
      </trkpt>
      <trkpt lat="44.03713" lon="3.71531">
        <ele>606.4</ele>
        <time>2022-04-15T09:36:56Z</time>
      </trkpt>
      <trkpt lat="44.03716" lon="3.71535">
        <ele>606.6</ele>
        <time>2022-04-15T09:36:57Z</time>
      </trkpt>
      <trkpt lat="44.03717" lon="3.71536">
        <ele>606.6</ele>
        <time>2022-04-15T09:36:58Z</time>
      </trkpt>
      <trkpt lat="44.03719" lon="3.71539">
        <ele>606.8</ele>
        <time>2022-04-15T09:36:59Z</time>
      </trkpt>
      <trkpt lat="44.03721" lon="3.71543">
        <ele>607</ele>
        <time>2022-04-15T09:37:01Z</time>
      </trkpt>
      <trkpt lat="44.03722" lon="3.71545">
        <ele>607.1</ele>
        <time>2022-04-15T09:37:02Z</time>
      </trkpt>
      <trkpt lat="44.03723" lon="3.71548">
        <ele>607.2</ele>
        <time>2022-04-15T09:37:03Z</time>
      </trkpt>
      <trkpt lat="44.03725" lon="3.71552">
        <ele>607.5</ele>
        <time>2022-04-15T09:37:04Z</time>
      </trkpt>
      <trkpt lat="44.03726" lon="3.71554">
        <ele>607.5</ele>
        <time>2022-04-15T09:37:05Z</time>
      </trkpt>
      <trkpt lat="44.03727" lon="3.71557">
        <ele>607.7</ele>
        <time>2022-04-15T09:37:06Z</time>
      </trkpt>
      <trkpt lat="44.03728" lon="3.71561">
        <ele>607.9</ele>
        <time>2022-04-15T09:37:08Z</time>
      </trkpt>
      <trkpt lat="44.0373" lon="3.71565">
        <ele>608.1</ele>
        <time>2022-04-15T09:37:09Z</time>
      </trkpt>
      <trkpt lat="44.03731" lon="3.71566">
        <ele>608.2</ele>
        <time>2022-04-15T09:37:10Z</time>
      </trkpt>
      <trkpt lat="44.03733" lon="3.7157">
        <ele>608.4</ele>
        <time>2022-04-15T09:37:11Z</time>
      </trkpt>
      <trkpt lat="44.03734" lon="3.71571">
        <ele>608.5</ele>
        <time>2022-04-15T09:37:12Z</time>
      </trkpt>
      <trkpt lat="44.03736" lon="3.71576">
        <ele>608.7</ele>
        <time>2022-04-15T09:37:14Z</time>
      </trkpt>
      <trkpt lat="44.03737" lon="3.71578">
        <ele>608.8</ele>
        <time>2022-04-15T09:37:15Z</time>
      </trkpt>
      <trkpt lat="44.03739" lon="3.71582">
        <ele>609.1</ele>
        <time>2022-04-15T09:37:16Z</time>
      </trkpt>
      <trkpt lat="44.0374" lon="3.71583">
        <ele>609.1</ele>
        <time>2022-04-15T09:37:17Z</time>
      </trkpt>
      <trkpt lat="44.03742" lon="3.71587">
        <ele>609.4</ele>
        <time>2022-04-15T09:37:18Z</time>
      </trkpt>
      <trkpt lat="44.03743" lon="3.71589">
        <ele>609.5</ele>
        <time>2022-04-15T09:37:19Z</time>
      </trkpt>
      <trkpt lat="44.03744" lon="3.71593">
        <ele>609.7</ele>
        <time>2022-04-15T09:37:21Z</time>
      </trkpt>
      <trkpt lat="44.03746" lon="3.71598">
        <ele>610</ele>
        <time>2022-04-15T09:37:23Z</time>
      </trkpt>
      <trkpt lat="44.03748" lon="3.71602">
        <ele>610.2</ele>
        <time>2022-04-15T09:37:24Z</time>
      </trkpt>
      <trkpt lat="44.0375" lon="3.71606">
        <ele>610.5</ele>
        <time>2022-04-15T09:37:25Z</time>
      </trkpt>
      <trkpt lat="44.0375" lon="3.71608">
        <ele>610.6</ele>
        <time>2022-04-15T09:37:26Z</time>
      </trkpt>
      <trkpt lat="44.03753" lon="3.71613">
        <ele>610.9</ele>
        <time>2022-04-15T09:37:28Z</time>
      </trkpt>
      <trkpt lat="44.03754" lon="3.71614">
        <ele>611</ele>
        <time>2022-04-15T09:37:29Z</time>
      </trkpt>
      <trkpt lat="44.03755" lon="3.71616">
        <ele>611.2</ele>
        <time>2022-04-15T09:37:30Z</time>
      </trkpt>
      <trkpt lat="44.03757" lon="3.71619">
        <ele>611.4</ele>
        <time>2022-04-15T09:37:31Z</time>
      </trkpt>
      <trkpt lat="44.03759" lon="3.71623">
        <ele>611.6</ele>
        <time>2022-04-15T09:37:33Z</time>
      </trkpt>
      <trkpt lat="44.0376" lon="3.71624">
        <ele>611.7</ele>
        <time>2022-04-15T09:37:34Z</time>
      </trkpt>
      <trkpt lat="44.03762" lon="3.71629">
        <ele>612</ele>
        <time>2022-04-15T09:37:35Z</time>
      </trkpt>
      <trkpt lat="44.03763" lon="3.7163">
        <ele>612.1</ele>
        <time>2022-04-15T09:37:36Z</time>
      </trkpt>
      <trkpt lat="44.03765" lon="3.71634">
        <ele>612.4</ele>
        <time>2022-04-15T09:37:37Z</time>
      </trkpt>
      <trkpt lat="44.03766" lon="3.71636">
        <ele>612.5</ele>
        <time>2022-04-15T09:37:38Z</time>
      </trkpt>
      <trkpt lat="44.03768" lon="3.71639">
        <ele>612.7</ele>
        <time>2022-04-15T09:37:39Z</time>
      </trkpt>
      <trkpt lat="44.0377" lon="3.71643">
        <ele>613</ele>
        <time>2022-04-15T09:37:41Z</time>
      </trkpt>
      <trkpt lat="44.03771" lon="3.71644">
        <ele>613.1</ele>
        <time>2022-04-15T09:37:42Z</time>
      </trkpt>
      <trkpt lat="44.03773" lon="3.7165">
        <ele>613.4</ele>
        <time>2022-04-15T09:37:43Z</time>
      </trkpt>
      <trkpt lat="44.03775" lon="3.71654">
        <ele>613.7</ele>
        <time>2022-04-15T09:37:45Z</time>
      </trkpt>
      <trkpt lat="44.03776" lon="3.71659">
        <ele>614</ele>
        <time>2022-04-15T09:37:47Z</time>
      </trkpt>
      <trkpt lat="44.03777" lon="3.71664">
        <ele>614.3</ele>
        <time>2022-04-15T09:37:48Z</time>
      </trkpt>
      <trkpt lat="44.03778" lon="3.71669">
        <ele>614.6</ele>
        <time>2022-04-15T09:37:49Z</time>
      </trkpt>
      <trkpt lat="44.03778" lon="3.71671">
        <ele>614.7</ele>
        <time>2022-04-15T09:37:50Z</time>
      </trkpt>
      <trkpt lat="44.03778" lon="3.71677">
        <ele>615</ele>
        <time>2022-04-15T09:37:52Z</time>
      </trkpt>
      <trkpt lat="44.03778" lon="3.71679">
        <ele>615.1</ele>
        <time>2022-04-15T09:37:53Z</time>
      </trkpt>
      <trkpt lat="44.03776" lon="3.71684">
        <ele>615.4</ele>
        <time>2022-04-15T09:37:54Z</time>
      </trkpt>
      <trkpt lat="44.03776" lon="3.71685">
        <ele>615.5</ele>
        <time>2022-04-15T09:37:55Z</time>
      </trkpt>
      <trkpt lat="44.03774" lon="3.7169">
        <ele>615.7</ele>
        <time>2022-04-15T09:37:56Z</time>
      </trkpt>
      <trkpt lat="44.03774" lon="3.71692">
        <ele>615.8</ele>
        <time>2022-04-15T09:37:57Z</time>
      </trkpt>
      <trkpt lat="44.03772" lon="3.71695">
        <ele>616</ele>
        <time>2022-04-15T09:37:59Z</time>
      </trkpt>
      <trkpt lat="44.0377" lon="3.71698">
        <ele>616.2</ele>
        <time>2022-04-15T09:38:00Z</time>
      </trkpt>
      <trkpt lat="44.03768" lon="3.71702">
        <ele>616.4</ele>
        <time>2022-04-15T09:38:01Z</time>
      </trkpt>
      <trkpt lat="44.03767" lon="3.71704">
        <ele>616.5</ele>
        <time>2022-04-15T09:38:02Z</time>
      </trkpt>
      <trkpt lat="44.03765" lon="3.71707">
        <ele>616.7</ele>
        <time>2022-04-15T09:38:04Z</time>
      </trkpt>
      <trkpt lat="44.03762" lon="3.7171">
        <ele>616.8</ele>
        <time>2022-04-15T09:38:06Z</time>
      </trkpt>
      <trkpt lat="44.0376" lon="3.71714">
        <ele>617</ele>
        <time>2022-04-15T09:38:07Z</time>
      </trkpt>
      <trkpt lat="44.03757" lon="3.71718">
        <ele>617.2</ele>
        <time>2022-04-15T09:38:08Z</time>
      </trkpt>
      <trkpt lat="44.03756" lon="3.71719">
        <ele>617.3</ele>
        <time>2022-04-15T09:38:09Z</time>
      </trkpt>
      <trkpt lat="44.03752" lon="3.71725">
        <ele>617.6</ele>
        <time>2022-04-15T09:38:11Z</time>
      </trkpt>
      <trkpt lat="44.03751" lon="3.71727">
        <ele>617.7</ele>
        <time>2022-04-15T09:38:13Z</time>
      </trkpt>
      <trkpt lat="44.0375" lon="3.71729">
        <ele>617.8</ele>
        <time>2022-04-15T09:38:14Z</time>
      </trkpt>
      <trkpt lat="44.03749" lon="3.7173">
        <ele>617.9</ele>
        <time>2022-04-15T09:38:15Z</time>
      </trkpt>
      <trkpt lat="44.03748" lon="3.71732">
        <ele>618</ele>
        <time>2022-04-15T09:38:16Z</time>
      </trkpt>
      <trkpt lat="44.03746" lon="3.71735">
        <ele>618.2</ele>
        <time>2022-04-15T09:38:18Z</time>
      </trkpt>
      <trkpt lat="44.03744" lon="3.71739">
        <ele>618.4</ele>
        <time>2022-04-15T09:38:20Z</time>
      </trkpt>
      <trkpt lat="44.03744" lon="3.7174">
        <ele>618.4</ele>
        <time>2022-04-15T09:38:21Z</time>
      </trkpt>
      <trkpt lat="44.03742" lon="3.71744">
        <ele>618.6</ele>
        <time>2022-04-15T09:38:22Z</time>
      </trkpt>
      <trkpt lat="44.03741" lon="3.71746">
        <ele>618.7</ele>
        <time>2022-04-15T09:38:23Z</time>
      </trkpt>
      <trkpt lat="44.03738" lon="3.71751">
        <ele>619</ele>
        <time>2022-04-15T09:38:25Z</time>
      </trkpt>
      <trkpt lat="44.03737" lon="3.71753">
        <ele>619.1</ele>
        <time>2022-04-15T09:38:26Z</time>
      </trkpt>
      <trkpt lat="44.03736" lon="3.71754">
        <ele>619.2</ele>
        <time>2022-04-15T09:38:27Z</time>
      </trkpt>
      <trkpt lat="44.03734" lon="3.71757">
        <ele>619.3</ele>
        <time>2022-04-15T09:38:28Z</time>
      </trkpt>
      <trkpt lat="44.03732" lon="3.7176">
        <ele>619.5</ele>
        <time>2022-04-15T09:38:30Z</time>
      </trkpt>
      <trkpt lat="44.03729" lon="3.71764">
        <ele>619.7</ele>
        <time>2022-04-15T09:38:31Z</time>
      </trkpt>
      <trkpt lat="44.03727" lon="3.71767">
        <ele>619.9</ele>
        <time>2022-04-15T09:38:32Z</time>
      </trkpt>
      <trkpt lat="44.03725" lon="3.71771">
        <ele>620</ele>
        <time>2022-04-15T09:38:33Z</time>
      </trkpt>
      <trkpt lat="44.03724" lon="3.71772">
        <ele>620.1</ele>
        <time>2022-04-15T09:38:34Z</time>
      </trkpt>
      <trkpt lat="44.03723" lon="3.71775">
        <ele>620.2</ele>
        <time>2022-04-15T09:38:35Z</time>
      </trkpt>
      <trkpt lat="44.03722" lon="3.71776">
        <ele>620.3</ele>
        <time>2022-04-15T09:38:36Z</time>
      </trkpt>
      <trkpt lat="44.0372" lon="3.71779">
        <ele>620.4</ele>
        <time>2022-04-15T09:38:37Z</time>
      </trkpt>
      <trkpt lat="44.03719" lon="3.7178">
        <ele>620.5</ele>
        <time>2022-04-15T09:38:38Z</time>
      </trkpt>
      <trkpt lat="44.03718" lon="3.71782">
        <ele>620.6</ele>
        <time>2022-04-15T09:38:39Z</time>
      </trkpt>
      <trkpt lat="44.03717" lon="3.71783">
        <ele>620.7</ele>
        <time>2022-04-15T09:38:40Z</time>
      </trkpt>
      <trkpt lat="44.03715" lon="3.71786">
        <ele>620.8</ele>
        <time>2022-04-15T09:38:41Z</time>
      </trkpt>
      <trkpt lat="44.03714" lon="3.71787">
        <ele>620.9</ele>
        <time>2022-04-15T09:38:42Z</time>
      </trkpt>
      <trkpt lat="44.03712" lon="3.71789">
        <ele>621</ele>
        <time>2022-04-15T09:38:43Z</time>
      </trkpt>
      <trkpt lat="44.03711" lon="3.7179">
        <ele>621.1</ele>
        <time>2022-04-15T09:38:44Z</time>
      </trkpt>
      <trkpt lat="44.03709" lon="3.71793">
        <ele>621.3</ele>
        <time>2022-04-15T09:38:45Z</time>
      </trkpt>
      <trkpt lat="44.03708" lon="3.71794">
        <ele>621.3</ele>
        <time>2022-04-15T09:38:46Z</time>
      </trkpt>
      <trkpt lat="44.03704" lon="3.71799">
        <ele>621.6</ele>
        <time>2022-04-15T09:38:48Z</time>
      </trkpt>
      <trkpt lat="44.037" lon="3.71804">
        <ele>621.9</ele>
        <time>2022-04-15T09:38:49Z</time>
      </trkpt>
      <trkpt lat="44.03698" lon="3.71807">
        <ele>622.1</ele>
        <time>2022-04-15T09:38:50Z</time>
      </trkpt>
      <trkpt lat="44.03696" lon="3.7181">
        <ele>622.3</ele>
        <time>2022-04-15T09:38:51Z</time>
      </trkpt>
      <trkpt lat="44.03693" lon="3.71813">
        <ele>622.5</ele>
        <time>2022-04-15T09:38:53Z</time>
      </trkpt>
      <trkpt lat="44.03693" lon="3.71815">
        <ele>622.6</ele>
        <time>2022-04-15T09:38:54Z</time>
      </trkpt>
      <trkpt lat="44.0369" lon="3.71818">
        <ele>622.7</ele>
        <time>2022-04-15T09:38:55Z</time>
      </trkpt>
      <trkpt lat="44.0369" lon="3.71819">
        <ele>622.8</ele>
        <time>2022-04-15T09:38:56Z</time>
      </trkpt>
      <trkpt lat="44.03687" lon="3.71822">
        <ele>623</ele>
        <time>2022-04-15T09:38:58Z</time>
      </trkpt>
      <trkpt lat="44.03685" lon="3.71826">
        <ele>623.1</ele>
        <time>2022-04-15T09:39:00Z</time>
      </trkpt>
      <trkpt lat="44.03683" lon="3.71829">
        <ele>623.4</ele>
        <time>2022-04-15T09:39:01Z</time>
      </trkpt>
      <trkpt lat="44.03681" lon="3.71832">
        <ele>623.5</ele>
        <time>2022-04-15T09:39:02Z</time>
      </trkpt>
      <trkpt lat="44.03678" lon="3.71836">
        <ele>623.7</ele>
        <time>2022-04-15T09:39:03Z</time>
      </trkpt>
      <trkpt lat="44.03677" lon="3.71838">
        <ele>623.8</ele>
        <time>2022-04-15T09:39:04Z</time>
      </trkpt>
      <trkpt lat="44.03675" lon="3.71841">
        <ele>624</ele>
        <time>2022-04-15T09:39:05Z</time>
      </trkpt>
      <trkpt lat="44.03672" lon="3.71844">
        <ele>624.2</ele>
        <time>2022-04-15T09:39:07Z</time>
      </trkpt>
      <trkpt lat="44.0367" lon="3.71848">
        <ele>624.4</ele>
        <time>2022-04-15T09:39:08Z</time>
      </trkpt>
      <trkpt lat="44.03667" lon="3.71852">
        <ele>624.6</ele>
        <time>2022-04-15T09:39:09Z</time>
      </trkpt>
      <trkpt lat="44.03666" lon="3.71853">
        <ele>624.7</ele>
        <time>2022-04-15T09:39:10Z</time>
      </trkpt>
      <trkpt lat="44.03664" lon="3.71856">
        <ele>624.9</ele>
        <time>2022-04-15T09:39:11Z</time>
      </trkpt>
      <trkpt lat="44.03662" lon="3.71859">
        <ele>625</ele>
        <time>2022-04-15T09:39:13Z</time>
      </trkpt>
      <trkpt lat="44.03659" lon="3.71862">
        <ele>625.2</ele>
        <time>2022-04-15T09:39:14Z</time>
      </trkpt>
      <trkpt lat="44.03656" lon="3.71865">
        <ele>625.4</ele>
        <time>2022-04-15T09:39:15Z</time>
      </trkpt>
      <trkpt lat="44.03655" lon="3.71867">
        <ele>625.5</ele>
        <time>2022-04-15T09:39:16Z</time>
      </trkpt>
      <trkpt lat="44.03653" lon="3.71871">
        <ele>625.7</ele>
        <time>2022-04-15T09:39:18Z</time>
      </trkpt>
      <trkpt lat="44.03652" lon="3.71873">
        <ele>625.8</ele>
        <time>2022-04-15T09:39:19Z</time>
      </trkpt>
      <trkpt lat="44.0365" lon="3.71877">
        <ele>625.9</ele>
        <time>2022-04-15T09:39:20Z</time>
      </trkpt>
      <trkpt lat="44.0365" lon="3.71878">
        <ele>626</ele>
        <time>2022-04-15T09:39:21Z</time>
      </trkpt>
      <trkpt lat="44.03648" lon="3.71883">
        <ele>626.2</ele>
        <time>2022-04-15T09:39:22Z</time>
      </trkpt>
      <trkpt lat="44.03647" lon="3.71884">
        <ele>626.3</ele>
        <time>2022-04-15T09:39:23Z</time>
      </trkpt>
      <trkpt lat="44.03646" lon="3.71888">
        <ele>626.4</ele>
        <time>2022-04-15T09:39:25Z</time>
      </trkpt>
      <trkpt lat="44.03645" lon="3.7189">
        <ele>626.5</ele>
        <time>2022-04-15T09:39:26Z</time>
      </trkpt>
      <trkpt lat="44.03644" lon="3.71893">
        <ele>626.6</ele>
        <time>2022-04-15T09:39:27Z</time>
      </trkpt>
      <trkpt lat="44.03643" lon="3.71898">
        <ele>626.8</ele>
        <time>2022-04-15T09:39:28Z</time>
      </trkpt>
      <trkpt lat="44.03642" lon="3.71899">
        <ele>626.8</ele>
        <time>2022-04-15T09:39:29Z</time>
      </trkpt>
      <trkpt lat="44.03641" lon="3.71904">
        <ele>627</ele>
        <time>2022-04-15T09:39:31Z</time>
      </trkpt>
      <trkpt lat="44.0364" lon="3.71906">
        <ele>627.1</ele>
        <time>2022-04-15T09:39:32Z</time>
      </trkpt>
      <trkpt lat="44.03639" lon="3.7191">
        <ele>627.2</ele>
        <time>2022-04-15T09:39:33Z</time>
      </trkpt>
      <trkpt lat="44.03638" lon="3.71912">
        <ele>627.2</ele>
        <time>2022-04-15T09:39:34Z</time>
      </trkpt>
      <trkpt lat="44.03637" lon="3.71915">
        <ele>627.3</ele>
        <time>2022-04-15T09:39:35Z</time>
      </trkpt>
      <trkpt lat="44.03635" lon="3.71921">
        <ele>627.5</ele>
        <time>2022-04-15T09:39:37Z</time>
      </trkpt>
      <trkpt lat="44.03635" lon="3.71923">
        <ele>627.5</ele>
        <time>2022-04-15T09:39:38Z</time>
      </trkpt>
      <trkpt lat="44.03635" lon="3.71925">
        <ele>627.5</ele>
        <time>2022-04-15T09:39:39Z</time>
      </trkpt>
      <trkpt lat="44.03634" lon="3.71928">
        <ele>627.6</ele>
        <time>2022-04-15T09:39:40Z</time>
      </trkpt>
      <trkpt lat="44.03632" lon="3.71931">
        <ele>627.7</ele>
        <time>2022-04-15T09:39:42Z</time>
      </trkpt>
      <trkpt lat="44.0363" lon="3.71935">
        <ele>627.8</ele>
        <time>2022-04-15T09:39:44Z</time>
      </trkpt>
      <trkpt lat="44.0363" lon="3.71936">
        <ele>627.8</ele>
        <time>2022-04-15T09:39:45Z</time>
      </trkpt>
      <trkpt lat="44.03629" lon="3.71937">
        <ele>627.9</ele>
        <time>2022-04-15T09:39:46Z</time>
      </trkpt>
      <trkpt lat="44.03628" lon="3.71938">
        <ele>627.9</ele>
        <time>2022-04-15T09:39:47Z</time>
      </trkpt>
      <trkpt lat="44.03627" lon="3.71939">
        <ele>627.9</ele>
        <time>2022-04-15T09:39:48Z</time>
      </trkpt>
      <trkpt lat="44.03626" lon="3.71939">
        <ele>629</ele>
        <time>2022-04-15T09:39:49Z</time>
      </trkpt>
      <trkpt lat="44.03625" lon="3.71939">
        <ele>629.1</ele>
        <time>2022-04-15T09:39:50Z</time>
      </trkpt>
      <trkpt lat="44.03625" lon="3.71938">
        <ele>629.2</ele>
        <time>2022-04-15T09:39:51Z</time>
      </trkpt>
      <trkpt lat="44.03623" lon="3.71935">
        <ele>629.5</ele>
        <time>2022-04-15T09:39:52Z</time>
      </trkpt>
      <trkpt lat="44.03623" lon="3.71934">
        <ele>629.6</ele>
        <time>2022-04-15T09:39:53Z</time>
      </trkpt>
      <trkpt lat="44.03622" lon="3.7193">
        <ele>629.9</ele>
        <time>2022-04-15T09:39:55Z</time>
      </trkpt>
      <trkpt lat="44.03621" lon="3.71928">
        <ele>629.9</ele>
        <time>2022-04-15T09:39:56Z</time>
      </trkpt>
      <trkpt lat="44.03621" lon="3.71926">
        <ele>630.1</ele>
        <time>2022-04-15T09:39:57Z</time>
      </trkpt>
      <trkpt lat="44.03621" lon="3.71924">
        <ele>630.2</ele>
        <time>2022-04-15T09:39:58Z</time>
      </trkpt>
      <trkpt lat="44.03621" lon="3.7192">
        <ele>630.4</ele>
        <time>2022-04-15T09:39:59Z</time>
      </trkpt>
      <trkpt lat="44.03621" lon="3.71919">
        <ele>630.5</ele>
        <time>2022-04-15T09:40:00Z</time>
      </trkpt>
      <trkpt lat="44.03622" lon="3.71913">
        <ele>630.9</ele>
        <time>2022-04-15T09:40:02Z</time>
      </trkpt>
      <trkpt lat="44.03622" lon="3.71911">
        <ele>631</ele>
        <time>2022-04-15T09:40:03Z</time>
      </trkpt>
      <trkpt lat="44.03623" lon="3.71907">
        <ele>631.3</ele>
        <time>2022-04-15T09:40:04Z</time>
      </trkpt>
      <trkpt lat="44.03624" lon="3.71905">
        <ele>631.4</ele>
        <time>2022-04-15T09:40:05Z</time>
      </trkpt>
      <trkpt lat="44.03625" lon="3.71901">
        <ele>631.7</ele>
        <time>2022-04-15T09:40:07Z</time>
      </trkpt>
      <trkpt lat="44.03626" lon="3.71899">
        <ele>631.8</ele>
        <time>2022-04-15T09:40:08Z</time>
      </trkpt>
      <trkpt lat="44.03627" lon="3.71895">
        <ele>632.1</ele>
        <time>2022-04-15T09:40:10Z</time>
      </trkpt>
      <trkpt lat="44.03627" lon="3.71894">
        <ele>632.2</ele>
        <time>2022-04-15T09:40:11Z</time>
      </trkpt>
      <trkpt lat="44.03627" lon="3.7189">
        <ele>632.4</ele>
        <time>2022-04-15T09:40:12Z</time>
      </trkpt>
      <trkpt lat="44.03625" lon="3.71887">
        <ele>632.6</ele>
        <time>2022-04-15T09:40:14Z</time>
      </trkpt>
      <trkpt lat="44.03622" lon="3.71883">
        <ele>633.1</ele>
        <time>2022-04-15T09:40:16Z</time>
      </trkpt>
      <trkpt lat="44.03621" lon="3.71882">
        <ele>633.2</ele>
        <time>2022-04-15T09:40:17Z</time>
      </trkpt>
      <trkpt lat="44.0362" lon="3.7188">
        <ele>633.3</ele>
        <time>2022-04-15T09:40:18Z</time>
      </trkpt>
      <trkpt lat="44.03617" lon="3.71878">
        <ele>633.6</ele>
        <time>2022-04-15T09:40:19Z</time>
      </trkpt>
      <trkpt lat="44.03616" lon="3.71877">
        <ele>633.7</ele>
        <time>2022-04-15T09:40:20Z</time>
      </trkpt>
      <trkpt lat="44.03613" lon="3.71873">
        <ele>634.1</ele>
        <time>2022-04-15T09:40:22Z</time>
      </trkpt>
      <trkpt lat="44.03611" lon="3.7187">
        <ele>634.4</ele>
        <time>2022-04-15T09:40:23Z</time>
      </trkpt>
      <trkpt lat="44.03609" lon="3.71867">
        <ele>634.8</ele>
        <time>2022-04-15T09:40:24Z</time>
      </trkpt>
      <trkpt lat="44.03608" lon="3.71866">
        <ele>635</ele>
        <time>2022-04-15T09:40:25Z</time>
      </trkpt>
      <trkpt lat="44.03605" lon="3.71863">
        <ele>635.5</ele>
        <time>2022-04-15T09:40:27Z</time>
      </trkpt>
      <trkpt lat="44.03604" lon="3.71862">
        <ele>635.6</ele>
        <time>2022-04-15T09:40:28Z</time>
      </trkpt>
      <trkpt lat="44.03602" lon="3.71861">
        <ele>635.8</ele>
        <time>2022-04-15T09:40:29Z</time>
      </trkpt>
      <trkpt lat="44.03599" lon="3.71859">
        <ele>636.2</ele>
        <time>2022-04-15T09:40:30Z</time>
      </trkpt>
      <trkpt lat="44.03598" lon="3.71858">
        <ele>636.3</ele>
        <time>2022-04-15T09:40:31Z</time>
      </trkpt>
      <trkpt lat="44.03595" lon="3.71857">
        <ele>636.6</ele>
        <time>2022-04-15T09:40:33Z</time>
      </trkpt>
      <trkpt lat="44.03594" lon="3.71857">
        <ele>636.7</ele>
        <time>2022-04-15T09:40:34Z</time>
      </trkpt>
      <trkpt lat="44.0359" lon="3.71856">
        <ele>636.9</ele>
        <time>2022-04-15T09:40:35Z</time>
      </trkpt>
      <trkpt lat="44.03589" lon="3.71855">
        <ele>637</ele>
        <time>2022-04-15T09:40:36Z</time>
      </trkpt>
      <trkpt lat="44.03586" lon="3.71854">
        <ele>637.1</ele>
        <time>2022-04-15T09:40:38Z</time>
      </trkpt>
      <trkpt lat="44.03582" lon="3.71853">
        <ele>637</ele>
        <time>2022-04-15T09:40:39Z</time>
      </trkpt>
      <trkpt lat="44.03581" lon="3.71852">
        <ele>637</ele>
        <time>2022-04-15T09:40:40Z</time>
      </trkpt>
      <trkpt lat="44.03578" lon="3.71852">
        <ele>636.9</ele>
        <time>2022-04-15T09:40:42Z</time>
      </trkpt>
      <trkpt lat="44.03574" lon="3.71851">
        <ele>636.7</ele>
        <time>2022-04-15T09:40:43Z</time>
      </trkpt>
      <trkpt lat="44.0357" lon="3.71851">
        <ele>636.5</ele>
        <time>2022-04-15T09:40:45Z</time>
      </trkpt>
      <trkpt lat="44.03568" lon="3.71851">
        <ele>636.4</ele>
        <time>2022-04-15T09:40:46Z</time>
      </trkpt>
      <trkpt lat="44.03567" lon="3.71851">
        <ele>636.3</ele>
        <time>2022-04-15T09:40:47Z</time>
      </trkpt>
      <trkpt lat="44.03564" lon="3.71852">
        <ele>636.1</ele>
        <time>2022-04-15T09:40:48Z</time>
      </trkpt>
      <trkpt lat="44.03563" lon="3.71853">
        <ele>636</ele>
        <time>2022-04-15T09:40:49Z</time>
      </trkpt>
      <trkpt lat="44.0356" lon="3.71855">
        <ele>635.8</ele>
        <time>2022-04-15T09:40:50Z</time>
      </trkpt>
      <trkpt lat="44.03557" lon="3.71857">
        <ele>635.6</ele>
        <time>2022-04-15T09:40:52Z</time>
      </trkpt>
      <trkpt lat="44.03554" lon="3.71859">
        <ele>635.5</ele>
        <time>2022-04-15T09:40:53Z</time>
      </trkpt>
      <trkpt lat="44.03553" lon="3.7186">
        <ele>635.5</ele>
        <time>2022-04-15T09:40:54Z</time>
      </trkpt>
      <trkpt lat="44.0355" lon="3.71862">
        <ele>635.3</ele>
        <time>2022-04-15T09:40:55Z</time>
      </trkpt>
      <trkpt lat="44.03547" lon="3.71865">
        <ele>635.2</ele>
        <time>2022-04-15T09:40:57Z</time>
      </trkpt>
      <trkpt lat="44.03544" lon="3.71868">
        <ele>635.2</ele>
        <time>2022-04-15T09:40:59Z</time>
      </trkpt>
      <trkpt lat="44.03541" lon="3.71871">
        <ele>635.1</ele>
        <time>2022-04-15T09:41:00Z</time>
      </trkpt>
      <trkpt lat="44.03539" lon="3.71874">
        <ele>635.1</ele>
        <time>2022-04-15T09:41:01Z</time>
      </trkpt>
      <trkpt lat="44.03537" lon="3.71876">
        <ele>635</ele>
        <time>2022-04-15T09:41:02Z</time>
      </trkpt>
      <trkpt lat="44.03534" lon="3.71878">
        <ele>635</ele>
        <time>2022-04-15T09:41:04Z</time>
      </trkpt>
      <trkpt lat="44.03531" lon="3.71879">
        <ele>634.9</ele>
        <time>2022-04-15T09:41:05Z</time>
      </trkpt>
      <trkpt lat="44.0353" lon="3.7188">
        <ele>634.9</ele>
        <time>2022-04-15T09:41:06Z</time>
      </trkpt>
      <trkpt lat="44.03526" lon="3.71882">
        <ele>634.9</ele>
        <time>2022-04-15T09:41:07Z</time>
      </trkpt>
      <trkpt lat="44.03525" lon="3.71883">
        <ele>634.8</ele>
        <time>2022-04-15T09:41:08Z</time>
      </trkpt>
      <trkpt lat="44.03523" lon="3.71885">
        <ele>634.8</ele>
        <time>2022-04-15T09:41:10Z</time>
      </trkpt>
      <trkpt lat="44.03519" lon="3.71888">
        <ele>634.7</ele>
        <time>2022-04-15T09:41:11Z</time>
      </trkpt>
      <trkpt lat="44.03517" lon="3.71891">
        <ele>634.6</ele>
        <time>2022-04-15T09:41:12Z</time>
      </trkpt>
      <trkpt lat="44.03516" lon="3.71892">
        <ele>634.6</ele>
        <time>2022-04-15T09:41:13Z</time>
      </trkpt>
      <trkpt lat="44.03512" lon="3.71896">
        <ele>634.4</ele>
        <time>2022-04-15T09:41:15Z</time>
      </trkpt>
      <trkpt lat="44.03511" lon="3.71898">
        <ele>634.3</ele>
        <time>2022-04-15T09:41:16Z</time>
      </trkpt>
      <trkpt lat="44.03509" lon="3.71902">
        <ele>634.1</ele>
        <time>2022-04-15T09:41:18Z</time>
      </trkpt>
      <trkpt lat="44.03507" lon="3.71906">
        <ele>633.9</ele>
        <time>2022-04-15T09:41:19Z</time>
      </trkpt>
      <trkpt lat="44.03506" lon="3.71909">
        <ele>633.7</ele>
        <time>2022-04-15T09:41:20Z</time>
      </trkpt>
      <trkpt lat="44.03506" lon="3.71911">
        <ele>633.6</ele>
        <time>2022-04-15T09:41:21Z</time>
      </trkpt>
      <trkpt lat="44.03507" lon="3.71914">
        <ele>633.4</ele>
        <time>2022-04-15T09:41:23Z</time>
      </trkpt>
      <trkpt lat="44.03508" lon="3.71917">
        <ele>633.2</ele>
        <time>2022-04-15T09:41:24Z</time>
      </trkpt>
      <trkpt lat="44.03508" lon="3.71919">
        <ele>633.1</ele>
        <time>2022-04-15T09:41:25Z</time>
      </trkpt>
      <trkpt lat="44.03507" lon="3.71922">
        <ele>632.9</ele>
        <time>2022-04-15T09:41:26Z</time>
      </trkpt>
      <trkpt lat="44.03507" lon="3.71924">
        <ele>632.8</ele>
        <time>2022-04-15T09:41:27Z</time>
      </trkpt>
      <trkpt lat="44.03506" lon="3.71929">
        <ele>632.5</ele>
        <time>2022-04-15T09:41:29Z</time>
      </trkpt>
      <trkpt lat="44.03506" lon="3.7193">
        <ele>632.4</ele>
        <time>2022-04-15T09:41:30Z</time>
      </trkpt>
      <trkpt lat="44.03507" lon="3.71935">
        <ele>632.2</ele>
        <time>2022-04-15T09:41:31Z</time>
      </trkpt>
      <trkpt lat="44.03507" lon="3.71937">
        <ele>632.1</ele>
        <time>2022-04-15T09:41:32Z</time>
      </trkpt>
      <trkpt lat="44.03507" lon="3.71941">
        <ele>631.8</ele>
        <time>2022-04-15T09:41:33Z</time>
      </trkpt>
      <trkpt lat="44.03508" lon="3.71946">
        <ele>631.6</ele>
        <time>2022-04-15T09:41:34Z</time>
      </trkpt>
      <trkpt lat="44.03508" lon="3.71952">
        <ele>631.3</ele>
        <time>2022-04-15T09:41:36Z</time>
      </trkpt>
      <trkpt lat="44.03508" lon="3.71957">
        <ele>631.1</ele>
        <time>2022-04-15T09:41:37Z</time>
      </trkpt>
      <trkpt lat="44.03508" lon="3.71962">
        <ele>630.9</ele>
        <time>2022-04-15T09:41:38Z</time>
      </trkpt>
      <trkpt lat="44.03508" lon="3.71968">
        <ele>630.6</ele>
        <time>2022-04-15T09:41:39Z</time>
      </trkpt>
      <trkpt lat="44.03507" lon="3.71975">
        <ele>630.3</ele>
        <time>2022-04-15T09:41:41Z</time>
      </trkpt>
      <trkpt lat="44.03506" lon="3.71981">
        <ele>630</ele>
        <time>2022-04-15T09:41:43Z</time>
      </trkpt>
      <trkpt lat="44.03505" lon="3.71987">
        <ele>629.8</ele>
        <time>2022-04-15T09:41:44Z</time>
      </trkpt>
      <trkpt lat="44.03503" lon="3.71993">
        <ele>629.5</ele>
        <time>2022-04-15T09:41:46Z</time>
      </trkpt>
      <trkpt lat="44.03502" lon="3.71998">
        <ele>629.3</ele>
        <time>2022-04-15T09:41:48Z</time>
      </trkpt>
      <trkpt lat="44.03501" lon="3.72003">
        <ele>629.1</ele>
        <time>2022-04-15T09:41:49Z</time>
      </trkpt>
      <trkpt lat="44.035" lon="3.72007">
        <ele>629</ele>
        <time>2022-04-15T09:41:50Z</time>
      </trkpt>
      <trkpt lat="44.03499" lon="3.72011">
        <ele>628.8</ele>
        <time>2022-04-15T09:41:52Z</time>
      </trkpt>
      <trkpt lat="44.03497" lon="3.72016">
        <ele>628.6</ele>
        <time>2022-04-15T09:41:53Z</time>
      </trkpt>
      <trkpt lat="44.03496" lon="3.7202">
        <ele>628.5</ele>
        <time>2022-04-15T09:41:54Z</time>
      </trkpt>
      <trkpt lat="44.03495" lon="3.72025">
        <ele>628.3</ele>
        <time>2022-04-15T09:41:55Z</time>
      </trkpt>
      <trkpt lat="44.03495" lon="3.72029">
        <ele>628.2</ele>
        <time>2022-04-15T09:41:56Z</time>
      </trkpt>
      <trkpt lat="44.03494" lon="3.72033">
        <ele>628</ele>
        <time>2022-04-15T09:41:57Z</time>
      </trkpt>
      <trkpt lat="44.03494" lon="3.72037">
        <ele>627.9</ele>
        <time>2022-04-15T09:41:59Z</time>
      </trkpt>
      <trkpt lat="44.03495" lon="3.72043">
        <ele>627.6</ele>
        <time>2022-04-15T09:42:00Z</time>
      </trkpt>
      <trkpt lat="44.03495" lon="3.72047">
        <ele>627.4</ele>
        <time>2022-04-15T09:42:01Z</time>
      </trkpt>
      <trkpt lat="44.03496" lon="3.72052">
        <ele>627.1</ele>
        <time>2022-04-15T09:42:02Z</time>
      </trkpt>
      <trkpt lat="44.03497" lon="3.72057">
        <ele>626.8</ele>
        <time>2022-04-15T09:42:04Z</time>
      </trkpt>
      <trkpt lat="44.03497" lon="3.72063">
        <ele>626.4</ele>
        <time>2022-04-15T09:42:05Z</time>
      </trkpt>
      <trkpt lat="44.03497" lon="3.72065">
        <ele>626.3</ele>
        <time>2022-04-15T09:42:06Z</time>
      </trkpt>
      <trkpt lat="44.03497" lon="3.7207">
        <ele>625.9</ele>
        <time>2022-04-15T09:42:07Z</time>
      </trkpt>
      <trkpt lat="44.03497" lon="3.72072">
        <ele>625.7</ele>
        <time>2022-04-15T09:42:08Z</time>
      </trkpt>
      <trkpt lat="44.03495" lon="3.72078">
        <ele>625.2</ele>
        <time>2022-04-15T09:42:10Z</time>
      </trkpt>
      <trkpt lat="44.03495" lon="3.7208">
        <ele>625</ele>
        <time>2022-04-15T09:42:11Z</time>
      </trkpt>
      <trkpt lat="44.03494" lon="3.72082">
        <ele>624.8</ele>
        <time>2022-04-15T09:42:12Z</time>
      </trkpt>
      <trkpt lat="44.03493" lon="3.72087">
        <ele>624.3</ele>
        <time>2022-04-15T09:42:13Z</time>
      </trkpt>
      <trkpt lat="44.03492" lon="3.72089">
        <ele>624.1</ele>
        <time>2022-04-15T09:42:14Z</time>
      </trkpt>
      <trkpt lat="44.03492" lon="3.72094">
        <ele>623.7</ele>
        <time>2022-04-15T09:42:16Z</time>
      </trkpt>
      <trkpt lat="44.03491" lon="3.72098">
        <ele>623.3</ele>
        <time>2022-04-15T09:42:17Z</time>
      </trkpt>
      <trkpt lat="44.0349" lon="3.72104">
        <ele>622.7</ele>
        <time>2022-04-15T09:42:19Z</time>
      </trkpt>
      <trkpt lat="44.03489" lon="3.72109">
        <ele>622.2</ele>
        <time>2022-04-15T09:42:20Z</time>
      </trkpt>
      <trkpt lat="44.03489" lon="3.72114">
        <ele>621.9</ele>
        <time>2022-04-15T09:42:22Z</time>
      </trkpt>
      <trkpt lat="44.03488" lon="3.72118">
        <ele>621.5</ele>
        <time>2022-04-15T09:42:23Z</time>
      </trkpt>
      <trkpt lat="44.03487" lon="3.72124">
        <ele>621.1</ele>
        <time>2022-04-15T09:42:25Z</time>
      </trkpt>
      <trkpt lat="44.03486" lon="3.72125">
        <ele>621</ele>
        <time>2022-04-15T09:42:26Z</time>
      </trkpt>
      <trkpt lat="44.03485" lon="3.72129">
        <ele>620.8</ele>
        <time>2022-04-15T09:42:27Z</time>
      </trkpt>
      <trkpt lat="44.03483" lon="3.72132">
        <ele>620.5</ele>
        <time>2022-04-15T09:42:28Z</time>
      </trkpt>
      <trkpt lat="44.03481" lon="3.72135">
        <ele>620.3</ele>
        <time>2022-04-15T09:42:30Z</time>
      </trkpt>
      <trkpt lat="44.03479" lon="3.7214">
        <ele>620</ele>
        <time>2022-04-15T09:42:31Z</time>
      </trkpt>
      <trkpt lat="44.03478" lon="3.72141">
        <ele>619.9</ele>
        <time>2022-04-15T09:42:32Z</time>
      </trkpt>
      <trkpt lat="44.03477" lon="3.72144">
        <ele>619.6</ele>
        <time>2022-04-15T09:42:33Z</time>
      </trkpt>
      <trkpt lat="44.03475" lon="3.72148">
        <ele>619.4</ele>
        <time>2022-04-15T09:42:34Z</time>
      </trkpt>
      <trkpt lat="44.03473" lon="3.72153">
        <ele>619</ele>
        <time>2022-04-15T09:42:36Z</time>
      </trkpt>
      <trkpt lat="44.03471" lon="3.72157">
        <ele>618.7</ele>
        <time>2022-04-15T09:42:37Z</time>
      </trkpt>
      <trkpt lat="44.0347" lon="3.72158">
        <ele>618.6</ele>
        <time>2022-04-15T09:42:38Z</time>
      </trkpt>
      <trkpt lat="44.03469" lon="3.7216">
        <ele>618.4</ele>
        <time>2022-04-15T09:42:39Z</time>
      </trkpt>
      <trkpt lat="44.03468" lon="3.72162">
        <ele>618.3</ele>
        <time>2022-04-15T09:42:40Z</time>
      </trkpt>
      <trkpt lat="44.03467" lon="3.72164">
        <ele>618.1</ele>
        <time>2022-04-15T09:42:41Z</time>
      </trkpt>
      <trkpt lat="44.03465" lon="3.72164">
        <ele>617.9</ele>
        <time>2022-04-15T09:42:42Z</time>
      </trkpt>
      <trkpt lat="44.03462" lon="3.72165">
        <ele>617.7</ele>
        <time>2022-04-15T09:42:43Z</time>
      </trkpt>
      <trkpt lat="44.03461" lon="3.72165">
        <ele>617.6</ele>
        <time>2022-04-15T09:42:44Z</time>
      </trkpt>
      <trkpt lat="44.03459" lon="3.72165">
        <ele>617.3</ele>
        <time>2022-04-15T09:42:45Z</time>
      </trkpt>
      <trkpt lat="44.03458" lon="3.72165">
        <ele>617.2</ele>
        <time>2022-04-15T09:42:46Z</time>
      </trkpt>
      <trkpt lat="44.03452" lon="3.72164">
        <ele>616.7</ele>
        <time>2022-04-15T09:42:48Z</time>
      </trkpt>
      <trkpt lat="44.0345" lon="3.72164">
        <ele>616.5</ele>
        <time>2022-04-15T09:42:50Z</time>
      </trkpt>
      <trkpt lat="44.03448" lon="3.72163">
        <ele>616.3</ele>
        <time>2022-04-15T09:42:51Z</time>
      </trkpt>
      <trkpt lat="44.03446" lon="3.72163">
        <ele>616</ele>
        <time>2022-04-15T09:42:52Z</time>
      </trkpt>
      <trkpt lat="44.03442" lon="3.72164">
        <ele>615.6</ele>
        <time>2022-04-15T09:42:54Z</time>
      </trkpt>
      <trkpt lat="44.03438" lon="3.72166">
        <ele>614.9</ele>
        <time>2022-04-15T09:42:56Z</time>
      </trkpt>
      <trkpt lat="44.03434" lon="3.72168">
        <ele>614.5</ele>
        <time>2022-04-15T09:42:57Z</time>
      </trkpt>
      <trkpt lat="44.03431" lon="3.7217">
        <ele>614</ele>
        <time>2022-04-15T09:42:58Z</time>
      </trkpt>
      <trkpt lat="44.03428" lon="3.72172">
        <ele>613.5</ele>
        <time>2022-04-15T09:43:00Z</time>
      </trkpt>
      <trkpt lat="44.03425" lon="3.72175">
        <ele>613</ele>
        <time>2022-04-15T09:43:01Z</time>
      </trkpt>
      <trkpt lat="44.03422" lon="3.72178">
        <ele>612.6</ele>
        <time>2022-04-15T09:43:02Z</time>
      </trkpt>
      <trkpt lat="44.0342" lon="3.72181">
        <ele>612.2</ele>
        <time>2022-04-15T09:43:03Z</time>
      </trkpt>
      <trkpt lat="44.03417" lon="3.72184">
        <ele>611.8</ele>
        <time>2022-04-15T09:43:05Z</time>
      </trkpt>
      <trkpt lat="44.03415" lon="3.72187">
        <ele>611.4</ele>
        <time>2022-04-15T09:43:06Z</time>
      </trkpt>
      <trkpt lat="44.03411" lon="3.72191">
        <ele>610.9</ele>
        <time>2022-04-15T09:43:08Z</time>
      </trkpt>
      <trkpt lat="44.03409" lon="3.72194">
        <ele>610.5</ele>
        <time>2022-04-15T09:43:09Z</time>
      </trkpt>
      <trkpt lat="44.03407" lon="3.72197">
        <ele>610.1</ele>
        <time>2022-04-15T09:43:10Z</time>
      </trkpt>
      <trkpt lat="44.03403" lon="3.722">
        <ele>609.6</ele>
        <time>2022-04-15T09:43:12Z</time>
      </trkpt>
      <trkpt lat="44.034" lon="3.72204">
        <ele>609.2</ele>
        <time>2022-04-15T09:43:13Z</time>
      </trkpt>
      <trkpt lat="44.03399" lon="3.72205">
        <ele>609.1</ele>
        <time>2022-04-15T09:43:14Z</time>
      </trkpt>
      <trkpt lat="44.03396" lon="3.72209">
        <ele>608.6</ele>
        <time>2022-04-15T09:43:15Z</time>
      </trkpt>
      <trkpt lat="44.03395" lon="3.7221">
        <ele>608.5</ele>
        <time>2022-04-15T09:43:16Z</time>
      </trkpt>
      <trkpt lat="44.03393" lon="3.72213">
        <ele>608.2</ele>
        <time>2022-04-15T09:43:18Z</time>
      </trkpt>
      <trkpt lat="44.03391" lon="3.72216">
        <ele>607.9</ele>
        <time>2022-04-15T09:43:19Z</time>
      </trkpt>
      <trkpt lat="44.03387" lon="3.72218">
        <ele>607.5</ele>
        <time>2022-04-15T09:43:21Z</time>
      </trkpt>
      <trkpt lat="44.03384" lon="3.7222">
        <ele>607.3</ele>
        <time>2022-04-15T09:43:22Z</time>
      </trkpt>
      <trkpt lat="44.03381" lon="3.72222">
        <ele>607</ele>
        <time>2022-04-15T09:43:23Z</time>
      </trkpt>
      <trkpt lat="44.0338" lon="3.72223">
        <ele>606.9</ele>
        <time>2022-04-15T09:43:24Z</time>
      </trkpt>
      <trkpt lat="44.03377" lon="3.72224">
        <ele>606.7</ele>
        <time>2022-04-15T09:43:25Z</time>
      </trkpt>
      <trkpt lat="44.03374" lon="3.72227">
        <ele>606.5</ele>
        <time>2022-04-15T09:43:27Z</time>
      </trkpt>
      <trkpt lat="44.03372" lon="3.72228">
        <ele>606.4</ele>
        <time>2022-04-15T09:43:28Z</time>
      </trkpt>
      <trkpt lat="44.0337" lon="3.72231">
        <ele>606.3</ele>
        <time>2022-04-15T09:43:29Z</time>
      </trkpt>
      <trkpt lat="44.03368" lon="3.72233">
        <ele>606.2</ele>
        <time>2022-04-15T09:43:30Z</time>
      </trkpt>
      <trkpt lat="44.03365" lon="3.72236">
        <ele>606.1</ele>
        <time>2022-04-15T09:43:32Z</time>
      </trkpt>
      <trkpt lat="44.03361" lon="3.72237">
        <ele>606</ele>
        <time>2022-04-15T09:43:34Z</time>
      </trkpt>
      <trkpt lat="44.03357" lon="3.72238">
        <ele>606</ele>
        <time>2022-04-15T09:43:35Z</time>
      </trkpt>
      <trkpt lat="44.03354" lon="3.72239">
        <ele>605.9</ele>
        <time>2022-04-15T09:43:36Z</time>
      </trkpt>
      <trkpt lat="44.03349" lon="3.72239">
        <ele>605.9</ele>
        <time>2022-04-15T09:43:38Z</time>
      </trkpt>
      <trkpt lat="44.03346" lon="3.72239">
        <ele>605.8</ele>
        <time>2022-04-15T09:43:39Z</time>
      </trkpt>
      <trkpt lat="44.03345" lon="3.72239">
        <ele>605.8</ele>
        <time>2022-04-15T09:43:40Z</time>
      </trkpt>
      <trkpt lat="44.03342" lon="3.72238">
        <ele>605.8</ele>
        <time>2022-04-15T09:43:41Z</time>
      </trkpt>
      <trkpt lat="44.03341" lon="3.72237">
        <ele>605.7</ele>
        <time>2022-04-15T09:43:42Z</time>
      </trkpt>
      <trkpt lat="44.03339" lon="3.72236">
        <ele>605.7</ele>
        <time>2022-04-15T09:43:43Z</time>
      </trkpt>
      <trkpt lat="44.03336" lon="3.72235">
        <ele>605.6</ele>
        <time>2022-04-15T09:43:45Z</time>
      </trkpt>
      <trkpt lat="44.03334" lon="3.72234">
        <ele>605.6</ele>
        <time>2022-04-15T09:43:46Z</time>
      </trkpt>
      <trkpt lat="44.03333" lon="3.72233">
        <ele>605.5</ele>
        <time>2022-04-15T09:43:47Z</time>
      </trkpt>
      <trkpt lat="44.03331" lon="3.72232">
        <ele>605.5</ele>
        <time>2022-04-15T09:43:48Z</time>
      </trkpt>
      <trkpt lat="44.03329" lon="3.72231">
        <ele>605.5</ele>
        <time>2022-04-15T09:43:49Z</time>
      </trkpt>
      <trkpt lat="44.03327" lon="3.72231">
        <ele>605.4</ele>
        <time>2022-04-15T09:43:50Z</time>
      </trkpt>
      <trkpt lat="44.03325" lon="3.7223">
        <ele>605.4</ele>
        <time>2022-04-15T09:43:52Z</time>
      </trkpt>
      <trkpt lat="44.03322" lon="3.72229">
        <ele>605.3</ele>
        <time>2022-04-15T09:43:53Z</time>
      </trkpt>
      <trkpt lat="44.03319" lon="3.72227">
        <ele>605.3</ele>
        <time>2022-04-15T09:43:54Z</time>
      </trkpt>
      <trkpt lat="44.03318" lon="3.72227">
        <ele>605.3</ele>
        <time>2022-04-15T09:43:55Z</time>
      </trkpt>
      <trkpt lat="44.03315" lon="3.72225">
        <ele>605.2</ele>
        <time>2022-04-15T09:43:57Z</time>
      </trkpt>
      <trkpt lat="44.03313" lon="3.72224">
        <ele>605.1</ele>
        <time>2022-04-15T09:43:58Z</time>
      </trkpt>
      <trkpt lat="44.03309" lon="3.72223">
        <ele>605</ele>
        <time>2022-04-15T09:43:59Z</time>
      </trkpt>
      <trkpt lat="44.03307" lon="3.72222">
        <ele>604.9</ele>
        <time>2022-04-15T09:44:00Z</time>
      </trkpt>
      <trkpt lat="44.03303" lon="3.72221">
        <ele>604.8</ele>
        <time>2022-04-15T09:44:01Z</time>
      </trkpt>
      <trkpt lat="44.03299" lon="3.7222">
        <ele>604.7</ele>
        <time>2022-04-15T09:44:03Z</time>
      </trkpt>
      <trkpt lat="44.03296" lon="3.72218">
        <ele>604.7</ele>
        <time>2022-04-15T09:44:04Z</time>
      </trkpt>
      <trkpt lat="44.03293" lon="3.72217">
        <ele>604.6</ele>
        <time>2022-04-15T09:44:05Z</time>
      </trkpt>
      <trkpt lat="44.03289" lon="3.72216">
        <ele>604.6</ele>
        <time>2022-04-15T09:44:06Z</time>
      </trkpt>
      <trkpt lat="44.03288" lon="3.72215">
        <ele>604.6</ele>
        <time>2022-04-15T09:44:07Z</time>
      </trkpt>
      <trkpt lat="44.03285" lon="3.72214">
        <ele>604.5</ele>
        <time>2022-04-15T09:44:08Z</time>
      </trkpt>
      <trkpt lat="44.03282" lon="3.72212">
        <ele>604.5</ele>
        <time>2022-04-15T09:44:09Z</time>
      </trkpt>
      <trkpt lat="44.03278" lon="3.7221">
        <ele>604.4</ele>
        <time>2022-04-15T09:44:11Z</time>
      </trkpt>
      <trkpt lat="44.03275" lon="3.72208">
        <ele>604.4</ele>
        <time>2022-04-15T09:44:12Z</time>
      </trkpt>
      <trkpt lat="44.03273" lon="3.72207">
        <ele>604.3</ele>
        <time>2022-04-15T09:44:13Z</time>
      </trkpt>
      <trkpt lat="44.0327" lon="3.72205">
        <ele>604.3</ele>
        <time>2022-04-15T09:44:14Z</time>
      </trkpt>
      <trkpt lat="44.03269" lon="3.72205">
        <ele>604.3</ele>
        <time>2022-04-15T09:44:15Z</time>
      </trkpt>
      <trkpt lat="44.03266" lon="3.72203">
        <ele>604.3</ele>
        <time>2022-04-15T09:44:17Z</time>
      </trkpt>
      <trkpt lat="44.03263" lon="3.72202">
        <ele>604.3</ele>
        <time>2022-04-15T09:44:18Z</time>
      </trkpt>
      <trkpt lat="44.03259" lon="3.72201">
        <ele>604.2</ele>
        <time>2022-04-15T09:44:19Z</time>
      </trkpt>
      <trkpt lat="44.03258" lon="3.72201">
        <ele>604.2</ele>
        <time>2022-04-15T09:44:20Z</time>
      </trkpt>
      <trkpt lat="44.03256" lon="3.722">
        <ele>604.2</ele>
        <time>2022-04-15T09:44:21Z</time>
      </trkpt>
      <trkpt lat="44.03253" lon="3.722">
        <ele>604.2</ele>
        <time>2022-04-15T09:44:22Z</time>
      </trkpt>
      <trkpt lat="44.03248" lon="3.72199">
        <ele>604.2</ele>
        <time>2022-04-15T09:44:24Z</time>
      </trkpt>
      <trkpt lat="44.03246" lon="3.72199">
        <ele>604.2</ele>
        <time>2022-04-15T09:44:25Z</time>
      </trkpt>
      <trkpt lat="44.03245" lon="3.72198">
        <ele>604.2</ele>
        <time>2022-04-15T09:44:26Z</time>
      </trkpt>
      <trkpt lat="44.03242" lon="3.72197">
        <ele>604.2</ele>
        <time>2022-04-15T09:44:27Z</time>
      </trkpt>
      <trkpt lat="44.0324" lon="3.72197">
        <ele>604.2</ele>
        <time>2022-04-15T09:44:28Z</time>
      </trkpt>
      <trkpt lat="44.03236" lon="3.72195">
        <ele>604.2</ele>
        <time>2022-04-15T09:44:30Z</time>
      </trkpt>
      <trkpt lat="44.03235" lon="3.72195">
        <ele>604.2</ele>
        <time>2022-04-15T09:44:31Z</time>
      </trkpt>
      <trkpt lat="44.03232" lon="3.72193">
        <ele>604.2</ele>
        <time>2022-04-15T09:44:32Z</time>
      </trkpt>
      <trkpt lat="44.03231" lon="3.72193">
        <ele>604.2</ele>
        <time>2022-04-15T09:44:33Z</time>
      </trkpt>
      <trkpt lat="44.03228" lon="3.72193">
        <ele>604.2</ele>
        <time>2022-04-15T09:44:34Z</time>
      </trkpt>
      <trkpt lat="44.03227" lon="3.72192">
        <ele>604.2</ele>
        <time>2022-04-15T09:44:35Z</time>
      </trkpt>
      <trkpt lat="44.03226" lon="3.72192">
        <ele>604.3</ele>
        <time>2022-04-15T09:44:36Z</time>
      </trkpt>
      <trkpt lat="44.03224" lon="3.72192">
        <ele>604.3</ele>
        <time>2022-04-15T09:44:37Z</time>
      </trkpt>
      <trkpt lat="44.03223" lon="3.72191">
        <ele>604.3</ele>
        <time>2022-04-15T09:44:38Z</time>
      </trkpt>
      <trkpt lat="44.03221" lon="3.72191">
        <ele>604.3</ele>
        <time>2022-04-15T09:44:39Z</time>
      </trkpt>
      <trkpt lat="44.03219" lon="3.72191">
        <ele>604.3</ele>
        <time>2022-04-15T09:44:40Z</time>
      </trkpt>
      <trkpt lat="44.03217" lon="3.7219">
        <ele>604.3</ele>
        <time>2022-04-15T09:44:42Z</time>
      </trkpt>
      <trkpt lat="44.03214" lon="3.7219">
        <ele>604.3</ele>
        <time>2022-04-15T09:44:43Z</time>
      </trkpt>
      <trkpt lat="44.03212" lon="3.7219">
        <ele>604.2</ele>
        <time>2022-04-15T09:44:45Z</time>
      </trkpt>
      <trkpt lat="44.03209" lon="3.7219">
        <ele>604.2</ele>
        <time>2022-04-15T09:44:46Z</time>
      </trkpt>
      <trkpt lat="44.03208" lon="3.7219">
        <ele>604.1</ele>
        <time>2022-04-15T09:44:47Z</time>
      </trkpt>
      <trkpt lat="44.03206" lon="3.72189">
        <ele>604.1</ele>
        <time>2022-04-15T09:44:48Z</time>
      </trkpt>
      <trkpt lat="44.03205" lon="3.72188">
        <ele>604</ele>
        <time>2022-04-15T09:44:50Z</time>
      </trkpt>
      <trkpt lat="44.03202" lon="3.72187">
        <ele>603.9</ele>
        <time>2022-04-15T09:44:51Z</time>
      </trkpt>
      <trkpt lat="44.03201" lon="3.72186">
        <ele>603.8</ele>
        <time>2022-04-15T09:44:52Z</time>
      </trkpt>
      <trkpt lat="44.03199" lon="3.72185">
        <ele>603.8</ele>
        <time>2022-04-15T09:44:53Z</time>
      </trkpt>
      <trkpt lat="44.03196" lon="3.72184">
        <ele>603.7</ele>
        <time>2022-04-15T09:44:55Z</time>
      </trkpt>
      <trkpt lat="44.03194" lon="3.72183">
        <ele>603.7</ele>
        <time>2022-04-15T09:44:56Z</time>
      </trkpt>
      <trkpt lat="44.0319" lon="3.7218">
        <ele>603.6</ele>
        <time>2022-04-15T09:44:57Z</time>
      </trkpt>
      <trkpt lat="44.03185" lon="3.72177">
        <ele>603.5</ele>
        <time>2022-04-15T09:44:58Z</time>
      </trkpt>
      <trkpt lat="44.03181" lon="3.72174">
        <ele>603.3</ele>
        <time>2022-04-15T09:44:59Z</time>
      </trkpt>
      <trkpt lat="44.03178" lon="3.72172">
        <ele>603.2</ele>
        <time>2022-04-15T09:45:00Z</time>
      </trkpt>
      <trkpt lat="44.03174" lon="3.72168">
        <ele>603.1</ele>
        <time>2022-04-15T09:45:02Z</time>
      </trkpt>
      <trkpt lat="44.03171" lon="3.72165">
        <ele>603.1</ele>
        <time>2022-04-15T09:45:03Z</time>
      </trkpt>
      <trkpt lat="44.03168" lon="3.72162">
        <ele>603</ele>
        <time>2022-04-15T09:45:04Z</time>
      </trkpt>
      <trkpt lat="44.03165" lon="3.72159">
        <ele>603</ele>
        <time>2022-04-15T09:45:05Z</time>
      </trkpt>
      <trkpt lat="44.03163" lon="3.72156">
        <ele>603</ele>
        <time>2022-04-15T09:45:06Z</time>
      </trkpt>
      <trkpt lat="44.0316" lon="3.72153">
        <ele>602.9</ele>
        <time>2022-04-15T09:45:07Z</time>
      </trkpt>
      <trkpt lat="44.03157" lon="3.7215">
        <ele>602.9</ele>
        <time>2022-04-15T09:45:09Z</time>
      </trkpt>
      <trkpt lat="44.03154" lon="3.72147">
        <ele>602.8</ele>
        <time>2022-04-15T09:45:10Z</time>
      </trkpt>
      <trkpt lat="44.03152" lon="3.72144">
        <ele>602.7</ele>
        <time>2022-04-15T09:45:11Z</time>
      </trkpt>
      <trkpt lat="44.0315" lon="3.72142">
        <ele>602.7</ele>
        <time>2022-04-15T09:45:12Z</time>
      </trkpt>
      <trkpt lat="44.03148" lon="3.72139">
        <ele>602.6</ele>
        <time>2022-04-15T09:45:14Z</time>
      </trkpt>
      <trkpt lat="44.03146" lon="3.72136">
        <ele>602.6</ele>
        <time>2022-04-15T09:45:15Z</time>
      </trkpt>
      <trkpt lat="44.03144" lon="3.72132">
        <ele>602.6</ele>
        <time>2022-04-15T09:45:16Z</time>
      </trkpt>
      <trkpt lat="44.03143" lon="3.72131">
        <ele>602.5</ele>
        <time>2022-04-15T09:45:17Z</time>
      </trkpt>
      <trkpt lat="44.03141" lon="3.72128">
        <ele>602.5</ele>
        <time>2022-04-15T09:45:19Z</time>
      </trkpt>
      <trkpt lat="44.03139" lon="3.72124">
        <ele>602.5</ele>
        <time>2022-04-15T09:45:20Z</time>
      </trkpt>
      <trkpt lat="44.03135" lon="3.7212">
        <ele>602.4</ele>
        <time>2022-04-15T09:45:21Z</time>
      </trkpt>
      <trkpt lat="44.03134" lon="3.72119">
        <ele>602.4</ele>
        <time>2022-04-15T09:45:22Z</time>
      </trkpt>
      <trkpt lat="44.03131" lon="3.72115">
        <ele>602.2</ele>
        <time>2022-04-15T09:45:23Z</time>
      </trkpt>
      <trkpt lat="44.0313" lon="3.72114">
        <ele>602.2</ele>
        <time>2022-04-15T09:45:24Z</time>
      </trkpt>
      <trkpt lat="44.03127" lon="3.72112">
        <ele>602.1</ele>
        <time>2022-04-15T09:45:26Z</time>
      </trkpt>
      <trkpt lat="44.03124" lon="3.72108">
        <ele>601.9</ele>
        <time>2022-04-15T09:45:27Z</time>
      </trkpt>
      <trkpt lat="44.03121" lon="3.72106">
        <ele>601.7</ele>
        <time>2022-04-15T09:45:28Z</time>
      </trkpt>
      <trkpt lat="44.0312" lon="3.72105">
        <ele>601.6</ele>
        <time>2022-04-15T09:45:29Z</time>
      </trkpt>
      <trkpt lat="44.03118" lon="3.72102">
        <ele>601.4</ele>
        <time>2022-04-15T09:45:30Z</time>
      </trkpt>
      <trkpt lat="44.03114" lon="3.72097">
        <ele>601</ele>
        <time>2022-04-15T09:45:32Z</time>
      </trkpt>
      <trkpt lat="44.03112" lon="3.72096">
        <ele>600.9</ele>
        <time>2022-04-15T09:45:33Z</time>
      </trkpt>
      <trkpt lat="44.03111" lon="3.72095">
        <ele>600.8</ele>
        <time>2022-04-15T09:45:34Z</time>
      </trkpt>
      <trkpt lat="44.03108" lon="3.72091">
        <ele>600.4</ele>
        <time>2022-04-15T09:45:35Z</time>
      </trkpt>
      <trkpt lat="44.03105" lon="3.72088">
        <ele>600</ele>
        <time>2022-04-15T09:45:37Z</time>
      </trkpt>
      <trkpt lat="44.03101" lon="3.72084">
        <ele>599.6</ele>
        <time>2022-04-15T09:45:39Z</time>
      </trkpt>
      <trkpt lat="44.03098" lon="3.72082">
        <ele>599.2</ele>
        <time>2022-04-15T09:45:40Z</time>
      </trkpt>
      <trkpt lat="44.03096" lon="3.7208">
        <ele>598.9</ele>
        <time>2022-04-15T09:45:41Z</time>
      </trkpt>
      <trkpt lat="44.03094" lon="3.72078">
        <ele>598.6</ele>
        <time>2022-04-15T09:45:42Z</time>
      </trkpt>
      <trkpt lat="44.03091" lon="3.72076">
        <ele>598.3</ele>
        <time>2022-04-15T09:45:44Z</time>
      </trkpt>
      <trkpt lat="44.03089" lon="3.72073">
        <ele>598</ele>
        <time>2022-04-15T09:45:45Z</time>
      </trkpt>
      <trkpt lat="44.03086" lon="3.7207">
        <ele>597.6</ele>
        <time>2022-04-15T09:45:46Z</time>
      </trkpt>
      <trkpt lat="44.03085" lon="3.72069">
        <ele>597.5</ele>
        <time>2022-04-15T09:45:47Z</time>
      </trkpt>
      <trkpt lat="44.03082" lon="3.72066">
        <ele>597</ele>
        <time>2022-04-15T09:45:49Z</time>
      </trkpt>
      <trkpt lat="44.0308" lon="3.72065">
        <ele>596.8</ele>
        <time>2022-04-15T09:45:50Z</time>
      </trkpt>
      <trkpt lat="44.03077" lon="3.72062">
        <ele>596.4</ele>
        <time>2022-04-15T09:45:51Z</time>
      </trkpt>
      <trkpt lat="44.03076" lon="3.72061">
        <ele>596.3</ele>
        <time>2022-04-15T09:45:52Z</time>
      </trkpt>
      <trkpt lat="44.03074" lon="3.72058">
        <ele>596</ele>
        <time>2022-04-15T09:45:54Z</time>
      </trkpt>
      <trkpt lat="44.03072" lon="3.72056">
        <ele>595.7</ele>
        <time>2022-04-15T09:45:55Z</time>
      </trkpt>
      <trkpt lat="44.03068" lon="3.72053">
        <ele>595.2</ele>
        <time>2022-04-15T09:45:56Z</time>
      </trkpt>
      <trkpt lat="44.03067" lon="3.72051">
        <ele>595</ele>
        <time>2022-04-15T09:45:57Z</time>
      </trkpt>
      <trkpt lat="44.03064" lon="3.72049">
        <ele>594.7</ele>
        <time>2022-04-15T09:45:59Z</time>
      </trkpt>
      <trkpt lat="44.03062" lon="3.72046">
        <ele>594.4</ele>
        <time>2022-04-15T09:46:00Z</time>
      </trkpt>
      <trkpt lat="44.03059" lon="3.72044">
        <ele>594.1</ele>
        <time>2022-04-15T09:46:01Z</time>
      </trkpt>
      <trkpt lat="44.03058" lon="3.72043">
        <ele>594</ele>
        <time>2022-04-15T09:46:02Z</time>
      </trkpt>
      <trkpt lat="44.03055" lon="3.72041">
        <ele>593.8</ele>
        <time>2022-04-15T09:46:03Z</time>
      </trkpt>
      <trkpt lat="44.03053" lon="3.72038">
        <ele>593.6</ele>
        <time>2022-04-15T09:46:04Z</time>
      </trkpt>
      <trkpt lat="44.0305" lon="3.72035">
        <ele>593.3</ele>
        <time>2022-04-15T09:46:06Z</time>
      </trkpt>
      <trkpt lat="44.03049" lon="3.72034">
        <ele>593.2</ele>
        <time>2022-04-15T09:46:07Z</time>
      </trkpt>
      <trkpt lat="44.03046" lon="3.72031">
        <ele>592.9</ele>
        <time>2022-04-15T09:46:08Z</time>
      </trkpt>
      <trkpt lat="44.03045" lon="3.7203">
        <ele>592.8</ele>
        <time>2022-04-15T09:46:09Z</time>
      </trkpt>
      <trkpt lat="44.03042" lon="3.72027">
        <ele>592.6</ele>
        <time>2022-04-15T09:46:11Z</time>
      </trkpt>
      <trkpt lat="44.03041" lon="3.72026">
        <ele>592.5</ele>
        <time>2022-04-15T09:46:12Z</time>
      </trkpt>
      <trkpt lat="44.0304" lon="3.72025">
        <ele>592.3</ele>
        <time>2022-04-15T09:46:13Z</time>
      </trkpt>
      <trkpt lat="44.03039" lon="3.72023">
        <ele>592.2</ele>
        <time>2022-04-15T09:46:14Z</time>
      </trkpt>
      <trkpt lat="44.03036" lon="3.72021">
        <ele>592</ele>
        <time>2022-04-15T09:46:15Z</time>
      </trkpt>
      <trkpt lat="44.03035" lon="3.7202">
        <ele>591.9</ele>
        <time>2022-04-15T09:46:16Z</time>
      </trkpt>
      <trkpt lat="44.03032" lon="3.72017">
        <ele>591.7</ele>
        <time>2022-04-15T09:46:18Z</time>
      </trkpt>
      <trkpt lat="44.03028" lon="3.72013">
        <ele>591.4</ele>
        <time>2022-04-15T09:46:19Z</time>
      </trkpt>
      <trkpt lat="44.03026" lon="3.7201">
        <ele>591.2</ele>
        <time>2022-04-15T09:46:20Z</time>
      </trkpt>
      <trkpt lat="44.03021" lon="3.72004">
        <ele>590.9</ele>
        <time>2022-04-15T09:46:22Z</time>
      </trkpt>
      <trkpt lat="44.03016" lon="3.71999">
        <ele>590.6</ele>
        <time>2022-04-15T09:46:23Z</time>
      </trkpt>
      <trkpt lat="44.03013" lon="3.71997">
        <ele>590.4</ele>
        <time>2022-04-15T09:46:25Z</time>
      </trkpt>
      <trkpt lat="44.03009" lon="3.71994">
        <ele>590.2</ele>
        <time>2022-04-15T09:46:26Z</time>
      </trkpt>
      <trkpt lat="44.03006" lon="3.71991">
        <ele>589.9</ele>
        <time>2022-04-15T09:46:27Z</time>
      </trkpt>
      <trkpt lat="44.03004" lon="3.71989">
        <ele>589.8</ele>
        <time>2022-04-15T09:46:28Z</time>
      </trkpt>
      <trkpt lat="44.03002" lon="3.71986">
        <ele>589.7</ele>
        <time>2022-04-15T09:46:30Z</time>
      </trkpt>
      <trkpt lat="44.02999" lon="3.71983">
        <ele>589.5</ele>
        <time>2022-04-15T09:46:31Z</time>
      </trkpt>
      <trkpt lat="44.02996" lon="3.71981">
        <ele>589.4</ele>
        <time>2022-04-15T09:46:33Z</time>
      </trkpt>
      <trkpt lat="44.02993" lon="3.71979">
        <ele>589.2</ele>
        <time>2022-04-15T09:46:34Z</time>
      </trkpt>
      <trkpt lat="44.02989" lon="3.71976">
        <ele>589.1</ele>
        <time>2022-04-15T09:46:35Z</time>
      </trkpt>
      <trkpt lat="44.02985" lon="3.71972">
        <ele>588.9</ele>
        <time>2022-04-15T09:46:37Z</time>
      </trkpt>
      <trkpt lat="44.02982" lon="3.71969">
        <ele>588.7</ele>
        <time>2022-04-15T09:46:39Z</time>
      </trkpt>
      <trkpt lat="44.02979" lon="3.71966">
        <ele>588.5</ele>
        <time>2022-04-15T09:46:40Z</time>
      </trkpt>
      <trkpt lat="44.02976" lon="3.71963">
        <ele>588.3</ele>
        <time>2022-04-15T09:46:41Z</time>
      </trkpt>
      <trkpt lat="44.02975" lon="3.71962">
        <ele>588.2</ele>
        <time>2022-04-15T09:46:42Z</time>
      </trkpt>
      <trkpt lat="44.02972" lon="3.71959">
        <ele>587.9</ele>
        <time>2022-04-15T09:46:44Z</time>
      </trkpt>
      <trkpt lat="44.0297" lon="3.71958">
        <ele>587.8</ele>
        <time>2022-04-15T09:46:45Z</time>
      </trkpt>
      <trkpt lat="44.02968" lon="3.71956">
        <ele>587.5</ele>
        <time>2022-04-15T09:46:46Z</time>
      </trkpt>
      <trkpt lat="44.02967" lon="3.71955">
        <ele>587.5</ele>
        <time>2022-04-15T09:46:47Z</time>
      </trkpt>
      <trkpt lat="44.02964" lon="3.71953">
        <ele>587.2</ele>
        <time>2022-04-15T09:46:48Z</time>
      </trkpt>
      <trkpt lat="44.02962" lon="3.71952">
        <ele>587.1</ele>
        <time>2022-04-15T09:46:49Z</time>
      </trkpt>
      <trkpt lat="44.02959" lon="3.71949">
        <ele>586.8</ele>
        <time>2022-04-15T09:46:51Z</time>
      </trkpt>
      <trkpt lat="44.02958" lon="3.71948">
        <ele>586.7</ele>
        <time>2022-04-15T09:46:52Z</time>
      </trkpt>
      <trkpt lat="44.02955" lon="3.71944">
        <ele>586.5</ele>
        <time>2022-04-15T09:46:53Z</time>
      </trkpt>
      <trkpt lat="44.02954" lon="3.71943">
        <ele>586.4</ele>
        <time>2022-04-15T09:46:54Z</time>
      </trkpt>
      <trkpt lat="44.02951" lon="3.7194">
        <ele>586.2</ele>
        <time>2022-04-15T09:46:56Z</time>
      </trkpt>
      <trkpt lat="44.02949" lon="3.71937">
        <ele>586</ele>
        <time>2022-04-15T09:46:57Z</time>
      </trkpt>
      <trkpt lat="44.02946" lon="3.71934">
        <ele>585.8</ele>
        <time>2022-04-15T09:46:59Z</time>
      </trkpt>
      <trkpt lat="44.02944" lon="3.71931">
        <ele>585.6</ele>
        <time>2022-04-15T09:47:00Z</time>
      </trkpt>
      <trkpt lat="44.02941" lon="3.71928">
        <ele>585.4</ele>
        <time>2022-04-15T09:47:02Z</time>
      </trkpt>
      <trkpt lat="44.02938" lon="3.71925">
        <ele>585.2</ele>
        <time>2022-04-15T09:47:03Z</time>
      </trkpt>
      <trkpt lat="44.02934" lon="3.71922">
        <ele>585.1</ele>
        <time>2022-04-15T09:47:04Z</time>
      </trkpt>
      <trkpt lat="44.02933" lon="3.71921">
        <ele>585</ele>
        <time>2022-04-15T09:47:05Z</time>
      </trkpt>
      <trkpt lat="44.02929" lon="3.71919">
        <ele>584.9</ele>
        <time>2022-04-15T09:47:07Z</time>
      </trkpt>
      <trkpt lat="44.02926" lon="3.71916">
        <ele>584.8</ele>
        <time>2022-04-15T09:47:09Z</time>
      </trkpt>
      <trkpt lat="44.02923" lon="3.71913">
        <ele>584.8</ele>
        <time>2022-04-15T09:47:10Z</time>
      </trkpt>
      <trkpt lat="44.02921" lon="3.7191">
        <ele>584.7</ele>
        <time>2022-04-15T09:47:11Z</time>
      </trkpt>
      <trkpt lat="44.0292" lon="3.71909">
        <ele>584.7</ele>
        <time>2022-04-15T09:47:12Z</time>
      </trkpt>
      <trkpt lat="44.02918" lon="3.71906">
        <ele>584.7</ele>
        <time>2022-04-15T09:47:13Z</time>
      </trkpt>
      <trkpt lat="44.02918" lon="3.71905">
        <ele>584.7</ele>
        <time>2022-04-15T09:47:14Z</time>
      </trkpt>
      <trkpt lat="44.02916" lon="3.71901">
        <ele>584.8</ele>
        <time>2022-04-15T09:47:15Z</time>
      </trkpt>
      <trkpt lat="44.02916" lon="3.719">
        <ele>584.8</ele>
        <time>2022-04-15T09:47:16Z</time>
      </trkpt>
      <trkpt lat="44.02916" lon="3.71898">
        <ele>584.8</ele>
        <time>2022-04-15T09:47:17Z</time>
      </trkpt>
      <trkpt lat="44.02915" lon="3.71895">
        <ele>584.9</ele>
        <time>2022-04-15T09:47:18Z</time>
      </trkpt>
      <trkpt lat="44.02915" lon="3.71891">
        <ele>585</ele>
        <time>2022-04-15T09:47:20Z</time>
      </trkpt>
      <trkpt lat="44.02914" lon="3.7189">
        <ele>585</ele>
        <time>2022-04-15T09:47:21Z</time>
      </trkpt>
      <trkpt lat="44.02914" lon="3.71886">
        <ele>585.1</ele>
        <time>2022-04-15T09:47:22Z</time>
      </trkpt>
      <trkpt lat="44.02914" lon="3.71884">
        <ele>585.1</ele>
        <time>2022-04-15T09:47:23Z</time>
      </trkpt>
      <trkpt lat="44.02912" lon="3.71881">
        <ele>585.2</ele>
        <time>2022-04-15T09:47:25Z</time>
      </trkpt>
      <trkpt lat="44.02912" lon="3.7188">
        <ele>585.2</ele>
        <time>2022-04-15T09:47:26Z</time>
      </trkpt>
      <trkpt lat="44.02911" lon="3.71878">
        <ele>585.3</ele>
        <time>2022-04-15T09:47:27Z</time>
      </trkpt>
      <trkpt lat="44.0291" lon="3.71876">
        <ele>585.3</ele>
        <time>2022-04-15T09:47:28Z</time>
      </trkpt>
      <trkpt lat="44.02908" lon="3.71872">
        <ele>585.4</ele>
        <time>2022-04-15T09:47:29Z</time>
      </trkpt>
      <trkpt lat="44.02908" lon="3.7187">
        <ele>585.4</ele>
        <time>2022-04-15T09:47:30Z</time>
      </trkpt>
      <trkpt lat="44.02906" lon="3.71866">
        <ele>585.4</ele>
        <time>2022-04-15T09:47:32Z</time>
      </trkpt>
      <trkpt lat="44.02903" lon="3.71861">
        <ele>585.3</ele>
        <time>2022-04-15T09:47:33Z</time>
      </trkpt>
      <trkpt lat="44.02902" lon="3.71859">
        <ele>585.3</ele>
        <time>2022-04-15T09:47:34Z</time>
      </trkpt>
      <trkpt lat="44.029" lon="3.71857">
        <ele>585.2</ele>
        <time>2022-04-15T09:47:35Z</time>
      </trkpt>
      <trkpt lat="44.02897" lon="3.71853">
        <ele>585.2</ele>
        <time>2022-04-15T09:47:36Z</time>
      </trkpt>
      <trkpt lat="44.02894" lon="3.7185">
        <ele>585.1</ele>
        <time>2022-04-15T09:47:38Z</time>
      </trkpt>
      <trkpt lat="44.02891" lon="3.71847">
        <ele>585.1</ele>
        <time>2022-04-15T09:47:39Z</time>
      </trkpt>
      <trkpt lat="44.02887" lon="3.71844">
        <ele>585</ele>
        <time>2022-04-15T09:47:40Z</time>
      </trkpt>
      <trkpt lat="44.02886" lon="3.71843">
        <ele>584.9</ele>
        <time>2022-04-15T09:47:41Z</time>
      </trkpt>
      <trkpt lat="44.02882" lon="3.7184">
        <ele>584.8</ele>
        <time>2022-04-15T09:47:42Z</time>
      </trkpt>
      <trkpt lat="44.0288" lon="3.71839">
        <ele>584.7</ele>
        <time>2022-04-15T09:47:43Z</time>
      </trkpt>
      <trkpt lat="44.02877" lon="3.71835">
        <ele>584.6</ele>
        <time>2022-04-15T09:47:45Z</time>
      </trkpt>
      <trkpt lat="44.02873" lon="3.71832">
        <ele>584.4</ele>
        <time>2022-04-15T09:47:46Z</time>
      </trkpt>
      <trkpt lat="44.02872" lon="3.71831">
        <ele>584.3</ele>
        <time>2022-04-15T09:47:47Z</time>
      </trkpt>
      <trkpt lat="44.02869" lon="3.71829">
        <ele>584.3</ele>
        <time>2022-04-15T09:47:48Z</time>
      </trkpt>
      <trkpt lat="44.02868" lon="3.71828">
        <ele>584.3</ele>
        <time>2022-04-15T09:47:49Z</time>
      </trkpt>
      <trkpt lat="44.02866" lon="3.71826">
        <ele>584.3</ele>
        <time>2022-04-15T09:47:50Z</time>
      </trkpt>
      <trkpt lat="44.02865" lon="3.71825">
        <ele>584.3</ele>
        <time>2022-04-15T09:47:51Z</time>
      </trkpt>
      <trkpt lat="44.02862" lon="3.71823">
        <ele>584.4</ele>
        <time>2022-04-15T09:47:52Z</time>
      </trkpt>
      <trkpt lat="44.02861" lon="3.71822">
        <ele>584.4</ele>
        <time>2022-04-15T09:47:53Z</time>
      </trkpt>
      <trkpt lat="44.02859" lon="3.71821">
        <ele>584.5</ele>
        <time>2022-04-15T09:47:54Z</time>
      </trkpt>
      <trkpt lat="44.02858" lon="3.7182">
        <ele>584.5</ele>
        <time>2022-04-15T09:47:55Z</time>
      </trkpt>
      <trkpt lat="44.02855" lon="3.71818">
        <ele>584.6</ele>
        <time>2022-04-15T09:47:56Z</time>
      </trkpt>
      <trkpt lat="44.02854" lon="3.71818">
        <ele>584.6</ele>
        <time>2022-04-15T09:47:57Z</time>
      </trkpt>
      <trkpt lat="44.0285" lon="3.71815">
        <ele>584.8</ele>
        <time>2022-04-15T09:47:59Z</time>
      </trkpt>
      <trkpt lat="44.02849" lon="3.71814">
        <ele>584.9</ele>
        <time>2022-04-15T09:48:00Z</time>
      </trkpt>
      <trkpt lat="44.02845" lon="3.71811">
        <ele>585.1</ele>
        <time>2022-04-15T09:48:02Z</time>
      </trkpt>
      <trkpt lat="44.02844" lon="3.71811">
        <ele>585.2</ele>
        <time>2022-04-15T09:48:03Z</time>
      </trkpt>
      <trkpt lat="44.02842" lon="3.7181">
        <ele>585.3</ele>
        <time>2022-04-15T09:48:04Z</time>
      </trkpt>
      <trkpt lat="44.0284" lon="3.71808">
        <ele>585.6</ele>
        <time>2022-04-15T09:48:05Z</time>
      </trkpt>
      <trkpt lat="44.02839" lon="3.71807">
        <ele>585.7</ele>
        <time>2022-04-15T09:48:06Z</time>
      </trkpt>
      <trkpt lat="44.02836" lon="3.71805">
        <ele>586</ele>
        <time>2022-04-15T09:48:07Z</time>
      </trkpt>
      <trkpt lat="44.02835" lon="3.71804">
        <ele>586.1</ele>
        <time>2022-04-15T09:48:08Z</time>
      </trkpt>
      <trkpt lat="44.02832" lon="3.71802">
        <ele>586.4</ele>
        <time>2022-04-15T09:48:09Z</time>
      </trkpt>
      <trkpt lat="44.02831" lon="3.71801">
        <ele>586.4</ele>
        <time>2022-04-15T09:48:10Z</time>
      </trkpt>
      <trkpt lat="44.0283" lon="3.71799">
        <ele>586.6</ele>
        <time>2022-04-15T09:48:11Z</time>
      </trkpt>
      <trkpt lat="44.02827" lon="3.71797">
        <ele>586.9</ele>
        <time>2022-04-15T09:48:13Z</time>
      </trkpt>
      <trkpt lat="44.02826" lon="3.71796">
        <ele>587.1</ele>
        <time>2022-04-15T09:48:14Z</time>
      </trkpt>
      <trkpt lat="44.02823" lon="3.71794">
        <ele>587.4</ele>
        <time>2022-04-15T09:48:16Z</time>
      </trkpt>
      <trkpt lat="44.0282" lon="3.71791">
        <ele>587.7</ele>
        <time>2022-04-15T09:48:17Z</time>
      </trkpt>
      <trkpt lat="44.02819" lon="3.71791">
        <ele>587.9</ele>
        <time>2022-04-15T09:48:18Z</time>
      </trkpt>
      <trkpt lat="44.02816" lon="3.71788">
        <ele>588.2</ele>
        <time>2022-04-15T09:48:20Z</time>
      </trkpt>
      <trkpt lat="44.02813" lon="3.71786">
        <ele>588.4</ele>
        <time>2022-04-15T09:48:21Z</time>
      </trkpt>
      <trkpt lat="44.0281" lon="3.71784">
        <ele>588.7</ele>
        <time>2022-04-15T09:48:22Z</time>
      </trkpt>
      <trkpt lat="44.02809" lon="3.71784">
        <ele>588.8</ele>
        <time>2022-04-15T09:48:23Z</time>
      </trkpt>
      <trkpt lat="44.02807" lon="3.71782">
        <ele>589.1</ele>
        <time>2022-04-15T09:48:24Z</time>
      </trkpt>
      <trkpt lat="44.02806" lon="3.71781">
        <ele>589.2</ele>
        <time>2022-04-15T09:48:25Z</time>
      </trkpt>
      <trkpt lat="44.02802" lon="3.71779">
        <ele>589.6</ele>
        <time>2022-04-15T09:48:27Z</time>
      </trkpt>
      <trkpt lat="44.02801" lon="3.71778">
        <ele>589.7</ele>
        <time>2022-04-15T09:48:28Z</time>
      </trkpt>
      <trkpt lat="44.028" lon="3.71777">
        <ele>589.8</ele>
        <time>2022-04-15T09:48:29Z</time>
      </trkpt>
      <trkpt lat="44.02797" lon="3.71774">
        <ele>590.2</ele>
        <time>2022-04-15T09:48:31Z</time>
      </trkpt>
      <trkpt lat="44.02796" lon="3.71774">
        <ele>590.3</ele>
        <time>2022-04-15T09:48:32Z</time>
      </trkpt>
      <trkpt lat="44.02794" lon="3.71772">
        <ele>590.5</ele>
        <time>2022-04-15T09:48:33Z</time>
      </trkpt>
      <trkpt lat="44.02793" lon="3.71771">
        <ele>590.7</ele>
        <time>2022-04-15T09:48:34Z</time>
      </trkpt>
      <trkpt lat="44.0279" lon="3.71769">
        <ele>591.1</ele>
        <time>2022-04-15T09:48:35Z</time>
      </trkpt>
      <trkpt lat="44.02789" lon="3.71768">
        <ele>591.2</ele>
        <time>2022-04-15T09:48:36Z</time>
      </trkpt>
      <trkpt lat="44.02786" lon="3.71767">
        <ele>591.6</ele>
        <time>2022-04-15T09:48:37Z</time>
      </trkpt>
      <trkpt lat="44.02784" lon="3.71765">
        <ele>592</ele>
        <time>2022-04-15T09:48:39Z</time>
      </trkpt>
      <trkpt lat="44.02781" lon="3.71763">
        <ele>592.4</ele>
        <time>2022-04-15T09:48:40Z</time>
      </trkpt>
      <trkpt lat="44.02779" lon="3.71761">
        <ele>592.8</ele>
        <time>2022-04-15T09:48:41Z</time>
      </trkpt>
      <trkpt lat="44.02778" lon="3.71761">
        <ele>592.9</ele>
        <time>2022-04-15T09:48:42Z</time>
      </trkpt>
      <trkpt lat="44.02777" lon="3.7176">
        <ele>593.1</ele>
        <time>2022-04-15T09:48:43Z</time>
      </trkpt>
      <trkpt lat="44.02775" lon="3.71759">
        <ele>593.3</ele>
        <time>2022-04-15T09:48:44Z</time>
      </trkpt>
      <trkpt lat="44.02774" lon="3.71758">
        <ele>593.5</ele>
        <time>2022-04-15T09:48:45Z</time>
      </trkpt>
      <trkpt lat="44.02772" lon="3.71757">
        <ele>593.7</ele>
        <time>2022-04-15T09:48:46Z</time>
      </trkpt>
      <trkpt lat="44.0277" lon="3.71756">
        <ele>593.9</ele>
        <time>2022-04-15T09:48:47Z</time>
      </trkpt>
      <trkpt lat="44.02769" lon="3.71755">
        <ele>594.1</ele>
        <time>2022-04-15T09:48:48Z</time>
      </trkpt>
      <trkpt lat="44.02766" lon="3.71754">
        <ele>594.4</ele>
        <time>2022-04-15T09:48:49Z</time>
      </trkpt>
      <trkpt lat="44.02765" lon="3.71753">
        <ele>594.5</ele>
        <time>2022-04-15T09:48:50Z</time>
      </trkpt>
      <trkpt lat="44.02761" lon="3.71751">
        <ele>594.9</ele>
        <time>2022-04-15T09:48:51Z</time>
      </trkpt>
      <trkpt lat="44.0276" lon="3.71751">
        <ele>595</ele>
        <time>2022-04-15T09:48:52Z</time>
      </trkpt>
      <trkpt lat="44.02757" lon="3.71749">
        <ele>595.3</ele>
        <time>2022-04-15T09:48:53Z</time>
      </trkpt>
      <trkpt lat="44.02753" lon="3.71747">
        <ele>595.7</ele>
        <time>2022-04-15T09:48:55Z</time>
      </trkpt>
      <trkpt lat="44.02752" lon="3.71747">
        <ele>595.8</ele>
        <time>2022-04-15T09:48:56Z</time>
      </trkpt>
      <trkpt lat="44.0275" lon="3.71746">
        <ele>596</ele>
        <time>2022-04-15T09:48:57Z</time>
      </trkpt>
      <trkpt lat="44.02747" lon="3.71745">
        <ele>596.3</ele>
        <time>2022-04-15T09:48:59Z</time>
      </trkpt>
      <trkpt lat="44.02746" lon="3.71744">
        <ele>596.4</ele>
        <time>2022-04-15T09:49:00Z</time>
      </trkpt>
      <trkpt lat="44.02745" lon="3.71743">
        <ele>596.5</ele>
        <time>2022-04-15T09:49:01Z</time>
      </trkpt>
      <trkpt lat="44.02743" lon="3.71743">
        <ele>596.7</ele>
        <time>2022-04-15T09:49:02Z</time>
      </trkpt>
      <trkpt lat="44.02741" lon="3.71742">
        <ele>596.8</ele>
        <time>2022-04-15T09:49:03Z</time>
      </trkpt>
      <trkpt lat="44.0274" lon="3.71742">
        <ele>597</ele>
        <time>2022-04-15T09:49:04Z</time>
      </trkpt>
      <trkpt lat="44.02737" lon="3.71741">
        <ele>597.3</ele>
        <time>2022-04-15T09:49:06Z</time>
      </trkpt>
      <trkpt lat="44.02733" lon="3.71739">
        <ele>597.6</ele>
        <time>2022-04-15T09:49:08Z</time>
      </trkpt>
      <trkpt lat="44.0273" lon="3.71738">
        <ele>597.9</ele>
        <time>2022-04-15T09:49:09Z</time>
      </trkpt>
      <trkpt lat="44.02727" lon="3.71737">
        <ele>598.2</ele>
        <time>2022-04-15T09:49:10Z</time>
      </trkpt>
      <trkpt lat="44.02725" lon="3.71736">
        <ele>598.3</ele>
        <time>2022-04-15T09:49:11Z</time>
      </trkpt>
      <trkpt lat="44.02722" lon="3.71734">
        <ele>598.6</ele>
        <time>2022-04-15T09:49:13Z</time>
      </trkpt>
      <trkpt lat="44.02721" lon="3.71733">
        <ele>598.7</ele>
        <time>2022-04-15T09:49:14Z</time>
      </trkpt>
      <trkpt lat="44.02719" lon="3.71733">
        <ele>598.9</ele>
        <time>2022-04-15T09:49:15Z</time>
      </trkpt>
      <trkpt lat="44.02715" lon="3.71731">
        <ele>599.2</ele>
        <time>2022-04-15T09:49:16Z</time>
      </trkpt>
      <trkpt lat="44.02714" lon="3.7173">
        <ele>599.4</ele>
        <time>2022-04-15T09:49:17Z</time>
      </trkpt>
      <trkpt lat="44.02711" lon="3.71729">
        <ele>599.6</ele>
        <time>2022-04-15T09:49:18Z</time>
      </trkpt>
      <trkpt lat="44.02708" lon="3.71727">
        <ele>600</ele>
        <time>2022-04-15T09:49:20Z</time>
      </trkpt>
      <trkpt lat="44.02705" lon="3.71726">
        <ele>600.3</ele>
        <time>2022-04-15T09:49:21Z</time>
      </trkpt>
      <trkpt lat="44.02701" lon="3.71725">
        <ele>600.8</ele>
        <time>2022-04-15T09:49:22Z</time>
      </trkpt>
      <trkpt lat="44.027" lon="3.71724">
        <ele>600.9</ele>
        <time>2022-04-15T09:49:23Z</time>
      </trkpt>
      <trkpt lat="44.02697" lon="3.71724">
        <ele>601.3</ele>
        <time>2022-04-15T09:49:24Z</time>
      </trkpt>
      <trkpt lat="44.02695" lon="3.71724">
        <ele>601.5</ele>
        <time>2022-04-15T09:49:25Z</time>
      </trkpt>
      <trkpt lat="44.0269" lon="3.71722">
        <ele>602.2</ele>
        <time>2022-04-15T09:49:27Z</time>
      </trkpt>
      <trkpt lat="44.02689" lon="3.71721">
        <ele>602.4</ele>
        <time>2022-04-15T09:49:28Z</time>
      </trkpt>
      <trkpt lat="44.02688" lon="3.71721">
        <ele>602.6</ele>
        <time>2022-04-15T09:49:29Z</time>
      </trkpt>
      <trkpt lat="44.02685" lon="3.7172">
        <ele>603</ele>
        <time>2022-04-15T09:49:30Z</time>
      </trkpt>
      <trkpt lat="44.02684" lon="3.71719">
        <ele>603.1</ele>
        <time>2022-04-15T09:49:31Z</time>
      </trkpt>
      <trkpt lat="44.02682" lon="3.71718">
        <ele>603.5</ele>
        <time>2022-04-15T09:49:32Z</time>
      </trkpt>
      <trkpt lat="44.02681" lon="3.71717">
        <ele>603.7</ele>
        <time>2022-04-15T09:49:33Z</time>
      </trkpt>
      <trkpt lat="44.02678" lon="3.71716">
        <ele>604.1</ele>
        <time>2022-04-15T09:49:35Z</time>
      </trkpt>
      <trkpt lat="44.02677" lon="3.71715">
        <ele>604.2</ele>
        <time>2022-04-15T09:49:36Z</time>
      </trkpt>
      <trkpt lat="44.02675" lon="3.71715">
        <ele>604.4</ele>
        <time>2022-04-15T09:49:37Z</time>
      </trkpt>
      <trkpt lat="44.02674" lon="3.71714">
        <ele>604.7</ele>
        <time>2022-04-15T09:49:38Z</time>
      </trkpt>
      <trkpt lat="44.02671" lon="3.71714">
        <ele>605</ele>
        <time>2022-04-15T09:49:39Z</time>
      </trkpt>
      <trkpt lat="44.02669" lon="3.71713">
        <ele>605.3</ele>
        <time>2022-04-15T09:49:41Z</time>
      </trkpt>
      <trkpt lat="44.02668" lon="3.71712">
        <ele>605.5</ele>
        <time>2022-04-15T09:49:42Z</time>
      </trkpt>
      <trkpt lat="44.02667" lon="3.71712">
        <ele>605.7</ele>
        <time>2022-04-15T09:49:43Z</time>
      </trkpt>
      <trkpt lat="44.02665" lon="3.7171">
        <ele>605.9</ele>
        <time>2022-04-15T09:49:44Z</time>
      </trkpt>
      <trkpt lat="44.02664" lon="3.71709">
        <ele>606.1</ele>
        <time>2022-04-15T09:49:45Z</time>
      </trkpt>
      <trkpt lat="44.02662" lon="3.71707">
        <ele>606.5</ele>
        <time>2022-04-15T09:49:47Z</time>
      </trkpt>
      <trkpt lat="44.0266" lon="3.71706">
        <ele>606.6</ele>
        <time>2022-04-15T09:49:48Z</time>
      </trkpt>
      <trkpt lat="44.02658" lon="3.71705">
        <ele>607</ele>
        <time>2022-04-15T09:49:49Z</time>
      </trkpt>
      <trkpt lat="44.02657" lon="3.71705">
        <ele>607.1</ele>
        <time>2022-04-15T09:49:50Z</time>
      </trkpt>
      <trkpt lat="44.02654" lon="3.71704">
        <ele>607.4</ele>
        <time>2022-04-15T09:49:51Z</time>
      </trkpt>
      <trkpt lat="44.02653" lon="3.71704">
        <ele>607.5</ele>
        <time>2022-04-15T09:49:52Z</time>
      </trkpt>
      <trkpt lat="44.0265" lon="3.71703">
        <ele>607.9</ele>
        <time>2022-04-15T09:49:54Z</time>
      </trkpt>
      <trkpt lat="44.02649" lon="3.71702">
        <ele>608</ele>
        <time>2022-04-15T09:49:55Z</time>
      </trkpt>
      <trkpt lat="44.02646" lon="3.71701">
        <ele>608.3</ele>
        <time>2022-04-15T09:49:56Z</time>
      </trkpt>
      <trkpt lat="44.02645" lon="3.71701">
        <ele>608.5</ele>
        <time>2022-04-15T09:49:57Z</time>
      </trkpt>
      <trkpt lat="44.02641" lon="3.71699">
        <ele>608.9</ele>
        <time>2022-04-15T09:49:59Z</time>
      </trkpt>
      <trkpt lat="44.02641" lon="3.71699">
        <ele>608.9</ele>
        <time>2022-04-15T09:50:00Z</time>
      </trkpt>
      <trkpt lat="44.02638" lon="3.71697">
        <ele>609.3</ele>
        <time>2022-04-15T09:50:01Z</time>
      </trkpt>
      <trkpt lat="44.02637" lon="3.71697">
        <ele>609.4</ele>
        <time>2022-04-15T09:50:02Z</time>
      </trkpt>
      <trkpt lat="44.02635" lon="3.71696">
        <ele>609.6</ele>
        <time>2022-04-15T09:50:03Z</time>
      </trkpt>
      <trkpt lat="44.02633" lon="3.71695">
        <ele>609.8</ele>
        <time>2022-04-15T09:50:05Z</time>
      </trkpt>
      <trkpt lat="44.0263" lon="3.71693">
        <ele>610.2</ele>
        <time>2022-04-15T09:50:06Z</time>
      </trkpt>
      <trkpt lat="44.02629" lon="3.71693">
        <ele>610.3</ele>
        <time>2022-04-15T09:50:07Z</time>
      </trkpt>
      <trkpt lat="44.02626" lon="3.71692">
        <ele>610.6</ele>
        <time>2022-04-15T09:50:08Z</time>
      </trkpt>
      <trkpt lat="44.02625" lon="3.71692">
        <ele>610.8</ele>
        <time>2022-04-15T09:50:09Z</time>
      </trkpt>
      <trkpt lat="44.02622" lon="3.71691">
        <ele>611</ele>
        <time>2022-04-15T09:50:10Z</time>
      </trkpt>
      <trkpt lat="44.0262" lon="3.7169">
        <ele>611.3</ele>
        <time>2022-04-15T09:50:12Z</time>
      </trkpt>
      <trkpt lat="44.02616" lon="3.71688">
        <ele>611.6</ele>
        <time>2022-04-15T09:50:13Z</time>
      </trkpt>
      <trkpt lat="44.02615" lon="3.71688">
        <ele>611.7</ele>
        <time>2022-04-15T09:50:14Z</time>
      </trkpt>
      <trkpt lat="44.02613" lon="3.71687">
        <ele>612</ele>
        <time>2022-04-15T09:50:15Z</time>
      </trkpt>
      <trkpt lat="44.0261" lon="3.71686">
        <ele>612.2</ele>
        <time>2022-04-15T09:50:17Z</time>
      </trkpt>
      <trkpt lat="44.02608" lon="3.71685">
        <ele>612.4</ele>
        <time>2022-04-15T09:50:18Z</time>
      </trkpt>
      <trkpt lat="44.02607" lon="3.71685">
        <ele>612.6</ele>
        <time>2022-04-15T09:50:19Z</time>
      </trkpt>
      <trkpt lat="44.02604" lon="3.71683">
        <ele>612.9</ele>
        <time>2022-04-15T09:50:20Z</time>
      </trkpt>
      <trkpt lat="44.02603" lon="3.71683">
        <ele>613</ele>
        <time>2022-04-15T09:50:21Z</time>
      </trkpt>
      <trkpt lat="44.02599" lon="3.71682">
        <ele>613.4</ele>
        <time>2022-04-15T09:50:23Z</time>
      </trkpt>
      <trkpt lat="44.02598" lon="3.71681">
        <ele>613.5</ele>
        <time>2022-04-15T09:50:24Z</time>
      </trkpt>
      <trkpt lat="44.02596" lon="3.71679">
        <ele>613.9</ele>
        <time>2022-04-15T09:50:25Z</time>
      </trkpt>
      <trkpt lat="44.02595" lon="3.71679">
        <ele>614</ele>
        <time>2022-04-15T09:50:26Z</time>
      </trkpt>
      <trkpt lat="44.02592" lon="3.71676">
        <ele>614.4</ele>
        <time>2022-04-15T09:50:27Z</time>
      </trkpt>
      <trkpt lat="44.0259" lon="3.71676">
        <ele>614.6</ele>
        <time>2022-04-15T09:50:28Z</time>
      </trkpt>
      <trkpt lat="44.02588" lon="3.71673">
        <ele>614.9</ele>
        <time>2022-04-15T09:50:30Z</time>
      </trkpt>
      <trkpt lat="44.02587" lon="3.71671">
        <ele>615.1</ele>
        <time>2022-04-15T09:50:31Z</time>
      </trkpt>
      <trkpt lat="44.02586" lon="3.7167">
        <ele>615.3</ele>
        <time>2022-04-15T09:50:32Z</time>
      </trkpt>
      <trkpt lat="44.02584" lon="3.71666">
        <ele>615.6</ele>
        <time>2022-04-15T09:50:33Z</time>
      </trkpt>
      <trkpt lat="44.02583" lon="3.71665">
        <ele>615.7</ele>
        <time>2022-04-15T09:50:34Z</time>
      </trkpt>
      <trkpt lat="44.02582" lon="3.71661">
        <ele>616</ele>
        <time>2022-04-15T09:50:36Z</time>
      </trkpt>
      <trkpt lat="44.02582" lon="3.7166">
        <ele>616.1</ele>
        <time>2022-04-15T09:50:37Z</time>
      </trkpt>
      <trkpt lat="44.02581" lon="3.71658">
        <ele>616.2</ele>
        <time>2022-04-15T09:50:38Z</time>
      </trkpt>
      <trkpt lat="44.02582" lon="3.71655">
        <ele>616.4</ele>
        <time>2022-04-15T09:50:39Z</time>
      </trkpt>
      <trkpt lat="44.02581" lon="3.71654">
        <ele>616.5</ele>
        <time>2022-04-15T09:50:40Z</time>
      </trkpt>
      <trkpt lat="44.0258" lon="3.71652">
        <ele>616.6</ele>
        <time>2022-04-15T09:50:41Z</time>
      </trkpt>
      <trkpt lat="44.02578" lon="3.71648">
        <ele>616.8</ele>
        <time>2022-04-15T09:50:43Z</time>
      </trkpt>
      <trkpt lat="44.02577" lon="3.71647">
        <ele>616.8</ele>
        <time>2022-04-15T09:50:44Z</time>
      </trkpt>
      <trkpt lat="44.02576" lon="3.71646">
        <ele>616.9</ele>
        <time>2022-04-15T09:50:45Z</time>
      </trkpt>
      <trkpt lat="44.02575" lon="3.71644">
        <ele>616.9</ele>
        <time>2022-04-15T09:50:46Z</time>
      </trkpt>
      <trkpt lat="44.02573" lon="3.71641">
        <ele>617</ele>
        <time>2022-04-15T09:50:47Z</time>
      </trkpt>
      <trkpt lat="44.02572" lon="3.7164">
        <ele>617</ele>
        <time>2022-04-15T09:50:48Z</time>
      </trkpt>
      <trkpt lat="44.0257" lon="3.71636">
        <ele>617.1</ele>
        <time>2022-04-15T09:50:50Z</time>
      </trkpt>
      <trkpt lat="44.02568" lon="3.71633">
        <ele>617.1</ele>
        <time>2022-04-15T09:50:51Z</time>
      </trkpt>
      <trkpt lat="44.02566" lon="3.7163">
        <ele>617.1</ele>
        <time>2022-04-15T09:50:52Z</time>
      </trkpt>
      <trkpt lat="44.02565" lon="3.71629">
        <ele>617.1</ele>
        <time>2022-04-15T09:50:53Z</time>
      </trkpt>
      <trkpt lat="44.02564" lon="3.71627">
        <ele>617.1</ele>
        <time>2022-04-15T09:50:54Z</time>
      </trkpt>
      <trkpt lat="44.02562" lon="3.71625">
        <ele>617.1</ele>
        <time>2022-04-15T09:50:56Z</time>
      </trkpt>
      <trkpt lat="44.0256" lon="3.71621">
        <ele>617</ele>
        <time>2022-04-15T09:50:57Z</time>
      </trkpt>
      <trkpt lat="44.02559" lon="3.7162">
        <ele>617</ele>
        <time>2022-04-15T09:50:58Z</time>
      </trkpt>
      <trkpt lat="44.02558" lon="3.71618">
        <ele>617</ele>
        <time>2022-04-15T09:50:59Z</time>
      </trkpt>
      <trkpt lat="44.02556" lon="3.71615">
        <ele>617</ele>
        <time>2022-04-15T09:51:01Z</time>
      </trkpt>
      <trkpt lat="44.02553" lon="3.71611">
        <ele>616.9</ele>
        <time>2022-04-15T09:51:02Z</time>
      </trkpt>
      <trkpt lat="44.02552" lon="3.7161">
        <ele>616.9</ele>
        <time>2022-04-15T09:51:03Z</time>
      </trkpt>
      <trkpt lat="44.02549" lon="3.71606">
        <ele>616.8</ele>
        <time>2022-04-15T09:51:04Z</time>
      </trkpt>
      <trkpt lat="44.02548" lon="3.71604">
        <ele>616.8</ele>
        <time>2022-04-15T09:51:05Z</time>
      </trkpt>
      <trkpt lat="44.02546" lon="3.71601">
        <ele>616.7</ele>
        <time>2022-04-15T09:51:07Z</time>
      </trkpt>
      <trkpt lat="44.02544" lon="3.71596">
        <ele>616.7</ele>
        <time>2022-04-15T09:51:08Z</time>
      </trkpt>
      <trkpt lat="44.02541" lon="3.71592">
        <ele>616.6</ele>
        <time>2022-04-15T09:51:09Z</time>
      </trkpt>
      <trkpt lat="44.0254" lon="3.7159">
        <ele>616.6</ele>
        <time>2022-04-15T09:51:10Z</time>
      </trkpt>
      <trkpt lat="44.02538" lon="3.71586">
        <ele>616.5</ele>
        <time>2022-04-15T09:51:12Z</time>
      </trkpt>
      <trkpt lat="44.02536" lon="3.71582">
        <ele>616.5</ele>
        <time>2022-04-15T09:51:13Z</time>
      </trkpt>
      <trkpt lat="44.02533" lon="3.71578">
        <ele>616.5</ele>
        <time>2022-04-15T09:51:14Z</time>
      </trkpt>
      <trkpt lat="44.02532" lon="3.71577">
        <ele>616.5</ele>
        <time>2022-04-15T09:51:15Z</time>
      </trkpt>
      <trkpt lat="44.02529" lon="3.71573">
        <ele>616.5</ele>
        <time>2022-04-15T09:51:16Z</time>
      </trkpt>
      <trkpt lat="44.02529" lon="3.71571">
        <ele>616.5</ele>
        <time>2022-04-15T09:51:17Z</time>
      </trkpt>
      <trkpt lat="44.02527" lon="3.71568">
        <ele>616.5</ele>
        <time>2022-04-15T09:51:18Z</time>
      </trkpt>
      <trkpt lat="44.02524" lon="3.71564">
        <ele>616.6</ele>
        <time>2022-04-15T09:51:20Z</time>
      </trkpt>
      <trkpt lat="44.02522" lon="3.7156">
        <ele>616.6</ele>
        <time>2022-04-15T09:51:22Z</time>
      </trkpt>
      <trkpt lat="44.0252" lon="3.71557">
        <ele>616.7</ele>
        <time>2022-04-15T09:51:23Z</time>
      </trkpt>
      <trkpt lat="44.02518" lon="3.71553">
        <ele>616.7</ele>
        <time>2022-04-15T09:51:24Z</time>
      </trkpt>
      <trkpt lat="44.02517" lon="3.71552">
        <ele>616.7</ele>
        <time>2022-04-15T09:51:25Z</time>
      </trkpt>
      <trkpt lat="44.02514" lon="3.71548">
        <ele>616.8</ele>
        <time>2022-04-15T09:51:27Z</time>
      </trkpt>
      <trkpt lat="44.02513" lon="3.71546">
        <ele>616.9</ele>
        <time>2022-04-15T09:51:28Z</time>
      </trkpt>
      <trkpt lat="44.02511" lon="3.71542">
        <ele>617</ele>
        <time>2022-04-15T09:51:29Z</time>
      </trkpt>
      <trkpt lat="44.0251" lon="3.71541">
        <ele>617</ele>
        <time>2022-04-15T09:51:30Z</time>
      </trkpt>
      <trkpt lat="44.02509" lon="3.71538">
        <ele>617.1</ele>
        <time>2022-04-15T09:51:31Z</time>
      </trkpt>
      <trkpt lat="44.02506" lon="3.71534">
        <ele>617.3</ele>
        <time>2022-04-15T09:51:33Z</time>
      </trkpt>
      <trkpt lat="44.02503" lon="3.71531">
        <ele>617.4</ele>
        <time>2022-04-15T09:51:35Z</time>
      </trkpt>
      <trkpt lat="44.02501" lon="3.71528">
        <ele>617.5</ele>
        <time>2022-04-15T09:51:36Z</time>
      </trkpt>
      <trkpt lat="44.02498" lon="3.71526">
        <ele>617.7</ele>
        <time>2022-04-15T09:51:37Z</time>
      </trkpt>
      <trkpt lat="44.02497" lon="3.71525">
        <ele>617.7</ele>
        <time>2022-04-15T09:51:38Z</time>
      </trkpt>
      <trkpt lat="44.02493" lon="3.71522">
        <ele>617.9</ele>
        <time>2022-04-15T09:51:40Z</time>
      </trkpt>
      <trkpt lat="44.02492" lon="3.71521">
        <ele>617.9</ele>
        <time>2022-04-15T09:51:41Z</time>
      </trkpt>
      <trkpt lat="44.02489" lon="3.71518">
        <ele>618.1</ele>
        <time>2022-04-15T09:51:42Z</time>
      </trkpt>
      <trkpt lat="44.02488" lon="3.71518">
        <ele>618.1</ele>
        <time>2022-04-15T09:51:43Z</time>
      </trkpt>
      <trkpt lat="44.02484" lon="3.71516">
        <ele>618.3</ele>
        <time>2022-04-15T09:51:45Z</time>
      </trkpt>
      <trkpt lat="44.02483" lon="3.71515">
        <ele>618.3</ele>
        <time>2022-04-15T09:51:46Z</time>
      </trkpt>
      <trkpt lat="44.0248" lon="3.71513">
        <ele>618.4</ele>
        <time>2022-04-15T09:51:47Z</time>
      </trkpt>
      <trkpt lat="44.0248" lon="3.71512">
        <ele>618.4</ele>
        <time>2022-04-15T09:51:48Z</time>
      </trkpt>
      <trkpt lat="44.02479" lon="3.71509">
        <ele>618.4</ele>
        <time>2022-04-15T09:51:49Z</time>
      </trkpt>
      <trkpt lat="44.02478" lon="3.71504">
        <ele>618.4</ele>
        <time>2022-04-15T09:51:51Z</time>
      </trkpt>
      <trkpt lat="44.02478" lon="3.71499">
        <ele>618.4</ele>
        <time>2022-04-15T09:51:53Z</time>
      </trkpt>
      <trkpt lat="44.02478" lon="3.71494">
        <ele>618.3</ele>
        <time>2022-04-15T09:51:54Z</time>
      </trkpt>
      <trkpt lat="44.02478" lon="3.71492">
        <ele>618.3</ele>
        <time>2022-04-15T09:51:55Z</time>
      </trkpt>
      <trkpt lat="44.02479" lon="3.71488">
        <ele>618.3</ele>
        <time>2022-04-15T09:51:56Z</time>
      </trkpt>
      <trkpt lat="44.02479" lon="3.71483">
        <ele>618.2</ele>
        <time>2022-04-15T09:51:58Z</time>
      </trkpt>
      <trkpt lat="44.02479" lon="3.71478">
        <ele>618.1</ele>
        <time>2022-04-15T09:52:00Z</time>
      </trkpt>
      <trkpt lat="44.02479" lon="3.71474">
        <ele>618</ele>
        <time>2022-04-15T09:52:01Z</time>
      </trkpt>
      <trkpt lat="44.02478" lon="3.71469">
        <ele>618</ele>
        <time>2022-04-15T09:52:02Z</time>
      </trkpt>
      <trkpt lat="44.02478" lon="3.71467">
        <ele>617.9</ele>
        <time>2022-04-15T09:52:03Z</time>
      </trkpt>
      <trkpt lat="44.02478" lon="3.71462">
        <ele>617.9</ele>
        <time>2022-04-15T09:52:04Z</time>
      </trkpt>
      <trkpt lat="44.02478" lon="3.7146">
        <ele>617.8</ele>
        <time>2022-04-15T09:52:05Z</time>
      </trkpt>
      <trkpt lat="44.02477" lon="3.71456">
        <ele>617.8</ele>
        <time>2022-04-15T09:52:07Z</time>
      </trkpt>
      <trkpt lat="44.02477" lon="3.71452">
        <ele>617.7</ele>
        <time>2022-04-15T09:52:08Z</time>
      </trkpt>
      <trkpt lat="44.02476" lon="3.71447">
        <ele>617.7</ele>
        <time>2022-04-15T09:52:09Z</time>
      </trkpt>
      <trkpt lat="44.02476" lon="3.71445">
        <ele>617.7</ele>
        <time>2022-04-15T09:52:10Z</time>
      </trkpt>
      <trkpt lat="44.02475" lon="3.7144">
        <ele>617.7</ele>
        <time>2022-04-15T09:52:12Z</time>
      </trkpt>
      <trkpt lat="44.02474" lon="3.71438">
        <ele>617.7</ele>
        <time>2022-04-15T09:52:13Z</time>
      </trkpt>
      <trkpt lat="44.02473" lon="3.71434">
        <ele>617.6</ele>
        <time>2022-04-15T09:52:14Z</time>
      </trkpt>
      <trkpt lat="44.02472" lon="3.71432">
        <ele>617.6</ele>
        <time>2022-04-15T09:52:15Z</time>
      </trkpt>
      <trkpt lat="44.02471" lon="3.71428">
        <ele>617.6</ele>
        <time>2022-04-15T09:52:16Z</time>
      </trkpt>
      <trkpt lat="44.0247" lon="3.71427">
        <ele>617.6</ele>
        <time>2022-04-15T09:52:17Z</time>
      </trkpt>
      <trkpt lat="44.02469" lon="3.71422">
        <ele>617.7</ele>
        <time>2022-04-15T09:52:19Z</time>
      </trkpt>
      <trkpt lat="44.02468" lon="3.71421">
        <ele>617.7</ele>
        <time>2022-04-15T09:52:20Z</time>
      </trkpt>
      <trkpt lat="44.02467" lon="3.71417">
        <ele>617.7</ele>
        <time>2022-04-15T09:52:21Z</time>
      </trkpt>
      <trkpt lat="44.02466" lon="3.71416">
        <ele>617.7</ele>
        <time>2022-04-15T09:52:22Z</time>
      </trkpt>
      <trkpt lat="44.02465" lon="3.71413">
        <ele>617.8</ele>
        <time>2022-04-15T09:52:23Z</time>
      </trkpt>
      <trkpt lat="44.02464" lon="3.7141">
        <ele>617.8</ele>
        <time>2022-04-15T09:52:25Z</time>
      </trkpt>
      <trkpt lat="44.02463" lon="3.71406">
        <ele>617.9</ele>
        <time>2022-04-15T09:52:26Z</time>
      </trkpt>
      <trkpt lat="44.02463" lon="3.71405">
        <ele>617.9</ele>
        <time>2022-04-15T09:52:27Z</time>
      </trkpt>
      <trkpt lat="44.02462" lon="3.71401">
        <ele>617.9</ele>
        <time>2022-04-15T09:52:28Z</time>
      </trkpt>
      <trkpt lat="44.02461" lon="3.714">
        <ele>617.9</ele>
        <time>2022-04-15T09:52:29Z</time>
      </trkpt>
      <trkpt lat="44.02461" lon="3.71398">
        <ele>618</ele>
        <time>2022-04-15T09:52:30Z</time>
      </trkpt>
      <trkpt lat="44.02459" lon="3.71393">
        <ele>618</ele>
        <time>2022-04-15T09:52:32Z</time>
      </trkpt>
      <trkpt lat="44.02457" lon="3.71389">
        <ele>618</ele>
        <time>2022-04-15T09:52:33Z</time>
      </trkpt>
      <trkpt lat="44.02455" lon="3.71384">
        <ele>618.1</ele>
        <time>2022-04-15T09:52:34Z</time>
      </trkpt>
      <trkpt lat="44.02454" lon="3.71382">
        <ele>618.1</ele>
        <time>2022-04-15T09:52:35Z</time>
      </trkpt>
      <trkpt lat="44.02452" lon="3.71379">
        <ele>618</ele>
        <time>2022-04-15T09:52:36Z</time>
      </trkpt>
      <trkpt lat="44.0245" lon="3.71373">
        <ele>618</ele>
        <time>2022-04-15T09:52:38Z</time>
      </trkpt>
      <trkpt lat="44.02448" lon="3.7137">
        <ele>618</ele>
        <time>2022-04-15T09:52:40Z</time>
      </trkpt>
      <trkpt lat="44.02447" lon="3.71368">
        <ele>618</ele>
        <time>2022-04-15T09:52:41Z</time>
      </trkpt>
      <trkpt lat="44.02446" lon="3.71365">
        <ele>618</ele>
        <time>2022-04-15T09:52:42Z</time>
      </trkpt>
      <trkpt lat="44.02444" lon="3.71359">
        <ele>617.9</ele>
        <time>2022-04-15T09:52:44Z</time>
      </trkpt>
      <trkpt lat="44.02442" lon="3.71354">
        <ele>617.8</ele>
        <time>2022-04-15T09:52:45Z</time>
      </trkpt>
      <trkpt lat="44.0244" lon="3.71349">
        <ele>617.7</ele>
        <time>2022-04-15T09:52:47Z</time>
      </trkpt>
      <trkpt lat="44.02438" lon="3.71344">
        <ele>617.7</ele>
        <time>2022-04-15T09:52:48Z</time>
      </trkpt>
      <trkpt lat="44.02435" lon="3.71338">
        <ele>617.6</ele>
        <time>2022-04-15T09:52:49Z</time>
      </trkpt>
      <trkpt lat="44.02433" lon="3.71335">
        <ele>617.6</ele>
        <time>2022-04-15T09:52:51Z</time>
      </trkpt>
      <trkpt lat="44.0243" lon="3.7133">
        <ele>617.5</ele>
        <time>2022-04-15T09:52:52Z</time>
      </trkpt>
      <trkpt lat="44.02428" lon="3.71326">
        <ele>617.4</ele>
        <time>2022-04-15T09:52:53Z</time>
      </trkpt>
      <trkpt lat="44.02427" lon="3.71325">
        <ele>617.3</ele>
        <time>2022-04-15T09:52:54Z</time>
      </trkpt>
      <trkpt lat="44.02425" lon="3.71321">
        <ele>617.2</ele>
        <time>2022-04-15T09:52:55Z</time>
      </trkpt>
      <trkpt lat="44.02423" lon="3.71318">
        <ele>617</ele>
        <time>2022-04-15T09:52:57Z</time>
      </trkpt>
      <trkpt lat="44.02422" lon="3.71314">
        <ele>616.9</ele>
        <time>2022-04-15T09:52:58Z</time>
      </trkpt>
      <trkpt lat="44.02419" lon="3.7131">
        <ele>616.6</ele>
        <time>2022-04-15T09:53:00Z</time>
      </trkpt>
      <trkpt lat="44.02417" lon="3.71306">
        <ele>616.4</ele>
        <time>2022-04-15T09:53:01Z</time>
      </trkpt>
      <trkpt lat="44.02415" lon="3.71303">
        <ele>616.2</ele>
        <time>2022-04-15T09:53:02Z</time>
      </trkpt>
      <trkpt lat="44.02413" lon="3.713">
        <ele>616</ele>
        <time>2022-04-15T09:53:03Z</time>
      </trkpt>
      <trkpt lat="44.02412" lon="3.71297">
        <ele>615.8</ele>
        <time>2022-04-15T09:53:05Z</time>
      </trkpt>
      <trkpt lat="44.0241" lon="3.71294">
        <ele>615.5</ele>
        <time>2022-04-15T09:53:06Z</time>
      </trkpt>
      <trkpt lat="44.02409" lon="3.71292">
        <ele>615.4</ele>
        <time>2022-04-15T09:53:07Z</time>
      </trkpt>
      <trkpt lat="44.02408" lon="3.71291">
        <ele>615.3</ele>
        <time>2022-04-15T09:53:08Z</time>
      </trkpt>
      <trkpt lat="44.02406" lon="3.71289">
        <ele>615.1</ele>
        <time>2022-04-15T09:53:09Z</time>
      </trkpt>
      <trkpt lat="44.02405" lon="3.71287">
        <ele>615</ele>
        <time>2022-04-15T09:53:11Z</time>
      </trkpt>
      <trkpt lat="44.02404" lon="3.71286">
        <ele>614.9</ele>
        <time>2022-04-15T09:53:12Z</time>
      </trkpt>
      <trkpt lat="44.02403" lon="3.71285">
        <ele>614.8</ele>
        <time>2022-04-15T09:53:13Z</time>
      </trkpt>
      <trkpt lat="44.024" lon="3.71283">
        <ele>614.6</ele>
        <time>2022-04-15T09:53:14Z</time>
      </trkpt>
      <trkpt lat="44.024" lon="3.71282">
        <ele>614.5</ele>
        <time>2022-04-15T09:53:15Z</time>
      </trkpt>
      <trkpt lat="44.02398" lon="3.7128">
        <ele>614.4</ele>
        <time>2022-04-15T09:53:16Z</time>
      </trkpt>
      <trkpt lat="44.02396" lon="3.71279">
        <ele>614.2</ele>
        <time>2022-04-15T09:53:18Z</time>
      </trkpt>
      <trkpt lat="44.02393" lon="3.71275">
        <ele>614</ele>
        <time>2022-04-15T09:53:19Z</time>
      </trkpt>
      <trkpt lat="44.02391" lon="3.71274">
        <ele>614</ele>
        <time>2022-04-15T09:53:20Z</time>
      </trkpt>
      <trkpt lat="44.02387" lon="3.71271">
        <ele>613.8</ele>
        <time>2022-04-15T09:53:21Z</time>
      </trkpt>
      <trkpt lat="44.02384" lon="3.71268">
        <ele>613.7</ele>
        <time>2022-04-15T09:53:22Z</time>
      </trkpt>
      <trkpt lat="44.02379" lon="3.71264">
        <ele>613.5</ele>
        <time>2022-04-15T09:53:24Z</time>
      </trkpt>
      <trkpt lat="44.02375" lon="3.71262">
        <ele>613.3</ele>
        <time>2022-04-15T09:53:26Z</time>
      </trkpt>
      <trkpt lat="44.02371" lon="3.71262">
        <ele>613.2</ele>
        <time>2022-04-15T09:53:27Z</time>
      </trkpt>
      <trkpt lat="44.02367" lon="3.71261">
        <ele>612.9</ele>
        <time>2022-04-15T09:53:28Z</time>
      </trkpt>
      <trkpt lat="44.02364" lon="3.7126">
        <ele>612.8</ele>
        <time>2022-04-15T09:53:29Z</time>
      </trkpt>
      <trkpt lat="44.0236" lon="3.71258">
        <ele>612.5</ele>
        <time>2022-04-15T09:53:31Z</time>
      </trkpt>
      <trkpt lat="44.02356" lon="3.71255">
        <ele>612.3</ele>
        <time>2022-04-15T09:53:33Z</time>
      </trkpt>
      <trkpt lat="44.02353" lon="3.71253">
        <ele>612.1</ele>
        <time>2022-04-15T09:53:34Z</time>
      </trkpt>
      <trkpt lat="44.02349" lon="3.7125">
        <ele>611.9</ele>
        <time>2022-04-15T09:53:35Z</time>
      </trkpt>
      <trkpt lat="44.02346" lon="3.71249">
        <ele>611.8</ele>
        <time>2022-04-15T09:53:37Z</time>
      </trkpt>
      <trkpt lat="44.02342" lon="3.71247">
        <ele>611.7</ele>
        <time>2022-04-15T09:53:38Z</time>
      </trkpt>
      <trkpt lat="44.0234" lon="3.71246">
        <ele>611.7</ele>
        <time>2022-04-15T09:53:39Z</time>
      </trkpt>
      <trkpt lat="44.02337" lon="3.71245">
        <ele>611.6</ele>
        <time>2022-04-15T09:53:40Z</time>
      </trkpt>
      <trkpt lat="44.02333" lon="3.71243">
        <ele>611.6</ele>
        <time>2022-04-15T09:53:41Z</time>
      </trkpt>
      <trkpt lat="44.0233" lon="3.71242">
        <ele>611.5</ele>
        <time>2022-04-15T09:53:42Z</time>
      </trkpt>
      <trkpt lat="44.02327" lon="3.71241">
        <ele>611.5</ele>
        <time>2022-04-15T09:53:44Z</time>
      </trkpt>
      <trkpt lat="44.02324" lon="3.7124">
        <ele>611.5</ele>
        <time>2022-04-15T09:53:45Z</time>
      </trkpt>
      <trkpt lat="44.0232" lon="3.71238">
        <ele>611.5</ele>
        <time>2022-04-15T09:53:46Z</time>
      </trkpt>
      <trkpt lat="44.02317" lon="3.71236">
        <ele>611.5</ele>
        <time>2022-04-15T09:53:48Z</time>
      </trkpt>
      <trkpt lat="44.02314" lon="3.71233">
        <ele>611.5</ele>
        <time>2022-04-15T09:53:50Z</time>
      </trkpt>
      <trkpt lat="44.02311" lon="3.71231">
        <ele>611.4</ele>
        <time>2022-04-15T09:53:51Z</time>
      </trkpt>
      <trkpt lat="44.02308" lon="3.7123">
        <ele>611.3</ele>
        <time>2022-04-15T09:53:52Z</time>
      </trkpt>
      <trkpt lat="44.02307" lon="3.71229">
        <ele>611.3</ele>
        <time>2022-04-15T09:53:53Z</time>
      </trkpt>
      <trkpt lat="44.02303" lon="3.71227">
        <ele>611.2</ele>
        <time>2022-04-15T09:53:54Z</time>
      </trkpt>
      <trkpt lat="44.02302" lon="3.71226">
        <ele>611.1</ele>
        <time>2022-04-15T09:53:55Z</time>
      </trkpt>
      <trkpt lat="44.02298" lon="3.71224">
        <ele>611</ele>
        <time>2022-04-15T09:53:57Z</time>
      </trkpt>
      <trkpt lat="44.02297" lon="3.71223">
        <ele>611</ele>
        <time>2022-04-15T09:53:58Z</time>
      </trkpt>
      <trkpt lat="44.02294" lon="3.71222">
        <ele>610.9</ele>
        <time>2022-04-15T09:53:59Z</time>
      </trkpt>
      <trkpt lat="44.02291" lon="3.7122">
        <ele>610.9</ele>
        <time>2022-04-15T09:54:00Z</time>
      </trkpt>
      <trkpt lat="44.02289" lon="3.71219">
        <ele>610.9</ele>
        <time>2022-04-15T09:54:01Z</time>
      </trkpt>
      <trkpt lat="44.02286" lon="3.71217">
        <ele>610.9</ele>
        <time>2022-04-15T09:54:02Z</time>
      </trkpt>
      <trkpt lat="44.02282" lon="3.71216">
        <ele>611</ele>
        <time>2022-04-15T09:54:03Z</time>
      </trkpt>
      <trkpt lat="44.02279" lon="3.71215">
        <ele>611.1</ele>
        <time>2022-04-15T09:54:05Z</time>
      </trkpt>
      <trkpt lat="44.02276" lon="3.71213">
        <ele>611.2</ele>
        <time>2022-04-15T09:54:06Z</time>
      </trkpt>
      <trkpt lat="44.02273" lon="3.71212">
        <ele>611.4</ele>
        <time>2022-04-15T09:54:07Z</time>
      </trkpt>
      <trkpt lat="44.02269" lon="3.7121">
        <ele>611.6</ele>
        <time>2022-04-15T09:54:08Z</time>
      </trkpt>
      <trkpt lat="44.02267" lon="3.7121">
        <ele>611.7</ele>
        <time>2022-04-15T09:54:09Z</time>
      </trkpt>
      <trkpt lat="44.02264" lon="3.71209">
        <ele>611.8</ele>
        <time>2022-04-15T09:54:10Z</time>
      </trkpt>
      <trkpt lat="44.02261" lon="3.71208">
        <ele>611.9</ele>
        <time>2022-04-15T09:54:12Z</time>
      </trkpt>
      <trkpt lat="44.02257" lon="3.71207">
        <ele>612</ele>
        <time>2022-04-15T09:54:13Z</time>
      </trkpt>
      <trkpt lat="44.02253" lon="3.71207">
        <ele>612</ele>
        <time>2022-04-15T09:54:14Z</time>
      </trkpt>
      <trkpt lat="44.02252" lon="3.71206">
        <ele>611.9</ele>
        <time>2022-04-15T09:54:15Z</time>
      </trkpt>
      <trkpt lat="44.0225" lon="3.71206">
        <ele>611.8</ele>
        <time>2022-04-15T09:54:16Z</time>
      </trkpt>
      <trkpt lat="44.02247" lon="3.71206">
        <ele>611.7</ele>
        <time>2022-04-15T09:54:18Z</time>
      </trkpt>
      <trkpt lat="44.02244" lon="3.71206">
        <ele>611.6</ele>
        <time>2022-04-15T09:54:19Z</time>
      </trkpt>
      <trkpt lat="44.02242" lon="3.71206">
        <ele>611.4</ele>
        <time>2022-04-15T09:54:20Z</time>
      </trkpt>
      <trkpt lat="44.02239" lon="3.71205">
        <ele>611.2</ele>
        <time>2022-04-15T09:54:21Z</time>
      </trkpt>
      <trkpt lat="44.02235" lon="3.71204">
        <ele>610.9</ele>
        <time>2022-04-15T09:54:23Z</time>
      </trkpt>
      <trkpt lat="44.02232" lon="3.71203">
        <ele>610.7</ele>
        <time>2022-04-15T09:54:24Z</time>
      </trkpt>
      <trkpt lat="44.02229" lon="3.71203">
        <ele>610.5</ele>
        <time>2022-04-15T09:54:25Z</time>
      </trkpt>
      <trkpt lat="44.02228" lon="3.71202">
        <ele>610.4</ele>
        <time>2022-04-15T09:54:26Z</time>
      </trkpt>
      <trkpt lat="44.02225" lon="3.71201">
        <ele>610.2</ele>
        <time>2022-04-15T09:54:27Z</time>
      </trkpt>
      <trkpt lat="44.02224" lon="3.71201">
        <ele>610.2</ele>
        <time>2022-04-15T09:54:28Z</time>
      </trkpt>
      <trkpt lat="44.02223" lon="3.712">
        <ele>610.1</ele>
        <time>2022-04-15T09:54:29Z</time>
      </trkpt>
      <trkpt lat="44.02221" lon="3.712">
        <ele>610</ele>
        <time>2022-04-15T09:54:30Z</time>
      </trkpt>
      <trkpt lat="44.0222" lon="3.71198">
        <ele>609.9</ele>
        <time>2022-04-15T09:54:31Z</time>
      </trkpt>
      <trkpt lat="44.02217" lon="3.71196">
        <ele>609.8</ele>
        <time>2022-04-15T09:54:33Z</time>
      </trkpt>
      <trkpt lat="44.02214" lon="3.71194">
        <ele>609.6</ele>
        <time>2022-04-15T09:54:34Z</time>
      </trkpt>
      <trkpt lat="44.02211" lon="3.71191">
        <ele>609.4</ele>
        <time>2022-04-15T09:54:35Z</time>
      </trkpt>
      <trkpt lat="44.02209" lon="3.7119">
        <ele>609.3</ele>
        <time>2022-04-15T09:54:36Z</time>
      </trkpt>
      <trkpt lat="44.02204" lon="3.71186">
        <ele>609</ele>
        <time>2022-04-15T09:54:37Z</time>
      </trkpt>
      <trkpt lat="44.02201" lon="3.71183">
        <ele>608.8</ele>
        <time>2022-04-15T09:54:38Z</time>
      </trkpt>
      <trkpt lat="44.02197" lon="3.71179">
        <ele>608.5</ele>
        <time>2022-04-15T09:54:40Z</time>
      </trkpt>
      <trkpt lat="44.02194" lon="3.71177">
        <ele>608.4</ele>
        <time>2022-04-15T09:54:41Z</time>
      </trkpt>
      <trkpt lat="44.02191" lon="3.71175">
        <ele>608.2</ele>
        <time>2022-04-15T09:54:42Z</time>
      </trkpt>
      <trkpt lat="44.02189" lon="3.71172">
        <ele>608.1</ele>
        <time>2022-04-15T09:54:43Z</time>
      </trkpt>
      <trkpt lat="44.02186" lon="3.71169">
        <ele>607.9</ele>
        <time>2022-04-15T09:54:44Z</time>
      </trkpt>
      <trkpt lat="44.02184" lon="3.71167">
        <ele>607.8</ele>
        <time>2022-04-15T09:54:45Z</time>
      </trkpt>
      <trkpt lat="44.02181" lon="3.71165">
        <ele>607.5</ele>
        <time>2022-04-15T09:54:47Z</time>
      </trkpt>
      <trkpt lat="44.0218" lon="3.71164">
        <ele>607.5</ele>
        <time>2022-04-15T09:54:48Z</time>
      </trkpt>
      <trkpt lat="44.02178" lon="3.71161">
        <ele>607.3</ele>
        <time>2022-04-15T09:54:49Z</time>
      </trkpt>
      <trkpt lat="44.02177" lon="3.7116">
        <ele>607.2</ele>
        <time>2022-04-15T09:54:50Z</time>
      </trkpt>
      <trkpt lat="44.02175" lon="3.71157">
        <ele>607</ele>
        <time>2022-04-15T09:54:51Z</time>
      </trkpt>
      <trkpt lat="44.02174" lon="3.71155">
        <ele>607</ele>
        <time>2022-04-15T09:54:53Z</time>
      </trkpt>
      <trkpt lat="44.02173" lon="3.71153">
        <ele>606.9</ele>
        <time>2022-04-15T09:54:54Z</time>
      </trkpt>
      <trkpt lat="44.02172" lon="3.71152">
        <ele>606.8</ele>
        <time>2022-04-15T09:54:55Z</time>
      </trkpt>
      <trkpt lat="44.02169" lon="3.71147">
        <ele>606.5</ele>
        <time>2022-04-15T09:54:56Z</time>
      </trkpt>
      <trkpt lat="44.02164" lon="3.71142">
        <ele>606.2</ele>
        <time>2022-04-15T09:54:58Z</time>
      </trkpt>
      <trkpt lat="44.02159" lon="3.71136">
        <ele>605.8</ele>
        <time>2022-04-15T09:55:00Z</time>
      </trkpt>
      <trkpt lat="44.02156" lon="3.71133">
        <ele>605.6</ele>
        <time>2022-04-15T09:55:01Z</time>
      </trkpt>
      <trkpt lat="44.02152" lon="3.71128">
        <ele>605.3</ele>
        <time>2022-04-15T09:55:02Z</time>
      </trkpt>
      <trkpt lat="44.02149" lon="3.71126">
        <ele>605.1</ele>
        <time>2022-04-15T09:55:04Z</time>
      </trkpt>
      <trkpt lat="44.02146" lon="3.71123">
        <ele>604.8</ele>
        <time>2022-04-15T09:55:05Z</time>
      </trkpt>
      <trkpt lat="44.02142" lon="3.71119">
        <ele>604.4</ele>
        <time>2022-04-15T09:55:07Z</time>
      </trkpt>
      <trkpt lat="44.0214" lon="3.71115">
        <ele>604.1</ele>
        <time>2022-04-15T09:55:08Z</time>
      </trkpt>
      <trkpt lat="44.02137" lon="3.71111">
        <ele>603.7</ele>
        <time>2022-04-15T09:55:09Z</time>
      </trkpt>
      <trkpt lat="44.02136" lon="3.7111">
        <ele>603.6</ele>
        <time>2022-04-15T09:55:10Z</time>
      </trkpt>
      <trkpt lat="44.02134" lon="3.71107">
        <ele>603.3</ele>
        <time>2022-04-15T09:55:12Z</time>
      </trkpt>
      <trkpt lat="44.02132" lon="3.71103">
        <ele>603</ele>
        <time>2022-04-15T09:55:13Z</time>
      </trkpt>
      <trkpt lat="44.0213" lon="3.71099">
        <ele>602.7</ele>
        <time>2022-04-15T09:55:14Z</time>
      </trkpt>
      <trkpt lat="44.02127" lon="3.71095">
        <ele>602.3</ele>
        <time>2022-04-15T09:55:15Z</time>
      </trkpt>
      <trkpt lat="44.02126" lon="3.71093">
        <ele>602.1</ele>
        <time>2022-04-15T09:55:16Z</time>
      </trkpt>
      <trkpt lat="44.02124" lon="3.7109">
        <ele>601.9</ele>
        <time>2022-04-15T09:55:17Z</time>
      </trkpt>
      <trkpt lat="44.02122" lon="3.71086">
        <ele>601.6</ele>
        <time>2022-04-15T09:55:19Z</time>
      </trkpt>
      <trkpt lat="44.0212" lon="3.71082">
        <ele>601.4</ele>
        <time>2022-04-15T09:55:20Z</time>
      </trkpt>
      <trkpt lat="44.02118" lon="3.71079">
        <ele>601.2</ele>
        <time>2022-04-15T09:55:21Z</time>
      </trkpt>
      <trkpt lat="44.02116" lon="3.71077">
        <ele>601</ele>
        <time>2022-04-15T09:55:23Z</time>
      </trkpt>
      <trkpt lat="44.02113" lon="3.71073">
        <ele>600.8</ele>
        <time>2022-04-15T09:55:24Z</time>
      </trkpt>
      <trkpt lat="44.0211" lon="3.71071">
        <ele>600.6</ele>
        <time>2022-04-15T09:55:25Z</time>
      </trkpt>
      <trkpt lat="44.02109" lon="3.7107">
        <ele>600.5</ele>
        <time>2022-04-15T09:55:26Z</time>
      </trkpt>
      <trkpt lat="44.02107" lon="3.71068">
        <ele>600.3</ele>
        <time>2022-04-15T09:55:27Z</time>
      </trkpt>
      <trkpt lat="44.02106" lon="3.71067">
        <ele>600.2</ele>
        <time>2022-04-15T09:55:28Z</time>
      </trkpt>
      <trkpt lat="44.02104" lon="3.71064">
        <ele>600.1</ele>
        <time>2022-04-15T09:55:29Z</time>
      </trkpt>
      <trkpt lat="44.02103" lon="3.71061">
        <ele>600</ele>
        <time>2022-04-15T09:55:31Z</time>
      </trkpt>
      <trkpt lat="44.02101" lon="3.71058">
        <ele>599.9</ele>
        <time>2022-04-15T09:55:32Z</time>
      </trkpt>
      <trkpt lat="44.021" lon="3.71053">
        <ele>599.7</ele>
        <time>2022-04-15T09:55:33Z</time>
      </trkpt>
      <trkpt lat="44.021" lon="3.71051">
        <ele>599.7</ele>
        <time>2022-04-15T09:55:34Z</time>
      </trkpt>
      <trkpt lat="44.02099" lon="3.71047">
        <ele>599.5</ele>
        <time>2022-04-15T09:55:36Z</time>
      </trkpt>
      <trkpt lat="44.02099" lon="3.71041">
        <ele>599.4</ele>
        <time>2022-04-15T09:55:38Z</time>
      </trkpt>
      <trkpt lat="44.02099" lon="3.71036">
        <ele>599.2</ele>
        <time>2022-04-15T09:55:39Z</time>
      </trkpt>
      <trkpt lat="44.02098" lon="3.71032">
        <ele>599.1</ele>
        <time>2022-04-15T09:55:40Z</time>
      </trkpt>
      <trkpt lat="44.02098" lon="3.71026">
        <ele>599</ele>
        <time>2022-04-15T09:55:41Z</time>
      </trkpt>
      <trkpt lat="44.02098" lon="3.71021">
        <ele>598.9</ele>
        <time>2022-04-15T09:55:42Z</time>
      </trkpt>
      <trkpt lat="44.02097" lon="3.71014">
        <ele>598.8</ele>
        <time>2022-04-15T09:55:44Z</time>
      </trkpt>
      <trkpt lat="44.02097" lon="3.71007">
        <ele>598.8</ele>
        <time>2022-04-15T09:55:46Z</time>
      </trkpt>
      <trkpt lat="44.02097" lon="3.71001">
        <ele>598.7</ele>
        <time>2022-04-15T09:55:47Z</time>
      </trkpt>
      <trkpt lat="44.02097" lon="3.70997">
        <ele>598.7</ele>
        <time>2022-04-15T09:55:48Z</time>
      </trkpt>
      <trkpt lat="44.02096" lon="3.70993">
        <ele>598.6</ele>
        <time>2022-04-15T09:55:49Z</time>
      </trkpt>
      <trkpt lat="44.02096" lon="3.70989">
        <ele>598.6</ele>
        <time>2022-04-15T09:55:50Z</time>
      </trkpt>
      <trkpt lat="44.02096" lon="3.70983">
        <ele>598.6</ele>
        <time>2022-04-15T09:55:52Z</time>
      </trkpt>
      <trkpt lat="44.02096" lon="3.70981">
        <ele>598.6</ele>
        <time>2022-04-15T09:55:53Z</time>
      </trkpt>
      <trkpt lat="44.02097" lon="3.70976">
        <ele>598.5</ele>
        <time>2022-04-15T09:55:54Z</time>
      </trkpt>
      <trkpt lat="44.02097" lon="3.70969">
        <ele>598.5</ele>
        <time>2022-04-15T09:55:56Z</time>
      </trkpt>
      <trkpt lat="44.02097" lon="3.70967">
        <ele>598.5</ele>
        <time>2022-04-15T09:55:57Z</time>
      </trkpt>
      <trkpt lat="44.02097" lon="3.70965">
        <ele>598.5</ele>
        <time>2022-04-15T09:55:58Z</time>
      </trkpt>
      <trkpt lat="44.02096" lon="3.70959">
        <ele>598.4</ele>
        <time>2022-04-15T09:55:59Z</time>
      </trkpt>
      <trkpt lat="44.02096" lon="3.70957">
        <ele>598.4</ele>
        <time>2022-04-15T09:56:00Z</time>
      </trkpt>
      <trkpt lat="44.02096" lon="3.7095">
        <ele>598.3</ele>
        <time>2022-04-15T09:56:02Z</time>
      </trkpt>
      <trkpt lat="44.02096" lon="3.70948">
        <ele>598.2</ele>
        <time>2022-04-15T09:56:03Z</time>
      </trkpt>
      <trkpt lat="44.02095" lon="3.70946">
        <ele>598.2</ele>
        <time>2022-04-15T09:56:04Z</time>
      </trkpt>
      <trkpt lat="44.02095" lon="3.70941">
        <ele>598</ele>
        <time>2022-04-15T09:56:05Z</time>
      </trkpt>
      <trkpt lat="44.02094" lon="3.7094">
        <ele>598</ele>
        <time>2022-04-15T09:56:06Z</time>
      </trkpt>
      <trkpt lat="44.02094" lon="3.70936">
        <ele>597.8</ele>
        <time>2022-04-15T09:56:07Z</time>
      </trkpt>
      <trkpt lat="44.02093" lon="3.70934">
        <ele>597.7</ele>
        <time>2022-04-15T09:56:08Z</time>
      </trkpt>
      <trkpt lat="44.02092" lon="3.70931">
        <ele>597.5</ele>
        <time>2022-04-15T09:56:09Z</time>
      </trkpt>
      <trkpt lat="44.02092" lon="3.7093">
        <ele>597.4</ele>
        <time>2022-04-15T09:56:10Z</time>
      </trkpt>
      <trkpt lat="44.02091" lon="3.70928">
        <ele>597.3</ele>
        <time>2022-04-15T09:56:11Z</time>
      </trkpt>
      <trkpt lat="44.0209" lon="3.70927">
        <ele>597.2</ele>
        <time>2022-04-15T09:56:12Z</time>
      </trkpt>
      <trkpt lat="44.02089" lon="3.70925">
        <ele>597</ele>
        <time>2022-04-15T09:56:13Z</time>
      </trkpt>
      <trkpt lat="44.02089" lon="3.70927">
        <ele>596.9</ele>
        <time>2022-04-15T09:56:14Z</time>
      </trkpt>
      <trkpt lat="44.02088" lon="3.70926">
        <ele>596.8</ele>
        <time>2022-04-15T09:56:15Z</time>
      </trkpt>
      <trkpt lat="44.02087" lon="3.70924">
        <ele>596.6</ele>
        <time>2022-04-15T09:56:17Z</time>
      </trkpt>
      <trkpt lat="44.02085" lon="3.70921">
        <ele>596.3</ele>
        <time>2022-04-15T09:56:18Z</time>
      </trkpt>
      <trkpt lat="44.02084" lon="3.7092">
        <ele>596.2</ele>
        <time>2022-04-15T09:56:19Z</time>
      </trkpt>
      <trkpt lat="44.02082" lon="3.70919">
        <ele>595.8</ele>
        <time>2022-04-15T09:56:20Z</time>
      </trkpt>
      <trkpt lat="44.02081" lon="3.70918">
        <ele>595.7</ele>
        <time>2022-04-15T09:56:21Z</time>
      </trkpt>
      <trkpt lat="44.02076" lon="3.70916">
        <ele>595.1</ele>
        <time>2022-04-15T09:56:23Z</time>
      </trkpt>
      <trkpt lat="44.02075" lon="3.70915">
        <ele>594.9</ele>
        <time>2022-04-15T09:56:24Z</time>
      </trkpt>
      <trkpt lat="44.02074" lon="3.70915">
        <ele>594.8</ele>
        <time>2022-04-15T09:56:25Z</time>
      </trkpt>
      <trkpt lat="44.02071" lon="3.70913">
        <ele>594.7</ele>
        <time>2022-04-15T09:56:27Z</time>
      </trkpt>
      <trkpt lat="44.02069" lon="3.70913">
        <ele>594.7</ele>
        <time>2022-04-15T09:56:28Z</time>
      </trkpt>
      <trkpt lat="44.02068" lon="3.70912">
        <ele>594.6</ele>
        <time>2022-04-15T09:56:29Z</time>
      </trkpt>
      <trkpt lat="44.02067" lon="3.70912">
        <ele>594.6</ele>
        <time>2022-04-15T09:56:30Z</time>
      </trkpt>
      <trkpt lat="44.02066" lon="3.70912">
        <ele>594.6</ele>
        <time>2022-04-15T09:56:31Z</time>
      </trkpt>
      <trkpt lat="44.02065" lon="3.70913">
        <ele>594.6</ele>
        <time>2022-04-15T09:56:32Z</time>
      </trkpt>
      <trkpt lat="44.02064" lon="3.70913">
        <ele>594.5</ele>
        <time>2022-04-15T09:56:33Z</time>
      </trkpt>
      <trkpt lat="44.02064" lon="3.70912">
        <ele>594.5</ele>
        <time>2022-04-15T09:56:34Z</time>
      </trkpt>
      <trkpt lat="44.02064" lon="3.70912">
        <ele>594.5</ele>
        <time>2022-04-15T09:56:35Z</time>
      </trkpt>
      <trkpt lat="44.02064" lon="3.70912">
        <ele>594.5</ele>
        <time>2022-04-15T09:56:36Z</time>
      </trkpt>
      <trkpt lat="44.02064" lon="3.70911">
        <ele>594.5</ele>
        <time>2022-04-15T09:56:37Z</time>
      </trkpt>
      <trkpt lat="44.02063" lon="3.70911">
        <ele>594.5</ele>
        <time>2022-04-15T09:56:38Z</time>
      </trkpt>
      <trkpt lat="44.02063" lon="3.70911">
        <ele>594.5</ele>
        <time>2022-04-15T09:56:39Z</time>
      </trkpt>
      <trkpt lat="44.02063" lon="3.7091">
        <ele>594.5</ele>
        <time>2022-04-15T09:56:40Z</time>
      </trkpt>
      <trkpt lat="44.02063" lon="3.7091">
        <ele>594.5</ele>
        <time>2022-04-15T09:56:41Z</time>
      </trkpt>
      <trkpt lat="44.02063" lon="3.70909">
        <ele>594.5</ele>
        <time>2022-04-15T09:56:43Z</time>
      </trkpt>
      <trkpt lat="44.02063" lon="3.70909">
        <ele>594.5</ele>
        <time>2022-04-15T09:56:44Z</time>
      </trkpt>
      <trkpt lat="44.02062" lon="3.70909">
        <ele>594.5</ele>
        <time>2022-04-15T09:56:45Z</time>
      </trkpt>
      <trkpt lat="44.02062" lon="3.70908">
        <ele>594.5</ele>
        <time>2022-04-15T09:56:46Z</time>
      </trkpt>
      <trkpt lat="44.02061" lon="3.70908">
        <ele>594.4</ele>
        <time>2022-04-15T09:56:48Z</time>
      </trkpt>
      <trkpt lat="44.0206" lon="3.70907">
        <ele>594.4</ele>
        <time>2022-04-15T09:56:49Z</time>
      </trkpt>
      <trkpt lat="44.02059" lon="3.70908">
        <ele>594.4</ele>
        <time>2022-04-15T09:56:50Z</time>
      </trkpt>
      <trkpt lat="44.02058" lon="3.70907">
        <ele>594.4</ele>
        <time>2022-04-15T09:56:51Z</time>
      </trkpt>
      <trkpt lat="44.02056" lon="3.70907">
        <ele>594.3</ele>
        <time>2022-04-15T09:56:52Z</time>
      </trkpt>
      <trkpt lat="44.02055" lon="3.70906">
        <ele>594.3</ele>
        <time>2022-04-15T09:56:53Z</time>
      </trkpt>
      <trkpt lat="44.02053" lon="3.70906">
        <ele>594.2</ele>
        <time>2022-04-15T09:56:55Z</time>
      </trkpt>
      <trkpt lat="44.0205" lon="3.70903">
        <ele>593.7</ele>
        <time>2022-04-15T09:56:56Z</time>
      </trkpt>
      <trkpt lat="44.02049" lon="3.70902">
        <ele>593.6</ele>
        <time>2022-04-15T09:56:57Z</time>
      </trkpt>
      <trkpt lat="44.02046" lon="3.70897">
        <ele>593</ele>
        <time>2022-04-15T09:56:59Z</time>
      </trkpt>
      <trkpt lat="44.02045" lon="3.70896">
        <ele>592.8</ele>
        <time>2022-04-15T09:57:00Z</time>
      </trkpt>
      <trkpt lat="44.02044" lon="3.70894">
        <ele>592.6</ele>
        <time>2022-04-15T09:57:01Z</time>
      </trkpt>
      <trkpt lat="44.02042" lon="3.7089">
        <ele>592.2</ele>
        <time>2022-04-15T09:57:02Z</time>
      </trkpt>
      <trkpt lat="44.02042" lon="3.70889">
        <ele>592.1</ele>
        <time>2022-04-15T09:57:03Z</time>
      </trkpt>
      <trkpt lat="44.02041" lon="3.70885">
        <ele>591.7</ele>
        <time>2022-04-15T09:57:04Z</time>
      </trkpt>
      <trkpt lat="44.02041" lon="3.70884">
        <ele>591.5</ele>
        <time>2022-04-15T09:57:05Z</time>
      </trkpt>
      <trkpt lat="44.0204" lon="3.70882">
        <ele>591.3</ele>
        <time>2022-04-15T09:57:06Z</time>
      </trkpt>
      <trkpt lat="44.02039" lon="3.7088">
        <ele>591.1</ele>
        <time>2022-04-15T09:57:07Z</time>
      </trkpt>
      <trkpt lat="44.02039" lon="3.70877">
        <ele>590.8</ele>
        <time>2022-04-15T09:57:08Z</time>
      </trkpt>
      <trkpt lat="44.02038" lon="3.70875">
        <ele>590.6</ele>
        <time>2022-04-15T09:57:09Z</time>
      </trkpt>
      <trkpt lat="44.02037" lon="3.70873">
        <ele>590.3</ele>
        <time>2022-04-15T09:57:10Z</time>
      </trkpt>
      <trkpt lat="44.02037" lon="3.7087">
        <ele>590</ele>
        <time>2022-04-15T09:57:12Z</time>
      </trkpt>
      <trkpt lat="44.02035" lon="3.70867">
        <ele>589.6</ele>
        <time>2022-04-15T09:57:13Z</time>
      </trkpt>
      <trkpt lat="44.02035" lon="3.70866">
        <ele>589.5</ele>
        <time>2022-04-15T09:57:14Z</time>
      </trkpt>
      <trkpt lat="44.02034" lon="3.70864">
        <ele>589.2</ele>
        <time>2022-04-15T09:57:15Z</time>
      </trkpt>
      <trkpt lat="44.02033" lon="3.70862">
        <ele>588.9</ele>
        <time>2022-04-15T09:57:16Z</time>
      </trkpt>
      <trkpt lat="44.02033" lon="3.70859">
        <ele>588.6</ele>
        <time>2022-04-15T09:57:17Z</time>
      </trkpt>
      <trkpt lat="44.02031" lon="3.70856">
        <ele>588.1</ele>
        <time>2022-04-15T09:57:19Z</time>
      </trkpt>
      <trkpt lat="44.0203" lon="3.70852">
        <ele>587.6</ele>
        <time>2022-04-15T09:57:20Z</time>
      </trkpt>
      <trkpt lat="44.02029" lon="3.70851">
        <ele>587.5</ele>
        <time>2022-04-15T09:57:21Z</time>
      </trkpt>
      <trkpt lat="44.02027" lon="3.70847">
        <ele>586.8</ele>
        <time>2022-04-15T09:57:22Z</time>
      </trkpt>
      <trkpt lat="44.02026" lon="3.70846">
        <ele>586.6</ele>
        <time>2022-04-15T09:57:23Z</time>
      </trkpt>
      <trkpt lat="44.02023" lon="3.70843">
        <ele>586</ele>
        <time>2022-04-15T09:57:25Z</time>
      </trkpt>
      <trkpt lat="44.0202" lon="3.70841">
        <ele>585.5</ele>
        <time>2022-04-15T09:57:27Z</time>
      </trkpt>
      <trkpt lat="44.02018" lon="3.70839">
        <ele>585.1</ele>
        <time>2022-04-15T09:57:28Z</time>
      </trkpt>
      <trkpt lat="44.02014" lon="3.70837">
        <ele>584.5</ele>
        <time>2022-04-15T09:57:29Z</time>
      </trkpt>
      <trkpt lat="44.02013" lon="3.70836">
        <ele>584.3</ele>
        <time>2022-04-15T09:57:30Z</time>
      </trkpt>
      <trkpt lat="44.0201" lon="3.70835">
        <ele>583.9</ele>
        <time>2022-04-15T09:57:32Z</time>
      </trkpt>
      <trkpt lat="44.02006" lon="3.70835">
        <ele>583.4</ele>
        <time>2022-04-15T09:57:33Z</time>
      </trkpt>
      <trkpt lat="44.02004" lon="3.70835">
        <ele>583.1</ele>
        <time>2022-04-15T09:57:34Z</time>
      </trkpt>
      <trkpt lat="44.02" lon="3.70835">
        <ele>582.6</ele>
        <time>2022-04-15T09:57:35Z</time>
      </trkpt>
      <trkpt lat="44.01996" lon="3.70835">
        <ele>582.1</ele>
        <time>2022-04-15T09:57:36Z</time>
      </trkpt>
      <trkpt lat="44.01992" lon="3.70837">
        <ele>581.5</ele>
        <time>2022-04-15T09:57:38Z</time>
      </trkpt>
      <trkpt lat="44.0199" lon="3.7084">
        <ele>581</ele>
        <time>2022-04-15T09:57:39Z</time>
      </trkpt>
      <trkpt lat="44.01988" lon="3.70841">
        <ele>580.8</ele>
        <time>2022-04-15T09:57:40Z</time>
      </trkpt>
      <trkpt lat="44.01985" lon="3.70843">
        <ele>580.3</ele>
        <time>2022-04-15T09:57:41Z</time>
      </trkpt>
      <trkpt lat="44.01984" lon="3.70844">
        <ele>580.1</ele>
        <time>2022-04-15T09:57:42Z</time>
      </trkpt>
      <trkpt lat="44.01981" lon="3.70845">
        <ele>579.7</ele>
        <time>2022-04-15T09:57:43Z</time>
      </trkpt>
      <trkpt lat="44.01979" lon="3.70848">
        <ele>579.3</ele>
        <time>2022-04-15T09:57:44Z</time>
      </trkpt>
      <trkpt lat="44.01978" lon="3.70849">
        <ele>579.1</ele>
        <time>2022-04-15T09:57:45Z</time>
      </trkpt>
      <trkpt lat="44.01976" lon="3.70852">
        <ele>578.7</ele>
        <time>2022-04-15T09:57:47Z</time>
      </trkpt>
      <trkpt lat="44.01974" lon="3.70854">
        <ele>578.3</ele>
        <time>2022-04-15T09:57:48Z</time>
      </trkpt>
      <trkpt lat="44.01972" lon="3.70857">
        <ele>577.9</ele>
        <time>2022-04-15T09:57:50Z</time>
      </trkpt>
      <trkpt lat="44.01969" lon="3.7086">
        <ele>577.5</ele>
        <time>2022-04-15T09:57:51Z</time>
      </trkpt>
      <trkpt lat="44.01969" lon="3.70866">
        <ele>576.8</ele>
        <time>2022-04-15T09:57:53Z</time>
      </trkpt>
      <trkpt lat="44.01967" lon="3.7087">
        <ele>576.3</ele>
        <time>2022-04-15T09:57:54Z</time>
      </trkpt>
      <trkpt lat="44.01965" lon="3.70866">
        <ele>575.7</ele>
        <time>2022-04-15T09:57:56Z</time>
      </trkpt>
      <trkpt lat="44.01965" lon="3.70864">
        <ele>575.4</ele>
        <time>2022-04-15T09:57:57Z</time>
      </trkpt>
      <trkpt lat="44.01965" lon="3.70859">
        <ele>574.8</ele>
        <time>2022-04-15T09:57:58Z</time>
      </trkpt>
      <trkpt lat="44.01965" lon="3.70858">
        <ele>574.5</ele>
        <time>2022-04-15T09:57:59Z</time>
      </trkpt>
      <trkpt lat="44.01965" lon="3.70855">
        <ele>574.1</ele>
        <time>2022-04-15T09:58:00Z</time>
      </trkpt>
      <trkpt lat="44.01964" lon="3.70852">
        <ele>573.7</ele>
        <time>2022-04-15T09:58:02Z</time>
      </trkpt>
      <trkpt lat="44.01964" lon="3.70848">
        <ele>573.1</ele>
        <time>2022-04-15T09:58:03Z</time>
      </trkpt>
      <trkpt lat="44.01963" lon="3.70847">
        <ele>573</ele>
        <time>2022-04-15T09:58:04Z</time>
      </trkpt>
      <trkpt lat="44.01962" lon="3.70845">
        <ele>572.6</ele>
        <time>2022-04-15T09:58:05Z</time>
      </trkpt>
      <trkpt lat="44.01961" lon="3.70843">
        <ele>572.4</ele>
        <time>2022-04-15T09:58:06Z</time>
      </trkpt>
      <trkpt lat="44.0196" lon="3.70841">
        <ele>572.1</ele>
        <time>2022-04-15T09:58:08Z</time>
      </trkpt>
      <trkpt lat="44.0196" lon="3.7084">
        <ele>572</ele>
        <time>2022-04-15T09:58:09Z</time>
      </trkpt>
      <trkpt lat="44.0196" lon="3.70838">
        <ele>571.8</ele>
        <time>2022-04-15T09:58:10Z</time>
      </trkpt>
      <trkpt lat="44.0196" lon="3.70837">
        <ele>571.7</ele>
        <time>2022-04-15T09:58:11Z</time>
      </trkpt>
      <trkpt lat="44.01962" lon="3.70838">
        <ele>571.5</ele>
        <time>2022-04-15T09:58:12Z</time>
      </trkpt>
      <trkpt lat="44.01962" lon="3.70835">
        <ele>571.2</ele>
        <time>2022-04-15T09:58:14Z</time>
      </trkpt>
      <trkpt lat="44.01961" lon="3.70832">
        <ele>571</ele>
        <time>2022-04-15T09:58:15Z</time>
      </trkpt>
      <trkpt lat="44.01961" lon="3.7083">
        <ele>570.8</ele>
        <time>2022-04-15T09:58:16Z</time>
      </trkpt>
      <trkpt lat="44.01961" lon="3.70826">
        <ele>570.5</ele>
        <time>2022-04-15T09:58:17Z</time>
      </trkpt>
      <trkpt lat="44.0196" lon="3.70825">
        <ele>570.4</ele>
        <time>2022-04-15T09:58:18Z</time>
      </trkpt>
      <trkpt lat="44.0196" lon="3.70823">
        <ele>570.3</ele>
        <time>2022-04-15T09:58:19Z</time>
      </trkpt>
      <trkpt lat="44.0196" lon="3.70821">
        <ele>570.1</ele>
        <time>2022-04-15T09:58:20Z</time>
      </trkpt>
      <trkpt lat="44.0196" lon="3.70819">
        <ele>570</ele>
        <time>2022-04-15T09:58:21Z</time>
      </trkpt>
      <trkpt lat="44.0196" lon="3.70818">
        <ele>569.8</ele>
        <time>2022-04-15T09:58:22Z</time>
      </trkpt>
      <trkpt lat="44.0196" lon="3.70818">
        <ele>569.8</ele>
        <time>2022-04-15T09:58:23Z</time>
      </trkpt>
      <trkpt lat="44.0196" lon="3.70816">
        <ele>569.7</ele>
        <time>2022-04-15T09:58:24Z</time>
      </trkpt>
      <trkpt lat="44.0196" lon="3.70814">
        <ele>569.5</ele>
        <time>2022-04-15T09:58:25Z</time>
      </trkpt>
      <trkpt lat="44.0196" lon="3.70812">
        <ele>569.3</ele>
        <time>2022-04-15T09:58:26Z</time>
      </trkpt>
      <trkpt lat="44.0196" lon="3.70807">
        <ele>568.9</ele>
        <time>2022-04-15T09:58:28Z</time>
      </trkpt>
      <trkpt lat="44.0196" lon="3.70805">
        <ele>568.7</ele>
        <time>2022-04-15T09:58:29Z</time>
      </trkpt>
      <trkpt lat="44.01961" lon="3.70801">
        <ele>568.2</ele>
        <time>2022-04-15T09:58:30Z</time>
      </trkpt>
      <trkpt lat="44.01962" lon="3.70799">
        <ele>568</ele>
        <time>2022-04-15T09:58:31Z</time>
      </trkpt>
      <trkpt lat="44.01963" lon="3.70796">
        <ele>567.6</ele>
        <time>2022-04-15T09:58:32Z</time>
      </trkpt>
      <trkpt lat="44.01964" lon="3.70791">
        <ele>567</ele>
        <time>2022-04-15T09:58:34Z</time>
      </trkpt>
      <trkpt lat="44.01964" lon="3.7079">
        <ele>566.9</ele>
        <time>2022-04-15T09:58:35Z</time>
      </trkpt>
      <trkpt lat="44.01965" lon="3.70784">
        <ele>566.1</ele>
        <time>2022-04-15T09:58:36Z</time>
      </trkpt>
      <trkpt lat="44.01966" lon="3.70781">
        <ele>565.8</ele>
        <time>2022-04-15T09:58:37Z</time>
      </trkpt>
      <trkpt lat="44.01967" lon="3.70778">
        <ele>565.4</ele>
        <time>2022-04-15T09:58:38Z</time>
      </trkpt>
      <trkpt lat="44.0197" lon="3.70774">
        <ele>564.6</ele>
        <time>2022-04-15T09:58:40Z</time>
      </trkpt>
      <trkpt lat="44.01971" lon="3.70772">
        <ele>564.2</ele>
        <time>2022-04-15T09:58:41Z</time>
      </trkpt>
      <trkpt lat="44.01973" lon="3.70768">
        <ele>563.6</ele>
        <time>2022-04-15T09:58:42Z</time>
      </trkpt>
      <trkpt lat="44.01972" lon="3.70763">
        <ele>562.7</ele>
        <time>2022-04-15T09:58:44Z</time>
      </trkpt>
      <trkpt lat="44.01971" lon="3.70762">
        <ele>562.5</ele>
        <time>2022-04-15T09:58:46Z</time>
      </trkpt>
      <trkpt lat="44.0197" lon="3.70761">
        <ele>562.1</ele>
        <time>2022-04-15T09:58:47Z</time>
      </trkpt>
      <trkpt lat="44.01967" lon="3.7076">
        <ele>561.6</ele>
        <time>2022-04-15T09:58:48Z</time>
      </trkpt>
      <trkpt lat="44.01966" lon="3.7076">
        <ele>561.4</ele>
        <time>2022-04-15T09:58:49Z</time>
      </trkpt>
      <trkpt lat="44.01962" lon="3.7076">
        <ele>560.6</ele>
        <time>2022-04-15T09:58:51Z</time>
      </trkpt>
      <trkpt lat="44.01961" lon="3.7076">
        <ele>560.3</ele>
        <time>2022-04-15T09:58:52Z</time>
      </trkpt>
      <trkpt lat="44.01958" lon="3.7076">
        <ele>559.7</ele>
        <time>2022-04-15T09:58:53Z</time>
      </trkpt>
      <trkpt lat="44.01957" lon="3.7076">
        <ele>559.5</ele>
        <time>2022-04-15T09:58:54Z</time>
      </trkpt>
      <trkpt lat="44.01953" lon="3.70759">
        <ele>558.9</ele>
        <time>2022-04-15T09:58:55Z</time>
      </trkpt>
      <trkpt lat="44.01952" lon="3.70759">
        <ele>558.6</ele>
        <time>2022-04-15T09:58:56Z</time>
      </trkpt>
      <trkpt lat="44.01949" lon="3.70759">
        <ele>558</ele>
        <time>2022-04-15T09:58:58Z</time>
      </trkpt>
      <trkpt lat="44.01948" lon="3.70758">
        <ele>557.8</ele>
        <time>2022-04-15T09:58:59Z</time>
      </trkpt>
      <trkpt lat="44.01944" lon="3.70757">
        <ele>557</ele>
        <time>2022-04-15T09:59:00Z</time>
      </trkpt>
      <trkpt lat="44.01943" lon="3.70756">
        <ele>556.7</ele>
        <time>2022-04-15T09:59:01Z</time>
      </trkpt>
      <trkpt lat="44.0194" lon="3.70753">
        <ele>556</ele>
        <time>2022-04-15T09:59:03Z</time>
      </trkpt>
      <trkpt lat="44.01939" lon="3.70752">
        <ele>555.7</ele>
        <time>2022-04-15T09:59:04Z</time>
      </trkpt>
      <trkpt lat="44.01936" lon="3.70749">
        <ele>555</ele>
        <time>2022-04-15T09:59:05Z</time>
      </trkpt>
      <trkpt lat="44.01936" lon="3.70747">
        <ele>554.8</ele>
        <time>2022-04-15T09:59:06Z</time>
      </trkpt>
      <trkpt lat="44.01933" lon="3.70744">
        <ele>554.1</ele>
        <time>2022-04-15T09:59:08Z</time>
      </trkpt>
      <trkpt lat="44.01931" lon="3.70742">
        <ele>553.5</ele>
        <time>2022-04-15T09:59:09Z</time>
      </trkpt>
      <trkpt lat="44.0193" lon="3.70738">
        <ele>552.8</ele>
        <time>2022-04-15T09:59:11Z</time>
      </trkpt>
      <trkpt lat="44.01927" lon="3.70735">
        <ele>552</ele>
        <time>2022-04-15T09:59:12Z</time>
      </trkpt>
      <trkpt lat="44.01927" lon="3.70734">
        <ele>551.8</ele>
        <time>2022-04-15T09:59:13Z</time>
      </trkpt>
      <trkpt lat="44.01925" lon="3.70733">
        <ele>551.3</ele>
        <time>2022-04-15T09:59:15Z</time>
      </trkpt>
      <trkpt lat="44.01924" lon="3.70732">
        <ele>550.9</ele>
        <time>2022-04-15T09:59:16Z</time>
      </trkpt>
      <trkpt lat="44.01921" lon="3.70731">
        <ele>550.3</ele>
        <time>2022-04-15T09:59:17Z</time>
      </trkpt>
      <trkpt lat="44.01919" lon="3.7073">
        <ele>549.8</ele>
        <time>2022-04-15T09:59:19Z</time>
      </trkpt>
      <trkpt lat="44.01917" lon="3.7073">
        <ele>549.3</ele>
        <time>2022-04-15T09:59:20Z</time>
      </trkpt>
      <trkpt lat="44.01914" lon="3.7073">
        <ele>548.7</ele>
        <time>2022-04-15T09:59:22Z</time>
      </trkpt>
      <trkpt lat="44.01911" lon="3.70731">
        <ele>548</ele>
        <time>2022-04-15T09:59:23Z</time>
      </trkpt>
      <trkpt lat="44.01908" lon="3.70732">
        <ele>547.4</ele>
        <time>2022-04-15T09:59:24Z</time>
      </trkpt>
      <trkpt lat="44.01907" lon="3.70732">
        <ele>547.1</ele>
        <time>2022-04-15T09:59:25Z</time>
      </trkpt>
      <trkpt lat="44.01903" lon="3.70732">
        <ele>546.4</ele>
        <time>2022-04-15T09:59:26Z</time>
      </trkpt>
      <trkpt lat="44.01902" lon="3.70732">
        <ele>546.2</ele>
        <time>2022-04-15T09:59:27Z</time>
      </trkpt>
      <trkpt lat="44.01898" lon="3.70732">
        <ele>545.5</ele>
        <time>2022-04-15T09:59:29Z</time>
      </trkpt>
      <trkpt lat="44.01897" lon="3.70733">
        <ele>545.3</ele>
        <time>2022-04-15T09:59:30Z</time>
      </trkpt>
      <trkpt lat="44.01893" lon="3.70732">
        <ele>544.7</ele>
        <time>2022-04-15T09:59:31Z</time>
      </trkpt>
      <trkpt lat="44.01892" lon="3.70732">
        <ele>544.4</ele>
        <time>2022-04-15T09:59:32Z</time>
      </trkpt>
      <trkpt lat="44.01887" lon="3.70733">
        <ele>543.7</ele>
        <time>2022-04-15T09:59:34Z</time>
      </trkpt>
      <trkpt lat="44.01886" lon="3.70733">
        <ele>543.5</ele>
        <time>2022-04-15T09:59:35Z</time>
      </trkpt>
      <trkpt lat="44.01885" lon="3.70733">
        <ele>543.3</ele>
        <time>2022-04-15T09:59:36Z</time>
      </trkpt>
      <trkpt lat="44.01881" lon="3.70734">
        <ele>542.7</ele>
        <time>2022-04-15T09:59:37Z</time>
      </trkpt>
      <trkpt lat="44.0188" lon="3.70734">
        <ele>542.5</ele>
        <time>2022-04-15T09:59:38Z</time>
      </trkpt>
      <trkpt lat="44.01876" lon="3.70735">
        <ele>541.9</ele>
        <time>2022-04-15T09:59:40Z</time>
      </trkpt>
      <trkpt lat="44.01875" lon="3.70736">
        <ele>541.7</ele>
        <time>2022-04-15T09:59:41Z</time>
      </trkpt>
      <trkpt lat="44.01871" lon="3.70736">
        <ele>541.1</ele>
        <time>2022-04-15T09:59:42Z</time>
      </trkpt>
      <trkpt lat="44.0187" lon="3.70736">
        <ele>540.8</ele>
        <time>2022-04-15T09:59:43Z</time>
      </trkpt>
      <trkpt lat="44.01867" lon="3.70734">
        <ele>540.3</ele>
        <time>2022-04-15T09:59:44Z</time>
      </trkpt>
      <trkpt lat="44.01865" lon="3.70733">
        <ele>539.8</ele>
        <time>2022-04-15T09:59:45Z</time>
      </trkpt>
      <trkpt lat="44.01863" lon="3.70731">
        <ele>539.3</ele>
        <time>2022-04-15T09:59:47Z</time>
      </trkpt>
      <trkpt lat="44.0186" lon="3.7073">
        <ele>538.7</ele>
        <time>2022-04-15T09:59:48Z</time>
      </trkpt>
      <trkpt lat="44.01857" lon="3.70728">
        <ele>537.8</ele>
        <time>2022-04-15T09:59:49Z</time>
      </trkpt>
      <trkpt lat="44.01853" lon="3.70726">
        <ele>537.3</ele>
        <time>2022-04-15T09:59:51Z</time>
      </trkpt>
      <trkpt lat="44.0185" lon="3.70723">
        <ele>536.8</ele>
        <time>2022-04-15T09:59:52Z</time>
      </trkpt>
      <trkpt lat="44.01846" lon="3.70719">
        <ele>536.1</ele>
        <time>2022-04-15T09:59:54Z</time>
      </trkpt>
      <trkpt lat="44.01845" lon="3.70718">
        <ele>536</ele>
        <time>2022-04-15T09:59:55Z</time>
      </trkpt>
      <trkpt lat="44.01844" lon="3.70716">
        <ele>535.8</ele>
        <time>2022-04-15T09:59:56Z</time>
      </trkpt>
      <trkpt lat="44.01841" lon="3.70713">
        <ele>535.3</ele>
        <time>2022-04-15T09:59:57Z</time>
      </trkpt>
      <trkpt lat="44.0184" lon="3.70712">
        <ele>535.2</ele>
        <time>2022-04-15T09:59:58Z</time>
      </trkpt>
      <trkpt lat="44.01838" lon="3.7071">
        <ele>534.9</ele>
        <time>2022-04-15T10:00:00Z</time>
      </trkpt>
      <trkpt lat="44.01835" lon="3.70707">
        <ele>534.5</ele>
        <time>2022-04-15T10:00:01Z</time>
      </trkpt>
      <trkpt lat="44.01832" lon="3.70705">
        <ele>534.1</ele>
        <time>2022-04-15T10:00:02Z</time>
      </trkpt>
      <trkpt lat="44.01831" lon="3.70704">
        <ele>534</ele>
        <time>2022-04-15T10:00:03Z</time>
      </trkpt>
      <trkpt lat="44.01829" lon="3.70702">
        <ele>533.7</ele>
        <time>2022-04-15T10:00:04Z</time>
      </trkpt>
      <trkpt lat="44.01826" lon="3.70699">
        <ele>533.3</ele>
        <time>2022-04-15T10:00:06Z</time>
      </trkpt>
      <trkpt lat="44.01823" lon="3.70696">
        <ele>532.9</ele>
        <time>2022-04-15T10:00:07Z</time>
      </trkpt>
      <trkpt lat="44.01822" lon="3.70695">
        <ele>532.8</ele>
        <time>2022-04-15T10:00:08Z</time>
      </trkpt>
      <trkpt lat="44.0182" lon="3.70692">
        <ele>532.5</ele>
        <time>2022-04-15T10:00:09Z</time>
      </trkpt>
      <trkpt lat="44.0182" lon="3.70691">
        <ele>532.4</ele>
        <time>2022-04-15T10:00:10Z</time>
      </trkpt>
      <trkpt lat="44.01817" lon="3.70688">
        <ele>532</ele>
        <time>2022-04-15T10:00:12Z</time>
      </trkpt>
      <trkpt lat="44.01817" lon="3.70687">
        <ele>531.9</ele>
        <time>2022-04-15T10:00:13Z</time>
      </trkpt>
      <trkpt lat="44.01816" lon="3.70685">
        <ele>531.7</ele>
        <time>2022-04-15T10:00:14Z</time>
      </trkpt>
      <trkpt lat="44.01815" lon="3.70683">
        <ele>531.5</ele>
        <time>2022-04-15T10:00:15Z</time>
      </trkpt>
      <trkpt lat="44.01813" lon="3.7068">
        <ele>531.2</ele>
        <time>2022-04-15T10:00:16Z</time>
      </trkpt>
      <trkpt lat="44.01811" lon="3.70675">
        <ele>530.8</ele>
        <time>2022-04-15T10:00:18Z</time>
      </trkpt>
      <trkpt lat="44.0181" lon="3.70672">
        <ele>530.5</ele>
        <time>2022-04-15T10:00:19Z</time>
      </trkpt>
      <trkpt lat="44.01808" lon="3.70669">
        <ele>530.2</ele>
        <time>2022-04-15T10:00:20Z</time>
      </trkpt>
      <trkpt lat="44.01806" lon="3.70665">
        <ele>529.8</ele>
        <time>2022-04-15T10:00:21Z</time>
      </trkpt>
      <trkpt lat="44.01805" lon="3.70661">
        <ele>529.5</ele>
        <time>2022-04-15T10:00:22Z</time>
      </trkpt>
      <trkpt lat="44.01802" lon="3.70655">
        <ele>529.1</ele>
        <time>2022-04-15T10:00:24Z</time>
      </trkpt>
      <trkpt lat="44.018" lon="3.70651">
        <ele>528.8</ele>
        <time>2022-04-15T10:00:26Z</time>
      </trkpt>
      <trkpt lat="44.01799" lon="3.70648">
        <ele>528.5</ele>
        <time>2022-04-15T10:00:27Z</time>
      </trkpt>
      <trkpt lat="44.01797" lon="3.70643">
        <ele>528.1</ele>
        <time>2022-04-15T10:00:28Z</time>
      </trkpt>
      <trkpt lat="44.01795" lon="3.70639">
        <ele>527.8</ele>
        <time>2022-04-15T10:00:30Z</time>
      </trkpt>
      <trkpt lat="44.01793" lon="3.70634">
        <ele>527.4</ele>
        <time>2022-04-15T10:00:32Z</time>
      </trkpt>
      <trkpt lat="44.0179" lon="3.70628">
        <ele>526.9</ele>
        <time>2022-04-15T10:00:33Z</time>
      </trkpt>
      <trkpt lat="44.01789" lon="3.70626">
        <ele>526.7</ele>
        <time>2022-04-15T10:00:34Z</time>
      </trkpt>
      <trkpt lat="44.01787" lon="3.70622">
        <ele>526.4</ele>
        <time>2022-04-15T10:00:36Z</time>
      </trkpt>
      <trkpt lat="44.01786" lon="3.70618">
        <ele>526</ele>
        <time>2022-04-15T10:00:37Z</time>
      </trkpt>
      <trkpt lat="44.01784" lon="3.70614">
        <ele>525.6</ele>
        <time>2022-04-15T10:00:38Z</time>
      </trkpt>
      <trkpt lat="44.01783" lon="3.70613">
        <ele>525.4</ele>
        <time>2022-04-15T10:00:39Z</time>
      </trkpt>
      <trkpt lat="44.01781" lon="3.70609">
        <ele>525.1</ele>
        <time>2022-04-15T10:00:41Z</time>
      </trkpt>
      <trkpt lat="44.0178" lon="3.70606">
        <ele>524.7</ele>
        <time>2022-04-15T10:00:42Z</time>
      </trkpt>
      <trkpt lat="44.01777" lon="3.70603">
        <ele>524.3</ele>
        <time>2022-04-15T10:00:43Z</time>
      </trkpt>
      <trkpt lat="44.01776" lon="3.70602">
        <ele>524.1</ele>
        <time>2022-04-15T10:00:44Z</time>
      </trkpt>
      <trkpt lat="44.01775" lon="3.70599">
        <ele>523.7</ele>
        <time>2022-04-15T10:00:45Z</time>
      </trkpt>
      <trkpt lat="44.01774" lon="3.70596">
        <ele>523.4</ele>
        <time>2022-04-15T10:00:47Z</time>
      </trkpt>
      <trkpt lat="44.01772" lon="3.70592">
        <ele>522.9</ele>
        <time>2022-04-15T10:00:48Z</time>
      </trkpt>
      <trkpt lat="44.01769" lon="3.70589">
        <ele>522.4</ele>
        <time>2022-04-15T10:00:49Z</time>
      </trkpt>
      <trkpt lat="44.01768" lon="3.70588">
        <ele>522.3</ele>
        <time>2022-04-15T10:00:50Z</time>
      </trkpt>
      <trkpt lat="44.01767" lon="3.70587">
        <ele>522</ele>
        <time>2022-04-15T10:00:51Z</time>
      </trkpt>
      <trkpt lat="44.01764" lon="3.70586">
        <ele>521.5</ele>
        <time>2022-04-15T10:00:53Z</time>
      </trkpt>
      <trkpt lat="44.01761" lon="3.70584">
        <ele>521</ele>
        <time>2022-04-15T10:00:54Z</time>
      </trkpt>
      <trkpt lat="44.01758" lon="3.70583">
        <ele>520.4</ele>
        <time>2022-04-15T10:00:55Z</time>
      </trkpt>
      <trkpt lat="44.01757" lon="3.70582">
        <ele>520.2</ele>
        <time>2022-04-15T10:00:56Z</time>
      </trkpt>
      <trkpt lat="44.01755" lon="3.7058">
        <ele>519.7</ele>
        <time>2022-04-15T10:00:57Z</time>
      </trkpt>
      <trkpt lat="44.01752" lon="3.70577">
        <ele>519.1</ele>
        <time>2022-04-15T10:00:59Z</time>
      </trkpt>
      <trkpt lat="44.01751" lon="3.70574">
        <ele>518.6</ele>
        <time>2022-04-15T10:01:00Z</time>
      </trkpt>
      <trkpt lat="44.01748" lon="3.70572">
        <ele>518</ele>
        <time>2022-04-15T10:01:02Z</time>
      </trkpt>
      <trkpt lat="44.01745" lon="3.7057">
        <ele>517.4</ele>
        <time>2022-04-15T10:01:03Z</time>
      </trkpt>
      <trkpt lat="44.01744" lon="3.70569">
        <ele>517</ele>
        <time>2022-04-15T10:01:04Z</time>
      </trkpt>
      <trkpt lat="44.01741" lon="3.70567">
        <ele>516.4</ele>
        <time>2022-04-15T10:01:06Z</time>
      </trkpt>
      <trkpt lat="44.0174" lon="3.70562">
        <ele>515.7</ele>
        <time>2022-04-15T10:01:07Z</time>
      </trkpt>
      <trkpt lat="44.01739" lon="3.70561">
        <ele>515.5</ele>
        <time>2022-04-15T10:01:08Z</time>
      </trkpt>
      <trkpt lat="44.01738" lon="3.70559">
        <ele>515.2</ele>
        <time>2022-04-15T10:01:09Z</time>
      </trkpt>
      <trkpt lat="44.01737" lon="3.70558">
        <ele>514.9</ele>
        <time>2022-04-15T10:01:10Z</time>
      </trkpt>
      <trkpt lat="44.01736" lon="3.70556">
        <ele>514.5</ele>
        <time>2022-04-15T10:01:11Z</time>
      </trkpt>
      <trkpt lat="44.01734" lon="3.70553">
        <ele>514</ele>
        <time>2022-04-15T10:01:13Z</time>
      </trkpt>
      <trkpt lat="44.01732" lon="3.70551">
        <ele>513.5</ele>
        <time>2022-04-15T10:01:15Z</time>
      </trkpt>
      <trkpt lat="44.0173" lon="3.70546">
        <ele>512.9</ele>
        <time>2022-04-15T10:01:17Z</time>
      </trkpt>
      <trkpt lat="44.01728" lon="3.70543">
        <ele>512.4</ele>
        <time>2022-04-15T10:01:19Z</time>
      </trkpt>
      <trkpt lat="44.01728" lon="3.70542">
        <ele>512.3</ele>
        <time>2022-04-15T10:01:20Z</time>
      </trkpt>
      <trkpt lat="44.01728" lon="3.7054">
        <ele>512.1</ele>
        <time>2022-04-15T10:01:21Z</time>
      </trkpt>
      <trkpt lat="44.01728" lon="3.70537">
        <ele>511.9</ele>
        <time>2022-04-15T10:01:22Z</time>
      </trkpt>
      <trkpt lat="44.01727" lon="3.70535">
        <ele>511.7</ele>
        <time>2022-04-15T10:01:23Z</time>
      </trkpt>
      <trkpt lat="44.01727" lon="3.70533">
        <ele>511.4</ele>
        <time>2022-04-15T10:01:24Z</time>
      </trkpt>
      <trkpt lat="44.01727" lon="3.70531">
        <ele>511.2</ele>
        <time>2022-04-15T10:01:25Z</time>
      </trkpt>
      <trkpt lat="44.01727" lon="3.70529">
        <ele>509.4</ele>
        <time>2022-04-15T10:01:26Z</time>
      </trkpt>
      <trkpt lat="44.01727" lon="3.70526">
        <ele>509.3</ele>
        <time>2022-04-15T10:01:27Z</time>
      </trkpt>
      <trkpt lat="44.01728" lon="3.70525">
        <ele>509.1</ele>
        <time>2022-04-15T10:01:28Z</time>
      </trkpt>
      <trkpt lat="44.01731" lon="3.70523">
        <ele>508.8</ele>
        <time>2022-04-15T10:01:29Z</time>
      </trkpt>
      <trkpt lat="44.01732" lon="3.70522">
        <ele>508.7</ele>
        <time>2022-04-15T10:01:30Z</time>
      </trkpt>
      <trkpt lat="44.01734" lon="3.70521">
        <ele>508.5</ele>
        <time>2022-04-15T10:01:31Z</time>
      </trkpt>
      <trkpt lat="44.01736" lon="3.70521">
        <ele>508.3</ele>
        <time>2022-04-15T10:01:33Z</time>
      </trkpt>
      <trkpt lat="44.0174" lon="3.70521">
        <ele>507.8</ele>
        <time>2022-04-15T10:01:34Z</time>
      </trkpt>
      <trkpt lat="44.01742" lon="3.70521">
        <ele>507.6</ele>
        <time>2022-04-15T10:01:35Z</time>
      </trkpt>
      <trkpt lat="44.01746" lon="3.70521">
        <ele>507.3</ele>
        <time>2022-04-15T10:01:37Z</time>
      </trkpt>
      <trkpt lat="44.01748" lon="3.70521">
        <ele>507.1</ele>
        <time>2022-04-15T10:01:38Z</time>
      </trkpt>
      <trkpt lat="44.01752" lon="3.70522">
        <ele>506.7</ele>
        <time>2022-04-15T10:01:40Z</time>
      </trkpt>
      <trkpt lat="44.01755" lon="3.70523">
        <ele>506.4</ele>
        <time>2022-04-15T10:01:41Z</time>
      </trkpt>
      <trkpt lat="44.01759" lon="3.70524">
        <ele>506</ele>
        <time>2022-04-15T10:01:42Z</time>
      </trkpt>
      <trkpt lat="44.01762" lon="3.70525">
        <ele>505.7</ele>
        <time>2022-04-15T10:01:44Z</time>
      </trkpt>
      <trkpt lat="44.01765" lon="3.70527">
        <ele>505.3</ele>
        <time>2022-04-15T10:01:45Z</time>
      </trkpt>
      <trkpt lat="44.01768" lon="3.70528">
        <ele>505</ele>
        <time>2022-04-15T10:01:46Z</time>
      </trkpt>
      <trkpt lat="44.01772" lon="3.7053">
        <ele>504.7</ele>
        <time>2022-04-15T10:01:47Z</time>
      </trkpt>
      <trkpt lat="44.01776" lon="3.70531">
        <ele>504.2</ele>
        <time>2022-04-15T10:01:48Z</time>
      </trkpt>
      <trkpt lat="44.0178" lon="3.70533">
        <ele>503.8</ele>
        <time>2022-04-15T10:01:50Z</time>
      </trkpt>
      <trkpt lat="44.01784" lon="3.70535">
        <ele>503.4</ele>
        <time>2022-04-15T10:01:52Z</time>
      </trkpt>
      <trkpt lat="44.01787" lon="3.70537">
        <ele>503.1</ele>
        <time>2022-04-15T10:01:53Z</time>
      </trkpt>
      <trkpt lat="44.01789" lon="3.70539">
        <ele>502.8</ele>
        <time>2022-04-15T10:01:54Z</time>
      </trkpt>
      <trkpt lat="44.01793" lon="3.70541">
        <ele>502.4</ele>
        <time>2022-04-15T10:01:55Z</time>
      </trkpt>
      <trkpt lat="44.01794" lon="3.70542">
        <ele>502.3</ele>
        <time>2022-04-15T10:01:56Z</time>
      </trkpt>
      <trkpt lat="44.01798" lon="3.70545">
        <ele>501.8</ele>
        <time>2022-04-15T10:01:58Z</time>
      </trkpt>
      <trkpt lat="44.01799" lon="3.70546">
        <ele>501.7</ele>
        <time>2022-04-15T10:01:59Z</time>
      </trkpt>
      <trkpt lat="44.01802" lon="3.70548">
        <ele>501.3</ele>
        <time>2022-04-15T10:02:00Z</time>
      </trkpt>
      <trkpt lat="44.01803" lon="3.70549">
        <ele>501.2</ele>
        <time>2022-04-15T10:02:01Z</time>
      </trkpt>
      <trkpt lat="44.01806" lon="3.7055">
        <ele>501</ele>
        <time>2022-04-15T10:02:02Z</time>
      </trkpt>
      <trkpt lat="44.01808" lon="3.70552">
        <ele>500.7</ele>
        <time>2022-04-15T10:02:04Z</time>
      </trkpt>
      <trkpt lat="44.01811" lon="3.70555">
        <ele>500.4</ele>
        <time>2022-04-15T10:02:05Z</time>
      </trkpt>
      <trkpt lat="44.01814" lon="3.70557">
        <ele>500</ele>
        <time>2022-04-15T10:02:06Z</time>
      </trkpt>
      <trkpt lat="44.01815" lon="3.70558">
        <ele>499.9</ele>
        <time>2022-04-15T10:02:07Z</time>
      </trkpt>
      <trkpt lat="44.01818" lon="3.7056">
        <ele>499.5</ele>
        <time>2022-04-15T10:02:08Z</time>
      </trkpt>
      <trkpt lat="44.01821" lon="3.70563">
        <ele>499.2</ele>
        <time>2022-04-15T10:02:10Z</time>
      </trkpt>
      <trkpt lat="44.01825" lon="3.70566">
        <ele>498.7</ele>
        <time>2022-04-15T10:02:12Z</time>
      </trkpt>
      <trkpt lat="44.01828" lon="3.70568">
        <ele>498.5</ele>
        <time>2022-04-15T10:02:13Z</time>
      </trkpt>
      <trkpt lat="44.0183" lon="3.7057">
        <ele>498.2</ele>
        <time>2022-04-15T10:02:14Z</time>
      </trkpt>
      <trkpt lat="44.01833" lon="3.70574">
        <ele>497.8</ele>
        <time>2022-04-15T10:02:16Z</time>
      </trkpt>
      <trkpt lat="44.01835" lon="3.70576">
        <ele>497.5</ele>
        <time>2022-04-15T10:02:17Z</time>
      </trkpt>
      <trkpt lat="44.01838" lon="3.7058">
        <ele>497.1</ele>
        <time>2022-04-15T10:02:18Z</time>
      </trkpt>
      <trkpt lat="44.01841" lon="3.70582">
        <ele>496.8</ele>
        <time>2022-04-15T10:02:20Z</time>
      </trkpt>
      <trkpt lat="44.01844" lon="3.70584">
        <ele>496.5</ele>
        <time>2022-04-15T10:02:21Z</time>
      </trkpt>
      <trkpt lat="44.01848" lon="3.70585">
        <ele>496.1</ele>
        <time>2022-04-15T10:02:22Z</time>
      </trkpt>
      <trkpt lat="44.01849" lon="3.70586">
        <ele>495.9</ele>
        <time>2022-04-15T10:02:23Z</time>
      </trkpt>
      <trkpt lat="44.01852" lon="3.70587">
        <ele>495.7</ele>
        <time>2022-04-15T10:02:24Z</time>
      </trkpt>
      <trkpt lat="44.01855" lon="3.70588">
        <ele>495.4</ele>
        <time>2022-04-15T10:02:26Z</time>
      </trkpt>
      <trkpt lat="44.01857" lon="3.70589">
        <ele>495.1</ele>
        <time>2022-04-15T10:02:27Z</time>
      </trkpt>
      <trkpt lat="44.0186" lon="3.7059">
        <ele>494.8</ele>
        <time>2022-04-15T10:02:28Z</time>
      </trkpt>
      <trkpt lat="44.01864" lon="3.70592">
        <ele>494.4</ele>
        <time>2022-04-15T10:02:29Z</time>
      </trkpt>
      <trkpt lat="44.01866" lon="3.70593">
        <ele>494.2</ele>
        <time>2022-04-15T10:02:30Z</time>
      </trkpt>
      <trkpt lat="44.01869" lon="3.70595">
        <ele>493.9</ele>
        <time>2022-04-15T10:02:32Z</time>
      </trkpt>
      <trkpt lat="44.01873" lon="3.70597">
        <ele>493.5</ele>
        <time>2022-04-15T10:02:34Z</time>
      </trkpt>
      <trkpt lat="44.01876" lon="3.70597">
        <ele>493.2</ele>
        <time>2022-04-15T10:02:35Z</time>
      </trkpt>
      <trkpt lat="44.01879" lon="3.70595">
        <ele>492.8</ele>
        <time>2022-04-15T10:02:36Z</time>
      </trkpt>
      <trkpt lat="44.0188" lon="3.70593">
        <ele>492.7</ele>
        <time>2022-04-15T10:02:37Z</time>
      </trkpt>
      <trkpt lat="44.01881" lon="3.7059">
        <ele>492.4</ele>
        <time>2022-04-15T10:02:38Z</time>
      </trkpt>
      <trkpt lat="44.01882" lon="3.70588">
        <ele>492.3</ele>
        <time>2022-04-15T10:02:39Z</time>
      </trkpt>
      <trkpt lat="44.01883" lon="3.70584">
        <ele>492</ele>
        <time>2022-04-15T10:02:41Z</time>
      </trkpt>
      <trkpt lat="44.01883" lon="3.70582">
        <ele>491.9</ele>
        <time>2022-04-15T10:02:42Z</time>
      </trkpt>
      <trkpt lat="44.01883" lon="3.7058">
        <ele>491.7</ele>
        <time>2022-04-15T10:02:43Z</time>
      </trkpt>
      <trkpt lat="44.01883" lon="3.70577">
        <ele>491.5</ele>
        <time>2022-04-15T10:02:44Z</time>
      </trkpt>
      <trkpt lat="44.01884" lon="3.70574">
        <ele>491.2</ele>
        <time>2022-04-15T10:02:46Z</time>
      </trkpt>
      <trkpt lat="44.01886" lon="3.7057">
        <ele>491</ele>
        <time>2022-04-15T10:02:47Z</time>
      </trkpt>
      <trkpt lat="44.01887" lon="3.70567">
        <ele>490.7</ele>
        <time>2022-04-15T10:02:48Z</time>
      </trkpt>
      <trkpt lat="44.01888" lon="3.70565">
        <ele>490.6</ele>
        <time>2022-04-15T10:02:49Z</time>
      </trkpt>
      <trkpt lat="44.0189" lon="3.70561">
        <ele>490.2</ele>
        <time>2022-04-15T10:02:50Z</time>
      </trkpt>
      <trkpt lat="44.0189" lon="3.7056">
        <ele>490.1</ele>
        <time>2022-04-15T10:02:51Z</time>
      </trkpt>
      <trkpt lat="44.01893" lon="3.70554">
        <ele>489.6</ele>
        <time>2022-04-15T10:02:53Z</time>
      </trkpt>
      <trkpt lat="44.01894" lon="3.70552">
        <ele>489.4</ele>
        <time>2022-04-15T10:02:54Z</time>
      </trkpt>
      <trkpt lat="44.01895" lon="3.7055">
        <ele>489.3</ele>
        <time>2022-04-15T10:02:55Z</time>
      </trkpt>
      <trkpt lat="44.01896" lon="3.70547">
        <ele>489</ele>
        <time>2022-04-15T10:02:56Z</time>
      </trkpt>
      <trkpt lat="44.01898" lon="3.70544">
        <ele>488.8</ele>
        <time>2022-04-15T10:02:58Z</time>
      </trkpt>
      <trkpt lat="44.01899" lon="3.70543">
        <ele>488.6</ele>
        <time>2022-04-15T10:02:59Z</time>
      </trkpt>
      <trkpt lat="44.019" lon="3.70541">
        <ele>488.5</ele>
        <time>2022-04-15T10:03:00Z</time>
      </trkpt>
      <trkpt lat="44.01901" lon="3.7054">
        <ele>488.3</ele>
        <time>2022-04-15T10:03:01Z</time>
      </trkpt>
      <trkpt lat="44.01903" lon="3.70539">
        <ele>488.1</ele>
        <time>2022-04-15T10:03:03Z</time>
      </trkpt>
      <trkpt lat="44.01906" lon="3.70536">
        <ele>487.8</ele>
        <time>2022-04-15T10:03:04Z</time>
      </trkpt>
      <trkpt lat="44.01907" lon="3.70536">
        <ele>487.7</ele>
        <time>2022-04-15T10:03:05Z</time>
      </trkpt>
      <trkpt lat="44.0191" lon="3.70534">
        <ele>487.4</ele>
        <time>2022-04-15T10:03:06Z</time>
      </trkpt>
      <trkpt lat="44.01911" lon="3.70534">
        <ele>487.3</ele>
        <time>2022-04-15T10:03:07Z</time>
      </trkpt>
      <trkpt lat="44.01914" lon="3.70532">
        <ele>486.9</ele>
        <time>2022-04-15T10:03:09Z</time>
      </trkpt>
      <trkpt lat="44.01918" lon="3.7053">
        <ele>486.5</ele>
        <time>2022-04-15T10:03:11Z</time>
      </trkpt>
      <trkpt lat="44.01922" lon="3.70528">
        <ele>486.1</ele>
        <time>2022-04-15T10:03:12Z</time>
      </trkpt>
      <trkpt lat="44.01926" lon="3.70527">
        <ele>485.7</ele>
        <time>2022-04-15T10:03:13Z</time>
      </trkpt>
      <trkpt lat="44.0193" lon="3.70526">
        <ele>485.3</ele>
        <time>2022-04-15T10:03:14Z</time>
      </trkpt>
      <trkpt lat="44.01933" lon="3.70525">
        <ele>484.9</ele>
        <time>2022-04-15T10:03:16Z</time>
      </trkpt>
      <trkpt lat="44.01938" lon="3.70525">
        <ele>484.4</ele>
        <time>2022-04-15T10:03:17Z</time>
      </trkpt>
      <trkpt lat="44.01941" lon="3.70525">
        <ele>484.2</ele>
        <time>2022-04-15T10:03:18Z</time>
      </trkpt>
      <trkpt lat="44.01944" lon="3.70527">
        <ele>483.8</ele>
        <time>2022-04-15T10:03:19Z</time>
      </trkpt>
      <trkpt lat="44.01947" lon="3.7053">
        <ele>483.5</ele>
        <time>2022-04-15T10:03:20Z</time>
      </trkpt>
      <trkpt lat="44.01951" lon="3.70533">
        <ele>483</ele>
        <time>2022-04-15T10:03:22Z</time>
      </trkpt>
      <trkpt lat="44.01954" lon="3.70536">
        <ele>482.6</ele>
        <time>2022-04-15T10:03:23Z</time>
      </trkpt>
      <trkpt lat="44.01955" lon="3.70537">
        <ele>482.5</ele>
        <time>2022-04-15T10:03:24Z</time>
      </trkpt>
      <trkpt lat="44.01959" lon="3.7054">
        <ele>482.1</ele>
        <time>2022-04-15T10:03:25Z</time>
      </trkpt>
      <trkpt lat="44.0196" lon="3.70542">
        <ele>482</ele>
        <time>2022-04-15T10:03:26Z</time>
      </trkpt>
      <trkpt lat="44.01962" lon="3.70544">
        <ele>481.7</ele>
        <time>2022-04-15T10:03:27Z</time>
      </trkpt>
      <trkpt lat="44.01965" lon="3.70547">
        <ele>481.3</ele>
        <time>2022-04-15T10:03:29Z</time>
      </trkpt>
      <trkpt lat="44.01969" lon="3.7055">
        <ele>480.9</ele>
        <time>2022-04-15T10:03:31Z</time>
      </trkpt>
      <trkpt lat="44.01972" lon="3.70552">
        <ele>480.5</ele>
        <time>2022-04-15T10:03:32Z</time>
      </trkpt>
      <trkpt lat="44.01976" lon="3.70554">
        <ele>480.1</ele>
        <time>2022-04-15T10:03:34Z</time>
      </trkpt>
      <trkpt lat="44.0198" lon="3.70556">
        <ele>479.7</ele>
        <time>2022-04-15T10:03:36Z</time>
      </trkpt>
      <trkpt lat="44.01983" lon="3.70557">
        <ele>479.4</ele>
        <time>2022-04-15T10:03:37Z</time>
      </trkpt>
      <trkpt lat="44.01987" lon="3.70557">
        <ele>479</ele>
        <time>2022-04-15T10:03:38Z</time>
      </trkpt>
      <trkpt lat="44.01988" lon="3.70556">
        <ele>478.9</ele>
        <time>2022-04-15T10:03:39Z</time>
      </trkpt>
      <trkpt lat="44.01989" lon="3.70554">
        <ele>478.7</ele>
        <time>2022-04-15T10:03:41Z</time>
      </trkpt>
      <trkpt lat="44.01988" lon="3.70552">
        <ele>478.6</ele>
        <time>2022-04-15T10:03:42Z</time>
      </trkpt>
      <trkpt lat="44.01987" lon="3.70548">
        <ele>478.3</ele>
        <time>2022-04-15T10:03:43Z</time>
      </trkpt>
      <trkpt lat="44.01987" lon="3.70547">
        <ele>478.2</ele>
        <time>2022-04-15T10:03:44Z</time>
      </trkpt>
      <trkpt lat="44.01986" lon="3.70543">
        <ele>477.9</ele>
        <time>2022-04-15T10:03:45Z</time>
      </trkpt>
      <trkpt lat="44.01985" lon="3.70539">
        <ele>477.6</ele>
        <time>2022-04-15T10:03:47Z</time>
      </trkpt>
      <trkpt lat="44.01984" lon="3.70535">
        <ele>477.3</ele>
        <time>2022-04-15T10:03:49Z</time>
      </trkpt>
      <trkpt lat="44.01983" lon="3.70531">
        <ele>477</ele>
        <time>2022-04-15T10:03:50Z</time>
      </trkpt>
      <trkpt lat="44.01983" lon="3.70526">
        <ele>476.7</ele>
        <time>2022-04-15T10:03:51Z</time>
      </trkpt>
      <trkpt lat="44.01983" lon="3.70525">
        <ele>476.5</ele>
        <time>2022-04-15T10:03:52Z</time>
      </trkpt>
      <trkpt lat="44.01983" lon="3.7052">
        <ele>476.2</ele>
        <time>2022-04-15T10:03:54Z</time>
      </trkpt>
      <trkpt lat="44.01983" lon="3.70518">
        <ele>476.1</ele>
        <time>2022-04-15T10:03:55Z</time>
      </trkpt>
      <trkpt lat="44.01984" lon="3.70514">
        <ele>475.7</ele>
        <time>2022-04-15T10:03:57Z</time>
      </trkpt>
      <trkpt lat="44.01984" lon="3.70512">
        <ele>475.6</ele>
        <time>2022-04-15T10:03:58Z</time>
      </trkpt>
      <trkpt lat="44.01985" lon="3.70507">
        <ele>475.2</ele>
        <time>2022-04-15T10:03:59Z</time>
      </trkpt>
      <trkpt lat="44.01986" lon="3.70505">
        <ele>475.1</ele>
        <time>2022-04-15T10:04:00Z</time>
      </trkpt>
      <trkpt lat="44.01987" lon="3.705">
        <ele>474.7</ele>
        <time>2022-04-15T10:04:02Z</time>
      </trkpt>
      <trkpt lat="44.01989" lon="3.70495">
        <ele>474.3</ele>
        <time>2022-04-15T10:04:04Z</time>
      </trkpt>
      <trkpt lat="44.0199" lon="3.70491">
        <ele>474</ele>
        <time>2022-04-15T10:04:05Z</time>
      </trkpt>
      <trkpt lat="44.01993" lon="3.70486">
        <ele>473.6</ele>
        <time>2022-04-15T10:04:06Z</time>
      </trkpt>
      <trkpt lat="44.01993" lon="3.70485">
        <ele>473.5</ele>
        <time>2022-04-15T10:04:07Z</time>
      </trkpt>
      <trkpt lat="44.01995" lon="3.70482">
        <ele>473.2</ele>
        <time>2022-04-15T10:04:08Z</time>
      </trkpt>
      <trkpt lat="44.01997" lon="3.70479">
        <ele>472.9</ele>
        <time>2022-04-15T10:04:10Z</time>
      </trkpt>
      <trkpt lat="44.01998" lon="3.70475">
        <ele>472.7</ele>
        <time>2022-04-15T10:04:11Z</time>
      </trkpt>
      <trkpt lat="44.01999" lon="3.70471">
        <ele>472.3</ele>
        <time>2022-04-15T10:04:12Z</time>
      </trkpt>
      <trkpt lat="44.02" lon="3.70469">
        <ele>472.2</ele>
        <time>2022-04-15T10:04:13Z</time>
      </trkpt>
      <trkpt lat="44.02" lon="3.70465">
        <ele>471.9</ele>
        <time>2022-04-15T10:04:15Z</time>
      </trkpt>
      <trkpt lat="44.02001" lon="3.70461">
        <ele>471.6</ele>
        <time>2022-04-15T10:04:16Z</time>
      </trkpt>
      <trkpt lat="44.02001" lon="3.70456">
        <ele>471.3</ele>
        <time>2022-04-15T10:04:18Z</time>
      </trkpt>
      <trkpt lat="44.02002" lon="3.70452">
        <ele>470.9</ele>
        <time>2022-04-15T10:04:19Z</time>
      </trkpt>
      <trkpt lat="44.02003" lon="3.70446">
        <ele>470.5</ele>
        <time>2022-04-15T10:04:20Z</time>
      </trkpt>
      <trkpt lat="44.02003" lon="3.70443">
        <ele>470.3</ele>
        <time>2022-04-15T10:04:21Z</time>
      </trkpt>
      <trkpt lat="44.02003" lon="3.70439">
        <ele>470</ele>
        <time>2022-04-15T10:04:23Z</time>
      </trkpt>
      <trkpt lat="44.02004" lon="3.70435">
        <ele>469.7</ele>
        <time>2022-04-15T10:04:24Z</time>
      </trkpt>
      <trkpt lat="44.02005" lon="3.70429">
        <ele>469.3</ele>
        <time>2022-04-15T10:04:26Z</time>
      </trkpt>
      <trkpt lat="44.02006" lon="3.70425">
        <ele>469</ele>
        <time>2022-04-15T10:04:27Z</time>
      </trkpt>
      <trkpt lat="44.02007" lon="3.70421">
        <ele>468.7</ele>
        <time>2022-04-15T10:04:28Z</time>
      </trkpt>
      <trkpt lat="44.02007" lon="3.70419">
        <ele>468.6</ele>
        <time>2022-04-15T10:04:29Z</time>
      </trkpt>
      <trkpt lat="44.02008" lon="3.70417">
        <ele>468.4</ele>
        <time>2022-04-15T10:04:30Z</time>
      </trkpt>
      <trkpt lat="44.02008" lon="3.70415">
        <ele>468.2</ele>
        <time>2022-04-15T10:04:31Z</time>
      </trkpt>
      <trkpt lat="44.02008" lon="3.70413">
        <ele>468.1</ele>
        <time>2022-04-15T10:04:32Z</time>
      </trkpt>
      <trkpt lat="44.02008" lon="3.70412">
        <ele>468</ele>
        <time>2022-04-15T10:04:33Z</time>
      </trkpt>
      <trkpt lat="44.02008" lon="3.7041">
        <ele>467.8</ele>
        <time>2022-04-15T10:04:35Z</time>
      </trkpt>
      <trkpt lat="44.02006" lon="3.70405">
        <ele>467.5</ele>
        <time>2022-04-15T10:04:36Z</time>
      </trkpt>
      <trkpt lat="44.02006" lon="3.70404">
        <ele>467.4</ele>
        <time>2022-04-15T10:04:37Z</time>
      </trkpt>
      <trkpt lat="44.02004" lon="3.70401">
        <ele>467.1</ele>
        <time>2022-04-15T10:04:38Z</time>
      </trkpt>
      <trkpt lat="44.02003" lon="3.70399">
        <ele>467</ele>
        <time>2022-04-15T10:04:39Z</time>
      </trkpt>
      <trkpt lat="44.02002" lon="3.70396">
        <ele>466.7</ele>
        <time>2022-04-15T10:04:40Z</time>
      </trkpt>
      <trkpt lat="44.02002" lon="3.70392">
        <ele>466.5</ele>
        <time>2022-04-15T10:04:42Z</time>
      </trkpt>
      <trkpt lat="44.02002" lon="3.70388">
        <ele>466.2</ele>
        <time>2022-04-15T10:04:43Z</time>
      </trkpt>
      <trkpt lat="44.02001" lon="3.70383">
        <ele>465.8</ele>
        <time>2022-04-15T10:04:44Z</time>
      </trkpt>
      <trkpt lat="44.02002" lon="3.70379">
        <ele>465.5</ele>
        <time>2022-04-15T10:04:46Z</time>
      </trkpt>
      <trkpt lat="44.02002" lon="3.70374">
        <ele>465.1</ele>
        <time>2022-04-15T10:04:47Z</time>
      </trkpt>
      <trkpt lat="44.02002" lon="3.70369">
        <ele>464.8</ele>
        <time>2022-04-15T10:04:48Z</time>
      </trkpt>
      <trkpt lat="44.02002" lon="3.70365">
        <ele>464.5</ele>
        <time>2022-04-15T10:04:49Z</time>
      </trkpt>
      <trkpt lat="44.02002" lon="3.70361">
        <ele>464.2</ele>
        <time>2022-04-15T10:04:50Z</time>
      </trkpt>
      <trkpt lat="44.02003" lon="3.70357">
        <ele>463.9</ele>
        <time>2022-04-15T10:04:52Z</time>
      </trkpt>
      <trkpt lat="44.02004" lon="3.70353">
        <ele>463.6</ele>
        <time>2022-04-15T10:04:53Z</time>
      </trkpt>
      <trkpt lat="44.02005" lon="3.70348">
        <ele>463.3</ele>
        <time>2022-04-15T10:04:54Z</time>
      </trkpt>
      <trkpt lat="44.02007" lon="3.70343">
        <ele>462.9</ele>
        <time>2022-04-15T10:04:56Z</time>
      </trkpt>
      <trkpt lat="44.02009" lon="3.70338">
        <ele>462.5</ele>
        <time>2022-04-15T10:04:57Z</time>
      </trkpt>
      <trkpt lat="44.02011" lon="3.70332">
        <ele>462</ele>
        <time>2022-04-15T10:04:59Z</time>
      </trkpt>
      <trkpt lat="44.02012" lon="3.7033">
        <ele>461.8</ele>
        <time>2022-04-15T10:05:00Z</time>
      </trkpt>
      <trkpt lat="44.02013" lon="3.70328">
        <ele>461.7</ele>
        <time>2022-04-15T10:05:01Z</time>
      </trkpt>
      <trkpt lat="44.02015" lon="3.70324">
        <ele>461.3</ele>
        <time>2022-04-15T10:05:02Z</time>
      </trkpt>
      <trkpt lat="44.02016" lon="3.70323">
        <ele>461.2</ele>
        <time>2022-04-15T10:05:03Z</time>
      </trkpt>
      <trkpt lat="44.02018" lon="3.70319">
        <ele>460.9</ele>
        <time>2022-04-15T10:05:05Z</time>
      </trkpt>
      <trkpt lat="44.0202" lon="3.70316">
        <ele>460.5</ele>
        <time>2022-04-15T10:05:06Z</time>
      </trkpt>
      <trkpt lat="44.02021" lon="3.70312">
        <ele>460.2</ele>
        <time>2022-04-15T10:05:07Z</time>
      </trkpt>
      <trkpt lat="44.02021" lon="3.7031">
        <ele>460.1</ele>
        <time>2022-04-15T10:05:08Z</time>
      </trkpt>
      <trkpt lat="44.02022" lon="3.70305">
        <ele>459.8</ele>
        <time>2022-04-15T10:05:09Z</time>
      </trkpt>
      <trkpt lat="44.02022" lon="3.70304">
        <ele>459.7</ele>
        <time>2022-04-15T10:05:10Z</time>
      </trkpt>
      <trkpt lat="44.02022" lon="3.70297">
        <ele>459.2</ele>
        <time>2022-04-15T10:05:12Z</time>
      </trkpt>
      <trkpt lat="44.02022" lon="3.70296">
        <ele>459.1</ele>
        <time>2022-04-15T10:05:13Z</time>
      </trkpt>
      <trkpt lat="44.02022" lon="3.70294">
        <ele>459</ele>
        <time>2022-04-15T10:05:14Z</time>
      </trkpt>
      <trkpt lat="44.02021" lon="3.7029">
        <ele>458.7</ele>
        <time>2022-04-15T10:05:16Z</time>
      </trkpt>
      <trkpt lat="44.02021" lon="3.70286">
        <ele>458.4</ele>
        <time>2022-04-15T10:05:17Z</time>
      </trkpt>
      <trkpt lat="44.02021" lon="3.70281">
        <ele>458</ele>
        <time>2022-04-15T10:05:18Z</time>
      </trkpt>
      <trkpt lat="44.02021" lon="3.70279">
        <ele>457.9</ele>
        <time>2022-04-15T10:05:19Z</time>
      </trkpt>
      <trkpt lat="44.02021" lon="3.70274">
        <ele>457.6</ele>
        <time>2022-04-15T10:05:20Z</time>
      </trkpt>
      <trkpt lat="44.02021" lon="3.70273">
        <ele>457.4</ele>
        <time>2022-04-15T10:05:21Z</time>
      </trkpt>
      <trkpt lat="44.02021" lon="3.70267">
        <ele>457</ele>
        <time>2022-04-15T10:05:23Z</time>
      </trkpt>
      <trkpt lat="44.02021" lon="3.70263">
        <ele>456.7</ele>
        <time>2022-04-15T10:05:24Z</time>
      </trkpt>
      <trkpt lat="44.02021" lon="3.70261">
        <ele>456.6</ele>
        <time>2022-04-15T10:05:25Z</time>
      </trkpt>
      <trkpt lat="44.02022" lon="3.70257">
        <ele>456.3</ele>
        <time>2022-04-15T10:05:26Z</time>
      </trkpt>
      <trkpt lat="44.02022" lon="3.70256">
        <ele>456.2</ele>
        <time>2022-04-15T10:05:27Z</time>
      </trkpt>
      <trkpt lat="44.02023" lon="3.70251">
        <ele>455.9</ele>
        <time>2022-04-15T10:05:29Z</time>
      </trkpt>
      <trkpt lat="44.02023" lon="3.7025">
        <ele>455.8</ele>
        <time>2022-04-15T10:05:30Z</time>
      </trkpt>
      <trkpt lat="44.02023" lon="3.70248">
        <ele>455.6</ele>
        <time>2022-04-15T10:05:31Z</time>
      </trkpt>
      <trkpt lat="44.02024" lon="3.70245">
        <ele>455.5</ele>
        <time>2022-04-15T10:05:32Z</time>
      </trkpt>
      <trkpt lat="44.02025" lon="3.70243">
        <ele>455.2</ele>
        <time>2022-04-15T10:05:33Z</time>
      </trkpt>
      <trkpt lat="44.02025" lon="3.70239">
        <ele>455</ele>
        <time>2022-04-15T10:05:35Z</time>
      </trkpt>
      <trkpt lat="44.02026" lon="3.70236">
        <ele>454.8</ele>
        <time>2022-04-15T10:05:36Z</time>
      </trkpt>
      <trkpt lat="44.02027" lon="3.70232">
        <ele>454.4</ele>
        <time>2022-04-15T10:05:37Z</time>
      </trkpt>
      <trkpt lat="44.02029" lon="3.70228">
        <ele>454.1</ele>
        <time>2022-04-15T10:05:38Z</time>
      </trkpt>
      <trkpt lat="44.0203" lon="3.70224">
        <ele>453.8</ele>
        <time>2022-04-15T10:05:39Z</time>
      </trkpt>
      <trkpt lat="44.02032" lon="3.70218">
        <ele>453.4</ele>
        <time>2022-04-15T10:05:41Z</time>
      </trkpt>
      <trkpt lat="44.02032" lon="3.70216">
        <ele>453.2</ele>
        <time>2022-04-15T10:05:42Z</time>
      </trkpt>
      <trkpt lat="44.02033" lon="3.70214">
        <ele>453.1</ele>
        <time>2022-04-15T10:05:43Z</time>
      </trkpt>
      <trkpt lat="44.02033" lon="3.7021">
        <ele>452.8</ele>
        <time>2022-04-15T10:05:44Z</time>
      </trkpt>
      <trkpt lat="44.02033" lon="3.70206">
        <ele>452.5</ele>
        <time>2022-04-15T10:05:46Z</time>
      </trkpt>
      <trkpt lat="44.02033" lon="3.70201">
        <ele>452.2</ele>
        <time>2022-04-15T10:05:47Z</time>
      </trkpt>
      <trkpt lat="44.02033" lon="3.70195">
        <ele>451.7</ele>
        <time>2022-04-15T10:05:48Z</time>
      </trkpt>
      <trkpt lat="44.02033" lon="3.70189">
        <ele>451.2</ele>
        <time>2022-04-15T10:05:50Z</time>
      </trkpt>
      <trkpt lat="44.02033" lon="3.70184">
        <ele>450.9</ele>
        <time>2022-04-15T10:05:51Z</time>
      </trkpt>
      <trkpt lat="44.02033" lon="3.70179">
        <ele>450.6</ele>
        <time>2022-04-15T10:05:53Z</time>
      </trkpt>
      <trkpt lat="44.02033" lon="3.70175">
        <ele>450.3</ele>
        <time>2022-04-15T10:05:54Z</time>
      </trkpt>
      <trkpt lat="44.02032" lon="3.7017">
        <ele>450</ele>
        <time>2022-04-15T10:05:55Z</time>
      </trkpt>
      <trkpt lat="44.02031" lon="3.70167">
        <ele>449.7</ele>
        <time>2022-04-15T10:05:56Z</time>
      </trkpt>
      <trkpt lat="44.02031" lon="3.70163">
        <ele>449.4</ele>
        <time>2022-04-15T10:05:58Z</time>
      </trkpt>
      <trkpt lat="44.0203" lon="3.70157">
        <ele>449</ele>
        <time>2022-04-15T10:05:59Z</time>
      </trkpt>
      <trkpt lat="44.0203" lon="3.70153">
        <ele>448.7</ele>
        <time>2022-04-15T10:06:00Z</time>
      </trkpt>
      <trkpt lat="44.02029" lon="3.70151">
        <ele>448.6</ele>
        <time>2022-04-15T10:06:01Z</time>
      </trkpt>
      <trkpt lat="44.02029" lon="3.70149">
        <ele>448.4</ele>
        <time>2022-04-15T10:06:02Z</time>
      </trkpt>
      <trkpt lat="44.02029" lon="3.70146">
        <ele>448.2</ele>
        <time>2022-04-15T10:06:03Z</time>
      </trkpt>
      <trkpt lat="44.02029" lon="3.70142">
        <ele>447.9</ele>
        <time>2022-04-15T10:06:05Z</time>
      </trkpt>
      <trkpt lat="44.02029" lon="3.7014">
        <ele>447.7</ele>
        <time>2022-04-15T10:06:06Z</time>
      </trkpt>
      <trkpt lat="44.02029" lon="3.70136">
        <ele>447.4</ele>
        <time>2022-04-15T10:06:07Z</time>
      </trkpt>
      <trkpt lat="44.02029" lon="3.70134">
        <ele>447.3</ele>
        <time>2022-04-15T10:06:08Z</time>
      </trkpt>
      <trkpt lat="44.0203" lon="3.70129">
        <ele>447</ele>
        <time>2022-04-15T10:06:09Z</time>
      </trkpt>
      <trkpt lat="44.0203" lon="3.70128">
        <ele>446.9</ele>
        <time>2022-04-15T10:06:10Z</time>
      </trkpt>
      <trkpt lat="44.02031" lon="3.70122">
        <ele>446.5</ele>
        <time>2022-04-15T10:06:12Z</time>
      </trkpt>
      <trkpt lat="44.02031" lon="3.7012">
        <ele>446.3</ele>
        <time>2022-04-15T10:06:13Z</time>
      </trkpt>
      <trkpt lat="44.02032" lon="3.70113">
        <ele>445.8</ele>
        <time>2022-04-15T10:06:14Z</time>
      </trkpt>
      <trkpt lat="44.02032" lon="3.70111">
        <ele>445.7</ele>
        <time>2022-04-15T10:06:15Z</time>
      </trkpt>
      <trkpt lat="44.02033" lon="3.70105">
        <ele>445.2</ele>
        <time>2022-04-15T10:06:17Z</time>
      </trkpt>
      <trkpt lat="44.02034" lon="3.70099">
        <ele>444.8</ele>
        <time>2022-04-15T10:06:18Z</time>
      </trkpt>
      <trkpt lat="44.02036" lon="3.70095">
        <ele>444.5</ele>
        <time>2022-04-15T10:06:20Z</time>
      </trkpt>
      <trkpt lat="44.02037" lon="3.7009">
        <ele>444.1</ele>
        <time>2022-04-15T10:06:21Z</time>
      </trkpt>
      <trkpt lat="44.02037" lon="3.70086">
        <ele>443.8</ele>
        <time>2022-04-15T10:06:22Z</time>
      </trkpt>
      <trkpt lat="44.02038" lon="3.70081">
        <ele>443.5</ele>
        <time>2022-04-15T10:06:23Z</time>
      </trkpt>
      <trkpt lat="44.02039" lon="3.70077">
        <ele>443.2</ele>
        <time>2022-04-15T10:06:25Z</time>
      </trkpt>
      <trkpt lat="44.02039" lon="3.70072">
        <ele>442.8</ele>
        <time>2022-04-15T10:06:26Z</time>
      </trkpt>
      <trkpt lat="44.0204" lon="3.70067">
        <ele>442.5</ele>
        <time>2022-04-15T10:06:27Z</time>
      </trkpt>
      <trkpt lat="44.0204" lon="3.70066">
        <ele>442.3</ele>
        <time>2022-04-15T10:06:28Z</time>
      </trkpt>
      <trkpt lat="44.0204" lon="3.70059">
        <ele>441.9</ele>
        <time>2022-04-15T10:06:30Z</time>
      </trkpt>
      <trkpt lat="44.0204" lon="3.70057">
        <ele>441.7</ele>
        <time>2022-04-15T10:06:31Z</time>
      </trkpt>
      <trkpt lat="44.0204" lon="3.70054">
        <ele>441.5</ele>
        <time>2022-04-15T10:06:32Z</time>
      </trkpt>
      <trkpt lat="44.02041" lon="3.7005">
        <ele>441.2</ele>
        <time>2022-04-15T10:06:33Z</time>
      </trkpt>
      <trkpt lat="44.02041" lon="3.70049">
        <ele>441.2</ele>
        <time>2022-04-15T10:06:34Z</time>
      </trkpt>
      <trkpt lat="44.02041" lon="3.70047">
        <ele>441</ele>
        <time>2022-04-15T10:06:35Z</time>
      </trkpt>
      <trkpt lat="44.02041" lon="3.70044">
        <ele>440.8</ele>
        <time>2022-04-15T10:06:36Z</time>
      </trkpt>
      <trkpt lat="44.02042" lon="3.70038">
        <ele>440.4</ele>
        <time>2022-04-15T10:06:38Z</time>
      </trkpt>
      <trkpt lat="44.02043" lon="3.70037">
        <ele>440.3</ele>
        <time>2022-04-15T10:06:39Z</time>
      </trkpt>
      <trkpt lat="44.02043" lon="3.70035">
        <ele>440.1</ele>
        <time>2022-04-15T10:06:40Z</time>
      </trkpt>
      <trkpt lat="44.02043" lon="3.70034">
        <ele>440</ele>
        <time>2022-04-15T10:06:41Z</time>
      </trkpt>
      <trkpt lat="44.02044" lon="3.70029">
        <ele>439.7</ele>
        <time>2022-04-15T10:06:43Z</time>
      </trkpt>
      <trkpt lat="44.02045" lon="3.70023">
        <ele>439.3</ele>
        <time>2022-04-15T10:06:44Z</time>
      </trkpt>
      <trkpt lat="44.02046" lon="3.70018">
        <ele>438.9</ele>
        <time>2022-04-15T10:06:45Z</time>
      </trkpt>
      <trkpt lat="44.02046" lon="3.70016">
        <ele>438.7</ele>
        <time>2022-04-15T10:06:46Z</time>
      </trkpt>
      <trkpt lat="44.02047" lon="3.70012">
        <ele>438.4</ele>
        <time>2022-04-15T10:06:47Z</time>
      </trkpt>
      <trkpt lat="44.02048" lon="3.70007">
        <ele>438</ele>
        <time>2022-04-15T10:06:49Z</time>
      </trkpt>
      <trkpt lat="44.02049" lon="3.70001">
        <ele>437.6</ele>
        <time>2022-04-15T10:06:50Z</time>
      </trkpt>
      <trkpt lat="44.0205" lon="3.69999">
        <ele>437.5</ele>
        <time>2022-04-15T10:06:51Z</time>
      </trkpt>
      <trkpt lat="44.02051" lon="3.69994">
        <ele>437.1</ele>
        <time>2022-04-15T10:06:52Z</time>
      </trkpt>
      <trkpt lat="44.02053" lon="3.69987">
        <ele>436.6</ele>
        <time>2022-04-15T10:06:54Z</time>
      </trkpt>
      <trkpt lat="44.02055" lon="3.6998">
        <ele>436</ele>
        <time>2022-04-15T10:06:56Z</time>
      </trkpt>
      <trkpt lat="44.02056" lon="3.69975">
        <ele>435.6</ele>
        <time>2022-04-15T10:06:57Z</time>
      </trkpt>
      <trkpt lat="44.02057" lon="3.69971">
        <ele>435.4</ele>
        <time>2022-04-15T10:06:58Z</time>
      </trkpt>
      <trkpt lat="44.02058" lon="3.69966">
        <ele>435</ele>
        <time>2022-04-15T10:06:59Z</time>
      </trkpt>
      <trkpt lat="44.02058" lon="3.69962">
        <ele>434.7</ele>
        <time>2022-04-15T10:07:00Z</time>
      </trkpt>
      <trkpt lat="44.02059" lon="3.69956">
        <ele>434.3</ele>
        <time>2022-04-15T10:07:02Z</time>
      </trkpt>
      <trkpt lat="44.0206" lon="3.69951">
        <ele>433.9</ele>
        <time>2022-04-15T10:07:03Z</time>
      </trkpt>
      <trkpt lat="44.0206" lon="3.69949">
        <ele>433.8</ele>
        <time>2022-04-15T10:07:04Z</time>
      </trkpt>
      <trkpt lat="44.02061" lon="3.69944">
        <ele>433.4</ele>
        <time>2022-04-15T10:07:05Z</time>
      </trkpt>
      <trkpt lat="44.02062" lon="3.69939">
        <ele>433.1</ele>
        <time>2022-04-15T10:07:07Z</time>
      </trkpt>
      <trkpt lat="44.02062" lon="3.69934">
        <ele>432.7</ele>
        <time>2022-04-15T10:07:08Z</time>
      </trkpt>
      <trkpt lat="44.02062" lon="3.69933">
        <ele>432.6</ele>
        <time>2022-04-15T10:07:09Z</time>
      </trkpt>
      <trkpt lat="44.02063" lon="3.69927">
        <ele>432.2</ele>
        <time>2022-04-15T10:07:10Z</time>
      </trkpt>
      <trkpt lat="44.02063" lon="3.69925">
        <ele>432.1</ele>
        <time>2022-04-15T10:07:11Z</time>
      </trkpt>
      <trkpt lat="44.02063" lon="3.69922">
        <ele>431.8</ele>
        <time>2022-04-15T10:07:12Z</time>
      </trkpt>
      <trkpt lat="44.02064" lon="3.69917">
        <ele>431.5</ele>
        <time>2022-04-15T10:07:14Z</time>
      </trkpt>
      <trkpt lat="44.02064" lon="3.69913">
        <ele>431.2</ele>
        <time>2022-04-15T10:07:15Z</time>
      </trkpt>
      <trkpt lat="44.02064" lon="3.69909">
        <ele>430.9</ele>
        <time>2022-04-15T10:07:17Z</time>
      </trkpt>
      <trkpt lat="44.02064" lon="3.69905">
        <ele>430.6</ele>
        <time>2022-04-15T10:07:18Z</time>
      </trkpt>
      <trkpt lat="44.02065" lon="3.69899">
        <ele>430.2</ele>
        <time>2022-04-15T10:07:19Z</time>
      </trkpt>
      <trkpt lat="44.02065" lon="3.69895">
        <ele>429.9</ele>
        <time>2022-04-15T10:07:21Z</time>
      </trkpt>
      <trkpt lat="44.02065" lon="3.69892">
        <ele>429.6</ele>
        <time>2022-04-15T10:07:22Z</time>
      </trkpt>
      <trkpt lat="44.02066" lon="3.69887">
        <ele>429.3</ele>
        <time>2022-04-15T10:07:23Z</time>
      </trkpt>
      <trkpt lat="44.02066" lon="3.69885">
        <ele>429.2</ele>
        <time>2022-04-15T10:07:24Z</time>
      </trkpt>
      <trkpt lat="44.02066" lon="3.6988">
        <ele>428.8</ele>
        <time>2022-04-15T10:07:25Z</time>
      </trkpt>
      <trkpt lat="44.02066" lon="3.69878">
        <ele>428.7</ele>
        <time>2022-04-15T10:07:26Z</time>
      </trkpt>
      <trkpt lat="44.02066" lon="3.69875">
        <ele>428.4</ele>
        <time>2022-04-15T10:07:27Z</time>
      </trkpt>
      <trkpt lat="44.02067" lon="3.69869">
        <ele>428.1</ele>
        <time>2022-04-15T10:07:29Z</time>
      </trkpt>
      <trkpt lat="44.02066" lon="3.69864">
        <ele>427.7</ele>
        <time>2022-04-15T10:07:31Z</time>
      </trkpt>
      <trkpt lat="44.02066" lon="3.6986">
        <ele>427.4</ele>
        <time>2022-04-15T10:07:32Z</time>
      </trkpt>
      <trkpt lat="44.02068" lon="3.69855">
        <ele>427</ele>
        <time>2022-04-15T10:07:33Z</time>
      </trkpt>
      <trkpt lat="44.02069" lon="3.69854">
        <ele>426.9</ele>
        <time>2022-04-15T10:07:34Z</time>
      </trkpt>
      <trkpt lat="44.0207" lon="3.6985">
        <ele>426.6</ele>
        <time>2022-04-15T10:07:36Z</time>
      </trkpt>
      <trkpt lat="44.02071" lon="3.69849">
        <ele>426.5</ele>
        <time>2022-04-15T10:07:37Z</time>
      </trkpt>
      <trkpt lat="44.02073" lon="3.69848">
        <ele>426.3</ele>
        <time>2022-04-15T10:07:38Z</time>
      </trkpt>
      <trkpt lat="44.02074" lon="3.69847">
        <ele>426.2</ele>
        <time>2022-04-15T10:07:39Z</time>
      </trkpt>
      <trkpt lat="44.02075" lon="3.69846">
        <ele>426</ele>
        <time>2022-04-15T10:07:40Z</time>
      </trkpt>
      <trkpt lat="44.02077" lon="3.69845">
        <ele>425.8</ele>
        <time>2022-04-15T10:07:41Z</time>
      </trkpt>
      <trkpt lat="44.02079" lon="3.69844">
        <ele>425.6</ele>
        <time>2022-04-15T10:07:42Z</time>
      </trkpt>
      <trkpt lat="44.02081" lon="3.69842">
        <ele>425.4</ele>
        <time>2022-04-15T10:07:44Z</time>
      </trkpt>
      <trkpt lat="44.02083" lon="3.69839">
        <ele>425.1</ele>
        <time>2022-04-15T10:07:45Z</time>
      </trkpt>
      <trkpt lat="44.02085" lon="3.69836">
        <ele>424.8</ele>
        <time>2022-04-15T10:07:46Z</time>
      </trkpt>
      <trkpt lat="44.02089" lon="3.69833">
        <ele>424.1</ele>
        <time>2022-04-15T10:07:47Z</time>
      </trkpt>
      <trkpt lat="44.02092" lon="3.69829">
        <ele>423.5</ele>
        <time>2022-04-15T10:07:49Z</time>
      </trkpt>
      <trkpt lat="44.02096" lon="3.69826">
        <ele>422.8</ele>
        <time>2022-04-15T10:07:50Z</time>
      </trkpt>
      <trkpt lat="44.02099" lon="3.69824">
        <ele>422.4</ele>
        <time>2022-04-15T10:07:51Z</time>
      </trkpt>
      <trkpt lat="44.02102" lon="3.69821">
        <ele>422</ele>
        <time>2022-04-15T10:07:52Z</time>
      </trkpt>
      <trkpt lat="44.02105" lon="3.6982">
        <ele>421.6</ele>
        <time>2022-04-15T10:07:53Z</time>
      </trkpt>
      <trkpt lat="44.02109" lon="3.69818">
        <ele>421.3</ele>
        <time>2022-04-15T10:07:55Z</time>
      </trkpt>
      <trkpt lat="44.02113" lon="3.69816">
        <ele>420.9</ele>
        <time>2022-04-15T10:07:57Z</time>
      </trkpt>
      <trkpt lat="44.02116" lon="3.69815">
        <ele>420.6</ele>
        <time>2022-04-15T10:07:58Z</time>
      </trkpt>
      <trkpt lat="44.0212" lon="3.69814">
        <ele>420.4</ele>
        <time>2022-04-15T10:08:00Z</time>
      </trkpt>
      <trkpt lat="44.02124" lon="3.69813">
        <ele>420.1</ele>
        <time>2022-04-15T10:08:01Z</time>
      </trkpt>
      <trkpt lat="44.02127" lon="3.69812">
        <ele>419.9</ele>
        <time>2022-04-15T10:08:02Z</time>
      </trkpt>
      <trkpt lat="44.02129" lon="3.69811">
        <ele>419.8</ele>
        <time>2022-04-15T10:08:03Z</time>
      </trkpt>
      <trkpt lat="44.02132" lon="3.6981">
        <ele>419.6</ele>
        <time>2022-04-15T10:08:04Z</time>
      </trkpt>
      <trkpt lat="44.02134" lon="3.69809">
        <ele>419.6</ele>
        <time>2022-04-15T10:08:05Z</time>
      </trkpt>
      <trkpt lat="44.02137" lon="3.69808">
        <ele>419.4</ele>
        <time>2022-04-15T10:08:07Z</time>
      </trkpt>
      <trkpt lat="44.02139" lon="3.69808">
        <ele>419.3</ele>
        <time>2022-04-15T10:08:08Z</time>
      </trkpt>
      <trkpt lat="44.02142" lon="3.69806">
        <ele>419.1</ele>
        <time>2022-04-15T10:08:09Z</time>
      </trkpt>
      <trkpt lat="44.02143" lon="3.69806">
        <ele>419</ele>
        <time>2022-04-15T10:08:10Z</time>
      </trkpt>
      <trkpt lat="44.02146" lon="3.69805">
        <ele>418.7</ele>
        <time>2022-04-15T10:08:12Z</time>
      </trkpt>
      <trkpt lat="44.02149" lon="3.69804">
        <ele>418.5</ele>
        <time>2022-04-15T10:08:13Z</time>
      </trkpt>
      <trkpt lat="44.02152" lon="3.69804">
        <ele>418.3</ele>
        <time>2022-04-15T10:08:15Z</time>
      </trkpt>
      <trkpt lat="44.02155" lon="3.69803">
        <ele>417.9</ele>
        <time>2022-04-15T10:08:16Z</time>
      </trkpt>
      <trkpt lat="44.02159" lon="3.69804">
        <ele>417.5</ele>
        <time>2022-04-15T10:08:17Z</time>
      </trkpt>
      <trkpt lat="44.02161" lon="3.69804">
        <ele>417.3</ele>
        <time>2022-04-15T10:08:18Z</time>
      </trkpt>
      <trkpt lat="44.02164" lon="3.69805">
        <ele>417</ele>
        <time>2022-04-15T10:08:20Z</time>
      </trkpt>
      <trkpt lat="44.02167" lon="3.69807">
        <ele>416.5</ele>
        <time>2022-04-15T10:08:21Z</time>
      </trkpt>
      <trkpt lat="44.0217" lon="3.69809">
        <ele>416.1</ele>
        <time>2022-04-15T10:08:22Z</time>
      </trkpt>
      <trkpt lat="44.02171" lon="3.6981">
        <ele>415.9</ele>
        <time>2022-04-15T10:08:23Z</time>
      </trkpt>
      <trkpt lat="44.02174" lon="3.69812">
        <ele>415.5</ele>
        <time>2022-04-15T10:08:24Z</time>
      </trkpt>
      <trkpt lat="44.02175" lon="3.69813">
        <ele>415.3</ele>
        <time>2022-04-15T10:08:25Z</time>
      </trkpt>
      <trkpt lat="44.02178" lon="3.69814">
        <ele>415</ele>
        <time>2022-04-15T10:08:26Z</time>
      </trkpt>
      <trkpt lat="44.02179" lon="3.69814">
        <ele>414.8</ele>
        <time>2022-04-15T10:08:27Z</time>
      </trkpt>
      <trkpt lat="44.02181" lon="3.69815">
        <ele>414.6</ele>
        <time>2022-04-15T10:08:28Z</time>
      </trkpt>
      <trkpt lat="44.02184" lon="3.69818">
        <ele>414.1</ele>
        <time>2022-04-15T10:08:30Z</time>
      </trkpt>
      <trkpt lat="44.02186" lon="3.69819">
        <ele>413.9</ele>
        <time>2022-04-15T10:08:31Z</time>
      </trkpt>
      <trkpt lat="44.02187" lon="3.69824">
        <ele>413.4</ele>
        <time>2022-04-15T10:08:33Z</time>
      </trkpt>
      <trkpt lat="44.02188" lon="3.69826">
        <ele>413.3</ele>
        <time>2022-04-15T10:08:34Z</time>
      </trkpt>
      <trkpt lat="44.02189" lon="3.69827">
        <ele>413.2</ele>
        <time>2022-04-15T10:08:35Z</time>
      </trkpt>
      <trkpt lat="44.0219" lon="3.69827">
        <ele>413</ele>
        <time>2022-04-15T10:08:36Z</time>
      </trkpt>
      <trkpt lat="44.02191" lon="3.69828">
        <ele>412.9</ele>
        <time>2022-04-15T10:08:37Z</time>
      </trkpt>
      <trkpt lat="44.02192" lon="3.6983">
        <ele>412.8</ele>
        <time>2022-04-15T10:08:38Z</time>
      </trkpt>
      <trkpt lat="44.02193" lon="3.6983">
        <ele>412.7</ele>
        <time>2022-04-15T10:08:39Z</time>
      </trkpt>
      <trkpt lat="44.02193" lon="3.6983">
        <ele>412.6</ele>
        <time>2022-04-15T10:08:40Z</time>
      </trkpt>
      <trkpt lat="44.02194" lon="3.69829">
        <ele>412.6</ele>
        <time>2022-04-15T10:08:41Z</time>
      </trkpt>
      <trkpt lat="44.02192" lon="3.69826">
        <ele>412.3</ele>
        <time>2022-04-15T10:08:42Z</time>
      </trkpt>
      <trkpt lat="44.02192" lon="3.69825">
        <ele>412.2</ele>
        <time>2022-04-15T10:08:43Z</time>
      </trkpt>
      <trkpt lat="44.02192" lon="3.69823">
        <ele>412.1</ele>
        <time>2022-04-15T10:08:45Z</time>
      </trkpt>
      <trkpt lat="44.02192" lon="3.69823">
        <ele>412.1</ele>
        <time>2022-04-15T10:08:46Z</time>
      </trkpt>
      <trkpt lat="44.02191" lon="3.69823">
        <ele>412</ele>
        <time>2022-04-15T10:08:47Z</time>
      </trkpt>
      <trkpt lat="44.02191" lon="3.69823">
        <ele>412</ele>
        <time>2022-04-15T10:08:48Z</time>
      </trkpt>
      <trkpt lat="44.02192" lon="3.69824">
        <ele>412</ele>
        <time>2022-04-15T10:08:49Z</time>
      </trkpt>
      <trkpt lat="44.02192" lon="3.69824">
        <ele>412</ele>
        <time>2022-04-15T10:08:50Z</time>
      </trkpt>
      <trkpt lat="44.02192" lon="3.69824">
        <ele>412</ele>
        <time>2022-04-15T10:08:51Z</time>
      </trkpt>
      <trkpt lat="44.02192" lon="3.69824">
        <ele>412</ele>
        <time>2022-04-15T10:08:53Z</time>
      </trkpt>
      <trkpt lat="44.02192" lon="3.69825">
        <ele>411.9</ele>
        <time>2022-04-15T10:08:54Z</time>
      </trkpt>
      <trkpt lat="44.02194" lon="3.69828">
        <ele>411.6</ele>
        <time>2022-04-15T10:08:55Z</time>
      </trkpt>
      <trkpt lat="44.02196" lon="3.69831">
        <ele>411.3</ele>
        <time>2022-04-15T10:08:56Z</time>
      </trkpt>
      <trkpt lat="44.02197" lon="3.69832">
        <ele>411.2</ele>
        <time>2022-04-15T10:08:57Z</time>
      </trkpt>
      <trkpt lat="44.02197" lon="3.69831">
        <ele>411.1</ele>
        <time>2022-04-15T10:08:58Z</time>
      </trkpt>
      <trkpt lat="44.02197" lon="3.69835">
        <ele>410.8</ele>
        <time>2022-04-15T10:08:59Z</time>
      </trkpt>
      <trkpt lat="44.02198" lon="3.69837">
        <ele>410.6</ele>
        <time>2022-04-15T10:09:01Z</time>
      </trkpt>
      <trkpt lat="44.022" lon="3.6984">
        <ele>410.3</ele>
        <time>2022-04-15T10:09:02Z</time>
      </trkpt>
      <trkpt lat="44.02203" lon="3.69844">
        <ele>410</ele>
        <time>2022-04-15T10:09:03Z</time>
      </trkpt>
      <trkpt lat="44.02204" lon="3.69845">
        <ele>409.9</ele>
        <time>2022-04-15T10:09:04Z</time>
      </trkpt>
      <trkpt lat="44.02207" lon="3.69848">
        <ele>409.6</ele>
        <time>2022-04-15T10:09:05Z</time>
      </trkpt>
      <trkpt lat="44.0221" lon="3.69852">
        <ele>409.3</ele>
        <time>2022-04-15T10:09:06Z</time>
      </trkpt>
      <trkpt lat="44.02211" lon="3.69853">
        <ele>409.2</ele>
        <time>2022-04-15T10:09:07Z</time>
      </trkpt>
      <trkpt lat="44.02214" lon="3.69857">
        <ele>408.8</ele>
        <time>2022-04-15T10:09:09Z</time>
      </trkpt>
      <trkpt lat="44.02217" lon="3.6986">
        <ele>408.5</ele>
        <time>2022-04-15T10:09:10Z</time>
      </trkpt>
      <trkpt lat="44.02219" lon="3.69864">
        <ele>408.2</ele>
        <time>2022-04-15T10:09:11Z</time>
      </trkpt>
      <trkpt lat="44.0222" lon="3.69865">
        <ele>408</ele>
        <time>2022-04-15T10:09:12Z</time>
      </trkpt>
      <trkpt lat="44.02222" lon="3.69869">
        <ele>407.8</ele>
        <time>2022-04-15T10:09:13Z</time>
      </trkpt>
      <trkpt lat="44.02224" lon="3.69874">
        <ele>407.4</ele>
        <time>2022-04-15T10:09:15Z</time>
      </trkpt>
      <trkpt lat="44.02227" lon="3.69879">
        <ele>407</ele>
        <time>2022-04-15T10:09:16Z</time>
      </trkpt>
      <trkpt lat="44.02229" lon="3.69882">
        <ele>406.7</ele>
        <time>2022-04-15T10:09:17Z</time>
      </trkpt>
      <trkpt lat="44.02231" lon="3.69885">
        <ele>406.4</ele>
        <time>2022-04-15T10:09:18Z</time>
      </trkpt>
      <trkpt lat="44.02234" lon="3.6989">
        <ele>406</ele>
        <time>2022-04-15T10:09:19Z</time>
      </trkpt>
      <trkpt lat="44.02237" lon="3.69895">
        <ele>405.5</ele>
        <time>2022-04-15T10:09:21Z</time>
      </trkpt>
      <trkpt lat="44.02239" lon="3.69898">
        <ele>405.3</ele>
        <time>2022-04-15T10:09:22Z</time>
      </trkpt>
      <trkpt lat="44.0224" lon="3.69902">
        <ele>404.9</ele>
        <time>2022-04-15T10:09:23Z</time>
      </trkpt>
      <trkpt lat="44.02241" lon="3.69903">
        <ele>404.8</ele>
        <time>2022-04-15T10:09:24Z</time>
      </trkpt>
      <trkpt lat="44.02242" lon="3.69907">
        <ele>404.4</ele>
        <time>2022-04-15T10:09:25Z</time>
      </trkpt>
      <trkpt lat="44.02243" lon="3.69908">
        <ele>404.3</ele>
        <time>2022-04-15T10:09:26Z</time>
      </trkpt>
      <trkpt lat="44.02244" lon="3.69913">
        <ele>403.9</ele>
        <time>2022-04-15T10:09:27Z</time>
      </trkpt>
      <trkpt lat="44.02244" lon="3.69914">
        <ele>403.8</ele>
        <time>2022-04-15T10:09:28Z</time>
      </trkpt>
      <trkpt lat="44.02246" lon="3.69917">
        <ele>403.5</ele>
        <time>2022-04-15T10:09:29Z</time>
      </trkpt>
      <trkpt lat="44.02246" lon="3.69919">
        <ele>403.3</ele>
        <time>2022-04-15T10:09:30Z</time>
      </trkpt>
      <trkpt lat="44.02247" lon="3.69923">
        <ele>403</ele>
        <time>2022-04-15T10:09:31Z</time>
      </trkpt>
      <trkpt lat="44.02248" lon="3.69925">
        <ele>402.8</ele>
        <time>2022-04-15T10:09:32Z</time>
      </trkpt>
      <trkpt lat="44.02249" lon="3.69929">
        <ele>402.5</ele>
        <time>2022-04-15T10:09:34Z</time>
      </trkpt>
      <trkpt lat="44.02251" lon="3.69933">
        <ele>402.2</ele>
        <time>2022-04-15T10:09:35Z</time>
      </trkpt>
      <trkpt lat="44.02253" lon="3.69936">
        <ele>401.9</ele>
        <time>2022-04-15T10:09:36Z</time>
      </trkpt>
      <trkpt lat="44.02255" lon="3.69939">
        <ele>401.6</ele>
        <time>2022-04-15T10:09:37Z</time>
      </trkpt>
      <trkpt lat="44.02257" lon="3.69943">
        <ele>401.3</ele>
        <time>2022-04-15T10:09:38Z</time>
      </trkpt>
      <trkpt lat="44.02258" lon="3.69945">
        <ele>401.2</ele>
        <time>2022-04-15T10:09:39Z</time>
      </trkpt>
      <trkpt lat="44.0226" lon="3.69948">
        <ele>400.9</ele>
        <time>2022-04-15T10:09:40Z</time>
      </trkpt>
      <trkpt lat="44.02262" lon="3.69951">
        <ele>400.7</ele>
        <time>2022-04-15T10:09:42Z</time>
      </trkpt>
      <trkpt lat="44.02264" lon="3.69954">
        <ele>400.4</ele>
        <time>2022-04-15T10:09:43Z</time>
      </trkpt>
      <trkpt lat="44.02266" lon="3.69957">
        <ele>400.1</ele>
        <time>2022-04-15T10:09:44Z</time>
      </trkpt>
      <trkpt lat="44.02268" lon="3.69961">
        <ele>399.7</ele>
        <time>2022-04-15T10:09:45Z</time>
      </trkpt>
      <trkpt lat="44.02269" lon="3.69963">
        <ele>399.6</ele>
        <time>2022-04-15T10:09:46Z</time>
      </trkpt>
      <trkpt lat="44.02271" lon="3.69967">
        <ele>399.1</ele>
        <time>2022-04-15T10:09:48Z</time>
      </trkpt>
      <trkpt lat="44.02274" lon="3.6997">
        <ele>398.7</ele>
        <time>2022-04-15T10:09:50Z</time>
      </trkpt>
      <trkpt lat="44.02276" lon="3.69972">
        <ele>398.4</ele>
        <time>2022-04-15T10:09:51Z</time>
      </trkpt>
      <trkpt lat="44.02279" lon="3.69975">
        <ele>398.1</ele>
        <time>2022-04-15T10:09:52Z</time>
      </trkpt>
      <trkpt lat="44.0228" lon="3.69976">
        <ele>398</ele>
        <time>2022-04-15T10:09:53Z</time>
      </trkpt>
      <trkpt lat="44.02283" lon="3.69978">
        <ele>397.7</ele>
        <time>2022-04-15T10:09:55Z</time>
      </trkpt>
      <trkpt lat="44.02285" lon="3.69981">
        <ele>397.5</ele>
        <time>2022-04-15T10:09:56Z</time>
      </trkpt>
      <trkpt lat="44.02289" lon="3.69983">
        <ele>397.2</ele>
        <time>2022-04-15T10:09:57Z</time>
      </trkpt>
      <trkpt lat="44.0229" lon="3.69984">
        <ele>397.1</ele>
        <time>2022-04-15T10:09:58Z</time>
      </trkpt>
      <trkpt lat="44.02292" lon="3.69987">
        <ele>396.9</ele>
        <time>2022-04-15T10:09:59Z</time>
      </trkpt>
      <trkpt lat="44.02294" lon="3.6999">
        <ele>396.7</ele>
        <time>2022-04-15T10:10:01Z</time>
      </trkpt>
      <trkpt lat="44.02297" lon="3.69993">
        <ele>396.5</ele>
        <time>2022-04-15T10:10:02Z</time>
      </trkpt>
      <trkpt lat="44.02299" lon="3.69997">
        <ele>396.2</ele>
        <time>2022-04-15T10:10:03Z</time>
      </trkpt>
      <trkpt lat="44.023" lon="3.69998">
        <ele>396.1</ele>
        <time>2022-04-15T10:10:04Z</time>
      </trkpt>
      <trkpt lat="44.02302" lon="3.70001">
        <ele>395.9</ele>
        <time>2022-04-15T10:10:06Z</time>
      </trkpt>
      <trkpt lat="44.02304" lon="3.70005">
        <ele>395.7</ele>
        <time>2022-04-15T10:10:07Z</time>
      </trkpt>
      <trkpt lat="44.02306" lon="3.70009">
        <ele>395.5</ele>
        <time>2022-04-15T10:10:08Z</time>
      </trkpt>
      <trkpt lat="44.02307" lon="3.7001">
        <ele>395.4</ele>
        <time>2022-04-15T10:10:09Z</time>
      </trkpt>
      <trkpt lat="44.02308" lon="3.70014">
        <ele>395.2</ele>
        <time>2022-04-15T10:10:10Z</time>
      </trkpt>
      <trkpt lat="44.02312" lon="3.70018">
        <ele>394.9</ele>
        <time>2022-04-15T10:10:12Z</time>
      </trkpt>
      <trkpt lat="44.02313" lon="3.7002">
        <ele>394.8</ele>
        <time>2022-04-15T10:10:13Z</time>
      </trkpt>
      <trkpt lat="44.02314" lon="3.70021">
        <ele>394.7</ele>
        <time>2022-04-15T10:10:14Z</time>
      </trkpt>
      <trkpt lat="44.02316" lon="3.70024">
        <ele>394.4</ele>
        <time>2022-04-15T10:10:15Z</time>
      </trkpt>
      <trkpt lat="44.02319" lon="3.70027">
        <ele>394.2</ele>
        <time>2022-04-15T10:10:17Z</time>
      </trkpt>
      <trkpt lat="44.02322" lon="3.70029">
        <ele>393.9</ele>
        <time>2022-04-15T10:10:19Z</time>
      </trkpt>
      <trkpt lat="44.02325" lon="3.70031">
        <ele>393.6</ele>
        <time>2022-04-15T10:10:20Z</time>
      </trkpt>
      <trkpt lat="44.02327" lon="3.70034">
        <ele>393.2</ele>
        <time>2022-04-15T10:10:22Z</time>
      </trkpt>
      <trkpt lat="44.0233" lon="3.70037">
        <ele>392.9</ele>
        <time>2022-04-15T10:10:23Z</time>
      </trkpt>
      <trkpt lat="44.02333" lon="3.7004">
        <ele>392.6</ele>
        <time>2022-04-15T10:10:24Z</time>
      </trkpt>
      <trkpt lat="44.02334" lon="3.70041">
        <ele>392.5</ele>
        <time>2022-04-15T10:10:25Z</time>
      </trkpt>
      <trkpt lat="44.02336" lon="3.70044">
        <ele>392.2</ele>
        <time>2022-04-15T10:10:26Z</time>
      </trkpt>
      <trkpt lat="44.02338" lon="3.70048">
        <ele>391.8</ele>
        <time>2022-04-15T10:10:28Z</time>
      </trkpt>
      <trkpt lat="44.02341" lon="3.70052">
        <ele>391.4</ele>
        <time>2022-04-15T10:10:30Z</time>
      </trkpt>
      <trkpt lat="44.02342" lon="3.70053">
        <ele>391.2</ele>
        <time>2022-04-15T10:10:31Z</time>
      </trkpt>
      <trkpt lat="44.02344" lon="3.70055">
        <ele>391</ele>
        <time>2022-04-15T10:10:32Z</time>
      </trkpt>
      <trkpt lat="44.02345" lon="3.70057">
        <ele>390.8</ele>
        <time>2022-04-15T10:10:33Z</time>
      </trkpt>
      <trkpt lat="44.02346" lon="3.70059">
        <ele>390.6</ele>
        <time>2022-04-15T10:10:34Z</time>
      </trkpt>
      <trkpt lat="44.02346" lon="3.70062">
        <ele>390.3</ele>
        <time>2022-04-15T10:10:35Z</time>
      </trkpt>
      <trkpt lat="44.02348" lon="3.70065">
        <ele>389.9</ele>
        <time>2022-04-15T10:10:37Z</time>
      </trkpt>
      <trkpt lat="44.02349" lon="3.70068">
        <ele>389.6</ele>
        <time>2022-04-15T10:10:38Z</time>
      </trkpt>
      <trkpt lat="44.02349" lon="3.70069">
        <ele>389.4</ele>
        <time>2022-04-15T10:10:39Z</time>
      </trkpt>
      <trkpt lat="44.0235" lon="3.70071">
        <ele>389.2</ele>
        <time>2022-04-15T10:10:40Z</time>
      </trkpt>
      <trkpt lat="44.02351" lon="3.70072">
        <ele>389</ele>
        <time>2022-04-15T10:10:42Z</time>
      </trkpt>
      <trkpt lat="44.02352" lon="3.70074">
        <ele>388.8</ele>
        <time>2022-04-15T10:10:43Z</time>
      </trkpt>
      <trkpt lat="44.02353" lon="3.70075">
        <ele>388.7</ele>
        <time>2022-04-15T10:10:44Z</time>
      </trkpt>
      <trkpt lat="44.02354" lon="3.70075">
        <ele>388.5</ele>
        <time>2022-04-15T10:10:45Z</time>
      </trkpt>
      <trkpt lat="44.02355" lon="3.70076">
        <ele>388.4</ele>
        <time>2022-04-15T10:10:46Z</time>
      </trkpt>
      <trkpt lat="44.02357" lon="3.70077">
        <ele>388.2</ele>
        <time>2022-04-15T10:10:48Z</time>
      </trkpt>
      <trkpt lat="44.02359" lon="3.70078">
        <ele>387.9</ele>
        <time>2022-04-15T10:10:49Z</time>
      </trkpt>
      <trkpt lat="44.0236" lon="3.70078">
        <ele>387.8</ele>
        <time>2022-04-15T10:10:50Z</time>
      </trkpt>
      <trkpt lat="44.02363" lon="3.7008">
        <ele>387.4</ele>
        <time>2022-04-15T10:10:51Z</time>
      </trkpt>
      <trkpt lat="44.02365" lon="3.7008">
        <ele>387.2</ele>
        <time>2022-04-15T10:10:53Z</time>
      </trkpt>
      <trkpt lat="44.02366" lon="3.70081">
        <ele>387</ele>
        <time>2022-04-15T10:10:54Z</time>
      </trkpt>
      <trkpt lat="44.02368" lon="3.70082">
        <ele>386.8</ele>
        <time>2022-04-15T10:10:55Z</time>
      </trkpt>
      <trkpt lat="44.02371" lon="3.70083">
        <ele>386.4</ele>
        <time>2022-04-15T10:10:56Z</time>
      </trkpt>
      <trkpt lat="44.02375" lon="3.70085">
        <ele>385.9</ele>
        <time>2022-04-15T10:10:58Z</time>
      </trkpt>
      <trkpt lat="44.0238" lon="3.70086">
        <ele>385.2</ele>
        <time>2022-04-15T10:11:00Z</time>
      </trkpt>
      <trkpt lat="44.02385" lon="3.70089">
        <ele>384.4</ele>
        <time>2022-04-15T10:11:01Z</time>
      </trkpt>
      <trkpt lat="44.0239" lon="3.70091">
        <ele>383.8</ele>
        <time>2022-04-15T10:11:02Z</time>
      </trkpt>
      <trkpt lat="44.02394" lon="3.70094">
        <ele>383.2</ele>
        <time>2022-04-15T10:11:04Z</time>
      </trkpt>
      <trkpt lat="44.02398" lon="3.70097">
        <ele>382.6</ele>
        <time>2022-04-15T10:11:05Z</time>
      </trkpt>
      <trkpt lat="44.02401" lon="3.701">
        <ele>382.2</ele>
        <time>2022-04-15T10:11:06Z</time>
      </trkpt>
      <trkpt lat="44.02404" lon="3.70103">
        <ele>381.7</ele>
        <time>2022-04-15T10:11:07Z</time>
      </trkpt>
      <trkpt lat="44.02408" lon="3.70107">
        <ele>381.2</ele>
        <time>2022-04-15T10:11:09Z</time>
      </trkpt>
      <trkpt lat="44.0241" lon="3.7011">
        <ele>380.8</ele>
        <time>2022-04-15T10:11:10Z</time>
      </trkpt>
      <trkpt lat="44.02411" lon="3.70112">
        <ele>380.7</ele>
        <time>2022-04-15T10:11:11Z</time>
      </trkpt>
      <trkpt lat="44.02414" lon="3.70116">
        <ele>380.3</ele>
        <time>2022-04-15T10:11:12Z</time>
      </trkpt>
      <trkpt lat="44.02414" lon="3.70118">
        <ele>380.2</ele>
        <time>2022-04-15T10:11:13Z</time>
      </trkpt>
      <trkpt lat="44.02416" lon="3.70124">
        <ele>379.8</ele>
        <time>2022-04-15T10:11:15Z</time>
      </trkpt>
      <trkpt lat="44.02417" lon="3.70126">
        <ele>379.6</ele>
        <time>2022-04-15T10:11:16Z</time>
      </trkpt>
      <trkpt lat="44.02417" lon="3.70127">
        <ele>379.5</ele>
        <time>2022-04-15T10:11:17Z</time>
      </trkpt>
      <trkpt lat="44.02417" lon="3.70132">
        <ele>379.2</ele>
        <time>2022-04-15T10:11:18Z</time>
      </trkpt>
      <trkpt lat="44.02418" lon="3.70133">
        <ele>379.1</ele>
        <time>2022-04-15T10:11:19Z</time>
      </trkpt>
      <trkpt lat="44.02418" lon="3.70137">
        <ele>378.9</ele>
        <time>2022-04-15T10:11:20Z</time>
      </trkpt>
      <trkpt lat="44.02417" lon="3.7014">
        <ele>378.6</ele>
        <time>2022-04-15T10:11:22Z</time>
      </trkpt>
      <trkpt lat="44.02417" lon="3.70144">
        <ele>378.4</ele>
        <time>2022-04-15T10:11:23Z</time>
      </trkpt>
      <trkpt lat="44.02416" lon="3.70149">
        <ele>378</ele>
        <time>2022-04-15T10:11:24Z</time>
      </trkpt>
      <trkpt lat="44.02415" lon="3.70151">
        <ele>377.9</ele>
        <time>2022-04-15T10:11:25Z</time>
      </trkpt>
      <trkpt lat="44.02414" lon="3.70156">
        <ele>377.6</ele>
        <time>2022-04-15T10:11:26Z</time>
      </trkpt>
      <trkpt lat="44.02413" lon="3.70157">
        <ele>377.4</ele>
        <time>2022-04-15T10:11:27Z</time>
      </trkpt>
      <trkpt lat="44.02411" lon="3.70162">
        <ele>377</ele>
        <time>2022-04-15T10:11:29Z</time>
      </trkpt>
      <trkpt lat="44.02408" lon="3.70165">
        <ele>376.7</ele>
        <time>2022-04-15T10:11:30Z</time>
      </trkpt>
      <trkpt lat="44.02407" lon="3.70166">
        <ele>376.5</ele>
        <time>2022-04-15T10:11:31Z</time>
      </trkpt>
      <trkpt lat="44.02404" lon="3.7017">
        <ele>376</ele>
        <time>2022-04-15T10:11:32Z</time>
      </trkpt>
      <trkpt lat="44.02402" lon="3.70174">
        <ele>375.5</ele>
        <time>2022-04-15T10:11:34Z</time>
      </trkpt>
      <trkpt lat="44.024" lon="3.70178">
        <ele>375.1</ele>
        <time>2022-04-15T10:11:36Z</time>
      </trkpt>
      <trkpt lat="44.024" lon="3.70183">
        <ele>374.6</ele>
        <time>2022-04-15T10:11:37Z</time>
      </trkpt>
      <trkpt lat="44.02402" lon="3.70189">
        <ele>374.1</ele>
        <time>2022-04-15T10:11:39Z</time>
      </trkpt>
      <trkpt lat="44.02403" lon="3.7019">
        <ele>373.9</ele>
        <time>2022-04-15T10:11:41Z</time>
      </trkpt>
      <trkpt lat="44.02405" lon="3.70191">
        <ele>373.7</ele>
        <time>2022-04-15T10:11:42Z</time>
      </trkpt>
      <trkpt lat="44.02406" lon="3.70193">
        <ele>373.6</ele>
        <time>2022-04-15T10:11:43Z</time>
      </trkpt>
      <trkpt lat="44.02409" lon="3.70194">
        <ele>373.3</ele>
        <time>2022-04-15T10:11:45Z</time>
      </trkpt>
      <trkpt lat="44.0241" lon="3.70194">
        <ele>373.2</ele>
        <time>2022-04-15T10:11:46Z</time>
      </trkpt>
      <trkpt lat="44.02411" lon="3.70195">
        <ele>373</ele>
        <time>2022-04-15T10:11:47Z</time>
      </trkpt>
      <trkpt lat="44.02413" lon="3.70195">
        <ele>372.9</ele>
        <time>2022-04-15T10:11:48Z</time>
      </trkpt>
      <trkpt lat="44.02416" lon="3.70196">
        <ele>372.6</ele>
        <time>2022-04-15T10:11:49Z</time>
      </trkpt>
      <trkpt lat="44.02417" lon="3.70196">
        <ele>372.5</ele>
        <time>2022-04-15T10:11:50Z</time>
      </trkpt>
      <trkpt lat="44.02422" lon="3.70196">
        <ele>372.2</ele>
        <time>2022-04-15T10:11:52Z</time>
      </trkpt>
      <trkpt lat="44.02423" lon="3.70196">
        <ele>372</ele>
        <time>2022-04-15T10:11:53Z</time>
      </trkpt>
      <trkpt lat="44.02425" lon="3.70197">
        <ele>371.9</ele>
        <time>2022-04-15T10:11:54Z</time>
      </trkpt>
      <trkpt lat="44.02428" lon="3.70197">
        <ele>371.7</ele>
        <time>2022-04-15T10:11:56Z</time>
      </trkpt>
      <trkpt lat="44.02432" lon="3.70198">
        <ele>371.3</ele>
        <time>2022-04-15T10:11:58Z</time>
      </trkpt>
      <trkpt lat="44.02436" lon="3.70198">
        <ele>371</ele>
        <time>2022-04-15T10:11:59Z</time>
      </trkpt>
      <trkpt lat="44.02439" lon="3.70199">
        <ele>370.7</ele>
        <time>2022-04-15T10:12:00Z</time>
      </trkpt>
      <trkpt lat="44.02442" lon="3.70199">
        <ele>370.5</ele>
        <time>2022-04-15T10:12:01Z</time>
      </trkpt>
      <trkpt lat="44.02445" lon="3.70199">
        <ele>370.2</ele>
        <time>2022-04-15T10:12:03Z</time>
      </trkpt>
      <trkpt lat="44.02448" lon="3.70199">
        <ele>369.9</ele>
        <time>2022-04-15T10:12:04Z</time>
      </trkpt>
      <trkpt lat="44.02453" lon="3.70199">
        <ele>369.6</ele>
        <time>2022-04-15T10:12:06Z</time>
      </trkpt>
      <trkpt lat="44.02456" lon="3.70199">
        <ele>369.2</ele>
        <time>2022-04-15T10:12:08Z</time>
      </trkpt>
      <trkpt lat="44.02459" lon="3.702">
        <ele>369</ele>
        <time>2022-04-15T10:12:09Z</time>
      </trkpt>
      <trkpt lat="44.02463" lon="3.702">
        <ele>368.7</ele>
        <time>2022-04-15T10:12:10Z</time>
      </trkpt>
      <trkpt lat="44.02464" lon="3.70199">
        <ele>368.6</ele>
        <time>2022-04-15T10:12:11Z</time>
      </trkpt>
      <trkpt lat="44.02467" lon="3.70199">
        <ele>368.3</ele>
        <time>2022-04-15T10:12:12Z</time>
      </trkpt>
      <trkpt lat="44.02468" lon="3.70199">
        <ele>368.2</ele>
        <time>2022-04-15T10:12:13Z</time>
      </trkpt>
      <trkpt lat="44.02471" lon="3.70199">
        <ele>368</ele>
        <time>2022-04-15T10:12:14Z</time>
      </trkpt>
      <trkpt lat="44.02475" lon="3.70201">
        <ele>367.6</ele>
        <time>2022-04-15T10:12:16Z</time>
      </trkpt>
      <trkpt lat="44.02477" lon="3.70201">
        <ele>367.5</ele>
        <time>2022-04-15T10:12:17Z</time>
      </trkpt>
      <trkpt lat="44.02478" lon="3.70202">
        <ele>367.3</ele>
        <time>2022-04-15T10:12:18Z</time>
      </trkpt>
      <trkpt lat="44.02482" lon="3.70204">
        <ele>367</ele>
        <time>2022-04-15T10:12:20Z</time>
      </trkpt>
      <trkpt lat="44.02486" lon="3.70207">
        <ele>366.6</ele>
        <time>2022-04-15T10:12:22Z</time>
      </trkpt>
      <trkpt lat="44.02487" lon="3.70209">
        <ele>366.4</ele>
        <time>2022-04-15T10:12:23Z</time>
      </trkpt>
      <trkpt lat="44.02488" lon="3.70211">
        <ele>366.3</ele>
        <time>2022-04-15T10:12:24Z</time>
      </trkpt>
      <trkpt lat="44.02489" lon="3.70213">
        <ele>366.1</ele>
        <time>2022-04-15T10:12:25Z</time>
      </trkpt>
      <trkpt lat="44.0249" lon="3.70215">
        <ele>365.9</ele>
        <time>2022-04-15T10:12:27Z</time>
      </trkpt>
      <trkpt lat="44.02491" lon="3.70218">
        <ele>365.6</ele>
        <time>2022-04-15T10:12:28Z</time>
      </trkpt>
      <trkpt lat="44.02492" lon="3.70219">
        <ele>365.5</ele>
        <time>2022-04-15T10:12:29Z</time>
      </trkpt>
      <trkpt lat="44.02494" lon="3.70223">
        <ele>365.2</ele>
        <time>2022-04-15T10:12:30Z</time>
      </trkpt>
      <trkpt lat="44.02495" lon="3.70225">
        <ele>365.1</ele>
        <time>2022-04-15T10:12:31Z</time>
      </trkpt>
      <trkpt lat="44.02496" lon="3.70229">
        <ele>364.7</ele>
        <time>2022-04-15T10:12:33Z</time>
      </trkpt>
      <trkpt lat="44.02497" lon="3.7023">
        <ele>364.6</ele>
        <time>2022-04-15T10:12:34Z</time>
      </trkpt>
      <trkpt lat="44.02498" lon="3.70237">
        <ele>364.1</ele>
        <time>2022-04-15T10:12:36Z</time>
      </trkpt>
      <trkpt lat="44.02498" lon="3.70239">
        <ele>363.9</ele>
        <time>2022-04-15T10:12:37Z</time>
      </trkpt>
      <trkpt lat="44.02499" lon="3.70241">
        <ele>363.7</ele>
        <time>2022-04-15T10:12:38Z</time>
      </trkpt>
      <trkpt lat="44.02499" lon="3.70247">
        <ele>363.3</ele>
        <time>2022-04-15T10:12:39Z</time>
      </trkpt>
      <trkpt lat="44.025" lon="3.70252">
        <ele>362.9</ele>
        <time>2022-04-15T10:12:40Z</time>
      </trkpt>
      <trkpt lat="44.02501" lon="3.70257">
        <ele>362.5</ele>
        <time>2022-04-15T10:12:41Z</time>
      </trkpt>
      <trkpt lat="44.02502" lon="3.70262">
        <ele>362.2</ele>
        <time>2022-04-15T10:12:42Z</time>
      </trkpt>
      <trkpt lat="44.02503" lon="3.70267">
        <ele>361.8</ele>
        <time>2022-04-15T10:12:43Z</time>
      </trkpt>
      <trkpt lat="44.02505" lon="3.70273">
        <ele>361.5</ele>
        <time>2022-04-15T10:12:45Z</time>
      </trkpt>
      <trkpt lat="44.02505" lon="3.70274">
        <ele>361.4</ele>
        <time>2022-04-15T10:12:46Z</time>
      </trkpt>
      <trkpt lat="44.02506" lon="3.70276">
        <ele>361.3</ele>
        <time>2022-04-15T10:12:47Z</time>
      </trkpt>
      <trkpt lat="44.02507" lon="3.7028">
        <ele>361.1</ele>
        <time>2022-04-15T10:12:48Z</time>
      </trkpt>
      <trkpt lat="44.02507" lon="3.70281">
        <ele>361</ele>
        <time>2022-04-15T10:12:49Z</time>
      </trkpt>
      <trkpt lat="44.02509" lon="3.70285">
        <ele>360.8</ele>
        <time>2022-04-15T10:12:51Z</time>
      </trkpt>
      <trkpt lat="44.02509" lon="3.70286">
        <ele>360.8</ele>
        <time>2022-04-15T10:12:52Z</time>
      </trkpt>
      <trkpt lat="44.02511" lon="3.70291">
        <ele>360.6</ele>
        <time>2022-04-15T10:12:53Z</time>
      </trkpt>
      <trkpt lat="44.02512" lon="3.70292">
        <ele>360.6</ele>
        <time>2022-04-15T10:12:54Z</time>
      </trkpt>
      <trkpt lat="44.02514" lon="3.70297">
        <ele>360.4</ele>
        <time>2022-04-15T10:12:55Z</time>
      </trkpt>
      <trkpt lat="44.02515" lon="3.70299">
        <ele>360.3</ele>
        <time>2022-04-15T10:12:56Z</time>
      </trkpt>
      <trkpt lat="44.02516" lon="3.70302">
        <ele>360.1</ele>
        <time>2022-04-15T10:12:58Z</time>
      </trkpt>
      <trkpt lat="44.02518" lon="3.70306">
        <ele>359.9</ele>
        <time>2022-04-15T10:12:59Z</time>
      </trkpt>
      <trkpt lat="44.0252" lon="3.7031">
        <ele>359.6</ele>
        <time>2022-04-15T10:13:00Z</time>
      </trkpt>
      <trkpt lat="44.02522" lon="3.70313">
        <ele>359.4</ele>
        <time>2022-04-15T10:13:01Z</time>
      </trkpt>
      <trkpt lat="44.02525" lon="3.70317">
        <ele>359.1</ele>
        <time>2022-04-15T10:13:02Z</time>
      </trkpt>
      <trkpt lat="44.02527" lon="3.7032">
        <ele>358.9</ele>
        <time>2022-04-15T10:13:03Z</time>
      </trkpt>
      <trkpt lat="44.02529" lon="3.70323">
        <ele>358.6</ele>
        <time>2022-04-15T10:13:04Z</time>
      </trkpt>
      <trkpt lat="44.02532" lon="3.70326">
        <ele>358.4</ele>
        <time>2022-04-15T10:13:06Z</time>
      </trkpt>
      <trkpt lat="44.02534" lon="3.70329">
        <ele>358.2</ele>
        <time>2022-04-15T10:13:07Z</time>
      </trkpt>
      <trkpt lat="44.02535" lon="3.70331">
        <ele>358</ele>
        <time>2022-04-15T10:13:08Z</time>
      </trkpt>
      <trkpt lat="44.02537" lon="3.70337">
        <ele>357.6</ele>
        <time>2022-04-15T10:13:10Z</time>
      </trkpt>
      <trkpt lat="44.02538" lon="3.70339">
        <ele>357.4</ele>
        <time>2022-04-15T10:13:11Z</time>
      </trkpt>
      <trkpt lat="44.02539" lon="3.70342">
        <ele>357.2</ele>
        <time>2022-04-15T10:13:13Z</time>
      </trkpt>
      <trkpt lat="44.0254" lon="3.70344">
        <ele>357</ele>
        <time>2022-04-15T10:13:14Z</time>
      </trkpt>
      <trkpt lat="44.02541" lon="3.70347">
        <ele>356.9</ele>
        <time>2022-04-15T10:13:16Z</time>
      </trkpt>
      <trkpt lat="44.02543" lon="3.7035">
        <ele>356.6</ele>
        <time>2022-04-15T10:13:17Z</time>
      </trkpt>
      <trkpt lat="44.02543" lon="3.70351">
        <ele>356.5</ele>
        <time>2022-04-15T10:13:18Z</time>
      </trkpt>
      <trkpt lat="44.02546" lon="3.70354">
        <ele>356.2</ele>
        <time>2022-04-15T10:13:19Z</time>
      </trkpt>
      <trkpt lat="44.02546" lon="3.70354">
        <ele>356.2</ele>
        <time>2022-04-15T10:13:20Z</time>
      </trkpt>
      <trkpt lat="44.0255" lon="3.70358">
        <ele>355.8</ele>
        <time>2022-04-15T10:13:21Z</time>
      </trkpt>
      <trkpt lat="44.02551" lon="3.70359">
        <ele>355.7</ele>
        <time>2022-04-15T10:13:22Z</time>
      </trkpt>
      <trkpt lat="44.02554" lon="3.70362">
        <ele>355.4</ele>
        <time>2022-04-15T10:13:24Z</time>
      </trkpt>
      <trkpt lat="44.02555" lon="3.70363">
        <ele>355.3</ele>
        <time>2022-04-15T10:13:25Z</time>
      </trkpt>
      <trkpt lat="44.02558" lon="3.70366">
        <ele>355</ele>
        <time>2022-04-15T10:13:26Z</time>
      </trkpt>
      <trkpt lat="44.02559" lon="3.70368">
        <ele>354.9</ele>
        <time>2022-04-15T10:13:27Z</time>
      </trkpt>
      <trkpt lat="44.02562" lon="3.7037">
        <ele>354.5</ele>
        <time>2022-04-15T10:13:29Z</time>
      </trkpt>
      <trkpt lat="44.02565" lon="3.70373">
        <ele>354.3</ele>
        <time>2022-04-15T10:13:30Z</time>
      </trkpt>
      <trkpt lat="44.02566" lon="3.70373">
        <ele>354.1</ele>
        <time>2022-04-15T10:13:31Z</time>
      </trkpt>
      <trkpt lat="44.0257" lon="3.70376">
        <ele>353.8</ele>
        <time>2022-04-15T10:13:32Z</time>
      </trkpt>
      <trkpt lat="44.02571" lon="3.70376">
        <ele>353.6</ele>
        <time>2022-04-15T10:13:33Z</time>
      </trkpt>
      <trkpt lat="44.02574" lon="3.70378">
        <ele>353.3</ele>
        <time>2022-04-15T10:13:34Z</time>
      </trkpt>
      <trkpt lat="44.02578" lon="3.70379">
        <ele>352.9</ele>
        <time>2022-04-15T10:13:35Z</time>
      </trkpt>
      <trkpt lat="44.02581" lon="3.70381">
        <ele>352.5</ele>
        <time>2022-04-15T10:13:37Z</time>
      </trkpt>
      <trkpt lat="44.02585" lon="3.70383">
        <ele>352.1</ele>
        <time>2022-04-15T10:13:38Z</time>
      </trkpt>
      <trkpt lat="44.02586" lon="3.70383">
        <ele>352</ele>
        <time>2022-04-15T10:13:39Z</time>
      </trkpt>
      <trkpt lat="44.02589" lon="3.70384">
        <ele>351.7</ele>
        <time>2022-04-15T10:13:40Z</time>
      </trkpt>
      <trkpt lat="44.02593" lon="3.70385">
        <ele>351.3</ele>
        <time>2022-04-15T10:13:41Z</time>
      </trkpt>
      <trkpt lat="44.02594" lon="3.70386">
        <ele>351.1</ele>
        <time>2022-04-15T10:13:42Z</time>
      </trkpt>
      <trkpt lat="44.02597" lon="3.70386">
        <ele>350.9</ele>
        <time>2022-04-15T10:13:44Z</time>
      </trkpt>
      <trkpt lat="44.026" lon="3.70386">
        <ele>350.5</ele>
        <time>2022-04-15T10:13:45Z</time>
      </trkpt>
      <trkpt lat="44.02604" lon="3.70387">
        <ele>350.2</ele>
        <time>2022-04-15T10:13:46Z</time>
      </trkpt>
      <trkpt lat="44.02605" lon="3.70387">
        <ele>350.1</ele>
        <time>2022-04-15T10:13:47Z</time>
      </trkpt>
      <trkpt lat="44.02608" lon="3.70387">
        <ele>349.8</ele>
        <time>2022-04-15T10:13:49Z</time>
      </trkpt>
      <trkpt lat="44.02611" lon="3.70387">
        <ele>349.5</ele>
        <time>2022-04-15T10:13:51Z</time>
      </trkpt>
      <trkpt lat="44.02615" lon="3.70388">
        <ele>349.2</ele>
        <time>2022-04-15T10:13:52Z</time>
      </trkpt>
      <trkpt lat="44.02617" lon="3.7039">
        <ele>348.9</ele>
        <time>2022-04-15T10:13:53Z</time>
      </trkpt>
      <trkpt lat="44.02618" lon="3.7039">
        <ele>348.8</ele>
        <time>2022-04-15T10:13:54Z</time>
      </trkpt>
      <trkpt lat="44.02621" lon="3.70392">
        <ele>348.5</ele>
        <time>2022-04-15T10:13:55Z</time>
      </trkpt>
      <trkpt lat="44.02622" lon="3.70393">
        <ele>348.4</ele>
        <time>2022-04-15T10:13:56Z</time>
      </trkpt>
      <trkpt lat="44.02625" lon="3.70395">
        <ele>348.1</ele>
        <time>2022-04-15T10:13:57Z</time>
      </trkpt>
      <trkpt lat="44.02626" lon="3.70397">
        <ele>347.9</ele>
        <time>2022-04-15T10:13:58Z</time>
      </trkpt>
      <trkpt lat="44.02629" lon="3.70399">
        <ele>347.7</ele>
        <time>2022-04-15T10:13:59Z</time>
      </trkpt>
      <trkpt lat="44.0263" lon="3.70399">
        <ele>347.6</ele>
        <time>2022-04-15T10:14:00Z</time>
      </trkpt>
      <trkpt lat="44.02633" lon="3.70402">
        <ele>347.3</ele>
        <time>2022-04-15T10:14:02Z</time>
      </trkpt>
      <trkpt lat="44.02636" lon="3.70405">
        <ele>347</ele>
        <time>2022-04-15T10:14:03Z</time>
      </trkpt>
      <trkpt lat="44.02639" lon="3.70407">
        <ele>346.7</ele>
        <time>2022-04-15T10:14:04Z</time>
      </trkpt>
      <trkpt lat="44.0264" lon="3.70408">
        <ele>346.6</ele>
        <time>2022-04-15T10:14:05Z</time>
      </trkpt>
      <trkpt lat="44.02642" lon="3.70409">
        <ele>346.3</ele>
        <time>2022-04-15T10:14:06Z</time>
      </trkpt>
      <trkpt lat="44.02644" lon="3.70411">
        <ele>346.1</ele>
        <time>2022-04-15T10:14:08Z</time>
      </trkpt>
      <trkpt lat="44.02646" lon="3.70413">
        <ele>345.8</ele>
        <time>2022-04-15T10:14:09Z</time>
      </trkpt>
      <trkpt lat="44.02651" lon="3.70416">
        <ele>345.4</ele>
        <time>2022-04-15T10:14:11Z</time>
      </trkpt>
      <trkpt lat="44.02654" lon="3.70418">
        <ele>345</ele>
        <time>2022-04-15T10:14:12Z</time>
      </trkpt>
      <trkpt lat="44.02661" lon="3.7042">
        <ele>344.3</ele>
        <time>2022-04-15T10:14:13Z</time>
      </trkpt>
      <trkpt lat="44.02665" lon="3.7042">
        <ele>343.9</ele>
        <time>2022-04-15T10:14:14Z</time>
      </trkpt>
      <trkpt lat="44.0267" lon="3.70421">
        <ele>343.5</ele>
        <time>2022-04-15T10:14:16Z</time>
      </trkpt>
      <trkpt lat="44.02676" lon="3.7042">
        <ele>343.1</ele>
        <time>2022-04-15T10:14:17Z</time>
      </trkpt>
      <trkpt lat="44.02679" lon="3.7042">
        <ele>342.9</ele>
        <time>2022-04-15T10:14:18Z</time>
      </trkpt>
      <trkpt lat="44.02682" lon="3.7042">
        <ele>342.8</ele>
        <time>2022-04-15T10:14:19Z</time>
      </trkpt>
      <trkpt lat="44.02687" lon="3.70419">
        <ele>342.5</ele>
        <time>2022-04-15T10:14:21Z</time>
      </trkpt>
      <trkpt lat="44.0269" lon="3.70417">
        <ele>342.4</ele>
        <time>2022-04-15T10:14:22Z</time>
      </trkpt>
      <trkpt lat="44.02694" lon="3.70415">
        <ele>342.3</ele>
        <time>2022-04-15T10:14:24Z</time>
      </trkpt>
      <trkpt lat="44.02697" lon="3.70413">
        <ele>342.3</ele>
        <time>2022-04-15T10:14:25Z</time>
      </trkpt>
      <trkpt lat="44.02701" lon="3.7041">
        <ele>342.3</ele>
        <time>2022-04-15T10:14:26Z</time>
      </trkpt>
      <trkpt lat="44.02705" lon="3.70407">
        <ele>342.4</ele>
        <time>2022-04-15T10:14:28Z</time>
      </trkpt>
      <trkpt lat="44.02708" lon="3.70405">
        <ele>342.5</ele>
        <time>2022-04-15T10:14:29Z</time>
      </trkpt>
      <trkpt lat="44.0271" lon="3.70404">
        <ele>342.6</ele>
        <time>2022-04-15T10:14:30Z</time>
      </trkpt>
      <trkpt lat="44.02712" lon="3.70401">
        <ele>342.7</ele>
        <time>2022-04-15T10:14:31Z</time>
      </trkpt>
      <trkpt lat="44.02713" lon="3.704">
        <ele>342.8</ele>
        <time>2022-04-15T10:14:32Z</time>
      </trkpt>
      <trkpt lat="44.02715" lon="3.70398">
        <ele>343</ele>
        <time>2022-04-15T10:14:33Z</time>
      </trkpt>
      <trkpt lat="44.02716" lon="3.70396">
        <ele>343.1</ele>
        <time>2022-04-15T10:14:34Z</time>
      </trkpt>
      <trkpt lat="44.02718" lon="3.70393">
        <ele>343.4</ele>
        <time>2022-04-15T10:14:35Z</time>
      </trkpt>
      <trkpt lat="44.02719" lon="3.70393">
        <ele>343.5</ele>
        <time>2022-04-15T10:14:36Z</time>
      </trkpt>
      <trkpt lat="44.0272" lon="3.70388">
        <ele>343.8</ele>
        <time>2022-04-15T10:14:37Z</time>
      </trkpt>
      <trkpt lat="44.02721" lon="3.70387">
        <ele>344</ele>
        <time>2022-04-15T10:14:38Z</time>
      </trkpt>
      <trkpt lat="44.02722" lon="3.70383">
        <ele>344.3</ele>
        <time>2022-04-15T10:14:40Z</time>
      </trkpt>
      <trkpt lat="44.02722" lon="3.70378">
        <ele>344.8</ele>
        <time>2022-04-15T10:14:42Z</time>
      </trkpt>
      <trkpt lat="44.0272" lon="3.70374">
        <ele>345.3</ele>
        <time>2022-04-15T10:14:43Z</time>
      </trkpt>
      <trkpt lat="44.02717" lon="3.70372">
        <ele>345.7</ele>
        <time>2022-04-15T10:14:44Z</time>
      </trkpt>
      <trkpt lat="44.02714" lon="3.70371">
        <ele>346.1</ele>
        <time>2022-04-15T10:14:46Z</time>
      </trkpt>
      <trkpt lat="44.02713" lon="3.7037">
        <ele>346.2</ele>
        <time>2022-04-15T10:14:47Z</time>
      </trkpt>
      <trkpt lat="44.02712" lon="3.7037">
        <ele>346.3</ele>
        <time>2022-04-15T10:14:48Z</time>
      </trkpt>
      <trkpt lat="44.02711" lon="3.7037">
        <ele>346.4</ele>
        <time>2022-04-15T10:14:49Z</time>
      </trkpt>
      <trkpt lat="44.0271" lon="3.7037">
        <ele>346.5</ele>
        <time>2022-04-15T10:14:50Z</time>
      </trkpt>
      <trkpt lat="44.02709" lon="3.7037">
        <ele>346.7</ele>
        <time>2022-04-15T10:14:51Z</time>
      </trkpt>
      <trkpt lat="44.02708" lon="3.70371">
        <ele>346.8</ele>
        <time>2022-04-15T10:14:52Z</time>
      </trkpt>
      <trkpt lat="44.02707" lon="3.70372">
        <ele>346.9</ele>
        <time>2022-04-15T10:14:53Z</time>
      </trkpt>
      <trkpt lat="44.02706" lon="3.70373">
        <ele>347</ele>
        <time>2022-04-15T10:14:54Z</time>
      </trkpt>
      <trkpt lat="44.02705" lon="3.70374">
        <ele>347.2</ele>
        <time>2022-04-15T10:14:55Z</time>
      </trkpt>
      <trkpt lat="44.02704" lon="3.70375">
        <ele>347.3</ele>
        <time>2022-04-15T10:14:56Z</time>
      </trkpt>
      <trkpt lat="44.02702" lon="3.70376">
        <ele>347.5</ele>
        <time>2022-04-15T10:14:57Z</time>
      </trkpt>
      <trkpt lat="44.027" lon="3.70376">
        <ele>347.6</ele>
        <time>2022-04-15T10:14:59Z</time>
      </trkpt>
      <trkpt lat="44.02699" lon="3.70377">
        <ele>347.8</ele>
        <time>2022-04-15T10:15:00Z</time>
      </trkpt>
      <trkpt lat="44.02697" lon="3.70376">
        <ele>347.9</ele>
        <time>2022-04-15T10:15:01Z</time>
      </trkpt>
      <trkpt lat="44.02696" lon="3.70375">
        <ele>348.1</ele>
        <time>2022-04-15T10:15:02Z</time>
      </trkpt>
      <trkpt lat="44.02695" lon="3.70374">
        <ele>348.2</ele>
        <time>2022-04-15T10:15:04Z</time>
      </trkpt>
      <trkpt lat="44.02693" lon="3.70373">
        <ele>348.4</ele>
        <time>2022-04-15T10:15:05Z</time>
      </trkpt>
      <trkpt lat="44.02692" lon="3.70373">
        <ele>348.5</ele>
        <time>2022-04-15T10:15:06Z</time>
      </trkpt>
      <trkpt lat="44.0269" lon="3.70372">
        <ele>348.7</ele>
        <time>2022-04-15T10:15:07Z</time>
      </trkpt>
      <trkpt lat="44.02688" lon="3.70371">
        <ele>349</ele>
        <time>2022-04-15T10:15:09Z</time>
      </trkpt>
      <trkpt lat="44.02687" lon="3.70371">
        <ele>349.1</ele>
        <time>2022-04-15T10:15:10Z</time>
      </trkpt>
      <trkpt lat="44.02684" lon="3.70369">
        <ele>349.4</ele>
        <time>2022-04-15T10:15:11Z</time>
      </trkpt>
      <trkpt lat="44.02684" lon="3.70368">
        <ele>349.5</ele>
        <time>2022-04-15T10:15:12Z</time>
      </trkpt>
      <trkpt lat="44.02681" lon="3.70366">
        <ele>349.8</ele>
        <time>2022-04-15T10:15:14Z</time>
      </trkpt>
      <trkpt lat="44.02678" lon="3.70363">
        <ele>350.3</ele>
        <time>2022-04-15T10:15:15Z</time>
      </trkpt>
      <trkpt lat="44.02675" lon="3.70359">
        <ele>350.8</ele>
        <time>2022-04-15T10:15:16Z</time>
      </trkpt>
      <trkpt lat="44.02672" lon="3.70357">
        <ele>351.1</ele>
        <time>2022-04-15T10:15:17Z</time>
      </trkpt>
      <trkpt lat="44.0267" lon="3.70354">
        <ele>351.6</ele>
        <time>2022-04-15T10:15:18Z</time>
      </trkpt>
      <trkpt lat="44.02667" lon="3.70352">
        <ele>352</ele>
        <time>2022-04-15T10:15:20Z</time>
      </trkpt>
      <trkpt lat="44.02665" lon="3.7035">
        <ele>352.4</ele>
        <time>2022-04-15T10:15:21Z</time>
      </trkpt>
      <trkpt lat="44.02663" lon="3.70348">
        <ele>352.6</ele>
        <time>2022-04-15T10:15:22Z</time>
      </trkpt>
      <trkpt lat="44.02662" lon="3.70347">
        <ele>352.8</ele>
        <time>2022-04-15T10:15:23Z</time>
      </trkpt>
      <trkpt lat="44.02661" lon="3.70345">
        <ele>353.1</ele>
        <time>2022-04-15T10:15:24Z</time>
      </trkpt>
      <trkpt lat="44.0266" lon="3.70344">
        <ele>353.3</ele>
        <time>2022-04-15T10:15:25Z</time>
      </trkpt>
      <trkpt lat="44.02657" lon="3.70342">
        <ele>353.7</ele>
        <time>2022-04-15T10:15:27Z</time>
      </trkpt>
      <trkpt lat="44.02656" lon="3.70341">
        <ele>353.8</ele>
        <time>2022-04-15T10:15:28Z</time>
      </trkpt>
      <trkpt lat="44.02654" lon="3.70338">
        <ele>354.2</ele>
        <time>2022-04-15T10:15:29Z</time>
      </trkpt>
      <trkpt lat="44.02653" lon="3.70337">
        <ele>354.4</ele>
        <time>2022-04-15T10:15:30Z</time>
      </trkpt>
      <trkpt lat="44.02651" lon="3.70334">
        <ele>354.8</ele>
        <time>2022-04-15T10:15:32Z</time>
      </trkpt>
      <trkpt lat="44.0265" lon="3.70333">
        <ele>354.9</ele>
        <time>2022-04-15T10:15:33Z</time>
      </trkpt>
      <trkpt lat="44.02648" lon="3.7033">
        <ele>355.2</ele>
        <time>2022-04-15T10:15:34Z</time>
      </trkpt>
      <trkpt lat="44.02647" lon="3.70329">
        <ele>355.4</ele>
        <time>2022-04-15T10:15:35Z</time>
      </trkpt>
      <trkpt lat="44.02645" lon="3.70326">
        <ele>355.7</ele>
        <time>2022-04-15T10:15:37Z</time>
      </trkpt>
      <trkpt lat="44.02644" lon="3.70325">
        <ele>355.8</ele>
        <time>2022-04-15T10:15:38Z</time>
      </trkpt>
      <trkpt lat="44.02641" lon="3.70321">
        <ele>356.2</ele>
        <time>2022-04-15T10:15:40Z</time>
      </trkpt>
      <trkpt lat="44.0264" lon="3.7032">
        <ele>356.4</ele>
        <time>2022-04-15T10:15:41Z</time>
      </trkpt>
      <trkpt lat="44.02638" lon="3.70316">
        <ele>356.7</ele>
        <time>2022-04-15T10:15:43Z</time>
      </trkpt>
      <trkpt lat="44.02637" lon="3.70316">
        <ele>356.8</ele>
        <time>2022-04-15T10:15:44Z</time>
      </trkpt>
      <trkpt lat="44.02636" lon="3.70314">
        <ele>357</ele>
        <time>2022-04-15T10:15:45Z</time>
      </trkpt>
      <trkpt lat="44.02635" lon="3.70313">
        <ele>357.1</ele>
        <time>2022-04-15T10:15:46Z</time>
      </trkpt>
      <trkpt lat="44.02633" lon="3.70311">
        <ele>357.4</ele>
        <time>2022-04-15T10:15:47Z</time>
      </trkpt>
      <trkpt lat="44.02632" lon="3.70309">
        <ele>357.6</ele>
        <time>2022-04-15T10:15:49Z</time>
      </trkpt>
      <trkpt lat="44.0263" lon="3.70307">
        <ele>357.7</ele>
        <time>2022-04-15T10:15:50Z</time>
      </trkpt>
      <trkpt lat="44.02629" lon="3.70305">
        <ele>358</ele>
        <time>2022-04-15T10:15:52Z</time>
      </trkpt>
      <trkpt lat="44.02627" lon="3.70303">
        <ele>358.2</ele>
        <time>2022-04-15T10:15:53Z</time>
      </trkpt>
      <trkpt lat="44.02626" lon="3.70301">
        <ele>358.4</ele>
        <time>2022-04-15T10:15:54Z</time>
      </trkpt>
      <trkpt lat="44.02625" lon="3.703">
        <ele>358.6</ele>
        <time>2022-04-15T10:15:56Z</time>
      </trkpt>
      <trkpt lat="44.02624" lon="3.70298">
        <ele>358.8</ele>
        <time>2022-04-15T10:15:57Z</time>
      </trkpt>
      <trkpt lat="44.02623" lon="3.70296">
        <ele>358.9</ele>
        <time>2022-04-15T10:15:58Z</time>
      </trkpt>
      <trkpt lat="44.02622" lon="3.70294">
        <ele>359.2</ele>
        <time>2022-04-15T10:16:00Z</time>
      </trkpt>
      <trkpt lat="44.0262" lon="3.7029">
        <ele>359.5</ele>
        <time>2022-04-15T10:16:02Z</time>
      </trkpt>
      <trkpt lat="44.02619" lon="3.70289">
        <ele>359.6</ele>
        <time>2022-04-15T10:16:03Z</time>
      </trkpt>
      <trkpt lat="44.02618" lon="3.70287">
        <ele>359.9</ele>
        <time>2022-04-15T10:16:04Z</time>
      </trkpt>
      <trkpt lat="44.02617" lon="3.70286">
        <ele>360</ele>
        <time>2022-04-15T10:16:05Z</time>
      </trkpt>
      <trkpt lat="44.02616" lon="3.70285">
        <ele>360.1</ele>
        <time>2022-04-15T10:16:06Z</time>
      </trkpt>
      <trkpt lat="44.02616" lon="3.70283">
        <ele>360.2</ele>
        <time>2022-04-15T10:16:07Z</time>
      </trkpt>
      <trkpt lat="44.02614" lon="3.70282">
        <ele>360.4</ele>
        <time>2022-04-15T10:16:08Z</time>
      </trkpt>
      <trkpt lat="44.02613" lon="3.70281">
        <ele>360.5</ele>
        <time>2022-04-15T10:16:09Z</time>
      </trkpt>
      <trkpt lat="44.02613" lon="3.7028">
        <ele>360.6</ele>
        <time>2022-04-15T10:16:10Z</time>
      </trkpt>
      <trkpt lat="44.02612" lon="3.70279">
        <ele>360.7</ele>
        <time>2022-04-15T10:16:11Z</time>
      </trkpt>
      <trkpt lat="44.02611" lon="3.70277">
        <ele>360.9</ele>
        <time>2022-04-15T10:16:13Z</time>
      </trkpt>
      <trkpt lat="44.0261" lon="3.70276">
        <ele>360.9</ele>
        <time>2022-04-15T10:16:14Z</time>
      </trkpt>
      <trkpt lat="44.0261" lon="3.70275">
        <ele>361</ele>
        <time>2022-04-15T10:16:15Z</time>
      </trkpt>
      <trkpt lat="44.02609" lon="3.70274">
        <ele>361.1</ele>
        <time>2022-04-15T10:16:16Z</time>
      </trkpt>
      <trkpt lat="44.02609" lon="3.70271">
        <ele>361.3</ele>
        <time>2022-04-15T10:16:17Z</time>
      </trkpt>
      <trkpt lat="44.02608" lon="3.70268">
        <ele>361.5</ele>
        <time>2022-04-15T10:16:19Z</time>
      </trkpt>
      <trkpt lat="44.02607" lon="3.70264">
        <ele>361.8</ele>
        <time>2022-04-15T10:16:21Z</time>
      </trkpt>
      <trkpt lat="44.02607" lon="3.70262">
        <ele>361.9</ele>
        <time>2022-04-15T10:16:22Z</time>
      </trkpt>
      <trkpt lat="44.02607" lon="3.7026">
        <ele>362</ele>
        <time>2022-04-15T10:16:23Z</time>
      </trkpt>
      <trkpt lat="44.02606" lon="3.70259">
        <ele>362.1</ele>
        <time>2022-04-15T10:16:24Z</time>
      </trkpt>
      <trkpt lat="44.02606" lon="3.70257">
        <ele>362.2</ele>
        <time>2022-04-15T10:16:25Z</time>
      </trkpt>
      <trkpt lat="44.02607" lon="3.70255">
        <ele>362.3</ele>
        <time>2022-04-15T10:16:26Z</time>
      </trkpt>
      <trkpt lat="44.02607" lon="3.70252">
        <ele>362.5</ele>
        <time>2022-04-15T10:16:27Z</time>
      </trkpt>
      <trkpt lat="44.02607" lon="3.70251">
        <ele>362.6</ele>
        <time>2022-04-15T10:16:28Z</time>
      </trkpt>
      <trkpt lat="44.02607" lon="3.7025">
        <ele>362.7</ele>
        <time>2022-04-15T10:16:29Z</time>
      </trkpt>
      <trkpt lat="44.02607" lon="3.70246">
        <ele>362.9</ele>
        <time>2022-04-15T10:16:30Z</time>
      </trkpt>
      <trkpt lat="44.02607" lon="3.70243">
        <ele>363.1</ele>
        <time>2022-04-15T10:16:32Z</time>
      </trkpt>
      <trkpt lat="44.02608" lon="3.70238">
        <ele>363.4</ele>
        <time>2022-04-15T10:16:33Z</time>
      </trkpt>
      <trkpt lat="44.02608" lon="3.70237">
        <ele>363.5</ele>
        <time>2022-04-15T10:16:34Z</time>
      </trkpt>
      <trkpt lat="44.02608" lon="3.70233">
        <ele>363.8</ele>
        <time>2022-04-15T10:16:35Z</time>
      </trkpt>
      <trkpt lat="44.02608" lon="3.70231">
        <ele>363.9</ele>
        <time>2022-04-15T10:16:36Z</time>
      </trkpt>
      <trkpt lat="44.02609" lon="3.70229">
        <ele>364.1</ele>
        <time>2022-04-15T10:16:38Z</time>
      </trkpt>
      <trkpt lat="44.0261" lon="3.70227">
        <ele>364.2</ele>
        <time>2022-04-15T10:16:39Z</time>
      </trkpt>
      <trkpt lat="44.02611" lon="3.70226">
        <ele>364.3</ele>
        <time>2022-04-15T10:16:40Z</time>
      </trkpt>
      <trkpt lat="44.02611" lon="3.70224">
        <ele>364.5</ele>
        <time>2022-04-15T10:16:41Z</time>
      </trkpt>
      <trkpt lat="44.02613" lon="3.70221">
        <ele>364.7</ele>
        <time>2022-04-15T10:16:43Z</time>
      </trkpt>
      <trkpt lat="44.02614" lon="3.70218">
        <ele>365</ele>
        <time>2022-04-15T10:16:44Z</time>
      </trkpt>
      <trkpt lat="44.02614" lon="3.70217">
        <ele>365.1</ele>
        <time>2022-04-15T10:16:45Z</time>
      </trkpt>
      <trkpt lat="44.02616" lon="3.70213">
        <ele>365.5</ele>
        <time>2022-04-15T10:16:46Z</time>
      </trkpt>
      <trkpt lat="44.02617" lon="3.70209">
        <ele>365.8</ele>
        <time>2022-04-15T10:16:48Z</time>
      </trkpt>
      <trkpt lat="44.02618" lon="3.70205">
        <ele>366.2</ele>
        <time>2022-04-15T10:16:49Z</time>
      </trkpt>
      <trkpt lat="44.02621" lon="3.702">
        <ele>366.7</ele>
        <time>2022-04-15T10:16:51Z</time>
      </trkpt>
      <trkpt lat="44.02623" lon="3.70194">
        <ele>367.3</ele>
        <time>2022-04-15T10:16:52Z</time>
      </trkpt>
      <trkpt lat="44.02624" lon="3.7019">
        <ele>367.7</ele>
        <time>2022-04-15T10:16:54Z</time>
      </trkpt>
      <trkpt lat="44.02626" lon="3.70186">
        <ele>368</ele>
        <time>2022-04-15T10:16:55Z</time>
      </trkpt>
      <trkpt lat="44.02627" lon="3.70183">
        <ele>368.4</ele>
        <time>2022-04-15T10:16:56Z</time>
      </trkpt>
      <trkpt lat="44.02627" lon="3.70181">
        <ele>368.5</ele>
        <time>2022-04-15T10:16:57Z</time>
      </trkpt>
      <trkpt lat="44.02628" lon="3.70178">
        <ele>368.8</ele>
        <time>2022-04-15T10:16:58Z</time>
      </trkpt>
      <trkpt lat="44.02629" lon="3.70176">
        <ele>369</ele>
        <time>2022-04-15T10:16:59Z</time>
      </trkpt>
      <trkpt lat="44.02631" lon="3.70173">
        <ele>369.4</ele>
        <time>2022-04-15T10:17:01Z</time>
      </trkpt>
      <trkpt lat="44.02632" lon="3.70172">
        <ele>369.5</ele>
        <time>2022-04-15T10:17:02Z</time>
      </trkpt>
      <trkpt lat="44.02634" lon="3.70169">
        <ele>369.9</ele>
        <time>2022-04-15T10:17:03Z</time>
      </trkpt>
      <trkpt lat="44.02634" lon="3.70168">
        <ele>370</ele>
        <time>2022-04-15T10:17:04Z</time>
      </trkpt>
      <trkpt lat="44.02636" lon="3.70164">
        <ele>370.4</ele>
        <time>2022-04-15T10:17:06Z</time>
      </trkpt>
      <trkpt lat="44.02637" lon="3.70163">
        <ele>370.5</ele>
        <time>2022-04-15T10:17:07Z</time>
      </trkpt>
      <trkpt lat="44.02638" lon="3.70161">
        <ele>370.8</ele>
        <time>2022-04-15T10:17:08Z</time>
      </trkpt>
      <trkpt lat="44.02638" lon="3.70159">
        <ele>370.9</ele>
        <time>2022-04-15T10:17:09Z</time>
      </trkpt>
      <trkpt lat="44.02639" lon="3.70158">
        <ele>371.1</ele>
        <time>2022-04-15T10:17:10Z</time>
      </trkpt>
      <trkpt lat="44.02641" lon="3.70154">
        <ele>371.4</ele>
        <time>2022-04-15T10:17:12Z</time>
      </trkpt>
      <trkpt lat="44.02641" lon="3.70154">
        <ele>371.5</ele>
        <time>2022-04-15T10:17:13Z</time>
      </trkpt>
      <trkpt lat="44.02641" lon="3.70152">
        <ele>371.7</ele>
        <time>2022-04-15T10:17:14Z</time>
      </trkpt>
      <trkpt lat="44.02642" lon="3.7015">
        <ele>371.9</ele>
        <time>2022-04-15T10:17:15Z</time>
      </trkpt>
      <trkpt lat="44.02644" lon="3.70146">
        <ele>372.3</ele>
        <time>2022-04-15T10:17:17Z</time>
      </trkpt>
      <trkpt lat="44.02645" lon="3.70145">
        <ele>372.4</ele>
        <time>2022-04-15T10:17:18Z</time>
      </trkpt>
      <trkpt lat="44.02646" lon="3.70144">
        <ele>372.6</ele>
        <time>2022-04-15T10:17:19Z</time>
      </trkpt>
      <trkpt lat="44.02647" lon="3.70142">
        <ele>372.8</ele>
        <time>2022-04-15T10:17:20Z</time>
      </trkpt>
      <trkpt lat="44.02648" lon="3.70141">
        <ele>372.9</ele>
        <time>2022-04-15T10:17:21Z</time>
      </trkpt>
      <trkpt lat="44.02648" lon="3.70139">
        <ele>373.1</ele>
        <time>2022-04-15T10:17:22Z</time>
      </trkpt>
      <trkpt lat="44.02648" lon="3.70136">
        <ele>373.3</ele>
        <time>2022-04-15T10:17:23Z</time>
      </trkpt>
      <trkpt lat="44.02648" lon="3.70135">
        <ele>373.5</ele>
        <time>2022-04-15T10:17:24Z</time>
      </trkpt>
      <trkpt lat="44.02648" lon="3.70133">
        <ele>373.6</ele>
        <time>2022-04-15T10:17:25Z</time>
      </trkpt>
      <trkpt lat="44.02648" lon="3.70132">
        <ele>373.7</ele>
        <time>2022-04-15T10:17:26Z</time>
      </trkpt>
      <trkpt lat="44.02648" lon="3.7013">
        <ele>373.8</ele>
        <time>2022-04-15T10:17:27Z</time>
      </trkpt>
      <trkpt lat="44.02648" lon="3.70129">
        <ele>374</ele>
        <time>2022-04-15T10:17:28Z</time>
      </trkpt>
      <trkpt lat="44.02648" lon="3.70127">
        <ele>374.1</ele>
        <time>2022-04-15T10:17:29Z</time>
      </trkpt>
      <trkpt lat="44.02647" lon="3.70125">
        <ele>374.3</ele>
        <time>2022-04-15T10:17:31Z</time>
      </trkpt>
      <trkpt lat="44.02647" lon="3.70124">
        <ele>374.4</ele>
        <time>2022-04-15T10:17:32Z</time>
      </trkpt>
      <trkpt lat="44.02647" lon="3.70122">
        <ele>374.5</ele>
        <time>2022-04-15T10:17:33Z</time>
      </trkpt>
      <trkpt lat="44.02647" lon="3.70121">
        <ele>374.6</ele>
        <time>2022-04-15T10:17:35Z</time>
      </trkpt>
      <trkpt lat="44.02647" lon="3.70118">
        <ele>374.8</ele>
        <time>2022-04-15T10:17:36Z</time>
      </trkpt>
      <trkpt lat="44.02647" lon="3.70116">
        <ele>374.9</ele>
        <time>2022-04-15T10:17:37Z</time>
      </trkpt>
      <trkpt lat="44.02647" lon="3.70113">
        <ele>375.1</ele>
        <time>2022-04-15T10:17:38Z</time>
      </trkpt>
      <trkpt lat="44.02646" lon="3.70112">
        <ele>375.2</ele>
        <time>2022-04-15T10:17:39Z</time>
      </trkpt>
      <trkpt lat="44.02646" lon="3.70111">
        <ele>375.3</ele>
        <time>2022-04-15T10:17:40Z</time>
      </trkpt>
      <trkpt lat="44.02645" lon="3.70105">
        <ele>375.6</ele>
        <time>2022-04-15T10:17:42Z</time>
      </trkpt>
      <trkpt lat="44.02645" lon="3.70103">
        <ele>375.8</ele>
        <time>2022-04-15T10:17:44Z</time>
      </trkpt>
      <trkpt lat="44.02645" lon="3.70101">
        <ele>375.9</ele>
        <time>2022-04-15T10:17:45Z</time>
      </trkpt>
      <trkpt lat="44.02645" lon="3.70097">
        <ele>376.1</ele>
        <time>2022-04-15T10:17:46Z</time>
      </trkpt>
      <trkpt lat="44.02645" lon="3.70094">
        <ele>376.3</ele>
        <time>2022-04-15T10:17:48Z</time>
      </trkpt>
      <trkpt lat="44.02644" lon="3.7009">
        <ele>376.4</ele>
        <time>2022-04-15T10:17:49Z</time>
      </trkpt>
      <trkpt lat="44.02644" lon="3.70086">
        <ele>376.6</ele>
        <time>2022-04-15T10:17:50Z</time>
      </trkpt>
      <trkpt lat="44.02644" lon="3.70084">
        <ele>376.7</ele>
        <time>2022-04-15T10:17:51Z</time>
      </trkpt>
      <trkpt lat="44.02643" lon="3.7008">
        <ele>376.8</ele>
        <time>2022-04-15T10:17:52Z</time>
      </trkpt>
      <trkpt lat="44.02643" lon="3.70079">
        <ele>376.9</ele>
        <time>2022-04-15T10:17:53Z</time>
      </trkpt>
      <trkpt lat="44.02642" lon="3.70074">
        <ele>377</ele>
        <time>2022-04-15T10:17:55Z</time>
      </trkpt>
      <trkpt lat="44.02642" lon="3.70072">
        <ele>377.1</ele>
        <time>2022-04-15T10:17:56Z</time>
      </trkpt>
      <trkpt lat="44.02642" lon="3.70068">
        <ele>377.2</ele>
        <time>2022-04-15T10:17:57Z</time>
      </trkpt>
      <trkpt lat="44.02642" lon="3.70066">
        <ele>377.2</ele>
        <time>2022-04-15T10:17:58Z</time>
      </trkpt>
      <trkpt lat="44.02641" lon="3.70062">
        <ele>377.3</ele>
        <time>2022-04-15T10:17:59Z</time>
      </trkpt>
      <trkpt lat="44.02641" lon="3.7006">
        <ele>377.3</ele>
        <time>2022-04-15T10:18:00Z</time>
      </trkpt>
      <trkpt lat="44.0264" lon="3.70056">
        <ele>377.4</ele>
        <time>2022-04-15T10:18:02Z</time>
      </trkpt>
      <trkpt lat="44.02639" lon="3.70051">
        <ele>377.6</ele>
        <time>2022-04-15T10:18:03Z</time>
      </trkpt>
      <trkpt lat="44.02639" lon="3.70046">
        <ele>377.7</ele>
        <time>2022-04-15T10:18:04Z</time>
      </trkpt>
      <trkpt lat="44.02639" lon="3.70044">
        <ele>377.8</ele>
        <time>2022-04-15T10:18:05Z</time>
      </trkpt>
      <trkpt lat="44.02639" lon="3.70039">
        <ele>378.2</ele>
        <time>2022-04-15T10:18:07Z</time>
      </trkpt>
      <trkpt lat="44.0264" lon="3.70034">
        <ele>378.8</ele>
        <time>2022-04-15T10:18:09Z</time>
      </trkpt>
      <trkpt lat="44.02642" lon="3.70029">
        <ele>379.4</ele>
        <time>2022-04-15T10:18:10Z</time>
      </trkpt>
      <trkpt lat="44.02643" lon="3.70022">
        <ele>380</ele>
        <time>2022-04-15T10:18:12Z</time>
      </trkpt>
      <trkpt lat="44.02643" lon="3.7002">
        <ele>380.2</ele>
        <time>2022-04-15T10:18:13Z</time>
      </trkpt>
      <trkpt lat="44.02643" lon="3.70019">
        <ele>380.4</ele>
        <time>2022-04-15T10:18:14Z</time>
      </trkpt>
      <trkpt lat="44.02643" lon="3.70014">
        <ele>380.8</ele>
        <time>2022-04-15T10:18:15Z</time>
      </trkpt>
      <trkpt lat="44.02643" lon="3.70013">
        <ele>381</ele>
        <time>2022-04-15T10:18:16Z</time>
      </trkpt>
      <trkpt lat="44.02643" lon="3.70008">
        <ele>381.5</ele>
        <time>2022-04-15T10:18:18Z</time>
      </trkpt>
      <trkpt lat="44.02643" lon="3.70007">
        <ele>381.6</ele>
        <time>2022-04-15T10:18:19Z</time>
      </trkpt>
      <trkpt lat="44.02642" lon="3.70005">
        <ele>381.8</ele>
        <time>2022-04-15T10:18:20Z</time>
      </trkpt>
      <trkpt lat="44.02642" lon="3.70003">
        <ele>382</ele>
        <time>2022-04-15T10:18:21Z</time>
      </trkpt>
      <trkpt lat="44.02642" lon="3.7">
        <ele>382.4</ele>
        <time>2022-04-15T10:18:22Z</time>
      </trkpt>
      <trkpt lat="44.02641" lon="3.69998">
        <ele>382.6</ele>
        <time>2022-04-15T10:18:23Z</time>
      </trkpt>
      <trkpt lat="44.02641" lon="3.69994">
        <ele>383</ele>
        <time>2022-04-15T10:18:25Z</time>
      </trkpt>
      <trkpt lat="44.02641" lon="3.69993">
        <ele>383.1</ele>
        <time>2022-04-15T10:18:26Z</time>
      </trkpt>
      <trkpt lat="44.02641" lon="3.69991">
        <ele>383.3</ele>
        <time>2022-04-15T10:18:27Z</time>
      </trkpt>
      <trkpt lat="44.02641" lon="3.69989">
        <ele>383.5</ele>
        <time>2022-04-15T10:18:28Z</time>
      </trkpt>
      <trkpt lat="44.02641" lon="3.69987">
        <ele>383.7</ele>
        <time>2022-04-15T10:18:29Z</time>
      </trkpt>
      <trkpt lat="44.02641" lon="3.69985">
        <ele>383.8</ele>
        <time>2022-04-15T10:18:30Z</time>
      </trkpt>
      <trkpt lat="44.02641" lon="3.69984">
        <ele>384</ele>
        <time>2022-04-15T10:18:31Z</time>
      </trkpt>
      <trkpt lat="44.02641" lon="3.69983">
        <ele>384.1</ele>
        <time>2022-04-15T10:18:32Z</time>
      </trkpt>
      <trkpt lat="44.02641" lon="3.69981">
        <ele>384.3</ele>
        <time>2022-04-15T10:18:33Z</time>
      </trkpt>
      <trkpt lat="44.02641" lon="3.69979">
        <ele>384.5</ele>
        <time>2022-04-15T10:18:34Z</time>
      </trkpt>
      <trkpt lat="44.02641" lon="3.69977">
        <ele>384.7</ele>
        <time>2022-04-15T10:18:35Z</time>
      </trkpt>
      <trkpt lat="44.02641" lon="3.69974">
        <ele>384.9</ele>
        <time>2022-04-15T10:18:37Z</time>
      </trkpt>
      <trkpt lat="44.02641" lon="3.69972">
        <ele>385.2</ele>
        <time>2022-04-15T10:18:38Z</time>
      </trkpt>
      <trkpt lat="44.02642" lon="3.69969">
        <ele>385.5</ele>
        <time>2022-04-15T10:18:39Z</time>
      </trkpt>
      <trkpt lat="44.02642" lon="3.69966">
        <ele>385.8</ele>
        <time>2022-04-15T10:18:41Z</time>
      </trkpt>
      <trkpt lat="44.02642" lon="3.69963">
        <ele>386.2</ele>
        <time>2022-04-15T10:18:43Z</time>
      </trkpt>
      <trkpt lat="44.02642" lon="3.6996">
        <ele>386.4</ele>
        <time>2022-04-15T10:18:44Z</time>
      </trkpt>
      <trkpt lat="44.02643" lon="3.69959">
        <ele>386.6</ele>
        <time>2022-04-15T10:18:45Z</time>
      </trkpt>
      <trkpt lat="44.02644" lon="3.69957">
        <ele>386.8</ele>
        <time>2022-04-15T10:18:46Z</time>
      </trkpt>
      <trkpt lat="44.02645" lon="3.69955">
        <ele>387.1</ele>
        <time>2022-04-15T10:18:48Z</time>
      </trkpt>
      <trkpt lat="44.02646" lon="3.69953">
        <ele>387.3</ele>
        <time>2022-04-15T10:18:49Z</time>
      </trkpt>
      <trkpt lat="44.02647" lon="3.69951">
        <ele>387.6</ele>
        <time>2022-04-15T10:18:50Z</time>
      </trkpt>
      <trkpt lat="44.02648" lon="3.69948">
        <ele>387.8</ele>
        <time>2022-04-15T10:18:51Z</time>
      </trkpt>
      <trkpt lat="44.02648" lon="3.69945">
        <ele>388.2</ele>
        <time>2022-04-15T10:18:53Z</time>
      </trkpt>
      <trkpt lat="44.02649" lon="3.69943">
        <ele>388.4</ele>
        <time>2022-04-15T10:18:54Z</time>
      </trkpt>
      <trkpt lat="44.02649" lon="3.69941">
        <ele>388.5</ele>
        <time>2022-04-15T10:18:55Z</time>
      </trkpt>
      <trkpt lat="44.02651" lon="3.69938">
        <ele>388.9</ele>
        <time>2022-04-15T10:18:56Z</time>
      </trkpt>
      <trkpt lat="44.02651" lon="3.69936">
        <ele>389.1</ele>
        <time>2022-04-15T10:18:58Z</time>
      </trkpt>
      <trkpt lat="44.02652" lon="3.69935">
        <ele>389.3</ele>
        <time>2022-04-15T10:18:59Z</time>
      </trkpt>
      <trkpt lat="44.02653" lon="3.69933">
        <ele>389.4</ele>
        <time>2022-04-15T10:19:00Z</time>
      </trkpt>
      <trkpt lat="44.02654" lon="3.69932">
        <ele>389.6</ele>
        <time>2022-04-15T10:19:01Z</time>
      </trkpt>
      <trkpt lat="44.02655" lon="3.69931">
        <ele>389.7</ele>
        <time>2022-04-15T10:19:02Z</time>
      </trkpt>
      <trkpt lat="44.02657" lon="3.69928">
        <ele>390</ele>
        <time>2022-04-15T10:19:04Z</time>
      </trkpt>
      <trkpt lat="44.02658" lon="3.69927">
        <ele>390.1</ele>
        <time>2022-04-15T10:19:05Z</time>
      </trkpt>
      <trkpt lat="44.02659" lon="3.69925">
        <ele>390.3</ele>
        <time>2022-04-15T10:19:06Z</time>
      </trkpt>
      <trkpt lat="44.0266" lon="3.69924">
        <ele>390.4</ele>
        <time>2022-04-15T10:19:07Z</time>
      </trkpt>
      <trkpt lat="44.02662" lon="3.69922">
        <ele>390.7</ele>
        <time>2022-04-15T10:19:09Z</time>
      </trkpt>
      <trkpt lat="44.02663" lon="3.69921">
        <ele>390.9</ele>
        <time>2022-04-15T10:19:10Z</time>
      </trkpt>
      <trkpt lat="44.02665" lon="3.6992">
        <ele>391</ele>
        <time>2022-04-15T10:19:11Z</time>
      </trkpt>
      <trkpt lat="44.02666" lon="3.69919">
        <ele>391.2</ele>
        <time>2022-04-15T10:19:12Z</time>
      </trkpt>
      <trkpt lat="44.02668" lon="3.69919">
        <ele>391.4</ele>
        <time>2022-04-15T10:19:13Z</time>
      </trkpt>
      <trkpt lat="44.02671" lon="3.69917">
        <ele>391.7</ele>
        <time>2022-04-15T10:19:14Z</time>
      </trkpt>
      <trkpt lat="44.02672" lon="3.69917">
        <ele>391.9</ele>
        <time>2022-04-15T10:19:15Z</time>
      </trkpt>
      <trkpt lat="44.02675" lon="3.69917">
        <ele>392.2</ele>
        <time>2022-04-15T10:19:17Z</time>
      </trkpt>
      <trkpt lat="44.02677" lon="3.69917">
        <ele>392.4</ele>
        <time>2022-04-15T10:19:18Z</time>
      </trkpt>
      <trkpt lat="44.02678" lon="3.69918">
        <ele>392.6</ele>
        <time>2022-04-15T10:19:19Z</time>
      </trkpt>
      <trkpt lat="44.0268" lon="3.69921">
        <ele>393</ele>
        <time>2022-04-15T10:19:20Z</time>
      </trkpt>
      <trkpt lat="44.02681" lon="3.69922">
        <ele>393.1</ele>
        <time>2022-04-15T10:19:21Z</time>
      </trkpt>
      <trkpt lat="44.02682" lon="3.69925">
        <ele>393.5</ele>
        <time>2022-04-15T10:19:23Z</time>
      </trkpt>
      <trkpt lat="44.02683" lon="3.69926">
        <ele>393.6</ele>
        <time>2022-04-15T10:19:24Z</time>
      </trkpt>
      <trkpt lat="44.02686" lon="3.69929">
        <ele>394.1</ele>
        <time>2022-04-15T10:19:26Z</time>
      </trkpt>
      <trkpt lat="44.02687" lon="3.6993">
        <ele>394.3</ele>
        <time>2022-04-15T10:19:27Z</time>
      </trkpt>
      <trkpt lat="44.02688" lon="3.69931">
        <ele>394.6</ele>
        <time>2022-04-15T10:19:28Z</time>
      </trkpt>
      <trkpt lat="44.0269" lon="3.69932">
        <ele>394.9</ele>
        <time>2022-04-15T10:19:30Z</time>
      </trkpt>
      <trkpt lat="44.02693" lon="3.69935">
        <ele>395.4</ele>
        <time>2022-04-15T10:19:31Z</time>
      </trkpt>
      <trkpt lat="44.02694" lon="3.69935">
        <ele>395.5</ele>
        <time>2022-04-15T10:19:32Z</time>
      </trkpt>
    </trkseg>
  </trk>
</gpx>